# Wetter Temperatur Luftdruck Luftfeuchtigkeit Sichtweite Windgeschwindigkeit Windrichtung Zeit
1 -273 0 0 0 0 0 19:41 17.10.2019
2 Clouds 30 1013 70 8000 3.6 340 19:20 17.10.2019
3 Clouds 30 1013 70 8000 3.6 340 19:20 17.10.2019
4 Clouds 30 1013 70 8000 3.6 340 19:20 17.10.2019
5 Clear 31 1013 59 10000 4.1 340 18:59 17.10.2019
6 Clear 31 1013 59 10000 4.1 340 18:38 17.10.2019
7 Clear 31 1013 59 10000 4.1 340 18:20 17.10.2019
8 Clear 32 1012 52 10000 4.1 350 17:43 17.10.2019
9 Clear 32 1012 52 10000 4.1 350 17:24 17.10.2019
10 Clear 33 1012 43 10000 5.1 340 16:58 17.10.2019
11 Clear 33 1012 43 10000 5.1 340 16:40 17.10.2019
12 Clear 33 1012 43 10000 5.1 340 16:40 17.10.2019
13 Clear 33 1012 43 10000 5.1 340 16:18 17.10.2019
14 Clear 35 1012 38 10000 5.7 320 15:56 17.10.2019
15 Clear 35 1012 38 10000 5.7 320 15:38 17.10.2019
16 Clear 35 1012 38 10000 5.7 320 15:20 17.10.2019
17 Clear 36 1012 34 10000 5.1 330 14:56 17.10.2019
18 Clear 36 1012 34 10000 5.1 330 14:37 17.10.2019
19 Clear 36 1012 34 10000 5.1 330 14:19 17.10.2019
20 Clouds 36 1012 34 10000 6.2 340 13:39 17.10.2019
21 Clouds 36 1012 34 10000 6.2 340 13:39 17.10.2019
22 Clouds 36 1012 34 10000 6.2 340 13:20 17.10.2019
23 Clear 37 1012 34 10000 5.1 330 12:57 17.10.2019
24 Clear 37 1012 34 10000 5.1 330 12:37 17.10.2019
25 Clear 37 1012 34 10000 5.1 330 12:37 17.10.2019
26 Clear 37 1012 34 10000 5.1 330 12:18 17.10.2019
27 Clear 37 1012 34 10000 5.1 330 12:18 17.10.2019
28 Clear 37 1013 22 10000 1 0 11:42 17.10.2019
29 Clear 37 1013 22 10000 1 0 11:42 17.10.2019
30 Clear 37 1013 22 10000 1 0 11:22 17.10.2019
31 Clear 36 1014 28 10000 2.1 0 10:59 17.10.2019
32 Clear 36 1014 28 10000 2.1 0 10:41 17.10.2019
33 Clear 36 1014 28 10000 2.1 0 10:19 17.10.2019
34 Clear 34 1015 38 10000 2.1 240 09:56 17.10.2019
35 Clear 34 1015 38 10000 2.1 240 09:37 17.10.2019
36 Clear 34 1015 38 10000 2.1 240 09:19 17.10.2019
37 Clear 32 1015 41 10000 1.5 0 08:48 17.10.2019
38 Clear 32 1015 41 10000 1.5 0 08:27 17.10.2019
39 Haze 29 1015 79 5000 2.1 0 07:59 17.10.2019
40 Haze 29 1015 79 5000 2.1 0 07:41 17.10.2019
41 Haze 29 1015 79 5000 2.1 0 07:20 17.10.2019
42 Haze 29 1015 79 5000 2.1 0 07:20 17.10.2019
43 Clouds 27 1015 74 6000 3.1 180 06:42 17.10.2019
44 Clouds 27 1015 74 6000 3.1 180 06:42 17.10.2019
45 Clouds 27 1015 74 6000 3.1 180 06:23 17.10.2019
46 Clouds 25 1014 74 6000 3.1 180 05:58 17.10.2019
47 Clouds 25 1014 74 6000 3.1 180 05:35 17.10.2019
48 Clear 24 1013 78 8000 1.5 80 04:57 17.10.2019
49 Clear 24 1013 74 8000 2.1 170 03:58 17.10.2019
50 Clear 24 1013 74 8000 2.1 170 03:38 17.10.2019
51 Clear 25 1013 78 10000 2.1 80 01:55 17.10.2019
52 Clear 25 1013 74 10000 2.1 80 00:41 17.10.2019
53 Clear 25 1013 74 10000 2.1 80 00:20 17.10.2019
54 Clear 27 1013 74 10000 2.1 80 23:42 16.10.2019
55 Clear 27 1013 74 10000 2.1 80 23:22 16.10.2019
56 Clear 27 1013 70 10000 2.6 100 22:58 16.10.2019
57 Clear 27 1013 70 10000 2.6 100 22:38 16.10.2019
58 Clear 27 1013 70 10000 2.6 100 22:20 16.10.2019
59 Clear 28 1014 70 10000 3.1 90 21:58 16.10.2019
60 Clear 28 1014 70 10000 3.1 90 21:58 16.10.2019
61 Clear 28 1014 70 10000 3.1 90 21:38 16.10.2019
62 Clear 28 1014 70 10000 3.1 90 21:20 16.10.2019
63 Clear 28 1014 66 10000 2.6 70 20:59 16.10.2019
64 Clear 28 1014 66 10000 2.6 70 20:59 16.10.2019
65 Clear 28 1014 66 10000 2.6 70 20:41 16.10.2019
66 Clear 28 1014 66 10000 2.6 70 20:22 16.10.2019
67 Clear 29 1013 62 10000 3.6 50 19:59 16.10.2019
68 Clear 29 1013 62 10000 3.6 50 19:40 16.10.2019
69 Clear 29 1013 62 10000 3.6 50 19:21 16.10.2019
70 -273 0 0 0 0 0 18:57 16.10.2019
71 Clear 30 1013 55 10000 3.1 40 18:56 16.10.2019
72 Clear 30 1013 55 10000 3.1 40 18:37 16.10.2019
73 Clear 30 1013 55 10000 3.1 40 18:18 16.10.2019
74 Clear 31 1012 55 10000 3.1 330 17:55 16.10.2019
75 Clear 31 1012 55 10000 3.1 330 17:36 16.10.2019
76 Clear 31 1012 55 10000 3.1 330 17:18 16.10.2019
77 Clear 33 1012 49 10000 4.6 340 16:43 16.10.2019
78 Clear 33 1012 49 10000 4.6 340 16:23 16.10.2019
79 Clear 34 1011 44 10000 5.1 350 15:59 16.10.2019
80 Clear 34 1011 44 10000 5.1 350 15:39 16.10.2019
81 Clear 34 1011 44 10000 5.1 350 15:39 16.10.2019
82 Clear 36 1011 39 10000 5.7 350 15:19 16.10.2019
83 Clear 36 1011 39 10000 5.7 350 14:58 16.10.2019
84 Clear 36 1011 39 10000 5.7 350 14:39 16.10.2019
85 Clear 36 1011 39 10000 5.7 350 14:20 16.10.2019
86 Clouds 36 1011 28 10000 7.2 350 13:57 16.10.2019
87 Clouds 36 1011 28 10000 7.2 350 13:39 16.10.2019
88 Clouds 36 1011 28 10000 7.2 350 13:21 16.10.2019
89 Clouds 37 1012 37 10000 5.7 330 12:42 16.10.2019
90 Clouds 37 1012 37 10000 5.7 330 12:42 16.10.2019
91 Clouds 37 1012 37 10000 5.7 330 12:20 16.10.2019
92 Clear 37 1012 25 10000 3.1 350 11:55 16.10.2019
93 Clear 37 1012 25 10000 3.1 350 11:36 16.10.2019
94 Clear 37 1012 25 10000 3.1 350 11:18 16.10.2019
95 Clear 38 1013 19 10000 1.5 210 10:36 16.10.2019
96 Clear 38 1013 19 10000 1.5 210 10:36 16.10.2019
97 Clear 38 1013 19 10000 1.5 210 10:18 16.10.2019
98 Clear 36 1014 26 10000 3.6 180 09:40 16.10.2019
99 Clear 36 1014 26 10000 3.6 180 09:22 16.10.2019
100 Clear 33 1015 38 10000 4.1 190 08:56 16.10.2019
101 Clear 33 1015 38 10000 4.1 190 08:56 16.10.2019
102 Clear 33 1015 38 10000 4.1 190 08:38 16.10.2019
103 Clear 33 1015 38 10000 4.1 190 08:19 16.10.2019
104 Clear 31 1015 46 10000 2.6 180 07:41 16.10.2019
105 Clear 31 1015 46 10000 2.6 180 07:23 16.10.2019
106 Clear 27 1015 74 10000 1.5 160 06:48 16.10.2019
107 Clear 27 1015 74 10000 1.5 160 06:29 16.10.2019
108 Clear 25 1013 83 10000 2.6 110 04:31 16.10.2019
109 Clear 25 1013 78 10000 2.6 100 02:51 16.10.2019
110 Clear 25 1013 78 10000 3.6 110 01:20 16.10.2019
111 Clear 26 1012 70 10000 2.1 50 00:59 16.10.2019
112 Clear 26 1012 70 10000 2.1 50 00:40 16.10.2019
113 Clear 26 1013 66 10000 1.5 40 23:58 15.10.2019
114 Clear 26 1013 66 10000 1.5 40 23:38 15.10.2019
115 Clear 26 1013 66 10000 1.5 40 23:19 15.10.2019
116 Clear 28 1013 62 10000 3.1 10 22:55 15.10.2019
117 Clear 28 1013 62 10000 3.1 10 22:55 15.10.2019
118 Clear 28 1013 62 10000 3.1 10 22:37 15.10.2019
119 Clear 28 1013 62 10000 3.1 10 22:18 15.10.2019
120 Clear 27 1013 66 10000 2.1 90 21:54 15.10.2019
121 Clear 27 1013 66 10000 2.1 90 21:36 15.10.2019
122 Clear 27 1013 66 10000 2.1 90 21:18 15.10.2019
123 Clear 28 1013 62 10000 2.6 90 20:54 15.10.2019
124 Clear 28 1013 62 10000 2.6 90 20:36 15.10.2019
125 Clear 28 1013 62 10000 2.6 90 20:18 15.10.2019
126 Clear 29 1013 58 10000 2.1 90 19:55 15.10.2019
127 Clear 29 1013 58 10000 2.1 90 19:36 15.10.2019
128 Clear 29 1013 58 10000 2.1 90 19:18 15.10.2019
129 Clear 30 1013 62 10000 2.6 60 18:41 15.10.2019
130 Clear 30 1013 62 10000 2.6 60 18:23 15.10.2019
131 Clear 31 1012 55 10000 3.1 30 17:54 15.10.2019
132 Clear 31 1012 55 10000 3.1 30 17:36 15.10.2019
133 Clear 31 1012 55 10000 3.1 30 17:18 15.10.2019
134 Clear 32 1012 55 10000 4.6 340 16:42 15.10.2019
135 Clear 32 1012 55 10000 4.6 340 16:22 15.10.2019
136 Clear 33 1012 46 10000 6.2 350 15:57 15.10.2019
137 Clear 33 1012 46 10000 6.2 350 15:57 15.10.2019
138 Clear 33 1012 46 10000 6.2 350 15:39 15.10.2019
139 Clear 33 1012 46 10000 6.2 350 15:19 15.10.2019
140 Clear 34 1012 44 10000 7.2 350 14:55 15.10.2019
141 Clear 34 1012 44 10000 7.2 350 14:37 15.10.2019
142 Clear 34 1012 44 10000 7.2 350 14:18 15.10.2019
143 Clear 35 1012 34 10000 6.7 360 13:43 15.10.2019
144 Clear 35 1012 34 10000 6.7 360 13:20 15.10.2019
145 Clear 35 1012 34 10000 6.7 360 13:20 15.10.2019
146 Clear 36 1013 36 10000 4.1 340 12:56 15.10.2019
147 Clear 36 1013 36 10000 4.1 340 12:56 15.10.2019
148 Clear 36 1013 36 10000 4.1 340 12:38 15.10.2019
149 Clear 36 1013 36 10000 4.1 340 12:19 15.10.2019
150 Clear 36 1013 34 10000 5.1 320 11:42 15.10.2019
151 Clear 36 1013 34 10000 5.1 320 11:42 15.10.2019
152 Clear 36 1013 34 10000 5.1 320 11:20 15.10.2019
153 Clear 35 1014 34 10000 1.5 0 10:55 15.10.2019
154 Clear 35 1014 34 10000 1.5 0 10:37 15.10.2019
155 Clear 35 1014 34 10000 1.5 0 10:18 15.10.2019
156 Clear 34 1015 41 10000 3.1 220 09:40 15.10.2019
157 Clear 34 1015 41 10000 3.1 220 09:40 15.10.2019
158 Clear 34 1015 41 10000 3.1 220 09:21 15.10.2019
159 Clear 33 1015 43 10000 2.6 220 08:58 15.10.2019
160 Clear 33 1015 43 10000 2.6 220 08:58 15.10.2019
161 Clear 33 1015 43 10000 2.6 220 08:58 15.10.2019
162 Clear 32 1015 52 10000 4.1 220 08:40 15.10.2019
163 Clear 30 1015 55 10000 5.1 190 08:20 15.10.2019
164 Clear 30 1015 55 10000 5.1 190 08:19 15.10.2019
165 Clear 30 1015 55 10000 5.1 190 08:19 15.10.2019
166 Clear 30 1015 55 10000 5.1 190 07:43 15.10.2019
167 Clear 30 1015 55 10000 5.1 190 07:22 15.10.2019
168 Clear 28 1015 58 10000 3.1 220 06:56 15.10.2019
169 Clear 28 1015 58 10000 3.1 220 06:37 15.10.2019
170 Clear 26 1014 65 10000 3.6 180 05:56 15.10.2019
171 Clear 26 1014 65 10000 3.6 180 05:36 15.10.2019
172 Clear 27 1014 74 10000 3.1 170 04:48 15.10.2019
173 Mist 26 1013 83 8000 5.1 170 03:59 15.10.2019
174 Mist 26 1013 83 8000 5.1 170 03:34 15.10.2019
175 Mist 26 1013 83 8000 5.1 170 03:34 15.10.2019
176 Clear 25 1013 79 10000 2.1 70 01:51 15.10.2019
177 Clear 25 1013 79 10000 2.1 70 01:26 15.10.2019
178 Clear 26 1013 79 10000 2.1 0 00:59 15.10.2019
179 Clear 26 1013 79 10000 2.1 0 00:24 15.10.2019
180 Clear 27 1013 74 10000 3.6 100 23:57 14.10.2019
181 Clear 27 1013 74 10000 3.6 100 23:37 14.10.2019
182 Clear 27 1013 74 10000 3.6 100 23:18 14.10.2019
183 Clear 27 1013 70 10000 2.6 100 22:39 14.10.2019
184 Clear 27 1013 70 10000 2.6 100 22:20 14.10.2019
185 Clear 28 1014 66 10000 2.6 80 21:57 14.10.2019
186 Clear 28 1014 66 10000 2.6 80 21:39 14.10.2019
187 Clear 28 1014 66 10000 2.6 80 21:20 14.10.2019
188 Clear 29 1014 62 10000 2.6 50 20:57 14.10.2019
189 Clear 29 1014 62 10000 2.6 50 20:38 14.10.2019
190 Clear 29 1014 62 10000 2.6 50 20:19 14.10.2019
191 Clear 30 1013 62 10000 2.1 20 19:44 14.10.2019
192 Clear 30 1013 62 10000 2.1 20 19:25 14.10.2019
193 Clear 31 1013 59 10000 2.1 30 18:59 14.10.2019
194 Clear 31 1013 59 10000 2.1 30 18:40 14.10.2019
195 Clear 31 1013 59 10000 2.1 30 18:20 14.10.2019
196 Clear 31 1013 52 10000 3.1 20 17:59 14.10.2019
197 Clear 31 1013 52 10000 3.1 20 17:40 14.10.2019
198 Clear 31 1013 52 10000 3.1 20 17:22 14.10.2019
199 Clear 32 1012 43 10000 4.6 340 16:44 14.10.2019
200 Clear 32 1012 43 10000 4.6 340 16:22 14.10.2019
201 Clear 33 1012 41 10000 5.7 350 15:57 14.10.2019
202 Clear 33 1012 41 10000 5.7 350 15:38 14.10.2019
203 Clear 33 1012 41 10000 5.7 350 15:20 14.10.2019
204 Clear 34 1012 34 10000 6.7 340 14:43 14.10.2019
205 Clear 34 1012 34 10000 6.7 340 14:24 14.10.2019
206 Clear 35 1013 34 10000 6.2 340 13:57 14.10.2019
207 Clear 35 1013 34 10000 6.2 340 13:38 14.10.2019
208 Clear 35 1013 34 10000 6.2 340 13:19 14.10.2019
209 Clear 36 1013 34 10000 5.1 310 12:41 14.10.2019
210 Clear 36 1013 34 10000 5.1 310 12:19 14.10.2019
211 Clear 36 1014 37 10000 2.6 0 11:47 14.10.2019
212 Clear 36 1014 37 10000 2.6 0 11:27 14.10.2019
213 Clear 35 1015 34 10000 2.1 0 10:59 14.10.2019
214 Clear 35 1015 34 10000 2.1 0 10:40 14.10.2019
215 Clear 35 1015 34 10000 2.1 0 10:21 14.10.2019
216 Clear 34 1016 41 10000 2.6 180 09:57 14.10.2019
217 Clear 34 1016 41 10000 2.6 180 09:38 14.10.2019
218 Clear 35 1016 41 10000 2.6 180 09:19 14.10.2019
219 Clear 34 1016 43 10000 3.1 190 08:45 14.10.2019
220 Clear 34 1016 43 10000 3.1 190 08:22 14.10.2019
221 Clear 30 1016 48 10000 3.1 190 07:43 14.10.2019
222 Clear 30 1016 48 10000 3.1 190 07:19 14.10.2019
223 Clear 29 1015 51 10000 2.6 180 06:53 14.10.2019
224 Clear 29 1015 51 10000 2.6 180 06:26 14.10.2019
225 Clear 26 1014 61 10000 2.1 170 05:49 14.10.2019
226 Clear 26 1013 65 10000 2.6 160 04:49 14.10.2019
227 Clear 27 1013 62 10000 3.1 110 03:28 14.10.2019
228 Clear 27 1013 62 10000 4.1 110 02:56 14.10.2019
229 Clear 28 1013 58 10000 3.6 100 01:25 14.10.2019
230 Clear 28 1013 55 10000 3.1 100 00:59 14.10.2019
231 Clear 28 1013 55 10000 3.1 100 00:21 14.10.2019
232 Clear 28 1013 55 10000 3.1 100 00:21 14.10.2019
233 Clear 29 1013 55 10000 4.6 110 23:45 13.10.2019
234 Clear 29 1013 55 10000 4.6 110 23:21 13.10.2019
235 Clear 30 1013 48 10000 5.7 110 22:58 13.10.2019
236 Clear 30 1013 48 10000 5.7 110 22:58 13.10.2019
237 Clear 30 1013 48 10000 5.7 110 22:40 13.10.2019
238 Clear 30 1013 48 10000 5.7 110 22:21 13.10.2019
239 Clear 30 1013 49 10000 4.1 110 21:58 13.10.2019
240 Clear 30 1013 49 10000 4.1 110 21:38 13.10.2019
241 Clear 30 1013 49 10000 4.1 110 21:19 13.10.2019
242 Clear 31 1013 46 10000 4.1 110 20:58 13.10.2019
243 Clear 31 1013 46 10000 4.1 110 20:39 13.10.2019
244 Clear 31 1013 46 10000 4.1 110 20:20 13.10.2019
245 Clear 32 1013 43 10000 4.1 80 19:58 13.10.2019
246 Clear 32 1013 43 10000 4.1 80 19:39 13.10.2019
247 Clear 32 1013 43 10000 4.1 80 19:21 13.10.2019
248 Clear 33 1012 52 10000 4.1 50 18:57 13.10.2019
249 Clear 33 1012 52 10000 4.1 50 18:57 13.10.2019
250 Clear 33 1012 52 10000 4.1 50 18:37 13.10.2019
251 Clear 33 1012 52 10000 4.1 50 18:19 13.10.2019
252 Clear 33 1012 52 10000 4.1 50 18:19 13.10.2019
253 Clear 33 1011 46 10000 4.1 40 17:57 13.10.2019
254 Clear 33 1011 46 10000 4.1 40 17:38 13.10.2019
255 Clear 33 1011 46 10000 4.1 40 17:38 13.10.2019
256 Clear 33 1011 46 10000 4.1 40 17:20 13.10.2019
257 Dust 34 1011 41 10000 3.6 120 16:41 13.10.2019
258 Dust 34 1011 41 10000 3.6 120 16:19 13.10.2019
259 Clouds 35 1010 52 10000 6.2 40 15:57 13.10.2019
260 Clouds 35 1010 52 10000 6.2 40 15:38 13.10.2019
261 Clouds 35 1010 52 10000 6.2 40 15:19 13.10.2019
262 Clouds 36 1010 47 10000 7.7 350 14:57 13.10.2019
263 Clouds 36 1010 47 10000 7.7 350 14:56 13.10.2019
264 Clouds 36 1010 47 10000 7.7 350 14:38 13.10.2019
265 Clouds 36 1010 47 10000 7.7 350 14:18 13.10.2019
266 Clouds 37 1009 27 10000 5.1 320 13:41 13.10.2019
267 Clouds 38 1009 27 10000 5.1 320 13:22 13.10.2019
268 Clear 38 1010 22 10000 1.5 0 12:59 13.10.2019
269 Clear 38 1010 22 10000 1.5 0 12:39 13.10.2019
270 Clear 38 1010 22 10000 1.5 0 12:20 13.10.2019
271 Clear 38 1011 25 10000 1.5 0 11:58 13.10.2019
272 Clear 38 1011 25 10000 1.5 0 11:39 13.10.2019
273 Clear 38 1011 25 10000 1.5 0 11:20 13.10.2019
274 Clear 37 1011 29 10000 2.6 150 10:43 13.10.2019
275 Clear 37 1011 29 10000 2.6 150 10:24 13.10.2019
276 Clear 35 1012 39 10000 3.1 180 09:59 13.10.2019
277 Clear 35 1012 39 10000 3.1 180 09:59 13.10.2019
278 Clear 35 1012 39 10000 3.1 180 09:39 13.10.2019
279 Clear 35 1012 39 10000 3.1 180 09:20 13.10.2019
280 Clear 35 1012 39 10000 3.1 180 09:20 13.10.2019
281 Clear 34 1013 46 10000 2.1 160 08:43 13.10.2019
282 Clear 34 1013 46 10000 2.1 160 08:23 13.10.2019
283 Clear 32 1013 55 10000 3.6 150 07:51 13.10.2019
284 Clear 32 1013 55 10000 3.6 150 07:32 13.10.2019
285 Clear 28 1012 62 10000 5.1 120 06:49 13.10.2019
286 Clear 26 1011 62 10000 3.6 120 05:59 13.10.2019
287 Clear 26 1011 58 10000 3.1 140 04:59 13.10.2019
288 Clear 26 1011 58 10000 3.1 140 04:33 13.10.2019
289 Clear 27 1009 45 10000 3.1 100 02:50 13.10.2019
290 Clear 27 1009 45 10000 3.1 100 02:25 13.10.2019
291 Clear 27 1009 45 10000 2.6 70 01:34 13.10.2019
292 Clear 28 1009 43 10000 1.5 80 00:53 13.10.2019
293 Clear 28 1009 43 10000 1.5 80 00:23 13.10.2019
294 Clear 28 1009 43 10000 3.1 110 23:59 12.10.2019
295 Clear 28 1009 43 10000 3.1 110 23:40 12.10.2019
296 Clear 28 1009 43 10000 3.1 110 23:22 12.10.2019
297 Clear 29 1009 40 10000 2.6 100 22:58 12.10.2019
298 Clear 29 1009 40 10000 2.6 100 22:39 12.10.2019
299 Clear 29 1009 40 10000 2.6 100 22:21 12.10.2019
300 Clear 30 1009 46 10000 3.6 80 21:56 12.10.2019
301 Clear 30 1009 46 10000 3.6 80 21:37 12.10.2019
302 Clear 30 1009 46 10000 3.6 80 21:19 12.10.2019
303 Clear 31 1010 41 10000 3.1 60 20:44 12.10.2019
304 Clear 31 1010 41 10000 3.1 60 20:26 12.10.2019
305 Clear 32 1009 36 10000 3.6 40 19:42 12.10.2019
306 Clear 32 1009 36 10000 3.6 40 19:23 12.10.2019
307 Clear 32 1009 41 10000 4.1 30 18:59 12.10.2019
308 Clear 32 1009 41 10000 4.1 30 18:41 12.10.2019
309 Clear 32 1009 41 10000 4.1 30 18:41 12.10.2019
310 Clear 32 1009 41 10000 4.1 30 18:23 12.10.2019
311 Clear 33 1008 38 10000 4.6 20 17:45 12.10.2019
312 Clear 33 1008 38 10000 4.6 20 17:21 12.10.2019
313 Clear 34 1008 46 10000 4.1 30 16:57 12.10.2019
314 Clear 34 1008 46 10000 4.1 30 16:38 12.10.2019
315 Clear 34 1008 46 10000 4.1 30 16:19 12.10.2019
316 Clear 35 1007 41 10000 4.6 360 15:44 12.10.2019
317 Clear 35 1007 41 10000 4.6 360 15:25 12.10.2019
318 Dust 35 1007 41 10000 5.7 340 14:59 12.10.2019
319 Dust 35 1007 41 10000 5.7 340 14:38 12.10.2019
320 Dust 35 1007 41 10000 5.7 340 14:19 12.10.2019
321 Dust 36 1007 50 10000 7.7 330 13:45 12.10.2019
322 Dust 36 1007 50 10000 7.7 330 13:27 12.10.2019
323 Clear 37 1007 50 10000 6.7 320 12:55 12.10.2019
324 Clear 37 1007 50 10000 6.7 320 12:36 12.10.2019
325 Clear 37 1007 50 10000 6.7 320 12:18 12.10.2019
326 Clear 40 1008 17 10000 2.1 0 11:40 12.10.2019
327 Clear 40 1008 17 10000 2.1 0 11:22 12.10.2019
328 Clear 39 1009 16 10000 3.1 100 10:56 12.10.2019
329 Clear 39 1009 16 10000 3.1 100 10:37 12.10.2019
330 Clear 39 1009 16 10000 3.1 100 10:19 12.10.2019
331 Clear 36 1010 29 10000 4.1 140 09:56 12.10.2019
332 -273 0 0 0 0 0 09:55 12.10.2019
333 Clear 36 1010 29 10000 4.1 140 09:37 12.10.2019
334 Clear 36 1010 29 10000 4.1 140 09:19 12.10.2019
335 Clear 34 1010 44 10000 2.6 130 08:42 12.10.2019
336 Clear 34 1010 44 10000 2.6 130 08:22 12.10.2019
337 Clear 31 1010 62 8000 3.1 90 07:37 12.10.2019
338 Clear 31 1010 62 8000 3.1 90 07:18 12.10.2019
339 Haze 27 1009 79 5000 2.1 100 05:53 12.10.2019
340 Haze 27 1009 79 5000 2.1 100 05:24 12.10.2019
341 Haze 26 1008 83 6000 3.1 100 04:26 12.10.2019
342 Haze 27 1008 79 6000 3.1 80 03:42 12.10.2019
343 Haze 27 1008 79 5000 2.1 90 02:28 12.10.2019
344 Haze 28 1008 74 5000 3.1 60 01:29 12.10.2019
345 Haze 28 1008 84 5000 2.1 110 00:43 12.10.2019
346 Haze 28 1008 84 5000 2.1 110 00:19 12.10.2019
347 Haze 28 1008 84 5000 2.1 110 00:19 12.10.2019
348 Haze 29 1008 79 6000 2.1 160 23:40 11.10.2019
349 Haze 29 1008 79 6000 2.1 160 23:20 11.10.2019
350 Haze 30 1008 79 6000 2.6 100 22:56 11.10.2019
351 Haze 30 1008 79 6000 2.6 100 22:37 11.10.2019
352 Haze 30 1008 79 6000 2.6 100 22:18 11.10.2019
353 Haze 30 1009 79 6000 2.6 90 21:40 11.10.2019
354 Haze 30 1009 79 6000 2.6 90 21:21 11.10.2019
355 Haze 30 1009 75 7000 2.6 30 20:54 11.10.2019
356 Haze 30 1009 75 7000 2.6 30 20:36 11.10.2019
357 Haze 30 1009 75 7000 2.6 30 20:18 11.10.2019
358 Haze 31 1009 75 7000 2.1 50 19:54 11.10.2019
359 Haze 31 1009 75 7000 2.1 50 19:36 11.10.2019
360 Haze 31 1009 75 7000 2.1 50 19:18 11.10.2019
361 Haze 32 1009 75 7000 3.1 340 18:39 11.10.2019
362 Haze 32 1009 75 7000 3.1 340 18:19 11.10.2019
363 Haze 32 1008 75 8000 3.6 350 17:59 11.10.2019
364 Haze 32 1008 75 8000 3.6 350 17:38 11.10.2019
365 Haze 32 1008 75 8000 3.6 350 17:19 11.10.2019
366 Clear 32 1008 70 6000 4.6 350 16:59 11.10.2019
367 Clear 32 1008 70 6000 4.6 350 16:39 11.10.2019
368 Clear 32 1008 70 6000 4.6 350 16:19 11.10.2019
369 Clear 33 1008 66 6000 5.1 340 15:55 11.10.2019
370 Clear 33 1008 66 6000 5.1 340 15:36 11.10.2019
371 Clear 33 1008 66 6000 5.1 340 15:18 11.10.2019
372 Dust 34 1008 66 6000 6.7 340 14:41 11.10.2019
373 Dust 34 1008 66 6000 6.7 340 14:21 11.10.2019
374 Dust 34 1008 59 8000 7.2 340 13:46 11.10.2019
375 Dust 34 1008 59 8000 7.2 340 13:26 11.10.2019
376 Clear 36 1009 47 10000 6.7 330 12:58 11.10.2019
377 Clear 36 1009 47 10000 6.7 330 12:39 11.10.2019
378 Clear 36 1009 47 10000 6.7 330 12:21 11.10.2019
379 Clear 37 1010 47 8000 6.7 320 11:59 11.10.2019
380 Clear 37 1010 47 8000 6.7 320 11:39 11.10.2019
381 Clear 37 1010 47 8000 6.7 320 11:21 11.10.2019
382 Clear 38 1010 30 10000 1.5 0 10:56 11.10.2019
383 Clear 38 1010 30 10000 1.5 0 10:56 11.10.2019
384 Clear 38 1010 30 10000 1.5 0 10:36 11.10.2019
385 Clear 38 1010 30 10000 1.5 0 10:18 11.10.2019
386 Clear 35 1011 37 10000 1.5 120 09:42 11.10.2019
387 Clear 35 1011 37 10000 1.5 120 09:21 11.10.2019
388 Clouds 34 1012 52 8000 1.5 0 08:59 11.10.2019
389 Clouds 34 1012 52 8000 1.5 0 08:38 11.10.2019
390 Clouds 34 1012 52 8000 1.5 0 08:20 11.10.2019
391 Clouds 31 1012 62 7000 2.1 210 07:53 11.10.2019
392 Clouds 31 1012 62 7000 2.1 210 07:34 11.10.2019
393 Clouds 29 1011 66 7000 2.1 0 06:50 11.10.2019
394 Clouds 29 1011 66 7000 2.1 0 06:25 11.10.2019
395 Haze 28 1011 74 5000 0.5 0 05:47 11.10.2019
396 Haze 28 1011 74 5000 0.5 0 05:47 11.10.2019
397 Haze 28 1011 74 5000 0.5 0 05:29 11.10.2019
398 Clouds 28 1010 74 8000 2.1 120 04:58 11.10.2019
399 Clear 28 1010 58 10000 2.1 160 03:27 11.10.2019
400 Clouds 29 1010 42 10000 2.1 170 01:26 11.10.2019
401 Clear 29 1010 45 10000 2.1 180 00:31 11.10.2019
402 Clouds 31 1010 75 10000 2.6 220 23:58 10.10.2019
403 Clouds 31 1010 75 10000 2.6 220 23:40 10.10.2019
404 Clouds 31 1010 75 10000 2.6 220 23:19 10.10.2019
405 Dust 31 1010 75 10000 2.1 0 22:56 10.10.2019
406 Dust 31 1010 75 10000 2.1 0 22:36 10.10.2019
407 Dust 31 1010 75 10000 2.1 0 22:18 10.10.2019
408 Dust 31 1011 75 10000 3.6 340 21:42 10.10.2019
409 Dust 31 1011 75 10000 3.6 340 21:42 10.10.2019
410 Dust 31 1011 75 10000 3.6 340 21:22 10.10.2019
411 Dust 31 1011 75 10000 4.6 340 20:58 10.10.2019
412 Dust 31 1011 75 10000 4.6 340 20:40 10.10.2019
413 Dust 31 1011 75 10000 4.6 340 20:20 10.10.2019
414 Dust 32 1011 75 8000 3.6 340 19:57 10.10.2019
415 Dust 32 1011 75 8000 3.6 340 19:39 10.10.2019
416 Dust 32 1011 75 8000 3.6 340 19:19 10.10.2019
417 Clear 32 1011 70 10000 4.1 330 18:42 10.10.2019
418 Clear 32 1011 70 10000 4.1 330 18:21 10.10.2019
419 Clear 33 1010 66 10000 2.6 290 17:59 10.10.2019
420 Clear 33 1010 66 10000 2.6 290 17:40 10.10.2019
421 Clear 33 1010 66 10000 2.6 290 17:18 10.10.2019
422 Dust 33 1010 66 8000 3.1 240 16:56 10.10.2019
423 Dust 33 1010 66 8000 3.1 240 16:37 10.10.2019
424 Dust 33 1010 66 8000 3.1 240 16:18 10.10.2019
425 Clear 34 1009 63 8000 6.2 310 15:40 10.10.2019
426 Clear 34 1009 63 8000 6.2 310 15:22 10.10.2019
427 Clear 34 1009 59 9000 6.7 320 14:57 10.10.2019
428 Clear 34 1009 59 9000 6.7 320 14:37 10.10.2019
429 Clear 34 1009 59 9000 6.7 320 14:19 10.10.2019
430 Clear 35 1009 53 9000 6.2 330 13:55 10.10.2019
431 Clear 35 1009 53 9000 6.2 330 13:37 10.10.2019
432 Clear 35 1009 53 9000 6.2 330 13:18 10.10.2019
433 Clear 35 1010 56 8000 6.2 320 12:42 10.10.2019
434 Clear 35 1010 56 8000 6.2 320 12:21 10.10.2019
435 Clouds 35 1010 59 8000 4.1 300 11:58 10.10.2019
436 Clouds 35 1010 59 8000 4.1 300 11:39 10.10.2019
437 Clouds 35 1010 59 8000 4.1 300 11:19 10.10.2019
438 Clouds 35 1011 59 7000 2.6 300 10:46 10.10.2019
439 Clouds 35 1011 59 7000 2.6 300 10:27 10.10.2019
440 Clouds 34 1012 63 6000 2.6 280 09:58 10.10.2019
441 Clouds 34 1012 63 6000 2.6 280 09:40 10.10.2019
442 Clouds 34 1012 63 6000 2.6 280 09:22 10.10.2019
443 Haze 32 1012 75 6000 2.1 220 08:58 10.10.2019
444 Haze 32 1012 75 6000 2.1 220 08:38 10.10.2019
445 Haze 32 1012 75 6000 2.1 220 08:38 10.10.2019
446 Haze 32 1012 75 6000 2.1 220 08:19 10.10.2019
447 Haze 31 1012 79 5000 3.6 180 07:46 10.10.2019
448 Haze 31 1012 79 5000 3.6 180 07:23 10.10.2019
449 Haze 29 1011 79 5000 2.6 190 06:49 10.10.2019
450 Haze 29 1011 79 5000 2.6 190 06:29 10.10.2019
451 Haze 29 1010 79 5000 2.1 170 05:28 10.10.2019
452 Haze 29 1010 79 7000 1.5 190 04:55 10.10.2019
453 Haze 29 1010 79 7000 1.5 190 04:33 10.10.2019
454 Clouds 29 1009 79 8000 2.1 170 02:19 10.10.2019
455 Clouds 29 1009 79 8000 2.1 170 02:19 10.10.2019
456 Clouds 30 1010 74 8000 2.6 160 01:36 10.10.2019
457 Clouds 30 1010 74 8000 2.6 160 01:36 10.10.2019
458 Clouds 30 1010 74 8000 2.6 160 01:18 10.10.2019
459 Clouds 30 1010 79 8000 2.1 20 00:25 10.10.2019
460 Clouds 30 1010 79 8000 2.6 20 23:41 09.10.2019
461 Clouds 30 1010 79 8000 2.6 20 23:23 09.10.2019
462 Clouds 31 1010 75 8000 3.1 20 22:59 09.10.2019
463 Clouds 31 1010 75 8000 3.1 20 22:59 09.10.2019
464 Clouds 31 1010 75 8000 3.1 20 22:40 09.10.2019
465 Clouds 31 1010 75 8000 3.1 20 22:22 09.10.2019
466 Clouds 31 1010 75 10000 2.6 280 21:42 09.10.2019
467 Clouds 31 1010 75 10000 2.6 280 21:21 09.10.2019
468 Clouds 31 1010 75 10000 2.6 280 21:21 09.10.2019
469 Clouds 31 1011 75 10000 3.1 320 20:56 09.10.2019
470 Clouds 31 1011 75 10000 3.1 320 20:38 09.10.2019
471 Clouds 31 1011 75 10000 3.1 320 20:19 09.10.2019
472 Clouds 31 1011 75 10000 3.6 330 19:59 09.10.2019
473 Clouds 31 1011 75 10000 3.6 330 19:59 09.10.2019
474 Clouds 31 1011 75 10000 3.6 330 19:59 09.10.2019
475 Clouds 31 1011 75 10000 3.6 330 19:40 09.10.2019
476 Clouds 31 1011 75 10000 3.6 330 19:22 09.10.2019
477 Clear 31 1011 75 10000 4.1 320 18:39 09.10.2019
478 Clear 31 1011 75 10000 4.1 320 18:20 09.10.2019
479 Clear 32 1010 75 10000 3.6 350 17:58 09.10.2019
480 Clear 32 1010 75 10000 3.6 350 17:39 09.10.2019
481 Clear 32 1010 75 10000 3.6 350 17:21 09.10.2019
482 Clear 32 1010 66 10000 4.6 340 16:56 09.10.2019
483 Clear 32 1010 66 10000 4.6 340 16:56 09.10.2019
484 Clear 32 1010 66 10000 4.6 340 16:56 09.10.2019
485 Clear 32 1010 66 10000 4.6 340 16:37 09.10.2019
486 Clear 32 1010 66 10000 4.6 340 16:19 09.10.2019
487 Clear 33 1010 66 10000 6.2 340 15:55 09.10.2019
488 Clear 33 1010 66 10000 6.2 340 15:37 09.10.2019
489 Clear 33 1010 66 10000 6.2 340 15:18 09.10.2019
490 Clear 34 1010 59 10000 6.7 340 14:44 09.10.2019
491 Clear 34 1010 59 10000 6.7 340 14:19 09.10.2019
492 Clear 35 1010 47 10000 5.7 330 13:59 09.10.2019
493 Clear 35 1010 47 10000 5.7 330 13:38 09.10.2019
494 Clear 35 1010 47 10000 5.7 330 13:18 09.10.2019
495 Clear 36 1011 44 10000 5.1 340 12:44 09.10.2019
496 Clear 36 1011 44 10000 5.1 340 12:23 09.10.2019
497 Clear 36 1012 44 10000 1 0 11:58 09.10.2019
498 Clear 36 1012 44 10000 1 0 11:39 09.10.2019
499 Clear 36 1012 44 10000 1 0 11:20 09.10.2019
500 Clear 35 1013 44 10000 2.1 0 10:58 09.10.2019
501 Clear 35 1013 44 10000 2.1 0 10:40 09.10.2019
502 Clear 35 1013 44 10000 2.1 0 10:18 09.10.2019
503 Clear 33 1014 49 10000 2.1 0 09:43 09.10.2019
504 Clear 33 1014 49 10000 2.1 0 09:20 09.10.2019
505 Clouds 32 1014 52 10000 3.1 200 08:57 09.10.2019
506 Clouds 31 1014 52 10000 3.1 200 08:37 09.10.2019
507 Clouds 31 1014 52 10000 3.1 200 08:18 09.10.2019
508 Clouds 31 1014 74 10000 3.6 180 07:46 09.10.2019
509 Clouds 31 1014 74 10000 3.6 180 07:24 09.10.2019
510 Clouds 31 1014 74 10000 3.6 180 07:24 09.10.2019
511 Clouds 31 1014 74 10000 3.6 180 07:24 09.10.2019
512 Clear 29 1014 74 10000 3.1 170 06:54 09.10.2019
513 Clear 29 1014 74 10000 3.1 170 06:25 09.10.2019
514 Clear 28 1013 74 10000 2.1 90 05:47 09.10.2019
515 Clear 28 1013 74 10000 2.1 150 04:41 09.10.2019
516 Clear 28 1012 74 10000 2.1 120 03:43 09.10.2019
517 Clear 29 1012 70 10000 2.1 70 01:55 09.10.2019
518 Clear 29 1012 70 10000 2.1 70 01:22 09.10.2019
519 Clear 29 1011 70 10000 1.5 70 00:59 09.10.2019
520 Clear 29 1011 70 10000 1.5 70 00:40 09.10.2019
521 Clear 29 1011 70 10000 1.5 70 00:22 09.10.2019
522 Clear 29 1012 66 10000 2.1 50 23:57 08.10.2019
523 Clear 29 1012 66 10000 2.1 50 23:37 08.10.2019
524 Clear 29 1012 66 10000 2.1 50 23:18 08.10.2019
525 Clear 30 1013 62 10000 3.6 40 22:39 08.10.2019
526 Clear 30 1013 62 10000 3.6 40 22:20 08.10.2019
527 Clear 30 1013 66 10000 3.6 40 21:58 08.10.2019
528 Clear 30 1013 66 10000 3.6 40 21:39 08.10.2019
529 Clear 30 1013 66 10000 3.6 40 21:39 08.10.2019
530 Clear 30 1013 66 10000 3.6 40 21:19 08.10.2019
531 Clear 31 1013 62 10000 4.1 30 20:57 08.10.2019
532 Clear 31 1013 62 10000 4.1 30 20:57 08.10.2019
533 Clear 31 1013 62 10000 4.1 30 20:39 08.10.2019
534 Clear 31 1013 62 10000 4.1 30 20:21 08.10.2019
535 Clear 31 1013 62 10000 4.1 40 19:58 08.10.2019
536 Clear 31 1013 62 10000 4.1 40 19:58 08.10.2019
537 Clear 31 1013 62 10000 4.1 40 19:40 08.10.2019
538 Clear 31 1013 62 10000 4.1 40 19:22 08.10.2019
539 Clear 31 1013 59 10000 3.6 40 18:55 08.10.2019
540 Clear 31 1013 59 10000 3.6 40 18:55 08.10.2019
541 Clear 31 1013 59 10000 3.6 40 18:36 08.10.2019
542 Clear 31 1013 59 10000 3.6 40 18:18 08.10.2019
543 Clear 32 1012 59 10000 3.6 30 17:40 08.10.2019
544 Clear 32 1012 59 10000 3.6 30 17:20 08.10.2019
545 Clear 32 1012 62 10000 4.6 350 16:58 08.10.2019
546 Clear 32 1012 62 10000 4.6 350 16:38 08.10.2019
547 Clear 32 1012 62 10000 4.6 350 16:20 08.10.2019
548 Clear 33 1012 52 10000 6.2 340 15:41 08.10.2019
549 Clear 33 1012 52 10000 6.2 340 15:41 08.10.2019
550 Clear 33 1012 52 10000 6.2 340 15:21 08.10.2019
551 Clear 34 1012 52 10000 6.7 350 14:58 08.10.2019
552 Clear 34 1012 52 10000 6.7 350 14:39 08.10.2019
553 Clear 34 1012 52 10000 6.7 350 14:20 08.10.2019
554 Clouds 35 1012 49 10000 6.2 350 13:57 08.10.2019
555 Clear 35 1012 44 10000 6.2 320 13:38 08.10.2019
556 Clear 35 1012 44 10000 6.2 320 13:19 08.10.2019
557 Clear 35 1012 44 10000 6.2 320 12:56 08.10.2019
558 Clear 35 1012 44 10000 6.2 320 12:37 08.10.2019
559 Clear 35 1012 44 10000 6.2 320 12:37 08.10.2019
560 Clear 35 1012 44 10000 6.2 320 12:18 08.10.2019
561 Clouds 35 1013 44 10000 3.1 0 11:41 08.10.2019
562 Clouds 35 1013 44 10000 3.1 0 11:22 08.10.2019
563 Clouds 34 1014 44 10000 1.5 0 10:56 08.10.2019
564 Clouds 34 1014 44 10000 1.5 0 10:36 08.10.2019
565 Clouds 34 1014 44 10000 1.5 0 10:18 08.10.2019
566 Clear 33 1015 46 10000 2.1 0 09:41 08.10.2019
567 Clear 33 1015 46 10000 2.1 0 09:41 08.10.2019
568 Clear 33 1015 46 10000 2.1 0 09:23 08.10.2019
569 Clear 32 1016 52 10000 3.1 180 08:59 08.10.2019
570 Clear 32 1016 52 10000 3.1 180 08:41 08.10.2019
571 Clear 32 1016 52 10000 3.1 180 08:22 08.10.2019
572 Clear 31 1016 58 10000 3.1 130 07:42 08.10.2019
573 Clear 31 1016 58 10000 3.1 130 07:21 08.10.2019
574 Clear 29 1015 66 10000 3.6 130 06:49 08.10.2019
575 Clear 29 1015 66 10000 3.6 130 06:28 08.10.2019
576 Clear 27 1014 70 10000 4.1 110 05:45 08.10.2019
577 Clear 27 1014 70 10000 4.1 110 05:45 08.10.2019
578 Clear 27 1014 70 10000 4.1 110 05:25 08.10.2019
579 Clear 27 1013 70 10000 4.1 120 03:33 08.10.2019
580 Clear 28 1012 70 10000 4.6 120 02:47 08.10.2019
581 Clear 28 1012 70 10000 4.6 120 02:29 08.10.2019
582 Clear 28 1012 70 10000 3.6 110 01:43 08.10.2019
583 Clear 28 1012 70 10000 3.6 110 01:19 08.10.2019
584 Clear 28 1012 66 10000 4.1 120 00:38 08.10.2019
585 Clear 28 1012 66 10000 4.1 120 00:19 08.10.2019
586 Clear 28 1012 66 10000 5.1 110 23:39 07.10.2019
587 Clear 28 1012 66 10000 5.1 110 23:19 07.10.2019
588 Clear 29 1012 66 10000 5.7 110 22:55 07.10.2019
589 Clear 29 1012 66 10000 5.7 110 22:37 07.10.2019
590 Clear 29 1012 66 10000 5.7 110 22:19 07.10.2019
591 Clear 30 1012 62 10000 4.1 100 21:55 07.10.2019
592 Clear 30 1012 62 10000 4.1 100 21:37 07.10.2019
593 Clear 30 1012 62 10000 4.1 100 21:18 07.10.2019
594 Clear 30 1012 55 10000 5.1 110 20:56 07.10.2019
595 Clear 30 1012 55 10000 5.1 110 20:38 07.10.2019
596 Clear 30 1012 55 10000 5.1 110 20:18 07.10.2019
597 Clear 31 1012 55 10000 5.7 110 19:42 07.10.2019
598 Clear 31 1012 55 10000 5.7 110 19:21 07.10.2019
599 Clear 32 1012 52 10000 5.1 100 19:00 07.10.2019
600 Clear 32 1012 52 10000 5.1 100 18:41 07.10.2019
601 Clear 32 1012 52 10000 5.1 100 18:19 07.10.2019
602 Clear 33 1011 44 10000 2.6 80 17:58 07.10.2019
603 Clear 33 1011 44 10000 2.6 80 17:40 07.10.2019
604 Clear 33 1011 44 10000 2.6 80 17:18 07.10.2019
605 Clear 33 1011 41 10000 2.6 140 16:44 07.10.2019
606 Clear 33 1011 41 10000 2.6 140 16:26 07.10.2019
607 Clouds 33 1011 46 10000 2.1 210 15:57 07.10.2019
608 Clouds 33 1011 46 10000 2.1 210 15:38 07.10.2019
609 Clouds 33 1011 46 10000 2.1 210 15:20 07.10.2019
610 Clouds 33 1010 52 10000 4.1 230 14:41 07.10.2019
611 Clouds 33 1010 52 10000 4.1 230 14:23 07.10.2019
612 Dust 32 1010 58 4500 6.2 230 13:45 07.10.2019
613 Dust 32 1010 58 4500 6.2 230 13:21 07.10.2019
614 Rain 35 1010 35 10000 5.7 80 12:58 07.10.2019
615 Rain 35 1010 35 10000 5.7 80 12:58 07.10.2019
616 Rain 35 1010 35 10000 5.7 80 12:39 07.10.2019
617 Rain 35 1010 35 10000 5.7 80 12:20 07.10.2019
618 Clouds 36 1010 39 10000 5.1 50 11:59 07.10.2019
619 Clouds 36 1010 39 10000 5.1 50 11:40 07.10.2019
620 Clouds 36 1010 39 10000 5.1 50 11:20 07.10.2019
621 Clouds 35 1011 39 10000 4.6 120 10:43 07.10.2019
622 Clouds 35 1011 39 10000 4.6 120 10:23 07.10.2019
623 Clear 35 1012 47 10000 5.7 110 09:58 07.10.2019
624 Clear 35 1012 47 10000 5.7 110 09:38 07.10.2019
625 Clear 35 1012 47 10000 5.7 110 09:20 07.10.2019
626 Clear 33 1012 52 10000 6.7 110 08:43 07.10.2019
627 Clear 33 1012 52 10000 6.7 110 08:20 07.10.2019
628 Clear 32 1012 59 10000 5.7 120 07:49 07.10.2019
629 Clear 32 1012 59 10000 5.7 120 07:28 07.10.2019
630 Clear 30 1011 66 10000 5.7 120 06:58 07.10.2019
631 Clear 30 1011 66 10000 5.7 120 06:38 07.10.2019
632 Clear 30 1011 66 10000 5.7 120 06:18 07.10.2019
633 Clear 29 1011 62 10000 4.1 100 05:26 07.10.2019
634 Clear 29 1010 62 10000 4.1 110 04:49 07.10.2019
635 Clear 29 1008 62 10000 3.6 100 03:46 07.10.2019
636 Clear 29 1008 62 10000 3.6 100 03:27 07.10.2019
637 Clear 29 1008 62 10000 3.6 80 02:37 07.10.2019
638 Clear 29 1008 62 10000 3.6 80 02:19 07.10.2019
639 Clear 29 1007 62 10000 3.6 80 01:23 07.10.2019
640 Clear 29 1007 62 10000 4.6 90 00:51 07.10.2019
641 Clear 29 1007 62 10000 4.6 90 00:26 07.10.2019
642 Clear 30 1007 55 10000 5.1 100 23:59 06.10.2019
643 Clear 30 1007 55 10000 5.1 100 23:40 06.10.2019
644 Clear 30 1007 55 10000 5.1 100 23:20 06.10.2019
645 Clear 30 1007 52 10000 6.2 110 22:56 06.10.2019
646 Clear 30 1007 52 10000 6.2 110 22:37 06.10.2019
647 Clear 30 1007 52 10000 6.2 110 22:18 06.10.2019
648 Clear 30 1007 55 10000 6.2 100 21:55 06.10.2019
649 Clear 30 1007 55 10000 6.2 100 21:55 06.10.2019
650 Clear 30 1007 55 10000 6.2 100 21:55 06.10.2019
651 Clear 30 1007 55 10000 6.2 100 21:36 06.10.2019
652 Clear 30 1007 55 10000 6.2 100 21:18 06.10.2019
653 Clear 31 1007 59 10000 6.2 110 20:54 06.10.2019
654 Clear 31 1007 59 10000 6.2 110 20:54 06.10.2019
655 Clear 31 1007 59 10000 6.2 110 20:36 06.10.2019
656 Clear 31 1007 59 10000 6.2 110 20:18 06.10.2019
657 Dust 32 1007 62 10000 7.2 100 19:54 06.10.2019
658 Dust 32 1007 62 10000 7.2 100 19:36 06.10.2019
659 Dust 32 1007 59 10000 6.7 100 19:18 06.10.2019
660 Dust 32 1007 59 10000 6.7 100 18:54 06.10.2019
661 Dust 32 1007 59 10000 6.7 100 18:54 06.10.2019
662 Dust 32 1007 59 10000 6.7 100 18:36 06.10.2019
663 Dust 32 1007 59 10000 6.7 100 18:18 06.10.2019
664 Dust 33 1006 55 10000 8.7 90 17:42 06.10.2019
665 Dust 33 1006 55 10000 8.7 90 17:20 06.10.2019
666 Clear 33 1006 46 7000 6.2 70 16:55 06.10.2019
667 Clear 33 1006 46 7000 6.2 70 16:36 06.10.2019
668 Clear 33 1006 46 7000 6.2 70 16:18 06.10.2019
669 Clouds 34 1006 56 7000 6.7 30 15:42 06.10.2019
670 Clouds 34 1006 56 7000 6.7 30 15:19 06.10.2019
671 Clouds 34 1006 56 7000 6.7 30 15:19 06.10.2019
672 Clouds 34 1006 56 7000 6.7 30 15:19 06.10.2019
673 Clouds 34 1006 56 7000 6.7 30 15:19 06.10.2019
674 Clouds 34 1006 56 7000 6.7 30 15:19 06.10.2019
675 Clouds 36 1005 53 7000 7.7 20 14:44 06.10.2019
676 Clouds 36 1005 53 7000 7.7 20 14:25 06.10.2019
677 Clouds 37 1005 27 7000 2.6 0 13:59 06.10.2019
678 Clouds 37 1005 27 7000 2.6 0 13:39 06.10.2019
679 Clouds 37 1005 27 7000 2.6 0 13:21 06.10.2019
680 Clouds 37 1006 31 7000 3.6 170 12:58 06.10.2019
681 Clouds 37 1006 31 7000 3.6 170 12:39 06.10.2019
682 Clouds 37 1006 31 7000 3.6 170 12:39 06.10.2019
683 Clouds 37 1006 31 7000 3.6 170 12:21 06.10.2019
684 Dust 37 1006 35 10000 4.6 130 11:58 06.10.2019
685 Dust 37 1006 35 10000 4.6 130 11:39 06.10.2019
686 Dust 37 1006 35 10000 4.6 130 11:20 06.10.2019
687 Dust 37 1006 35 10000 4.6 130 11:20 06.10.2019
688 Dust 36 1007 39 8000 3.1 140 10:45 06.10.2019
689 Dust 36 1007 39 8000 3.1 140 10:26 06.10.2019
690 Dust 34 1008 44 8000 3.6 180 09:58 06.10.2019
691 Dust 34 1008 44 8000 3.6 180 09:40 06.10.2019
692 Dust 34 1008 44 8000 3.6 180 09:19 06.10.2019
693 Dust 33 1009 46 8000 4.1 170 08:43 06.10.2019
694 Dust 33 1009 46 8000 4.1 170 08:21 06.10.2019
695 Clear 32 1008 49 10000 4.6 170 07:57 06.10.2019
696 Clear 31 1008 49 10000 4.6 170 07:35 06.10.2019
697 Clear 30 1008 55 10000 4.1 140 06:23 06.10.2019
698 Clear 27 1008 66 10000 3.6 80 05:35 06.10.2019
699 Clear 27 1007 66 10000 2.6 80 04:26 06.10.2019
700 Clear 28 1006 62 10000 3.6 100 02:46 06.10.2019
701 Clear 28 1006 62 10000 3.6 100 02:27 06.10.2019
702 Clear 28 1006 62 10000 2.1 120 01:46 06.10.2019
703 Clear 28 1006 62 10000 2.1 120 01:27 06.10.2019
704 Clear 28 1006 66 10000 3.1 120 00:57 06.10.2019
705 Clear 28 1006 66 10000 3.1 120 00:57 06.10.2019
706 Clear 28 1006 66 10000 3.1 120 00:28 06.10.2019
707 Clear 29 1006 66 10000 3.1 90 23:45 05.10.2019
708 Clear 29 1006 66 10000 3.1 90 23:23 05.10.2019
709 Clear 29 1006 62 10000 4.1 80 22:58 05.10.2019
710 Clear 29 1006 62 10000 4.1 80 22:40 05.10.2019
711 Clear 29 1006 62 10000 4.1 80 22:20 05.10.2019
712 Clear 30 1006 55 10000 3.6 0 21:57 05.10.2019
713 Clear 30 1006 55 10000 3.6 0 21:39 05.10.2019
714 Clear 30 1006 55 10000 3.6 0 21:39 05.10.2019
715 Clear 30 1006 55 10000 3.6 0 21:20 05.10.2019
716 Clear 30 1006 59 10000 2.6 60 20:56 05.10.2019
717 Clear 30 1006 59 10000 2.6 60 20:37 05.10.2019
718 Clear 30 1006 59 10000 2.6 60 20:19 05.10.2019
719 Clear 30 1006 59 10000 2.6 60 20:19 05.10.2019
720 Clear 31 1006 59 10000 3.1 70 19:38 05.10.2019
721 Clear 31 1006 59 10000 3.1 70 19:19 05.10.2019
722 Clear 31 1006 62 10000 3.6 70 18:56 05.10.2019
723 Clear 31 1006 62 10000 3.6 70 18:38 05.10.2019
724 Clear 31 1006 62 10000 3.6 70 18:20 05.10.2019
725 Clear 32 1005 59 10000 3.1 30 17:46 05.10.2019
726 Clear 32 1005 59 10000 3.1 30 17:27 05.10.2019
727 Dust 33 1005 55 10000 4.1 330 16:59 05.10.2019
728 Dust 33 1005 55 10000 4.1 330 16:41 05.10.2019
729 Dust 33 1005 55 10000 4.1 330 16:21 05.10.2019
730 Dust 33 1005 59 10000 4.6 350 15:57 05.10.2019
731 Dust 33 1005 59 10000 4.6 350 15:38 05.10.2019
732 Dust 33 1005 59 10000 4.6 350 15:20 05.10.2019
733 Dust 34 1005 56 10000 5.1 350 14:44 05.10.2019
734 Dust 34 1005 56 10000 5.1 350 14:26 05.10.2019
735 Dust 34 1005 56 10000 5.1 350 14:26 05.10.2019
736 Dust 35 1005 44 10000 5.7 340 13:59 05.10.2019
737 Dust 35 1005 44 10000 5.7 340 13:41 05.10.2019
738 Dust 35 1005 44 10000 5.7 340 13:20 05.10.2019
739 Dust 36 1005 41 10000 5.7 340 12:44 05.10.2019
740 Dust 36 1005 41 10000 5.7 340 12:20 05.10.2019
741 Clear 37 1006 41 10000 6.2 340 11:45 05.10.2019
742 Clear 37 1006 41 10000 6.2 340 11:23 05.10.2019
743 Clear 36 1006 35 8000 2.6 0 10:59 05.10.2019
744 Clear 36 1006 35 8000 2.6 0 10:41 05.10.2019
745 Clear 36 1006 35 8000 2.6 0 10:23 05.10.2019
746 Clear 35 1007 41 10000 1.5 0 09:56 05.10.2019
747 Clear 35 1007 41 10000 1.5 0 09:38 05.10.2019
748 Clear 35 1007 41 10000 1.5 0 09:38 05.10.2019
749 Clear 35 1007 41 10000 1.5 0 09:20 05.10.2019
750 Dust 33 1008 49 10000 3.1 110 08:39 05.10.2019
751 Dust 33 1008 49 10000 3.1 110 08:19 05.10.2019
752 Clear 31 1008 52 10000 5.7 100 07:53 05.10.2019
753 Clear 31 1008 52 10000 5.7 100 07:32 05.10.2019
754 Clear 29 1007 58 10000 6.7 120 06:57 05.10.2019
755 Clear 29 1007 58 10000 6.7 120 06:26 05.10.2019
756 Clear 27 1007 54 10000 5.1 110 05:40 05.10.2019
757 Dust 27 1006 65 10000 4.6 100 03:39 05.10.2019
758 Dust 27 1006 65 10000 4.6 100 03:39 05.10.2019
759 Dust 27 1006 65 10000 4.6 100 03:20 05.10.2019
760 Thunderstorm 28 1005 65 10000 4.6 60 01:30 05.10.2019
761 Thunderstorm 29 1006 55 5000 10.3 360 00:51 05.10.2019
762 Thunderstorm 29 1006 55 5000 10.3 360 00:51 05.10.2019
763 Thunderstorm 29 1006 55 5000 10.3 360 00:28 05.10.2019
764 Clear 32 1005 63 10000 4.1 110 23:59 04.10.2019
765 Clear 32 1005 63 10000 4.1 110 23:41 04.10.2019
766 Clear 32 1005 63 10000 4.1 110 23:23 04.10.2019
767 Clear 32 1006 63 10000 4.1 110 22:57 04.10.2019
768 Clear 32 1006 63 10000 4.1 110 22:38 04.10.2019
769 Clear 32 1006 63 10000 4.1 110 22:19 04.10.2019
770 Clear 32 1006 63 10000 4.6 100 21:41 04.10.2019
771 Clear 32 1006 63 10000 4.6 100 21:23 04.10.2019
772 Clear 33 1006 59 10000 5.7 120 21:00 04.10.2019
773 Clear 33 1006 59 10000 5.7 120 20:41 04.10.2019
774 Clear 33 1006 59 10000 5.7 120 20:23 04.10.2019
775 Clear 33 1006 56 10000 4.1 70 19:57 04.10.2019
776 Clear 33 1006 56 10000 4.1 70 19:38 04.10.2019
777 Clear 33 1006 56 10000 4.1 70 19:20 04.10.2019
778 Clear 33 1006 56 10000 4.1 60 18:55 04.10.2019
779 Clear 33 1006 56 10000 4.1 60 18:36 04.10.2019
780 Clear 33 1006 56 10000 4.1 60 18:18 04.10.2019
781 Clear 33 1005 59 10000 3.6 20 17:40 04.10.2019
782 Clear 33 1005 59 10000 3.6 20 17:22 04.10.2019
783 Clear 33 1005 59 10000 3.6 20 17:22 04.10.2019
784 Clear 34 1005 59 7000 4.6 30 16:58 04.10.2019
785 Clear 34 1005 59 7000 4.6 30 16:39 04.10.2019
786 Clear 34 1005 59 7000 4.6 30 16:39 04.10.2019
787 Clear 34 1005 59 7000 4.6 30 16:18 04.10.2019
788 Clear 34 1005 59 7000 4.6 30 16:18 04.10.2019
789 Clear 34 1005 59 7000 4.6 30 16:18 04.10.2019
790 Dust 35 1005 59 7000 5.7 20 15:56 04.10.2019
791 Dust 35 1005 59 7000 5.7 20 15:38 04.10.2019
792 Dust 35 1005 59 7000 5.7 20 15:19 04.10.2019
793 Dust 36 1005 60 7000 7.7 330 14:55 04.10.2019
794 Dust 36 1005 60 7000 7.7 330 14:37 04.10.2019
795 Dust 36 1005 60 7000 7.7 330 14:19 04.10.2019
796 Dust 37 1005 50 7000 5.1 340 13:44 04.10.2019
797 Dust 37 1005 50 7000 5.1 340 13:21 04.10.2019
798 Clear 39 1006 45 7000 5.7 350 12:47 04.10.2019
799 Clear 39 1006 45 7000 5.7 350 12:29 04.10.2019
800 Clear 40 1006 24 7000 4.1 200 11:59 04.10.2019
801 Clear 40 1006 24 7000 4.1 200 11:59 04.10.2019
802 Clear 40 1006 24 7000 4.1 200 11:59 04.10.2019
803 Clear 40 1006 24 7000 4.1 200 11:59 04.10.2019
804 Clear 40 1006 24 7000 4.1 200 11:41 04.10.2019
805 Clear 40 1006 24 7000 4.1 200 11:20 04.10.2019
806 Clear 40 1006 24 7000 4.1 200 11:20 04.10.2019
807 Dust 39 1007 33 7000 7.7 160 10:41 04.10.2019
808 Dust 39 1007 33 7000 7.7 160 10:21 04.10.2019
809 Dust 37 1008 39 10000 6.7 150 09:48 04.10.2019
810 Dust 37 1008 39 10000 6.7 150 09:30 04.10.2019
811 Clear 35 1009 50 10000 6.2 150 08:57 04.10.2019
812 Clear 35 1009 50 10000 6.2 150 08:38 04.10.2019
813 Clear 35 1009 50 10000 6.2 150 08:20 04.10.2019
814 Clear 34 1009 56 10000 5.1 110 07:45 04.10.2019
815 Clear 34 1009 56 10000 5.1 110 07:22 04.10.2019
816 Clear 32 1009 62 10000 3.6 120 06:47 04.10.2019
817 Clear 32 1009 62 10000 3.6 120 06:27 04.10.2019
818 Clear 30 1008 66 10000 3.6 100 05:52 04.10.2019
819 Clear 30 1008 66 10000 3.6 100 05:19 04.10.2019
820 Clear 31 1007 62 10000 5.1 80 03:50 04.10.2019
821 Clear 31 1006 62 10000 4.1 80 02:54 04.10.2019
822 Clear 31 1006 62 10000 4.1 80 02:18 04.10.2019
823 Clear 31 1006 62 10000 3.1 60 01:42 04.10.2019
824 Clear 31 1006 62 10000 3.1 60 01:23 04.10.2019
825 Clear 32 1006 63 10000 3.1 100 23:59 03.10.2019
826 Clear 32 1006 63 10000 3.1 100 23:37 03.10.2019
827 Clear 32 1006 63 10000 3.1 100 23:18 03.10.2019
828 Clear 32 1006 63 10000 3.1 100 23:18 03.10.2019
829 Clear 32 1006 63 10000 4.1 110 22:56 03.10.2019
830 Clear 32 1006 63 10000 4.1 110 22:38 03.10.2019
831 Clear 32 1006 63 10000 4.1 110 22:38 03.10.2019
832 Clear 32 1006 63 10000 4.1 110 22:20 03.10.2019
833 Clear 32 1007 59 9000 4.1 110 21:56 03.10.2019
834 Clear 32 1007 59 9000 4.1 110 21:37 03.10.2019
835 Clear 32 1007 59 9000 4.1 110 21:19 03.10.2019
836 Clear 32 1007 44 9000 2.6 80 20:56 03.10.2019
837 Clear 32 1007 44 9000 2.6 80 20:37 03.10.2019
838 Clear 32 1007 44 9000 2.6 80 20:37 03.10.2019
839 Clear 32 1007 44 9000 2.6 80 20:19 03.10.2019
840 Clear 32 1007 46 9000 2.6 100 19:41 03.10.2019
841 Clear 32 1007 46 9000 2.6 100 19:22 03.10.2019
842 Clear 32 1006 52 8000 3.6 80 18:59 03.10.2019
843 Clear 32 1006 52 8000 3.6 80 18:39 03.10.2019
844 Clear 32 1006 52 8000 3.6 80 18:39 03.10.2019
845 Clear 32 1006 52 8000 3.6 80 18:19 03.10.2019
846 Clear 33 1006 59 7000 4.1 70 17:56 03.10.2019
847 Clear 33 1006 59 7000 4.1 70 17:37 03.10.2019
848 Clear 33 1006 59 7000 4.1 70 17:19 03.10.2019
849 Clear 33 1006 59 7000 4.1 70 17:19 03.10.2019
850 Dust 33 1005 52 6000 4.1 350 16:43 03.10.2019
851 Dust 33 1005 52 6000 4.1 350 16:25 03.10.2019
852 Dust 35 1006 59 5000 6.2 350 15:56 03.10.2019
853 Dust 35 1006 59 5000 6.2 350 15:38 03.10.2019
854 Dust 35 1006 59 5000 6.2 350 15:38 03.10.2019
855 Dust 35 1006 59 5000 6.2 350 15:19 03.10.2019
856 Clear 36 1006 44 6000 5.1 350 14:45 03.10.2019
857 Clear 36 1006 44 6000 5.1 350 14:26 03.10.2019
858 Clear 37 1005 44 6000 5.1 340 13:57 03.10.2019
859 Clear 37 1005 44 6000 5.1 340 13:39 03.10.2019
860 Clear 37 1005 44 6000 5.1 340 13:19 03.10.2019
861 Clear 37 1006 39 7000 5.1 330 12:56 03.10.2019
862 Clear 37 1006 39 7000 5.1 330 12:37 03.10.2019
863 Clear 37 1006 39 7000 5.1 330 12:19 03.10.2019
864 Clear 37 1007 41 6000 4.6 330 11:41 03.10.2019
865 Clear 37 1007 41 6000 4.6 330 11:41 03.10.2019
866 Clear 37 1007 41 6000 4.6 330 11:22 03.10.2019
867 Clear 37 1008 29 7000 2.6 200 10:58 03.10.2019
868 Clear 37 1008 29 7000 2.6 200 10:40 03.10.2019
869 Clear 37 1008 29 7000 2.6 200 10:19 03.10.2019
870 Clear 35 1009 28 8000 3.1 220 09:57 03.10.2019
871 Clear 35 1009 28 8000 3.1 220 09:39 03.10.2019
872 Clear 35 1009 28 8000 3.1 220 09:20 03.10.2019
873 Clear 35 1009 28 8000 3.1 220 09:20 03.10.2019
874 Clear 34 1009 30 8000 4.1 210 08:44 03.10.2019
875 Clear 34 1009 30 8000 4.1 210 08:26 03.10.2019
876 Clear 32 1009 36 10000 3.6 170 07:57 03.10.2019
877 Clear 32 1009 36 10000 3.6 170 07:38 03.10.2019
878 Clear 32 1009 36 10000 3.6 170 07:19 03.10.2019
879 Clear 30 1008 52 8000 2.1 160 06:46 03.10.2019
880 Clear 30 1008 52 8000 2.1 160 06:20 03.10.2019
881 Clear 28 1008 55 7000 0.5 0 05:43 03.10.2019
882 Clear 28 1007 52 10000 1.5 140 04:51 03.10.2019
883 Clear 28 1007 52 10000 1.5 140 04:25 03.10.2019
884 Haze 27 1007 52 10000 4.1 120 03:21 03.10.2019
885 Haze 28 1006 46 10000 0.5 0 02:37 03.10.2019
886 Haze 29 1006 49 10000 1.5 0 01:51 03.10.2019
887 Haze 29 1006 49 10000 1.5 0 01:32 03.10.2019
888 Haze 30 1006 55 10000 2.1 100 00:47 03.10.2019
889 Haze 30 1006 55 10000 2.1 100 00:18 03.10.2019
890 Haze 30 1007 52 10000 1.5 170 23:43 02.10.2019
891 Haze 30 1007 52 10000 1.5 170 23:20 02.10.2019
892 Haze 30 1007 52 8000 2.1 170 22:43 02.10.2019
893 Haze 30 1007 52 8000 2.1 170 22:43 02.10.2019
894 Haze 30 1007 52 8000 2.1 170 22:21 02.10.2019
895 Clear 31 1007 55 8000 2.6 100 21:56 02.10.2019
896 Clear 31 1007 55 8000 2.6 100 21:38 02.10.2019
897 Clouds 31 1007 55 8000 2.6 100 21:19 02.10.2019
898 Clouds 31 1008 52 8000 3.1 100 20:56 02.10.2019
899 Clouds 31 1008 52 8000 3.1 100 20:37 02.10.2019
900 Clouds 31 1008 52 8000 3.1 100 20:19 02.10.2019
901 Clouds 31 1008 49 8000 3.1 80 19:46 02.10.2019
902 Clouds 31 1008 49 8000 3.1 80 19:23 02.10.2019
903 Clouds 31 1008 49 8000 3.1 80 19:23 02.10.2019
904 Clear 33 1007 49 10000 2.6 80 18:59 02.10.2019
905 Clear 33 1007 49 10000 2.6 80 18:59 02.10.2019
906 Clear 33 1007 49 10000 2.6 80 18:40 02.10.2019
907 Clear 33 1007 49 10000 2.6 80 18:21 02.10.2019
908 Clouds 33 1008 52 8000 2.6 350 17:58 02.10.2019
909 Clouds 33 1008 52 8000 2.6 350 17:40 02.10.2019
910 Clouds 33 1008 52 8000 2.6 350 17:21 02.10.2019
911 Clouds 35 1007 47 7000 4.1 340 16:57 02.10.2019
912 Clouds 35 1007 47 7000 4.1 340 16:37 02.10.2019
913 Clouds 36 1007 37 8000 5.7 320 16:19 02.10.2019
914 Clouds 36 1007 37 8000 5.7 320 15:55 02.10.2019
915 Clouds 36 1007 37 8000 5.7 320 15:37 02.10.2019
916 Clear 36 1007 37 8000 5.7 320 15:18 02.10.2019
917 Clear 37 1007 25 9000 7.7 320 14:43 02.10.2019
918 Clear 37 1007 25 9000 7.7 320 14:23 02.10.2019
919 Dust 38 1007 29 7000 5.1 280 13:56 02.10.2019
920 Dust 38 1007 29 7000 5.1 280 13:37 02.10.2019
921 Dust 38 1007 29 7000 5.1 280 13:19 02.10.2019
922 Dust 38 1007 35 6000 6.7 310 13:19 02.10.2019
923 Dust 38 1007 35 6000 6.7 310 12:40 02.10.2019
924 Dust 38 1007 35 6000 6.7 310 12:22 02.10.2019
925 Dust 39 1008 35 7000 3.6 280 11:55 02.10.2019
926 Dust 39 1008 35 7000 3.6 280 11:36 02.10.2019
927 Dust 39 1009 27 7000 3.6 240 11:18 02.10.2019
928 Dust 39 1009 27 7000 3.6 240 11:18 02.10.2019
929 Dust 39 1009 27 7000 3.6 240 10:38 02.10.2019
930 Dust 39 1009 27 7000 3.6 240 10:18 02.10.2019
931 Dust 38 1009 37 10000 2.6 170 09:40 02.10.2019
932 Dust 38 1009 37 10000 2.6 170 09:20 02.10.2019
933 Dust 36 1010 41 10000 4.1 110 08:55 02.10.2019
934 Dust 36 1010 41 10000 4.1 110 08:36 02.10.2019
935 Dust 36 1010 41 10000 4.1 110 08:18 02.10.2019
936 Dust 34 1010 36 10000 3.6 110 07:39 02.10.2019
937 Dust 34 1010 36 10000 3.6 110 07:20 02.10.2019
938 Haze 30 1009 43 8000 3.1 180 06:46 02.10.2019
939 Haze 28 1009 52 5000 1.5 200 05:56 02.10.2019
940 Haze 28 1009 52 5000 1.5 200 05:24 02.10.2019
941 Haze 28 1008 74 5000 1 0 04:53 02.10.2019
942 Mist 28 1007 74 6000 2.1 80 03:52 02.10.2019
943 Haze 28 1007 70 5000 1.5 150 02:43 02.10.2019
944 Haze 28 1007 70 5000 1.5 150 02:23 02.10.2019
945 Haze 29 1006 74 5000 1.5 140 01:40 02.10.2019
946 Haze 30 1006 79 5000 2.6 170 00:50 02.10.2019
947 Haze 30 1006 79 5000 2.6 170 00:27 02.10.2019
948 Haze 30 1006 79 5000 2.6 0 23:44 01.10.2019
949 Haze 30 1006 79 5000 2.6 0 23:25 01.10.2019
950 Haze 30 1007 75 5000 2.6 160 22:59 01.10.2019
951 Haze 30 1007 75 5000 2.6 160 22:40 01.10.2019
952 Haze 30 1007 75 5000 2.6 160 22:20 01.10.2019
953 Haze 31 1007 70 6000 2.1 100 21:57 01.10.2019
954 Haze 31 1007 70 6000 2.1 100 21:39 01.10.2019
955 Haze 31 1007 70 6000 2.1 100 21:20 01.10.2019
956 Haze 31 1007 70 6000 1.5 0 20:56 01.10.2019
957 Haze 31 1007 70 6000 1.5 0 20:38 01.10.2019
958 Haze 32 1008 79 4800 2.6 60 20:19 01.10.2019
959 Haze 32 1008 79 4800 2.6 60 19:56 01.10.2019
960 Haze 32 1007 75 5000 2.1 10 19:38 01.10.2019
961 Haze 32 1007 75 5000 2.1 10 19:18 01.10.2019
962 Haze 33 1006 70 6000 3.1 360 18:40 01.10.2019
963 Haze 33 1006 70 6000 3.1 360 18:22 01.10.2019
964 Haze 33 1006 75 6000 3.6 350 17:58 01.10.2019
965 Haze 33 1006 75 6000 3.6 350 17:39 01.10.2019
966 Haze 33 1006 75 6000 3.6 350 17:19 01.10.2019
967 Dust 34 1006 71 4000 4.6 330 16:57 01.10.2019
968 Dust 34 1006 71 4000 4.6 330 16:39 01.10.2019
969 Dust 34 1006 71 4000 4.6 330 16:39 01.10.2019
970 Dust 34 1006 71 4000 4.6 330 16:20 01.10.2019
971 Dust 34 1005 67 5000 5.7 330 15:42 01.10.2019
972 Dust 34 1005 67 5000 5.7 330 15:22 01.10.2019
973 Dust 36 1006 56 5000 5.7 330 14:41 01.10.2019
974 Dust 36 1006 56 5000 5.7 330 14:20 01.10.2019
975 Clear 37 1006 56 6000 6.2 320 13:58 01.10.2019
976 Clear 37 1006 56 6000 6.2 320 13:58 01.10.2019
977 Clear 37 1006 56 6000 6.2 320 13:39 01.10.2019
978 Clear 37 1006 56 6000 6.2 320 13:39 01.10.2019
979 Clear 37 1006 56 6000 6.2 320 13:39 01.10.2019
980 Clear 37 1006 56 6000 6.2 320 13:39 01.10.2019
981 Clear 37 1006 56 6000 6.2 320 13:20 01.10.2019
982 Clear 37 1006 47 7000 6.2 320 12:57 01.10.2019
983 Clear 37 1006 47 7000 6.2 320 12:39 01.10.2019
984 Clear 38 1007 42 10000 4.6 280 12:18 01.10.2019
985 Clear 38 1007 42 10000 4.6 280 11:58 01.10.2019
986 Clear 38 1007 42 10000 4.6 280 11:38 01.10.2019
987 Clear 38 1007 42 10000 4.6 280 11:18 01.10.2019
988 Clear 38 1007 42 10000 4.6 280 11:18 01.10.2019
989 Clear 38 1008 42 10000 3.6 280 10:49 01.10.2019
990 Clear 38 1008 42 10000 3.6 280 10:29 01.10.2019
991 Clear 37 1008 39 10000 3.1 220 09:49 01.10.2019
992 Clear 37 1008 39 10000 3.1 220 09:31 01.10.2019
993 Clear 36 1009 39 10000 4.1 240 08:57 01.10.2019
994 Clear 36 1009 39 10000 4.1 240 08:39 01.10.2019
995 Clear 36 1009 39 10000 4.1 240 08:39 01.10.2019
996 Clear 36 1009 39 10000 4.1 240 08:21 01.10.2019
997 Clear 34 1008 52 7000 4.6 220 07:43 01.10.2019
998 Clear 34 1008 52 7000 4.6 220 07:24 01.10.2019
999 Haze 31 1008 74 4000 2.6 190 06:46 01.10.2019
1000 Haze 29 1007 79 3000 2.6 180 06:18 01.10.2019
1001 Haze 29 1007 79 3000 2.6 180 06:18 01.10.2019
1002 Haze 29 1007 79 3000 2.6 180 05:45 01.10.2019
1003 Haze 29 1007 79 4500 2.6 220 04:50 01.10.2019
1004 Haze 29 1007 79 4500 2.6 220 04:26 01.10.2019
1005 Haze 30 1006 75 6000 2.1 240 02:26 01.10.2019
1006 Haze 31 1006 75 6000 2.1 220 01:58 01.10.2019
1007 Haze 30 1005 75 6000 2.6 240 00:53 01.10.2019
1008 Haze 30 1005 75 6000 2.6 240 00:27 01.10.2019
1009 Haze 31 1006 75 6000 1 0 23:56 30.09.2019
1010 Haze 31 1006 75 6000 1 0 23:56 30.09.2019
1011 Haze 31 1006 75 6000 1 0 23:37 30.09.2019
1012 Haze 31 1006 75 6000 1 0 23:19 30.09.2019
1013 Haze 31 1006 75 6000 1 0 23:19 30.09.2019
1014 Haze 31 1006 70 7000 1 0 22:42 30.09.2019
1015 Haze 31 1006 70 7000 1 0 22:24 30.09.2019
1016 Haze 31 1006 70 7000 0.5 0 21:56 30.09.2019
1017 Haze 31 1006 70 7000 0.5 0 21:38 30.09.2019
1018 Haze 31 1006 70 7000 0.5 0 21:19 30.09.2019
1019 Haze 32 1007 70 7000 1.5 330 20:56 30.09.2019
1020 Haze 32 1007 70 7000 1.5 330 20:38 30.09.2019
1021 Haze 32 1007 70 7000 1.5 330 20:19 30.09.2019
1022 Clear 32 1006 75 7000 2.6 350 19:56 30.09.2019
1023 Clear 32 1006 75 7000 2.6 350 19:38 30.09.2019
1024 Clear 32 1006 75 7000 2.6 350 19:18 30.09.2019
1025 Clear 33 1006 75 7000 3.1 10 18:54 30.09.2019
1026 Clear 33 1006 75 7000 3.1 10 18:36 30.09.2019
1027 Dust 33 1006 67 7000 3.1 340 18:18 30.09.2019
1028 Dust 33 1006 67 7000 3.1 340 17:40 30.09.2019
1029 Dust 33 1006 67 7000 3.1 340 17:22 30.09.2019
1030 Dust 34 1006 67 5000 4.6 340 16:56 30.09.2019
1031 Dust 34 1006 67 5000 4.6 340 16:56 30.09.2019
1032 Dust 34 1006 67 5000 4.6 340 16:37 30.09.2019
1033 Dust 34 1006 67 5000 4.6 340 16:19 30.09.2019
1034 Clear 36 1005 56 8000 5.1 330 15:55 30.09.2019
1035 Clear 36 1005 56 8000 5.1 330 15:37 30.09.2019
1036 Clear 36 1005 56 8000 5.1 330 15:18 30.09.2019
1037 Clear 37 1005 53 8000 4.6 330 14:57 30.09.2019
1038 Clear 37 1005 53 8000 4.6 330 14:37 30.09.2019
1039 Clear 37 1005 53 8000 4.6 330 14:18 30.09.2019
1040 Clear 37 1005 53 8000 4.6 330 14:18 30.09.2019
1041 Clear 37 1005 50 8000 5.7 320 13:44 30.09.2019
1042 Clear 37 1005 50 8000 5.7 320 13:23 30.09.2019
1043 Clear 37 1006 42 9000 6.2 300 12:59 30.09.2019
1044 Clear 37 1006 42 9000 6.2 300 12:40 30.09.2019
1045 Clear 37 1006 42 9000 6.2 300 12:21 30.09.2019
1046 Dust 37 1007 42 10000 6.7 300 11:44 30.09.2019
1047 Dust 37 1007 42 10000 6.7 300 11:22 30.09.2019
1048 Clear 38 1008 47 9000 5.1 330 10:59 30.09.2019
1049 Clear 38 1008 47 9000 5.1 330 10:39 30.09.2019
1050 Clear 38 1008 47 9000 5.1 330 10:19 30.09.2019
1051 Dust 38 1008 47 9000 6.2 340 09:58 30.09.2019
1052 Dust 38 1008 47 9000 6.2 340 09:39 30.09.2019
1053 Dust 38 1008 47 9000 6.2 340 09:20 30.09.2019
1054 Dust 38 1008 33 6000 5.1 220 08:46 30.09.2019
1055 Dust 38 1008 33 6000 5.1 220 08:28 30.09.2019
1056 Dust 36 1008 41 10000 3.6 220 07:44 30.09.2019
1057 Dust 36 1008 41 10000 3.6 220 07:26 30.09.2019
1058 Dust 34 1007 39 10000 3.6 190 06:56 30.09.2019
1059 Dust 34 1007 39 10000 3.6 190 06:33 30.09.2019
1060 Clear 33 1006 44 10000 4.1 190 05:47 30.09.2019
1061 Clear 33 1006 44 10000 4.1 190 05:47 30.09.2019
1062 Haze 30 1005 79 7000 3.1 200 03:45 30.09.2019
1063 Haze 31 1005 75 7000 2.1 140 02:46 30.09.2019
1064 Haze 31 1006 75 7000 3.6 110 01:35 30.09.2019
1065 Haze 31 1007 79 6000 4.1 80 00:42 30.09.2019
1066 Haze 31 1007 79 6000 4.1 80 00:21 30.09.2019
1067 Haze 31 1007 79 6000 5.1 50 23:46 29.09.2019
1068 Haze 31 1007 79 6000 5.1 50 23:23 29.09.2019
1069 Haze 31 1008 79 6000 6.2 60 22:55 29.09.2019
1070 Haze 31 1008 79 6000 6.2 60 22:37 29.09.2019
1071 Haze 31 1008 79 6000 6.2 60 22:19 29.09.2019
1072 Haze 32 1007 75 6000 3.6 50 21:57 29.09.2019
1073 Haze 32 1007 75 6000 3.6 50 21:37 29.09.2019
1074 Haze 32 1007 75 6000 3.6 50 21:19 29.09.2019
1075 Haze 32 1007 75 6000 4.1 40 20:44 29.09.2019
1076 Haze 32 1007 75 6000 4.1 40 20:20 29.09.2019
1077 Clear 32 1006 75 6000 2.6 360 19:59 29.09.2019
1078 Clear 32 1006 75 6000 2.6 360 19:38 29.09.2019
1079 Clear 32 1006 75 6000 2.6 360 19:19 29.09.2019
1080 Clear 33 1006 75 6000 2.6 360 18:56 29.09.2019
1081 Clear 33 1006 75 6000 2.6 360 18:56 29.09.2019
1082 Clear 33 1006 75 6000 2.6 360 18:38 29.09.2019
1083 Clear 33 1006 75 6000 2.6 360 18:19 29.09.2019
1084 Clear 33 1006 75 7000 4.6 330 17:58 29.09.2019
1085 Clear 33 1006 75 7000 4.6 330 17:38 29.09.2019
1086 Clear 35 1005 59 7000 5.7 320 17:19 29.09.2019
1087 Clear 35 1005 59 7000 5.7 320 16:58 29.09.2019
1088 Clear 35 1005 59 7000 5.7 320 16:40 29.09.2019
1089 Clear 35 1005 59 7000 5.7 320 16:19 29.09.2019
1090 Clear 35 1005 59 7000 5.7 320 16:19 29.09.2019
1091 Clear 36 1005 53 7000 6.7 330 15:56 29.09.2019
1092 Clear 36 1005 53 7000 6.7 330 15:36 29.09.2019
1093 Clear 36 1005 53 7000 6.7 330 15:18 29.09.2019
1094 Clear 37 1005 53 7000 6.2 320 14:55 29.09.2019
1095 Clear 37 1005 53 7000 6.2 320 14:36 29.09.2019
1096 Clear 37 1005 53 7000 6.2 320 14:18 29.09.2019
1097 Clear 38 1005 47 10000 6.2 320 13:41 29.09.2019
1098 Clear 38 1005 47 10000 6.2 320 13:19 29.09.2019
1099 Clear 38 1006 42 10000 5.7 330 12:58 29.09.2019
1100 Clear 38 1006 42 10000 5.7 330 12:40 29.09.2019
1101 Clear 38 1006 42 10000 5.7 330 12:21 29.09.2019
1102 Clear 39 1006 39 10000 4.1 290 11:57 29.09.2019
1103 Clear 39 1006 39 10000 4.1 290 11:38 29.09.2019
1104 Clear 39 1007 29 10000 4.6 270 11:18 29.09.2019
1105 Clear 39 1007 29 10000 4.6 270 10:57 29.09.2019
1106 Clear 39 1007 29 10000 4.6 270 10:36 29.09.2019
1107 Clear 39 1007 29 10000 4.6 270 10:18 29.09.2019
1108 Clear 38 1008 31 10000 3.6 250 09:44 29.09.2019
1109 Clear 38 1008 31 10000 3.6 250 09:21 29.09.2019
1110 Clear 36 1008 44 10000 2.6 210 08:58 29.09.2019
1111 Clear 36 1008 44 10000 2.6 210 08:37 29.09.2019
1112 Clear 36 1008 44 10000 2.6 210 08:18 29.09.2019
1113 Clear 33 1008 63 8000 3.1 210 07:41 29.09.2019
1114 Clear 33 1008 63 8000 3.1 210 07:23 29.09.2019
1115 Haze 31 1007 84 5000 2.6 210 06:42 29.09.2019
1116 Haze 30 1006 79 7000 3.1 190 04:57 29.09.2019
1117 Haze 30 1006 79 7000 3.1 190 04:25 29.09.2019
1118 Haze 30 1006 79 8000 2.1 170 03:55 29.09.2019
1119 Haze 30 1005 79 8000 2.6 240 02:40 29.09.2019
1120 Clouds 31 1005 79 8000 2.6 190 01:51 29.09.2019
1121 Clouds 31 1005 79 8000 2.6 190 01:30 29.09.2019
1122 Clouds 31 1005 79 8000 1.5 210 00:47 29.09.2019
1123 Clouds 31 1005 79 8000 1.5 210 00:20 29.09.2019
1124 Clouds 32 1006 75 10000 2.1 210 23:42 28.09.2019
1125 Clouds 32 1006 75 10000 2.1 210 23:22 28.09.2019
1126 Clear 32 1005 70 0 1.7 223.925 22:56 28.09.2019
1127 Clear 32 1005 70 0 1.7 223.925 22:37 28.09.2019
1128 Clear 32 1005 70 0 1.7 223.925 22:19 28.09.2019
1129 Clear 32 1005 70 0 1.7 223.925 21:55 28.09.2019
1130 Clear 32 1005 70 0 1.7 223.925 21:55 28.09.2019
1131 Clear 32 1005 70 0 1.7 223.925 21:36 28.09.2019
1132 Clouds 32 1006 76 0 3.41 311.791 21:18 28.09.2019
1133 Clouds 32 1006 76 0 3.41 311.791 20:55 28.09.2019
1134 Clear 32 1006 77 0 5.46 356.997 20:36 28.09.2019
1135 Clear 32 1006 77 0 5.46 356.997 20:18 28.09.2019
1136 Clear 32 1006 77 0 5.46 356.997 19:42 28.09.2019
1137 Clear 32 1006 77 0 5.46 356.997 19:22 28.09.2019
1138 Clear 32 1006 77 0 5.46 356.997 19:22 28.09.2019
1139 Clear 32 1006 77 0 5.46 356.997 18:59 28.09.2019
1140 Clear 32 1006 77 0 5.46 356.997 18:41 28.09.2019
1141 Clear 33 1005 67 10000 3.6 320 18:21 28.09.2019
1142 Clear 33 1005 67 10000 3.6 320 17:57 28.09.2019
1143 Clear 33 1005 67 10000 3.6 320 17:39 28.09.2019
1144 Clear 33 1005 67 10000 3.6 320 17:21 28.09.2019
1145 Clouds 34 1005 67 8000 4.6 330 16:49 28.09.2019
1146 Clouds 34 1005 67 8000 4.6 330 16:29 28.09.2019
1147 Clouds 35 1005 63 8000 5.7 320 15:59 28.09.2019
1148 Clouds 35 1005 63 8000 5.7 320 15:39 28.09.2019
1149 Clouds 35 1005 63 8000 5.7 320 15:21 28.09.2019
1150 Clouds 36 1005 56 10000 6.7 320 14:54 28.09.2019
1151 Clouds 36 1005 56 10000 6.7 320 14:36 28.09.2019
1152 Clouds 36 1005 56 10000 6.7 320 14:18 28.09.2019
1153 Clouds 37 1006 60 10000 5.7 310 13:43 28.09.2019
1154 Clouds 37 1006 60 10000 5.7 310 13:20 28.09.2019
1155 Clear 37 1006 50 10000 5.1 310 12:55 28.09.2019
1156 Clear 37 1006 50 10000 5.1 310 12:36 28.09.2019
1157 Clear 37 1006 50 10000 5.1 310 12:18 28.09.2019
1158 Clear 37 1006 50 10000 5.1 310 12:18 28.09.2019
1159 Clear 38 1007 47 10000 5.7 290 11:40 28.09.2019
1160 Clear 38 1007 47 10000 5.7 290 11:20 28.09.2019
1161 Clear 38 1008 37 10000 3.1 0 10:44 28.09.2019
1162 Clear 38 1008 37 10000 3.1 0 10:21 28.09.2019
1163 Clear 37 1009 39 10000 4.1 260 09:59 28.09.2019
1164 Clear 37 1009 39 10000 4.1 260 09:59 28.09.2019
1165 Clear 37 1009 39 10000 4.1 260 09:40 28.09.2019
1166 Clear 37 1009 39 10000 4.1 260 09:40 28.09.2019
1167 Clear 37 1009 39 10000 4.1 260 09:19 28.09.2019
1168 Clear 35 1009 44 10000 4.1 200 08:47 28.09.2019
1169 Clear 35 1009 44 10000 4.1 200 08:29 28.09.2019
1170 Clear 33 1009 49 10000 4.1 200 07:56 28.09.2019
1171 Clear 33 1009 49 10000 4.1 200 07:38 28.09.2019
1172 Clear 33 1009 49 10000 4.1 200 07:38 28.09.2019
1173 Clear 31 1009 52 10000 4.1 200 07:18 28.09.2019
1174 Clear 31 1009 52 10000 4.1 200 06:37 28.09.2019
1175 Clear 31 1009 52 10000 4.1 200 06:37 28.09.2019
1176 Clear 31 1009 52 10000 4.1 200 06:19 28.09.2019
1177 Clear 31 1009 58 10000 3.6 200 05:25 28.09.2019
1178 Clear 30 1008 58 10000 2.6 210 04:45 28.09.2019
1179 Clear 30 1008 58 10000 2.6 210 04:26 28.09.2019
1180 Clear 31 1008 55 10000 2.1 200 03:35 28.09.2019
1181 Clear 32 1008 59 10000 2.1 0 02:58 28.09.2019
1182 Clear 32 1008 59 10000 2.1 0 02:37 28.09.2019
1183 Clear 32 1008 59 10000 2.1 0 02:18 28.09.2019
1184 Clear 32 1008 59 10000 3.1 180 01:41 28.09.2019
1185 Clear 32 1008 59 10000 3.1 180 01:19 28.09.2019
1186 Clear 32 1008 66 10000 2.6 200 00:44 28.09.2019
1187 Clear 32 1008 66 10000 2.6 200 00:26 28.09.2019
1188 Clear 31 1008 70 10000 1.5 90 23:39 27.09.2019
1189 Clear 31 1008 70 10000 1.5 90 23:39 27.09.2019
1190 Clear 31 1008 70 10000 1.5 90 23:21 27.09.2019
1191 Clear 33 1009 67 10000 2.6 350 22:49 27.09.2019
1192 Clear 33 1009 67 10000 2.6 350 22:21 27.09.2019
1193 Clear 33 1009 63 10000 3.1 350 21:59 27.09.2019
1194 Clear 33 1009 63 10000 3.1 350 21:59 27.09.2019
1195 Clear 33 1009 63 10000 3.1 350 21:40 27.09.2019
1196 Clear 33 1009 63 10000 3.1 350 21:20 27.09.2019
1197 Clear 33 1009 63 10000 3.1 350 21:20 27.09.2019
1198 Clear 33 1009 63 10000 2.1 360 20:58 27.09.2019
1199 Clear 33 1009 63 10000 2.1 360 20:40 27.09.2019
1200 Clear 33 1009 63 10000 2.1 360 20:19 27.09.2019
1201 Clear 33 1009 67 10000 2.1 350 19:57 27.09.2019
1202 Clear 33 1009 67 10000 2.1 350 19:38 27.09.2019
1203 Clear 33 1009 67 10000 2.1 350 19:19 27.09.2019
1204 Clear 34 1008 63 10000 2.6 0 18:42 27.09.2019
1205 Clear 34 1008 63 10000 2.6 0 18:23 27.09.2019
1206 Clear 34 1007 63 10000 4.6 340 17:56 27.09.2019
1207 Clear 34 1007 63 10000 4.6 340 17:38 27.09.2019
1208 Clear 34 1007 63 10000 4.6 340 17:20 27.09.2019
1209 -273 0 0 0 0 0 16:57 27.09.2019
1210 Clear 35 1007 59 10000 6.2 330 16:37 27.09.2019
1211 Clear 35 1007 59 10000 6.2 330 16:37 27.09.2019
1212 Clear 35 1007 59 10000 6.2 330 16:37 27.09.2019
1213 Clear 35 1007 59 10000 6.2 330 16:18 27.09.2019
1214 Clear 35 1007 59 10000 6.2 330 16:18 27.09.2019
1215 Clear 36 1007 53 10000 7.2 330 15:46 27.09.2019
1216 Clear 36 1007 53 10000 7.2 330 15:21 27.09.2019
1217 Clear 36 1007 53 10000 7.2 330 15:21 27.09.2019
1218 Clear 37 1007 47 10000 6.7 340 14:59 27.09.2019
1219 Clear 37 1007 47 10000 6.7 340 14:41 27.09.2019
1220 Clear 37 1007 47 10000 6.7 340 14:21 27.09.2019
1221 Clear 37 1007 45 10000 6.7 320 13:58 27.09.2019
1222 Clear 37 1007 45 10000 6.7 320 13:39 27.09.2019
1223 Clear 37 1007 45 10000 6.7 320 13:21 27.09.2019
1224 Clear 38 1008 39 10000 5.1 320 12:54 27.09.2019
1225 Clear 38 1008 39 10000 5.1 320 12:24 27.09.2019
1226 Clear 39 1009 35 10000 2.6 330 11:58 27.09.2019
1227 Clear 39 1009 35 10000 2.6 330 11:38 27.09.2019
1228 Clear 39 1009 35 10000 2.6 330 11:19 27.09.2019
1229 Clear 39 1009 35 10000 2.6 330 11:19 27.09.2019
1230 Clear 38 1010 37 10000 2.6 0 10:43 27.09.2019
1231 Clear 38 1010 37 10000 2.6 0 10:22 27.09.2019
1232 Clear 37 1011 39 10000 3.1 220 09:58 27.09.2019
1233 Clear 37 1011 39 10000 3.1 220 09:39 27.09.2019
1234 Clear 37 1011 39 10000 3.1 220 09:19 27.09.2019
1235 Clear 35 1011 44 10000 3.1 210 08:41 27.09.2019
1236 Clear 35 1011 44 10000 3.1 210 08:21 27.09.2019
1237 Clear 33 1011 46 10000 4.6 180 07:55 27.09.2019
1238 Clear 33 1011 46 10000 4.6 180 07:37 27.09.2019
1239 Clear 33 1011 46 10000 4.6 180 07:18 27.09.2019
1240 Clear 32 1011 52 10000 3.6 190 06:40 27.09.2019
1241 Clear 32 1011 52 10000 3.6 190 06:21 27.09.2019
1242 Clear 31 1010 55 10000 2.6 170 05:45 27.09.2019
1243 Clear 31 1010 55 10000 2.6 170 05:26 27.09.2019
1244 Clear 30 1009 62 10000 2.6 140 03:39 27.09.2019
1245 Clear 30 1008 70 10000 2.1 90 01:56 27.09.2019
1246 Clear 30 1008 70 10000 2.1 90 01:31 27.09.2019
1247 Clear 31 1008 63 10000 2.6 90 00:41 27.09.2019
1248 Clear 31 1008 66 10000 2.1 90 23:57 26.09.2019
1249 Clear 31 1008 66 10000 2.1 90 23:39 26.09.2019
1250 Clear 31 1008 66 10000 2.1 90 23:20 26.09.2019
1251 Clear 32 1009 66 10000 2.6 60 22:58 26.09.2019
1252 Clear 32 1009 66 10000 2.6 60 22:39 26.09.2019
1253 Clear 32 1009 66 10000 2.6 60 22:18 26.09.2019
1254 Clear 32 1009 66 10000 2.6 60 22:18 26.09.2019
1255 Clear 32 1009 70 10000 3.1 40 21:58 26.09.2019
1256 Clear 32 1009 70 10000 3.1 40 21:38 26.09.2019
1257 Clear 32 1009 70 10000 3.1 40 21:19 26.09.2019
1258 Clear 32 1009 70 10000 3.1 40 21:19 26.09.2019
1259 Clear 32 1009 70 10000 2.6 10 20:58 26.09.2019
1260 Clear 32 1009 70 10000 2.6 10 20:39 26.09.2019
1261 Clear 32 1009 70 10000 2.6 10 20:21 26.09.2019
1262 Clear 32 1009 66 10000 3.1 50 19:58 26.09.2019
1263 Clear 32 1009 66 10000 3.1 50 19:39 26.09.2019
1264 Clear 33 1008 67 10000 3.6 340 19:18 26.09.2019
1265 Clear 33 1008 67 10000 3.6 340 18:44 26.09.2019
1266 Clear 33 1008 67 10000 3.6 340 18:22 26.09.2019
1267 Clear 33 1007 66 10000 4.6 350 17:59 26.09.2019
1268 Clear 33 1007 66 10000 4.6 350 17:38 26.09.2019
1269 Clear 33 1007 66 10000 4.6 350 17:19 26.09.2019
1270 Clear 34 1007 63 10000 5.1 340 16:56 26.09.2019
1271 Clear 34 1007 63 10000 5.1 340 16:37 26.09.2019
1272 Clear 34 1007 63 10000 5.1 340 16:37 26.09.2019
1273 Clear 34 1007 63 10000 5.1 340 16:19 26.09.2019
1274 Dust 35 1007 56 10000 5.7 360 15:42 26.09.2019
1275 Dust 35 1007 56 10000 5.7 360 15:24 26.09.2019
1276 Dust 36 1007 53 10000 7.2 350 14:59 26.09.2019
1277 Dust 36 1007 53 10000 7.2 350 14:41 26.09.2019
1278 Dust 36 1007 53 10000 7.2 350 14:41 26.09.2019
1279 Dust 36 1007 53 10000 7.2 350 14:22 26.09.2019
1280 Clear 36 1007 47 10000 8.2 330 13:58 26.09.2019
1281 Clear 36 1007 47 10000 8.2 330 13:39 26.09.2019
1282 Clear 37 1008 42 10000 5.7 330 13:19 26.09.2019
1283 Clear 37 1008 42 10000 5.7 330 12:44 26.09.2019
1284 Clear 37 1008 42 10000 5.7 330 12:23 26.09.2019
1285 Clear 37 1009 42 10000 4.1 320 11:57 26.09.2019
1286 Clear 37 1009 42 10000 4.1 320 11:39 26.09.2019
1287 Clear 37 1009 42 10000 4.1 320 11:19 26.09.2019
1288 Clear 37 1010 42 10000 2.1 0 10:42 26.09.2019
1289 Clear 37 1010 42 10000 2.1 0 10:24 26.09.2019
1290 Clear 36 1011 41 10000 2.6 180 09:59 26.09.2019
1291 Clear 36 1011 41 10000 2.6 180 09:40 26.09.2019
1292 Clear 36 1011 41 10000 2.6 180 09:20 26.09.2019
1293 Clear 34 1011 50 10000 3.6 220 08:51 26.09.2019
1294 Clear 34 1011 50 10000 3.6 220 08:31 26.09.2019
1295 Clear 33 1011 52 10000 4.6 190 07:48 26.09.2019
1296 Clear 32 1010 55 10000 5.1 180 07:22 26.09.2019
1297 Clear 32 1010 55 10000 5.1 180 06:55 26.09.2019
1298 Clear 32 1010 55 10000 5.1 180 06:29 26.09.2019
1299 Clear 31 1010 55 8000 5.7 180 05:59 26.09.2019
1300 Clear 31 1010 55 8000 5.7 180 05:32 26.09.2019
1301 Clear 31 1009 55 9000 5.1 190 04:34 26.09.2019
1302 Clear 31 1008 59 10000 4.6 110 02:33 26.09.2019
1303 Clear 31 1008 55 10000 4.1 110 01:48 26.09.2019
1304 Clear 31 1008 55 10000 4.1 110 01:22 26.09.2019
1305 Clear 31 1008 59 10000 4.1 100 00:46 26.09.2019
1306 Clear 31 1008 59 10000 4.1 100 00:25 26.09.2019
1307 Clear 31 1008 59 10000 3.6 80 23:44 25.09.2019
1308 Clear 31 1008 59 10000 3.6 80 23:25 25.09.2019
1309 Clear 32 1008 52 10000 5.1 110 22:56 25.09.2019
1310 Clear 32 1008 52 10000 5.1 110 22:37 25.09.2019
1311 Clear 32 1008 52 10000 5.1 110 22:37 25.09.2019
1312 Clear 32 1008 52 10000 5.1 110 22:18 25.09.2019
1313 Clear 32 1008 52 10000 5.1 110 22:18 25.09.2019
1314 Clear 32 1007 46 10000 3.1 90 21:56 25.09.2019
1315 Clear 32 1007 46 10000 3.1 90 21:37 25.09.2019
1316 Clear 32 1007 46 10000 3.1 90 21:18 25.09.2019
1317 Clear 33 1008 46 10000 3.6 80 20:55 25.09.2019
1318 Clear 33 1008 46 10000 3.6 80 20:37 25.09.2019
1319 Clear 33 1008 46 10000 3.6 80 20:18 25.09.2019
1320 Clear 33 1008 46 10000 3.6 80 20:18 25.09.2019
1321 Clear 34 1007 44 10000 3.1 60 19:40 25.09.2019
1322 Clear 34 1007 44 10000 3.1 60 19:21 25.09.2019
1323 Clear 35 1007 39 10000 5.1 60 18:56 25.09.2019
1324 Clear 35 1007 39 10000 5.1 60 18:38 25.09.2019
1325 Clear 34 1006 56 10000 5.1 30 18:20 25.09.2019
1326 Clear 34 1006 56 10000 5.1 30 17:40 25.09.2019
1327 Clear 34 1006 56 10000 5.1 30 17:22 25.09.2019
1328 Dust 35 1006 53 10000 6.2 20 16:58 25.09.2019
1329 Dust 35 1006 53 10000 6.2 20 16:58 25.09.2019
1330 Dust 35 1006 53 10000 6.2 20 16:40 25.09.2019
1331 Dust 35 1006 53 10000 6.2 20 16:22 25.09.2019
1332 Dust 35 1005 63 10000 6.7 10 15:56 25.09.2019
1333 Dust 35 1005 63 10000 6.7 10 15:56 25.09.2019
1334 Dust 35 1005 63 10000 6.7 10 15:38 25.09.2019
1335 Dust 35 1005 63 10000 6.7 10 15:19 25.09.2019
1336 Dust 36 1005 60 10000 7.2 10 14:42 25.09.2019
1337 Dust 36 1005 60 10000 7.2 10 14:22 25.09.2019
1338 Dust 37 1005 56 9000 6.7 360 13:58 25.09.2019
1339 Dust 37 1005 56 9000 6.7 360 13:39 25.09.2019
1340 Dust 37 1005 56 9000 6.7 360 13:20 25.09.2019
1341 Dust 37 1006 53 4000 6.7 340 12:54 25.09.2019
1342 Dust 37 1006 53 4000 6.7 340 12:36 25.09.2019
1343 Dust 39 1007 37 10000 3.1 50 12:18 25.09.2019
1344 Dust 39 1007 37 10000 3.1 50 11:40 25.09.2019
1345 Dust 39 1007 37 10000 3.1 50 11:20 25.09.2019
1346 Dust 37 1008 39 10000 3.6 70 10:47 25.09.2019
1347 Dust 37 1008 39 10000 3.6 70 10:27 25.09.2019
1348 Dust 36 1009 41 10000 4.6 100 09:59 25.09.2019
1349 Dust 36 1009 41 10000 4.6 100 09:59 25.09.2019
1350 Dust 36 1009 41 10000 4.6 100 09:40 25.09.2019
1351 Dust 36 1009 41 10000 4.6 100 09:22 25.09.2019
1352 Dust 35 1009 44 10000 3.6 140 08:56 25.09.2019
1353 Dust 35 1009 44 10000 3.6 140 08:56 25.09.2019
1354 Dust 35 1009 44 10000 3.6 140 08:37 25.09.2019
1355 Dust 35 1009 44 10000 3.6 140 08:19 25.09.2019
1356 Dust 33 1009 55 10000 4.6 160 07:40 25.09.2019
1357 Dust 33 1009 55 10000 4.6 160 07:22 25.09.2019
1358 Dust 32 1008 62 10000 4.6 140 06:55 25.09.2019
1359 Dust 32 1008 62 10000 4.6 140 06:32 25.09.2019
1360 Dust 30 1007 58 10000 5.7 110 05:43 25.09.2019
1361 Clear 30 1007 55 10000 4.6 110 04:58 25.09.2019
1362 Clear 30 1005 58 10000 4.1 90 02:32 25.09.2019
1363 Clear 30 1005 58 10000 5.1 110 01:19 25.09.2019
1364 Clear 31 1005 55 10000 3.1 100 00:37 25.09.2019
1365 Clear 31 1005 55 10000 3.1 100 00:18 25.09.2019
1366 Clear 31 1005 59 10000 4.1 80 23:41 24.09.2019
1367 Clear 31 1005 59 10000 4.1 80 23:21 24.09.2019
1368 Clear 31 1005 55 10000 5.7 90 22:56 24.09.2019
1369 Clear 31 1005 55 10000 5.7 90 22:56 24.09.2019
1370 Clear 31 1005 55 10000 5.7 90 22:36 24.09.2019
1371 Clear 31 1005 55 10000 5.7 90 22:18 24.09.2019
1372 Clear 31 1005 55 10000 5.7 90 22:18 24.09.2019
1373 Clear 32 1005 55 10000 5.1 90 21:54 24.09.2019
1374 Clear 32 1005 55 10000 5.1 90 21:36 24.09.2019
1375 Clear 32 1005 55 10000 5.1 90 21:18 24.09.2019
1376 Clear 32 1005 55 10000 5.1 90 21:18 24.09.2019
1377 Clear 33 1006 56 10000 4.6 100 20:55 24.09.2019
1378 Clear 33 1006 56 10000 4.6 100 20:55 24.09.2019
1379 Clear 33 1006 56 10000 4.6 100 20:37 24.09.2019
1380 Clear 33 1006 56 10000 4.6 100 20:18 24.09.2019
1381 Clear 33 1006 52 10000 5.1 90 19:41 24.09.2019
1382 Clear 33 1006 52 10000 5.1 90 19:19 24.09.2019
1383 Dust 34 1005 47 10000 6.7 100 18:56 24.09.2019
1384 Dust 34 1005 47 10000 6.7 100 18:56 24.09.2019
1385 Dust 34 1005 47 10000 6.7 100 18:38 24.09.2019
1386 Dust 34 1005 47 10000 6.7 100 18:20 24.09.2019
1387 Dust 36 1005 42 8000 5.7 90 17:55 24.09.2019
1388 Dust 36 1005 42 8000 5.7 90 17:37 24.09.2019
1389 Dust 36 1005 42 8000 5.7 90 17:19 24.09.2019
1390 Dust 38 1004 37 7000 6.7 90 16:41 24.09.2019
1391 Dust 38 1004 37 7000 6.7 90 16:20 24.09.2019
1392 Dust 40 1004 28 10000 6.2 90 15:57 24.09.2019
1393 Dust 40 1004 28 10000 6.2 90 15:38 24.09.2019
1394 Dust 40 1004 28 10000 6.2 90 15:19 24.09.2019
1395 Clear 41 1003 28 7000 7.2 80 14:38 24.09.2019
1396 Clear 41 1003 28 7000 7.2 80 14:18 24.09.2019
1397 Clear 42 1003 26 7000 7.2 70 13:45 24.09.2019
1398 Clear 42 1003 26 7000 7.2 70 13:21 24.09.2019
1399 Clear 42 1004 25 8000 6.7 100 12:42 24.09.2019
1400 Clear 42 1004 25 8000 6.7 100 12:22 24.09.2019
1401 Clear 42 1005 20 10000 4.6 120 11:58 24.09.2019
1402 Clear 42 1005 20 10000 4.6 120 11:40 24.09.2019
1403 Clear 42 1005 20 10000 4.6 120 11:21 24.09.2019
1404 Clear 40 1006 21 10000 5.1 110 10:40 24.09.2019
1405 Clear 40 1006 21 10000 5.1 110 10:22 24.09.2019
1406 Clear 40 1007 23 10000 4.6 120 09:58 24.09.2019
1407 Clear 40 1007 23 10000 4.6 120 09:58 24.09.2019
1408 Clear 40 1007 23 10000 4.6 120 09:40 24.09.2019
1409 Clear 40 1007 23 10000 4.6 120 09:19 24.09.2019
1410 Clear 37 1008 29 10000 4.1 110 08:55 24.09.2019
1411 Clear 37 1008 29 10000 4.1 110 08:55 24.09.2019
1412 Clear 37 1008 29 10000 4.1 110 08:37 24.09.2019
1413 Clear 37 1008 29 10000 4.1 110 08:18 24.09.2019
1414 Clear 34 1008 41 10000 5.7 120 07:42 24.09.2019
1415 Clear 34 1008 41 10000 5.7 120 07:42 24.09.2019
1416 Clear 34 1008 41 10000 5.7 120 07:24 24.09.2019
1417 Haze 32 1007 52 10000 5.1 120 06:47 24.09.2019
1418 Haze 32 1007 52 10000 5.1 120 06:27 24.09.2019
1419 Mist 29 1006 59 8000 3.1 100 05:27 24.09.2019
1420 Mist 29 1006 88 3000 2.1 80 04:58 24.09.2019
1421 Mist 29 1005 84 7000 3.6 60 03:42 24.09.2019
1422 Mist 30 1005 79 7000 3.6 70 02:45 24.09.2019
1423 Haze 30 1004 79 7000 3.1 40 01:44 24.09.2019
1424 Haze 31 1005 75 7000 3.1 30 00:42 24.09.2019
1425 Haze 31 1005 75 7000 3.1 30 00:23 24.09.2019
1426 Haze 31 1005 70 8000 1.5 0 23:44 23.09.2019
1427 Haze 31 1005 70 8000 1.5 0 23:24 23.09.2019
1428 Haze 31 1005 70 7000 2.6 50 22:57 23.09.2019
1429 Haze 31 1005 70 7000 2.6 50 22:38 23.09.2019
1430 Haze 31 1005 70 7000 2.6 50 22:20 23.09.2019
1431 Haze 32 1006 70 7000 2.1 0 21:56 23.09.2019
1432 Haze 32 1006 70 7000 2.1 0 21:37 23.09.2019
1433 Haze 32 1006 70 7000 2.1 0 21:18 23.09.2019
1434 Haze 32 1006 75 7000 2.6 90 20:41 23.09.2019
1435 Haze 32 1006 75 7000 2.6 90 20:20 23.09.2019
1436 Haze 33 1006 67 7000 2.1 20 19:56 23.09.2019
1437 Haze 33 1006 67 7000 2.1 20 19:38 23.09.2019
1438 Haze 33 1006 67 7000 2.1 20 19:20 23.09.2019
1439 Haze 33 1006 67 7000 2.1 20 19:20 23.09.2019
1440 Haze 33 1006 70 7000 3.6 340 18:43 23.09.2019
1441 Haze 33 1006 70 7000 3.6 340 18:21 23.09.2019
1442 Haze 33 1005 67 6000 4.1 340 17:59 23.09.2019
1443 Haze 33 1005 67 6000 4.1 340 17:39 23.09.2019
1444 Haze 33 1005 67 6000 4.1 340 17:21 23.09.2019
1445 Haze 34 1004 71 4500 6.2 330 17:00 23.09.2019
1446 Clear 33 1005 68 0 5.18 296.501 16:39 23.09.2019
1447 Haze 35 1004 63 4500 6.2 330 16:21 23.09.2019
1448 Haze 35 1004 63 4500 6.2 330 15:58 23.09.2019
1449 Haze 35 1004 63 4500 6.2 330 15:39 23.09.2019
1450 Haze 35 1004 63 4500 6.2 330 15:19 23.09.2019
1451 Dust 36 1004 47 4500 6.2 310 14:57 23.09.2019
1452 Dust 36 1004 47 4500 6.2 310 14:36 23.09.2019
1453 Dust 36 1004 47 4500 6.2 310 14:18 23.09.2019
1454 Clear 37 1004 47 6000 6.2 320 13:40 23.09.2019
1455 Clear 38 1005 44 6000 5.1 320 13:19 23.09.2019
1456 Clear 38 1005 44 6000 5.1 320 12:59 23.09.2019
1457 Clear 38 1005 44 6000 5.1 320 12:40 23.09.2019
1458 Clear 38 1005 44 6000 5.1 320 12:21 23.09.2019
1459 Dust 38 1006 50 5000 4.6 350 11:45 23.09.2019
1460 Dust 38 1006 50 5000 4.6 350 11:45 23.09.2019
1461 Dust 38 1006 50 5000 4.6 350 11:26 23.09.2019
1462 Dust 39 1006 53 5000 5.7 340 10:57 23.09.2019
1463 Dust 39 1006 53 5000 5.7 340 10:39 23.09.2019
1464 Dust 39 1006 53 5000 5.7 340 10:20 23.09.2019
1465 Dust 39 1006 53 5000 5.7 340 10:20 23.09.2019
1466 Clear 38 1007 35 7000 1 0 09:40 23.09.2019
1467 Clear 38 1007 35 7000 1 0 09:21 23.09.2019
1468 Haze 35 1008 53 6000 2.1 90 08:57 23.09.2019
1469 Haze 35 1008 53 6000 2.1 90 08:38 23.09.2019
1470 Haze 32 1007 70 4500 4.1 110 08:18 23.09.2019
1471 Haze 32 1007 70 4500 4.1 110 08:18 23.09.2019
1472 Haze 32 1007 70 4500 4.1 110 07:33 23.09.2019
1473 Haze 30 1007 70 4000 1.5 80 06:52 23.09.2019
1474 Haze 27 1006 79 3000 2.6 90 06:19 23.09.2019
1475 Haze 27 1006 79 3000 2.6 90 05:22 23.09.2019
1476 Fog 28 1006 100 800 1 80 04:55 23.09.2019
1477 Fog 28 1004 66 7000 2.1 0 03:56 23.09.2019
1478 Haze 28 1004 84 5000 2.1 90 01:25 23.09.2019
1479 Haze 29 1005 84 4500 2.1 100 00:24 23.09.2019
1480 Haze 29 1005 94 1200 1 90 23:58 22.09.2019
1481 Haze 29 1005 84 4500 4.1 120 23:39 22.09.2019
1482 Haze 29 1005 84 4500 4.1 120 23:20 22.09.2019
1483 Haze 30 1005 79 6000 3.6 110 22:54 22.09.2019
1484 Haze 30 1005 79 6000 3.6 110 22:36 22.09.2019
1485 Haze 30 1005 79 6000 3.6 110 22:18 22.09.2019
1486 Haze 31 1005 70 6000 2.1 80 21:40 22.09.2019
1487 Haze 31 1005 70 6000 2.1 80 21:20 22.09.2019
1488 Haze 32 1005 63 7000 1 0 20:43 22.09.2019
1489 Haze 32 1005 63 7000 1 0 20:24 22.09.2019
1490 Haze 33 1005 67 7000 3.1 340 19:56 22.09.2019
1491 Haze 33 1005 67 7000 3.1 340 19:38 22.09.2019
1492 Haze 33 1005 67 7000 3.1 340 19:38 22.09.2019
1493 Haze 33 1005 67 7000 3.1 340 19:19 22.09.2019
1494 Haze 33 1005 67 7000 2.6 360 18:57 22.09.2019
1495 Haze 33 1005 67 7000 2.6 360 18:57 22.09.2019
1496 Haze 33 1005 67 7000 2.6 360 18:37 22.09.2019
1497 Haze 33 1005 67 7000 2.6 360 18:37 22.09.2019
1498 Haze 34 1004 63 8000 4.1 340 18:18 22.09.2019
1499 Haze 34 1004 63 8000 4.1 340 17:42 22.09.2019
1500 Haze 34 1004 63 8000 4.1 340 17:24 22.09.2019
1501 Dust 36 1004 50 8000 5.1 330 16:48 22.09.2019
1502 Dust 36 1004 50 8000 5.1 330 16:27 22.09.2019
1503 Dust 36 1004 50 8000 5.1 330 16:27 22.09.2019
1504 Dust 36 1003 47 8000 6.2 330 15:59 22.09.2019
1505 Dust 36 1003 47 8000 6.2 330 15:40 22.09.2019
1506 Dust 36 1003 47 8000 6.2 330 15:40 22.09.2019
1507 Dust 36 1003 47 8000 6.2 330 15:22 22.09.2019
1508 Dust 38 1003 47 9000 6.2 320 14:47 22.09.2019
1509 Dust 38 1003 47 9000 6.2 320 14:47 22.09.2019
1510 Dust 38 1003 47 9000 6.2 320 14:27 22.09.2019
1511 Dust 38 1003 37 9000 7.2 330 13:59 22.09.2019
1512 Dust 38 1003 37 9000 7.2 330 13:41 22.09.2019
1513 Dust 38 1003 37 9000 7.2 330 13:41 22.09.2019
1514 Dust 38 1003 37 9000 7.2 330 13:22 22.09.2019
1515 Dust 40 1004 42 8000 5.1 310 12:56 22.09.2019
1516 Dust 40 1004 42 8000 5.1 310 12:38 22.09.2019
1517 Clear 40 1004 26 10000 2.6 0 12:18 22.09.2019
1518 Clear 40 1004 26 10000 2.6 0 11:43 22.09.2019
1519 Clear 40 1004 26 10000 2.6 0 11:24 22.09.2019
1520 Clear 40 1005 23 10000 3.6 250 10:55 22.09.2019
1521 Clear 40 1005 23 10000 3.6 250 10:55 22.09.2019
1522 Clear 40 1005 23 10000 3.6 250 10:37 22.09.2019
1523 Clear 40 1005 23 10000 3.6 250 10:19 22.09.2019
1524 Clear 38 1006 31 10000 3.6 250 09:42 22.09.2019
1525 Clouds 35 1006 44 8000 3.1 200 09:21 22.09.2019
1526 Clouds 35 1006 44 8000 3.1 200 08:49 22.09.2019
1527 Clear 35 1006 44 8000 3.1 200 08:26 22.09.2019
1528 Haze 33 1006 66 6000 2.6 140 07:58 22.09.2019
1529 Haze 33 1006 66 6000 2.6 140 07:39 22.09.2019
1530 Haze 30 1006 70 5000 2.6 110 07:21 22.09.2019
1531 Haze 30 1006 70 5000 2.6 110 06:56 22.09.2019
1532 Haze 28 1005 84 4500 1 0 05:37 22.09.2019
1533 Haze 28 1003 84 5000 2.1 90 03:50 22.09.2019
1534 Mist 29 1003 79 6000 2.1 90 02:41 22.09.2019
1535 Mist 29 1003 79 6000 2.1 90 02:23 22.09.2019
1536 Haze 30 1003 79 6000 2.1 100 01:34 22.09.2019
1537 Haze 30 1003 79 6000 3.1 60 00:39 22.09.2019
1538 Haze 30 1003 79 6000 3.1 60 00:20 22.09.2019
1539 Haze 31 1003 75 6000 3.1 90 23:41 21.09.2019
1540 Haze 31 1003 75 6000 3.1 90 23:22 21.09.2019
1541 Haze 31 1004 70 8000 3.1 90 22:40 21.09.2019
1542 Haze 31 1004 70 8000 3.1 90 22:21 21.09.2019
1543 Haze 32 1003 70 8000 2.1 240 21:55 21.09.2019
1544 Haze 32 1003 70 8000 2.1 240 21:37 21.09.2019
1545 Haze 32 1003 70 8000 2.1 240 21:18 21.09.2019
1546 Haze 32 1003 70 8000 2.1 240 21:18 21.09.2019
1547 Clear 32 1004 71 8000 1 0 20:40 21.09.2019
1548 Clear 32 1004 71 8000 1 0 20:40 21.09.2019
1549 Clear 32 1004 71 8000 1 0 20:22 21.09.2019
1550 Clear 32 1004 71 8000 1 0 20:22 21.09.2019
1551 Clear 33 1003 71 8000 1.5 360 19:54 21.09.2019
1552 Clear 33 1003 71 8000 1.5 360 19:36 21.09.2019
1553 Clear 33 1003 71 8000 3.1 330 19:18 21.09.2019
1554 Clear 33 1003 71 8000 3.1 330 18:38 21.09.2019
1555 Clear 33 1003 71 8000 3.1 330 18:20 21.09.2019
1556 Haze 34 1003 67 8000 4.1 340 17:42 21.09.2019
1557 Haze 34 1003 67 8000 4.1 340 17:23 21.09.2019
1558 Clear 34 1002 63 7000 5.7 340 16:44 21.09.2019
1559 Clear 34 1002 63 7000 5.7 340 16:25 21.09.2019
1560 Clear 36 1002 60 7000 6.2 330 15:59 21.09.2019
1561 Clear 36 1002 60 7000 6.2 330 15:40 21.09.2019
1562 Clear 36 1002 60 7000 6.2 330 15:20 21.09.2019
1563 Clear 36 1002 53 7000 6.7 320 14:44 21.09.2019
1564 Clear 36 1002 53 7000 6.7 320 14:26 21.09.2019
1565 Clear 37 1002 53 7000 7.2 320 13:43 21.09.2019
1566 Clear 38 1003 45 8000 6.2 310 13:25 21.09.2019
1567 Clear 38 1003 45 8000 6.2 310 12:58 21.09.2019
1568 Clear 38 1003 45 8000 6.2 310 12:39 21.09.2019
1569 Clear 38 1003 45 8000 6.2 310 12:39 21.09.2019
1570 Clear 39 1003 42 10000 5.1 290 12:20 21.09.2019
1571 Clear 39 1003 42 10000 5.1 290 11:51 21.09.2019
1572 Clear 39 1003 42 10000 5.1 290 11:26 21.09.2019
1573 Clear 39 1004 29 10000 2.1 260 10:56 21.09.2019
1574 Clear 39 1004 29 10000 2.1 260 10:38 21.09.2019
1575 Clear 39 1004 29 10000 2.1 260 10:20 21.09.2019
1576 Clear 38 1005 31 10000 3.1 0 09:55 21.09.2019
1577 Clear 38 1005 31 10000 3.1 0 09:37 21.09.2019
1578 Clear 38 1005 31 10000 3.1 0 09:18 21.09.2019
1579 Clear 37 1005 39 10000 2.1 230 08:43 21.09.2019
1580 Clear 37 1005 39 10000 2.1 230 08:43 21.09.2019
1581 Clear 34 1006 46 10000 1.5 220 07:58 21.09.2019
1582 Clear 34 1006 46 10000 1.5 220 07:39 21.09.2019
1583 Clear 31 1005 66 10000 1.5 240 07:19 21.09.2019
1584 Clear 31 1005 66 10000 1.5 240 06:36 21.09.2019
1585 Clear 30 1005 62 10000 2.1 190 05:51 21.09.2019
1586 Clear 29 1004 70 10000 2.6 180 04:39 21.09.2019
1587 Clear 29 1004 79 10000 2.6 180 03:34 21.09.2019
1588 Mist 30 1003 70 10000 2.6 80 02:25 21.09.2019
1589 Clear 30 1003 75 10000 2.1 100 01:48 21.09.2019
1590 Clear 30 1003 75 10000 2.1 100 01:23 21.09.2019
1591 Clear 29 1004 79 10000 3.1 110 00:23 21.09.2019
1592 Clear 30 1004 70 10000 3.6 110 23:49 20.09.2019
1593 Clear 30 1004 70 10000 3.6 110 23:30 20.09.2019
1594 Clear 32 1005 63 10000 1.5 0 22:55 20.09.2019
1595 Clear 32 1005 63 10000 1.5 0 22:55 20.09.2019
1596 Clear 32 1005 63 10000 1.5 0 22:36 20.09.2019
1597 Clear 32 1005 63 10000 1.5 220 22:18 20.09.2019
1598 Clear 32 1005 63 10000 1.5 220 21:40 20.09.2019
1599 Clear 32 1005 63 10000 1.5 220 21:22 20.09.2019
1600 Clear 33 1005 63 10000 2.1 280 20:59 20.09.2019
1601 Clear 33 1005 63 10000 2.1 280 20:41 20.09.2019
1602 Clear 33 1005 63 10000 2.1 280 20:20 20.09.2019
1603 Clear 33 1005 59 10000 4.1 310 19:56 20.09.2019
1604 Clear 33 1005 59 10000 4.1 310 19:56 20.09.2019
1605 Clear 33 1005 59 10000 4.1 310 19:37 20.09.2019
1606 Clear 33 1005 63 10000 4.6 320 19:18 20.09.2019
1607 Clear 33 1005 63 10000 4.6 320 18:39 20.09.2019
1608 Clear 33 1005 63 10000 4.6 320 18:20 20.09.2019
1609 Clear 34 1005 59 10000 6.2 320 17:56 20.09.2019
1610 Clear 34 1005 59 10000 6.2 320 17:38 20.09.2019
1611 Clear 34 1005 59 10000 6.2 320 17:18 20.09.2019
1612 Clear 35 1004 53 10000 5.7 320 16:38 20.09.2019
1613 Clear 35 1004 53 10000 5.7 320 16:19 20.09.2019
1614 Clear 33 1004 67 0 5.42 309.402 15:42 20.09.2019
1615 Clear 37 1004 44 10000 7.2 320 15:23 20.09.2019
1616 Clear 37 1004 44 10000 7.2 320 15:23 20.09.2019
1617 Clear 37 1004 44 10000 7.2 320 14:56 20.09.2019
1618 Clear 37 1004 44 10000 7.2 320 14:38 20.09.2019
1619 Clear 37 1004 44 10000 7.2 320 14:18 20.09.2019
1620 Clear 33 1004 62 0 5.04 308.253 13:44 20.09.2019
1621 Clear 39 1005 35 10000 6.2 290 13:25 20.09.2019
1622 Clear 39 1005 35 10000 6.2 290 12:42 20.09.2019
1623 Clear 39 1005 35 10000 6.2 290 12:23 20.09.2019
1624 Clear 40 1006 27 10000 7.2 300 11:57 20.09.2019
1625 Clear 40 1006 27 10000 7.2 300 11:39 20.09.2019
1626 Clear 40 1006 27 10000 7.2 300 11:19 20.09.2019
1627 Clear 40 1006 26 8000 4.6 230 10:42 20.09.2019
1628 Clear 40 1006 26 8000 4.6 230 10:22 20.09.2019
1629 Clear 39 1007 24 10000 6.2 240 09:38 20.09.2019
1630 Clear 39 1007 24 10000 6.2 240 09:19 20.09.2019
1631 Clear 37 1007 27 10000 6.2 220 08:59 20.09.2019
1632 Clear 37 1007 27 10000 6.2 220 08:59 20.09.2019
1633 Clear 37 1007 27 10000 6.2 220 08:39 20.09.2019
1634 Clear 37 1007 27 10000 6.2 220 08:20 20.09.2019
1635 Clear 36 1007 26 10000 6.2 190 07:41 20.09.2019
1636 Clear 36 1007 26 10000 6.2 190 07:23 20.09.2019
1637 Clear 32 1007 31 10000 5.1 190 06:43 20.09.2019
1638 Clear 32 1007 31 10000 5.1 190 06:43 20.09.2019
1639 Clear 32 1007 31 10000 5.1 190 06:19 20.09.2019
1640 Clear 30 1006 36 10000 2.6 170 04:58 20.09.2019
1641 Clear 29 1006 55 10000 4.1 130 03:29 20.09.2019
1642 Clear 28 1005 62 10000 2.6 100 02:39 20.09.2019
1643 Clear 29 1005 62 10000 2.6 90 01:43 20.09.2019
1644 Clear 29 1005 62 10000 2.6 90 01:43 20.09.2019
1645 Clear 30 1005 63 10000 2.6 120 00:44 20.09.2019
1646 Clear 30 1005 63 10000 2.1 100 23:59 19.09.2019
1647 Clear 30 1005 63 10000 2.1 100 23:41 19.09.2019
1648 Clear 30 1005 63 10000 2.1 100 23:18 19.09.2019
1649 Clear 31 1005 59 10000 2.1 0 22:41 19.09.2019
1650 Clear 31 1005 59 10000 2.1 0 22:23 19.09.2019
1651 Clear 32 1005 53 10000 2.1 0 21:58 19.09.2019
1652 Clear 32 1005 53 10000 2.1 0 21:39 19.09.2019
1653 Clear 32 1005 53 10000 2.1 0 21:20 19.09.2019
1654 Clear 33 1006 50 10000 2.1 50 20:59 19.09.2019
1655 Clear 33 1006 50 10000 2.1 50 20:40 19.09.2019
1656 Clear 33 1006 50 10000 2.1 50 20:19 19.09.2019
1657 Clear 34 1006 50 10000 2.6 60 19:54 19.09.2019
1658 Clear 34 1006 50 10000 2.6 60 19:54 19.09.2019
1659 Clear 34 1006 50 10000 2.6 60 19:36 19.09.2019
1660 Clear 34 1006 50 10000 2.6 60 19:36 19.09.2019
1661 Clear 35 1006 50 10000 3.1 50 19:18 19.09.2019
1662 Clear 35 1006 50 10000 3.1 50 18:41 19.09.2019
1663 Clear 36 1005 47 10000 3.1 30 18:22 19.09.2019
1664 Clear 36 1005 47 10000 3.1 30 17:44 19.09.2019
1665 Clear 36 1005 47 10000 3.1 30 17:25 19.09.2019
1666 Clear 37 1005 42 10000 4.1 360 16:59 19.09.2019
1667 Clear 37 1005 42 10000 4.1 360 16:59 19.09.2019
1668 Clear 37 1005 42 10000 4.1 360 16:40 19.09.2019
1669 Clear 37 1005 42 10000 4.1 360 16:20 19.09.2019
1670 Dust 38 1005 42 10000 6.7 340 15:41 19.09.2019
1671 Dust 38 1005 42 10000 6.7 340 15:22 19.09.2019
1672 Clear 39 1004 42 10000 6.7 340 14:58 19.09.2019
1673 Clear 39 1004 42 10000 6.7 340 14:39 19.09.2019
1674 Clear 39 1004 42 10000 6.7 340 14:20 19.09.2019
1675 Clear 40 1004 35 10000 7.2 350 13:40 19.09.2019
1676 Clear 40 1004 35 10000 7.2 350 13:22 19.09.2019
1677 Clear 42 1005 23 10000 6.7 330 12:59 19.09.2019
1678 Clear 42 1005 23 10000 6.7 330 12:36 19.09.2019
1679 Clear 42 1005 25 10000 5.1 330 12:18 19.09.2019
1680 Clear 43 1006 15 10000 2.6 60 11:41 19.09.2019
1681 Clear 43 1006 15 10000 2.6 60 11:22 19.09.2019
1682 Clear 42 1007 16 10000 2.6 170 10:58 19.09.2019
1683 Clear 42 1007 16 10000 2.6 170 10:39 19.09.2019
1684 Clear 42 1007 16 10000 2.6 170 10:21 19.09.2019
1685 Clear 40 1008 20 10000 3.6 190 09:56 19.09.2019
1686 Clear 40 1008 20 10000 3.6 190 09:38 19.09.2019
1687 Clear 39 1008 24 10000 5.1 180 09:19 19.09.2019
1688 Clear 39 1008 24 10000 5.1 180 08:49 19.09.2019
1689 Clear 39 1008 24 10000 5.1 180 08:23 19.09.2019
1690 Clear 36 1008 27 10000 5.1 160 07:44 19.09.2019
1691 Clear 34 1008 28 10000 5.7 160 07:22 19.09.2019
1692 Clear 34 1008 28 10000 5.7 160 06:51 19.09.2019
1693 Clear 34 1008 28 10000 5.7 160 06:32 19.09.2019
1694 Clear 30 1007 31 10000 4.6 170 05:53 19.09.2019
1695 Clear 30 1007 31 10000 4.6 170 05:34 19.09.2019
1696 Clear 30 1007 31 10000 4.6 170 05:34 19.09.2019
1697 Haze 28 1005 83 6000 3.1 140 03:55 19.09.2019
1698 Haze 28 1005 83 6000 3.1 140 03:19 19.09.2019
1699 Haze 29 1005 84 5000 3.1 80 01:34 19.09.2019
1700 Haze 29 1005 84 5000 2.1 90 00:53 19.09.2019
1701 Haze 29 1005 84 5000 2.1 90 00:26 19.09.2019
1702 Haze 30 1005 79 5000 2.6 60 23:44 18.09.2019
1703 Haze 30 1005 79 5000 2.6 60 23:23 18.09.2019
1704 Haze 30 1005 79 5000 2.6 60 22:57 18.09.2019
1705 Haze 30 1005 79 5000 2.6 60 22:37 18.09.2019
1706 Haze 30 1005 79 5000 2.6 60 22:18 18.09.2019
1707 Haze 32 1005 75 5000 2.6 60 21:56 18.09.2019
1708 Haze 32 1005 75 5000 2.6 60 21:37 18.09.2019
1709 Haze 32 1005 75 5000 2.6 60 21:18 18.09.2019
1710 Haze 32 1006 75 5000 2.1 50 20:56 18.09.2019
1711 Haze 32 1006 75 5000 2.1 50 20:37 18.09.2019
1712 Haze 33 1006 75 5000 2.6 30 20:19 18.09.2019
1713 Haze 33 1006 75 5000 2.6 30 19:54 18.09.2019
1714 Haze 33 1006 75 5000 2.6 30 19:36 18.09.2019
1715 Haze 33 1005 75 5000 3.6 340 19:18 18.09.2019
1716 Haze 33 1005 75 5000 3.6 340 18:54 18.09.2019
1717 Haze 33 1005 75 5000 3.6 340 18:54 18.09.2019
1718 Haze 33 1005 75 5000 3.6 340 18:36 18.09.2019
1719 Haze 33 1005 75 5000 3.6 340 18:18 18.09.2019
1720 Haze 34 1005 75 6000 4.1 330 17:40 18.09.2019
1721 Haze 34 1005 75 6000 4.1 330 17:19 18.09.2019
1722 Haze 35 1004 67 5000 6.2 340 16:58 18.09.2019
1723 Haze 35 1004 67 5000 6.2 340 16:39 18.09.2019
1724 Haze 35 1004 67 5000 6.2 340 16:21 18.09.2019
1725 Clear 36 1004 63 7000 6.7 340 15:56 18.09.2019
1726 Clear 36 1004 63 7000 6.7 340 15:38 18.09.2019
1727 Dust 36 1004 63 8000 7.2 340 15:20 18.09.2019
1728 Dust 36 1004 63 8000 7.2 340 14:58 18.09.2019
1729 Dust 36 1004 63 8000 7.2 340 14:39 18.09.2019
1730 -273 0 0 0 0 0 14:21 18.09.2019
1731 Dust 37 1005 53 4500 9.3 340 13:57 18.09.2019
1732 Dust 37 1004 63 7000 8.2 340 13:37 18.09.2019
1733 Dust 37 1004 45 2000 9.8 330 13:18 18.09.2019
1734 Dust 38 1004 60 8000 7.2 360 12:41 18.09.2019
1735 Clouds 39 1005 53 8000 6.7 350 12:22 18.09.2019
1736 Clouds 39 1005 53 8000 6.7 350 11:40 18.09.2019
1737 Clear 41 1005 45 10000 7.2 340 11:20 18.09.2019
1738 Clear 41 1005 45 10000 7.2 340 10:57 18.09.2019
1739 Clear 41 1005 45 10000 7.2 340 10:39 18.09.2019
1740 Clouds 41 1005 48 7000 5.7 310 10:19 18.09.2019
1741 Clouds 41 1005 48 7000 5.7 310 09:54 18.09.2019
1742 Clear 42 1006 23 10000 2.1 0 09:36 18.09.2019
1743 Clear 42 1006 23 10000 2.1 0 09:18 18.09.2019
1744 Clear 39 1006 37 10000 3.1 170 08:41 18.09.2019
1745 Clear 39 1006 37 10000 3.1 170 08:21 18.09.2019
1746 Clouds 35 1006 53 8000 3.1 160 07:44 18.09.2019
1747 Clouds 35 1006 53 8000 3.1 160 07:23 18.09.2019
1748 Haze 31 1006 66 8000 3.6 110 06:49 18.09.2019
1749 Haze 31 1006 66 8000 3.6 110 06:24 18.09.2019
1750 Haze 30 1005 75 7000 2.1 150 05:27 18.09.2019
1751 Mist 30 1004 84 8000 3.6 100 03:40 18.09.2019
1752 Haze 30 1004 84 8000 3.1 80 02:40 18.09.2019
1753 Clear 31 1003 75 10000 2.6 60 01:44 18.09.2019
1754 Clear 31 1003 75 10000 2.6 340 00:56 18.09.2019
1755 Clear 31 1003 75 10000 2.6 340 00:32 18.09.2019
1756 Clear 32 1004 75 10000 2.1 340 23:48 17.09.2019
1757 Clear 32 1004 75 10000 2.1 340 23:25 17.09.2019
1758 Clear 32 1004 71 10000 2.6 0 22:57 17.09.2019
1759 Clear 32 1004 71 10000 2.6 0 22:38 17.09.2019
1760 Clear 32 1004 71 10000 2.6 0 22:19 17.09.2019
1761 Clear 33 1004 67 10000 2.6 30 21:54 17.09.2019
1762 Clear 33 1004 67 10000 2.6 30 21:36 17.09.2019
1763 Clear 33 1004 67 10000 2.6 30 21:18 17.09.2019
1764 Clear 33 1004 63 10000 1.5 0 20:55 17.09.2019
1765 Clear 33 1004 63 10000 1.5 0 20:55 17.09.2019
1766 Clear 33 1004 63 10000 1.5 0 20:37 17.09.2019
1767 Clear 33 1004 63 10000 1.5 0 20:37 17.09.2019
1768 Clear 33 1004 63 10000 1.5 0 20:37 17.09.2019
1769 Clear 34 1004 63 10000 2.1 340 20:19 17.09.2019
1770 Clear 34 1004 63 10000 2.1 340 19:54 17.09.2019
1771 Clear 34 1004 63 10000 2.1 340 19:36 17.09.2019
1772 Clear 34 1004 63 10000 3.6 330 19:18 17.09.2019
1773 Clear 34 1004 63 10000 3.6 330 18:42 17.09.2019
1774 Clear 34 1004 63 10000 3.6 330 18:22 17.09.2019
1775 Clear 34 1003 59 10000 4.1 340 17:55 17.09.2019
1776 Clear 34 1003 59 10000 4.1 340 17:37 17.09.2019
1777 Clear 35 1003 56 10000 5.7 340 17:18 17.09.2019
1778 Clear 35 1003 56 10000 5.7 340 16:41 17.09.2019
1779 Clear 35 1003 56 10000 5.7 340 16:41 17.09.2019
1780 Clear 35 1003 56 10000 5.7 340 16:22 17.09.2019
1781 Clear 36 1003 56 10000 7.7 340 15:58 17.09.2019
1782 Clear 36 1003 56 10000 7.7 340 15:37 17.09.2019
1783 Clear 36 1003 56 10000 7.7 340 15:19 17.09.2019
1784 Clear 38 1003 45 10000 7.7 310 14:56 17.09.2019
1785 Clear 38 1003 45 10000 7.7 310 14:37 17.09.2019
1786 Clear 38 1003 45 10000 7.7 310 14:19 17.09.2019
1787 Clear 39 1003 42 10000 7.2 320 13:42 17.09.2019
1788 Clear 39 1003 42 10000 7.2 320 13:23 17.09.2019
1789 Clear 39 1003 42 10000 7.2 320 13:23 17.09.2019
1790 Clear 40 1003 40 10000 6.2 290 12:56 17.09.2019
1791 Clear 40 1003 40 10000 6.2 290 12:37 17.09.2019
1792 Clear 40 1003 40 10000 6.2 290 12:18 17.09.2019
1793 Clear 40 1003 40 10000 6.2 290 12:18 17.09.2019
1794 Clear 40 1004 38 10000 3.6 300 11:42 17.09.2019
1795 Clear 40 1004 38 10000 3.6 300 11:24 17.09.2019
1796 Clear 40 1005 33 10000 4.1 260 10:43 17.09.2019
1797 Clear 40 1005 33 10000 4.1 260 10:24 17.09.2019
1798 Clear 38 1006 42 10000 4.6 250 09:59 17.09.2019
1799 Clear 38 1006 42 10000 4.6 250 09:41 17.09.2019
1800 Clear 38 1006 42 10000 4.6 250 09:21 17.09.2019
1801 Clear 38 1006 42 10000 4.6 250 09:21 17.09.2019
1802 Clear 36 1007 47 10000 4.6 220 08:49 17.09.2019
1803 Clear 36 1007 47 10000 4.6 220 08:30 17.09.2019
1804 Clear 34 1007 52 10000 5.1 200 07:58 17.09.2019
1805 Clear 34 1007 52 10000 5.1 200 07:39 17.09.2019
1806 Clear 32 1006 55 10000 3.6 190 07:19 17.09.2019
1807 Clear 32 1006 55 10000 3.6 190 06:45 17.09.2019
1808 Clear 32 1006 55 10000 3.6 190 06:19 17.09.2019
1809 Clouds 30 1006 66 9000 1.5 180 05:44 17.09.2019
1810 Clouds 30 1005 74 9000 2.1 180 04:28 17.09.2019
1811 Clouds 30 1004 79 9000 2.6 110 02:57 17.09.2019
1812 Clouds 30 1004 79 9000 2.6 110 02:38 17.09.2019
1813 Clouds 31 1004 79 9000 3.1 100 01:24 17.09.2019
1814 Clouds 31 1004 75 9000 2.6 100 00:33 17.09.2019
1815 Clear 31 1005 75 10000 2.6 90 23:38 16.09.2019
1816 Clear 31 1005 75 10000 2.6 90 23:18 16.09.2019
1817 Clear 33 1005 67 10000 2.1 360 22:43 16.09.2019
1818 Clear 33 1005 67 10000 2.1 360 22:25 16.09.2019
1819 Clear 33 1005 71 10000 3.6 350 21:59 16.09.2019
1820 Clear 33 1005 71 10000 3.6 350 21:40 16.09.2019
1821 Clear 33 1005 71 10000 3.6 350 21:21 16.09.2019
1822 Clear 33 1005 71 10000 3.6 350 20:59 16.09.2019
1823 Clear 33 1005 71 10000 3.6 350 20:39 16.09.2019
1824 Clear 33 1005 71 10000 3.6 350 20:19 16.09.2019
1825 Clear 33 1005 67 10000 2.1 350 19:56 16.09.2019
1826 Clear 33 1005 67 10000 2.1 350 19:38 16.09.2019
1827 Clear 34 1004 63 10000 2.6 350 19:18 16.09.2019
1828 Clear 34 1004 63 10000 2.6 350 18:44 16.09.2019
1829 Clear 34 1004 63 10000 2.6 350 18:25 16.09.2019
1830 Clear 34 1004 59 10000 3.6 340 17:56 16.09.2019
1831 Clear 34 1004 59 10000 3.6 340 17:56 16.09.2019
1832 Clear 34 1004 59 10000 3.6 340 17:37 16.09.2019
1833 Clear 34 1004 59 10000 3.6 340 17:19 16.09.2019
1834 Clear 35 1004 59 10000 4.1 330 16:43 16.09.2019
1835 Clear 35 1004 59 10000 4.1 330 16:21 16.09.2019
1836 Clear 36 1004 53 10000 5.1 10 15:57 16.09.2019
1837 Clear 36 1004 53 10000 5.1 10 15:39 16.09.2019
1838 Clear 36 1004 53 10000 5.1 10 15:20 16.09.2019
1839 Clear 37 1004 50 10000 6.2 330 14:58 16.09.2019
1840 Clear 37 1004 50 10000 6.2 330 14:39 16.09.2019
1841 Clear 37 1004 50 10000 6.2 330 14:20 16.09.2019
1842 Clear 38 1004 45 10000 6.2 310 13:43 16.09.2019
1843 Clear 38 1004 45 10000 6.2 310 13:43 16.09.2019
1844 Clear 38 1004 45 10000 6.2 310 13:22 16.09.2019
1845 Clear 39 1005 42 10000 5.7 330 12:57 16.09.2019
1846 Clear 39 1005 42 10000 5.7 330 12:39 16.09.2019
1847 Clear 39 1005 42 10000 5.7 330 12:21 16.09.2019
1848 Clear 39 1006 40 10000 2.6 270 11:45 16.09.2019
1849 Clear 39 1006 40 10000 2.6 270 11:23 16.09.2019
1850 Clear 38 1007 35 10000 2.6 250 10:56 16.09.2019
1851 Clear 38 1007 35 10000 2.6 250 10:37 16.09.2019
1852 Clear 38 1007 35 10000 2.6 250 10:18 16.09.2019
1853 Clear 37 1007 42 10000 2.6 0 09:42 16.09.2019
1854 Clear 35 1008 49 10000 3.6 220 09:21 16.09.2019
1855 Clear 35 1008 49 10000 3.6 220 08:56 16.09.2019
1856 Clear 35 1008 49 10000 3.6 220 08:38 16.09.2019
1857 Clear 35 1008 49 10000 3.6 220 08:19 16.09.2019
1858 Clear 33 1008 52 10000 4.6 210 07:42 16.09.2019
1859 Clear 33 1008 52 10000 4.6 210 07:24 16.09.2019
1860 Clear 32 1007 52 10000 5.1 190 06:58 16.09.2019
1861 Clear 32 1007 52 10000 5.1 190 06:39 16.09.2019
1862 Clear 32 1007 52 10000 5.1 190 06:20 16.09.2019
1863 Clear 31 1006 52 8000 3.6 180 05:42 16.09.2019
1864 Clear 31 1006 52 8000 3.6 180 05:21 16.09.2019
1865 Clear 32 1005 70 9000 4.1 110 03:37 16.09.2019
1866 Clear 31 1005 75 10000 2.6 80 01:20 16.09.2019
1867 Clear 31 1005 71 10000 3.1 40 00:38 16.09.2019
1868 Clear 31 1006 70 10000 3.6 80 00:20 16.09.2019
1869 Clear 32 1005 63 10000 3.1 40 23:39 15.09.2019
1870 Clear 32 1005 63 10000 3.1 40 23:20 15.09.2019
1871 Clear 32 1005 56 10000 2.6 50 22:39 15.09.2019
1872 Clear 32 1005 56 10000 2.6 50 22:21 15.09.2019
1873 Clear 32 1005 56 10000 2.6 50 22:21 15.09.2019
1874 Clear 33 1005 56 10000 3.1 50 21:58 15.09.2019
1875 Clear 33 1005 56 10000 3.1 50 21:39 15.09.2019
1876 Clear 33 1005 56 10000 3.1 50 21:21 15.09.2019
1877 Clear 34 1006 53 10000 2.6 40 20:55 15.09.2019
1878 Clear 34 1006 53 10000 2.6 40 20:55 15.09.2019
1879 Clear 34 1006 53 10000 2.6 40 20:37 15.09.2019
1880 Clear 34 1006 53 10000 2.6 40 20:19 15.09.2019
1881 Clear 35 1005 44 10000 2.6 30 19:42 15.09.2019
1882 Clear 35 1005 44 10000 2.6 30 19:22 15.09.2019
1883 Clear 36 1005 47 10000 3.1 20 18:42 15.09.2019
1884 Clear 36 1005 47 10000 3.1 20 18:24 15.09.2019
1885 Clear 36 1004 56 10000 3.6 40 17:56 15.09.2019
1886 Clear 36 1004 56 10000 3.6 40 17:37 15.09.2019
1887 Clear 36 1004 56 10000 3.6 40 17:19 15.09.2019
1888 Clear 36 1004 56 10000 3.6 40 17:19 15.09.2019
1889 Clear 36 1004 50 10000 3.6 0 16:42 15.09.2019
1890 Clear 36 1004 50 10000 3.6 0 16:24 15.09.2019
1891 Clear 37 1004 56 10000 5.1 340 15:58 15.09.2019
1892 Clear 37 1004 56 10000 5.1 340 15:39 15.09.2019
1893 Clear 37 1004 56 10000 5.1 340 15:20 15.09.2019
1894 Clear 38 1004 56 10000 6.2 340 14:57 15.09.2019
1895 Clear 38 1004 56 10000 6.2 340 14:38 15.09.2019
1896 Clear 38 1004 56 10000 6.2 340 14:20 15.09.2019
1897 Clear 38 1004 50 10000 7.2 340 13:46 15.09.2019
1898 Clear 38 1004 50 10000 7.2 340 13:24 15.09.2019
1899 Clear 39 1004 42 10000 6.2 320 12:55 15.09.2019
1900 Clear 39 1004 42 10000 6.2 320 12:36 15.09.2019
1901 Clear 39 1005 42 10000 3.1 0 12:18 15.09.2019
1902 Clear 39 1005 42 10000 3.1 0 11:42 15.09.2019
1903 Clear 39 1005 42 10000 3.1 0 11:22 15.09.2019
1904 Clear 39 1006 37 10000 2.1 0 10:56 15.09.2019
1905 Clear 39 1006 37 10000 2.1 0 10:38 15.09.2019
1906 Clear 37 1007 42 10000 3.6 230 10:19 15.09.2019
1907 Clear 37 1007 42 10000 3.6 230 09:40 15.09.2019
1908 Clear 37 1007 42 10000 3.6 230 09:20 15.09.2019
1909 Clear 35 1007 50 10000 4.1 220 08:47 15.09.2019
1910 Clear 35 1007 50 10000 4.1 220 08:28 15.09.2019
1911 Clear 33 1007 52 10000 3.6 190 07:49 15.09.2019
1912 Clear 33 1007 52 10000 3.6 190 07:30 15.09.2019
1913 Haze 30 1006 79 5000 3.6 110 06:43 15.09.2019
1914 Fog 29 1004 89 8000 2.6 80 03:32 15.09.2019
1915 Mist 30 1004 89 8000 2.1 0 02:42 15.09.2019
1916 Fog 30 1003 84 10000 2.6 70 01:41 15.09.2019
1917 Fog 30 1003 84 10000 2.6 70 01:21 15.09.2019
1918 Mist 30 1003 84 10000 2.6 60 00:46 15.09.2019
1919 Mist 30 1003 84 10000 2.6 60 00:24 15.09.2019
1920 Clear 31 1004 79 10000 3.1 70 23:59 14.09.2019
1921 Clear 31 1004 79 10000 3.1 70 23:41 14.09.2019
1922 Clear 31 1004 79 10000 3.1 70 23:21 14.09.2019
1923 Clear 31 1004 75 10000 3.1 40 22:59 14.09.2019
1924 Clear 31 1004 75 10000 3.1 40 22:40 14.09.2019
1925 Clear 31 1004 75 10000 3.1 40 22:21 14.09.2019
1926 Clear 32 1004 71 10000 2.1 30 21:57 14.09.2019
1927 Clear 32 1004 71 10000 2.1 30 21:39 14.09.2019
1928 Clear 32 1004 71 10000 2.1 30 21:19 14.09.2019
1929 Clear 32 1005 67 10000 3.1 30 20:54 14.09.2019
1930 Clear 32 1005 67 10000 3.1 30 20:54 14.09.2019
1931 Clear 32 1005 67 10000 3.1 30 20:54 14.09.2019
1932 Clear 32 1005 67 10000 3.1 30 20:36 14.09.2019
1933 Clear 32 1005 67 10000 3.1 30 20:18 14.09.2019
1934 Clear 33 1004 67 10000 2.6 330 19:41 14.09.2019
1935 Clear 33 1004 67 10000 2.6 330 19:20 14.09.2019
1936 Clear 34 1004 71 10000 3.6 340 18:54 14.09.2019
1937 Clear 34 1004 71 10000 3.6 340 18:36 14.09.2019
1938 Clear 35 1003 63 10000 3.6 340 18:18 14.09.2019
1939 Clear 35 1003 63 10000 3.6 340 17:41 14.09.2019
1940 Clear 35 1003 63 10000 3.6 340 17:22 14.09.2019
1941 Clear 36 1003 53 10000 4.6 340 16:46 14.09.2019
1942 Clear 36 1003 53 10000 4.6 340 16:24 14.09.2019
1943 Clear 38 1003 50 10000 5.1 340 15:56 14.09.2019
1944 Clear 38 1003 50 10000 5.1 340 15:56 14.09.2019
1945 Clear 38 1003 50 10000 5.1 340 15:38 14.09.2019
1946 Clear 38 1003 50 10000 5.1 340 15:18 14.09.2019
1947 Clear 39 1003 45 10000 5.7 320 14:43 14.09.2019
1948 Clear 39 1003 45 10000 5.7 320 14:19 14.09.2019
1949 Clear 40 1003 40 10000 5.7 310 13:48 14.09.2019
1950 Clear 40 1003 40 10000 5.7 310 13:23 14.09.2019
1951 Clear 40 1003 31 10000 4.6 320 12:48 14.09.2019
1952 Clear 40 1003 31 10000 4.6 320 12:28 14.09.2019
1953 Clear 39 1004 42 10000 3.1 280 11:56 14.09.2019
1954 Clear 39 1004 42 10000 3.1 280 11:37 14.09.2019
1955 Clear 39 1004 42 10000 3.1 280 11:19 14.09.2019
1956 Clear 38 1005 45 10000 2.6 290 10:38 14.09.2019
1957 Clear 38 1005 45 10000 2.6 290 10:20 14.09.2019
1958 Clouds 36 1006 50 9000 1.5 0 09:57 14.09.2019
1959 Clouds 36 1006 50 9000 1.5 0 09:38 14.09.2019
1960 Clouds 37 1006 50 9000 1.5 0 09:19 14.09.2019
1961 Clouds 35 1006 67 8000 2.1 180 08:46 14.09.2019
1962 Clouds 35 1006 67 8000 2.1 180 08:23 14.09.2019
1963 Haze 34 1000 26 6000 4.1 200 07:46 14.09.2019
1964 Haze 32 1006 75 5000 2.6 170 07:28 14.09.2019
1965 Haze 31 1005 84 4000 3.6 160 06:44 14.09.2019
1966 Haze 31 1005 84 4000 3.6 160 06:25 14.09.2019
1967 Haze 30 1005 79 4000 2.6 140 05:25 14.09.2019
1968 Mist 30 1003 79 7000 1 0 03:45 14.09.2019
1969 Mist 30 1003 79 7000 1 0 02:52 14.09.2019
1970 Mist 31 1003 79 8000 3.6 10 01:50 14.09.2019
1971 Mist 31 1003 79 8000 3.6 10 01:22 14.09.2019
1972 Mist 31 1003 79 8000 2.6 350 00:57 14.09.2019
1973 Mist 31 1003 79 8000 2.6 350 00:38 14.09.2019
1974 Mist 31 1003 75 8000 2.1 240 00:19 14.09.2019
1975 Mist 31 1003 75 8000 2.1 240 23:38 13.09.2019
1976 Mist 31 1003 75 8000 2.1 240 23:19 13.09.2019
1977 Haze 31 1004 84 2500 1.5 80 22:57 13.09.2019
1978 Haze 32 1004 71 8000 2.6 110 22:38 13.09.2019
1979 Haze 32 1004 71 8000 2.6 110 22:19 13.09.2019
1980 Haze 32 1004 71 9000 2.6 100 21:41 13.09.2019
1981 Haze 32 1004 71 9000 2.6 100 21:20 13.09.2019
1982 Haze 32 1004 71 9000 2.6 100 21:20 13.09.2019
1983 Haze 32 1004 71 10000 1.5 0 20:59 13.09.2019
1984 Haze 32 1004 71 10000 1.5 0 20:40 13.09.2019
1985 Haze 32 1004 71 10000 1.5 0 20:21 13.09.2019
1986 Clear 33 1004 71 10000 2.1 360 19:56 13.09.2019
1987 Clear 33 1004 71 10000 2.1 360 19:37 13.09.2019
1988 Clear 34 1003 71 10000 2.6 350 19:19 13.09.2019
1989 Clear 34 1003 71 10000 2.6 350 18:55 13.09.2019
1990 Clear 34 1003 71 10000 2.6 350 18:36 13.09.2019
1991 Clear 34 1003 71 10000 4.6 340 18:18 13.09.2019
1992 Clear 34 1003 71 10000 4.6 340 17:38 13.09.2019
1993 Clear 35 1003 67 10000 5.7 320 17:19 13.09.2019
1994 Clear 35 1003 67 10000 5.7 320 16:41 13.09.2019
1995 Clear 35 1003 67 10000 5.7 320 16:20 13.09.2019
1996 Clear 36 1002 56 10000 5.7 340 15:46 13.09.2019
1997 Clear 36 1002 56 10000 5.7 340 15:28 13.09.2019
1998 Clear 37 1002 53 10000 5.7 320 14:59 13.09.2019
1999 Clear 37 1002 53 10000 5.7 320 14:41 13.09.2019
2000 Clear 37 1002 53 10000 5.7 320 14:41 13.09.2019
2001 Clear 37 1002 53 10000 5.7 320 14:22 13.09.2019
2002 Clear 37 1002 53 10000 5.7 320 14:22 13.09.2019
2003 Clear 38 1003 50 8000 5.1 310 13:46 13.09.2019
2004 Clouds 38 1003 50 8000 5.1 310 13:24 13.09.2019
2005 Clouds 38 1003 47 7000 5.1 330 12:58 13.09.2019
2006 Clouds 38 1003 47 7000 5.1 330 12:39 13.09.2019
2007 Clouds 38 1003 47 7000 5.1 330 12:39 13.09.2019
2008 Clouds 38 1004 50 6000 4.6 310 12:21 13.09.2019
2009 Clouds 38 1004 50 6000 4.6 310 11:55 13.09.2019
2010 Clouds 38 1004 50 6000 4.6 310 11:19 13.09.2019
2011 Clouds 38 1004 50 6000 4.6 310 11:19 13.09.2019
2012 Clouds 38 1005 42 7000 2.6 280 10:39 13.09.2019
2013 Clouds 38 1005 42 7000 2.6 280 10:19 13.09.2019
2014 Clouds 37 1005 47 7000 2.6 220 09:45 13.09.2019
2015 Clouds 37 1005 47 7000 2.6 220 09:24 13.09.2019
2016 Haze 35 1006 63 5000 2.6 200 08:58 13.09.2019
2017 Haze 35 1006 63 5000 2.6 200 08:40 13.09.2019
2018 Haze 35 1006 63 5000 2.6 200 08:20 13.09.2019
2019 Haze 33 1006 71 5000 2.1 180 07:45 13.09.2019
2020 Haze 33 1006 71 5000 2.1 180 07:27 13.09.2019
2021 Haze 32 1006 84 1600 2.6 150 06:47 13.09.2019
2022 Mist 31 1004 84 2000 2.1 210 05:49 13.09.2019
2023 Haze 30 1003 89 3500 1.5 240 04:57 13.09.2019
2024 Haze 31 1003 89 3500 3.1 170 03:40 13.09.2019
2025 Haze 31 1002 79 5000 2.1 0 02:20 13.09.2019
2026 Haze 31 1002 79 5000 2.6 350 01:52 13.09.2019
2027 Haze 31 1002 79 5000 2.6 350 01:33 13.09.2019
2028 Haze 32 1002 79 4500 2.1 0 00:39 13.09.2019
2029 Haze 32 1002 79 4000 2.1 340 23:59 12.09.2019
2030 Haze 32 1002 79 4000 2.1 340 23:36 12.09.2019
2031 Haze 32 1003 79 4000 2.6 340 22:59 12.09.2019
2032 Haze 32 1003 79 4000 2.6 340 22:41 12.09.2019
2033 Haze 32 1003 79 4000 2.6 340 22:41 12.09.2019
2034 Haze 32 1003 79 4000 2.6 340 22:23 12.09.2019
2035 Haze 33 1003 75 5000 2.1 310 21:57 12.09.2019
2036 Haze 33 1003 75 5000 2.1 310 21:38 12.09.2019
2037 Haze 33 1003 75 5000 2.1 310 21:38 12.09.2019
2038 Haze 33 1003 75 5000 2.1 310 21:19 12.09.2019
2039 Haze 33 1003 75 5000 2.6 330 20:55 12.09.2019
2040 Haze 33 1003 75 5000 2.6 330 20:37 12.09.2019
2041 Haze 33 1003 75 5000 2.6 330 20:19 12.09.2019
2042 Haze 33 1003 75 5000 3.1 330 19:41 12.09.2019
2043 Haze 34 1002 79 5000 3.6 360 19:20 12.09.2019
2044 Haze 34 1002 79 5000 3.6 360 18:58 12.09.2019
2045 Haze 34 1002 79 5000 3.6 360 18:37 12.09.2019
2046 Haze 34 1002 71 8000 4.1 350 18:18 12.09.2019
2047 Haze 34 1002 71 8000 4.1 350 17:54 12.09.2019
2048 Haze 34 1002 71 8000 4.1 350 17:36 12.09.2019
2049 Haze 34 1002 71 8000 4.1 350 17:18 12.09.2019
2050 Haze 35 1002 71 6000 5.7 340 16:41 12.09.2019
2051 Haze 35 1002 71 6000 5.7 340 16:21 12.09.2019
2052 Clear 37 1001 53 10000 6.7 360 15:43 12.09.2019
2053 Clear 37 1001 53 10000 6.7 360 15:24 12.09.2019
2054 Clear 38 1001 53 10000 6.7 350 14:56 12.09.2019
2055 Clear 38 1001 53 10000 6.7 350 14:38 12.09.2019
2056 Clear 38 1001 53 10000 6.7 350 14:20 12.09.2019
2057 Dust 39 1001 48 10000 6.7 310 13:39 12.09.2019
2058 Dust 39 1002 45 7000 5.1 310 13:21 12.09.2019
2059 Dust 39 1002 45 7000 5.1 310 12:49 12.09.2019
2060 Dust 39 1002 45 7000 5.1 310 12:49 12.09.2019
2061 Dust 39 1002 45 7000 5.1 310 12:20 12.09.2019
2062 Dust 40 1003 42 6000 5.1 330 11:58 12.09.2019
2063 Dust 40 1003 42 6000 5.1 330 11:58 12.09.2019
2064 Dust 40 1003 42 6000 5.1 330 11:40 12.09.2019
2065 Dust 40 1003 42 6000 5.1 330 11:21 12.09.2019
2066 Clouds 40 1004 29 8000 2.1 0 10:50 12.09.2019
2067 Clouds 40 1004 29 8000 2.1 0 10:28 12.09.2019
2068 Clouds 39 1004 37 8000 3.6 280 09:57 12.09.2019
2069 Clouds 39 1004 37 8000 3.6 280 09:39 12.09.2019
2070 Clouds 39 1004 37 8000 3.6 280 09:20 12.09.2019
2071 Clouds 37 1005 39 8000 3.6 220 08:44 12.09.2019
2072 Clouds 37 1005 39 8000 3.6 220 08:23 12.09.2019
2073 Clear 36 1004 39 10000 5.1 200 07:54 12.09.2019
2074 Clear 36 1004 39 10000 5.1 200 07:36 12.09.2019
2075 Clear 33 1004 52 10000 3.6 180 07:18 12.09.2019
2076 Clear 33 1004 52 10000 3.6 180 06:44 12.09.2019
2077 Clear 31 1003 75 10000 3.1 160 05:54 12.09.2019
2078 Clear 31 1003 75 10000 3.1 160 05:36 12.09.2019
2079 Clear 31 1003 75 10000 1 0 04:47 12.09.2019
2080 Clear 31 1003 75 10000 2.6 160 03:23 12.09.2019
2081 Clear 32 1001 75 10000 2.6 30 01:43 12.09.2019
2082 Clear 32 1001 75 10000 2.6 30 01:23 12.09.2019
2083 Clear 32 1002 71 10000 2.1 0 00:47 12.09.2019
2084 Clear 32 1002 71 10000 2.1 0 00:28 12.09.2019
2085 Clear 33 1002 71 10000 3.6 340 23:43 11.09.2019
2086 -273 0 0 0 0 0 23:25 11.09.2019
2087 Clear 33 1002 67 10000 2.1 50 22:58 11.09.2019
2088 Clear 33 1002 67 10000 2.1 50 22:38 11.09.2019
2089 Clear 33 1002 67 10000 2.1 50 22:19 11.09.2019
2090 Clear 34 1003 63 10000 2.6 10 21:57 11.09.2019
2091 Clear 34 1003 63 10000 2.6 10 21:39 11.09.2019
2092 Clear 34 1003 63 10000 2.6 10 21:20 11.09.2019
2093 Clear 34 1003 63 10000 3.1 350 20:54 11.09.2019
2094 Clear 34 1003 63 10000 3.1 350 20:36 11.09.2019
2095 Clear 34 1003 63 10000 3.1 350 20:18 11.09.2019
2096 Clear 35 1003 63 10000 2.1 340 19:54 11.09.2019
2097 Clear 35 1003 63 10000 2.1 340 19:54 11.09.2019
2098 Clear 35 1003 63 10000 2.1 340 19:36 11.09.2019
2099 Clear 35 1002 60 10000 2.1 30 19:18 11.09.2019
2100 Clear 35 1002 60 10000 2.1 30 18:42 11.09.2019
2101 Clear 36 1001 60 10000 2.6 340 18:22 11.09.2019
2102 Clear 36 1001 60 10000 2.6 340 17:58 11.09.2019
2103 Clear 36 1001 60 10000 2.6 340 17:39 11.09.2019
2104 Clear 36 1001 60 10000 2.6 340 17:20 11.09.2019
2105 Clear 37 1001 56 10000 5.1 350 16:54 11.09.2019
2106 Clear 37 1001 56 10000 5.1 350 16:36 11.09.2019
2107 Clear 37 1001 56 10000 5.1 350 16:36 11.09.2019
2108 Clear 37 1001 56 10000 5.1 350 16:18 11.09.2019
2109 Clear 38 1001 53 10000 5.7 340 15:45 11.09.2019
2110 Clear 38 1001 53 10000 5.7 340 15:22 11.09.2019
2111 Clear 39 1000 51 10000 7.2 320 14:57 11.09.2019
2112 Clear 39 1000 51 10000 7.2 320 14:37 11.09.2019
2113 Clear 39 1000 51 10000 7.2 320 14:18 11.09.2019
2114 Clear 39 1001 54 9000 6.7 340 13:54 11.09.2019
2115 Clear 39 1001 54 9000 6.7 340 13:36 11.09.2019
2116 Clear 39 1001 54 9000 6.7 340 13:18 11.09.2019
2117 Clear 40 1001 43 8000 5.7 320 12:40 11.09.2019
2118 Clear 40 1001 43 8000 5.7 320 12:20 11.09.2019
2119 Clear 40 1002 43 7000 4.6 320 11:41 11.09.2019
2120 Clear 40 1002 43 7000 4.6 320 11:22 11.09.2019
2121 Clear 40 1003 35 6000 1.5 0 10:59 11.09.2019
2122 Clear 40 1003 35 6000 1.5 0 10:40 11.09.2019
2123 Clear 40 1003 35 6000 1.5 0 10:21 11.09.2019
2124 Dust 38 1003 39 6000 2.1 0 09:40 11.09.2019
2125 Dust 38 1003 39 6000 2.1 0 09:20 11.09.2019
2126 Dust 36 1003 47 7000 4.1 220 08:59 11.09.2019
2127 Dust 36 1003 47 7000 4.1 220 08:39 11.09.2019
2128 Dust 36 1003 47 7000 4.1 220 08:20 11.09.2019
2129 Clear 35 1003 50 8000 3.6 190 07:41 11.09.2019
2130 Clear 32 1003 63 10000 3.1 170 07:22 11.09.2019
2131 Clear 32 1003 63 10000 3.1 170 06:50 11.09.2019
2132 Clear 32 1003 63 10000 3.1 170 06:50 11.09.2019
2133 Clear 32 1003 63 10000 3.1 170 06:32 11.09.2019
2134 Clear 30 1002 79 10000 2.1 100 05:42 11.09.2019
2135 Clear 30 1002 79 10000 2.1 100 05:23 11.09.2019
2136 Clear 30 1002 75 10000 2.1 150 04:42 11.09.2019
2137 Clear 30 1001 75 10000 2.1 140 03:32 11.09.2019
2138 Clear 31 1000 75 10000 3.1 40 02:46 11.09.2019
2139 Clear 31 1000 75 10000 3.1 40 02:18 11.09.2019
2140 Clear 32 999 79 10000 4.6 330 00:52 11.09.2019
2141 Clear 32 999 79 10000 4.6 330 00:23 11.09.2019
2142 Clear 33 1000 71 10000 3.1 350 23:55 10.09.2019
2143 Clear 33 1000 71 10000 3.1 350 23:37 10.09.2019
2144 Clear 33 1000 71 10000 3.1 350 23:18 10.09.2019
2145 Clear 33 1000 67 10000 2.6 320 22:41 10.09.2019
2146 Clear 34 1000 63 10000 2.6 350 22:19 10.09.2019
2147 Clear 34 1000 63 10000 2.6 350 21:55 10.09.2019
2148 Clear 34 1000 63 10000 2.6 350 21:37 10.09.2019
2149 Clear 34 1000 63 10000 2.6 350 21:19 10.09.2019
2150 Clear 34 1000 53 10000 1.5 360 20:57 10.09.2019
2151 Clear 34 1000 53 10000 1.5 360 20:38 10.09.2019
2152 Clear 34 1000 53 10000 1.5 360 20:20 10.09.2019
2153 Clear 35 999 39 10000 3.1 40 19:56 10.09.2019
2154 Clear 35 999 39 10000 3.1 40 19:37 10.09.2019
2155 Clear 36 999 42 10000 4.1 30 19:19 10.09.2019
2156 -273 0 0 0 0 0 18:55 10.09.2019
2157 Clear 36 999 42 10000 4.1 30 18:37 10.09.2019
2158 Clear 36 999 42 10000 4.1 30 18:18 10.09.2019
2159 Clear 36 999 42 10000 4.1 30 17:42 10.09.2019
2160 Clear 36 999 42 10000 4.1 30 17:21 10.09.2019
2161 Clear 37 998 42 10000 4.6 340 16:58 10.09.2019
2162 Clear 37 998 42 10000 4.6 340 16:39 10.09.2019
2163 Clear 37 998 42 10000 4.6 340 16:20 10.09.2019
2164 Clear 37 998 50 10000 4.1 360 15:57 10.09.2019
2165 Clear 37 998 50 10000 4.1 360 15:39 10.09.2019
2166 Clear 37 998 50 10000 4.1 360 15:20 10.09.2019
2167 Dust 37 998 50 10000 6.2 340 14:41 10.09.2019
2168 Dust 37 998 50 10000 6.2 340 14:22 10.09.2019
2169 Dust 37 998 63 10000 7.2 340 13:54 10.09.2019
2170 Dust 37 998 63 10000 7.2 340 13:36 10.09.2019
2171 Dust 37 998 63 10000 7.2 340 13:18 10.09.2019
2172 Clear 38 999 63 9000 8.7 330 12:42 10.09.2019
2173 Clear 38 999 63 9000 8.7 330 12:24 10.09.2019
2174 Clear 39 1000 45 10000 6.2 330 11:54 10.09.2019
2175 Clear 39 1000 45 10000 6.2 330 11:36 10.09.2019
2176 Clear 40 1000 35 10000 2.1 190 11:18 10.09.2019
2177 Clear 40 1000 35 10000 2.1 190 10:39 10.09.2019
2178 Clear 38 1001 39 10000 3.6 100 10:19 10.09.2019
2179 Clear 38 1001 39 10000 3.6 100 09:50 10.09.2019
2180 Clear 36 1002 44 10000 4.1 120 09:20 10.09.2019
2181 Clear 36 1002 44 10000 4.1 120 08:59 10.09.2019
2182 Clear 36 1002 44 10000 4.1 120 08:41 10.09.2019
2183 Clear 34 1002 63 9000 3.1 100 08:22 10.09.2019
2184 Clear 34 1002 63 9000 3.1 100 07:44 10.09.2019
2185 Clear 32 1001 66 8000 3.1 80 07:25 10.09.2019
2186 Clear 32 1001 66 8000 3.1 80 06:51 10.09.2019
2187 Clear 32 1001 66 8000 3.1 80 06:31 10.09.2019
2188 Clear 30 1000 75 10000 2.6 90 04:57 10.09.2019
2189 Clear 31 999 70 10000 3.1 100 02:46 10.09.2019
2190 Clear 31 999 70 10000 3.1 100 02:22 10.09.2019
2191 Clear 32 999 52 10000 2.1 90 01:54 10.09.2019
2192 Clear 32 999 52 10000 2.1 90 01:54 10.09.2019
2193 Clear 32 999 52 10000 2.1 90 01:28 10.09.2019
2194 Clear 32 999 52 10000 1.5 20 00:44 10.09.2019
2195 Clear 32 999 52 10000 1.5 20 00:24 10.09.2019
2196 Clear 33 1000 59 10000 2.6 220 23:43 09.09.2019
2197 Clear 33 1000 59 10000 2.6 220 23:19 09.09.2019
2198 Clear 34 1000 56 10000 2.1 280 22:56 09.09.2019
2199 Clear 34 1000 56 10000 2.1 280 22:37 09.09.2019
2200 Clear 34 1000 53 10000 2.1 360 22:19 09.09.2019
2201 Clear 34 1000 53 10000 2.1 360 21:56 09.09.2019
2202 Clear 34 1000 53 10000 2.1 360 21:37 09.09.2019
2203 Clear 34 1000 56 10000 3.1 20 21:19 09.09.2019
2204 Clear 34 1000 56 10000 3.1 20 20:55 09.09.2019
2205 Clear 34 1000 56 10000 3.1 20 20:37 09.09.2019
2206 Clear 34 1000 56 10000 2.6 330 20:18 09.09.2019
2207 Clear 34 1000 56 10000 2.6 330 19:56 09.09.2019
2208 Clear 34 1000 56 10000 2.6 330 19:38 09.09.2019
2209 Clear 34 1000 56 10000 2.6 330 19:19 09.09.2019
2210 Clear 34 1000 56 10000 2.6 330 19:19 09.09.2019
2211 Clear 34 999 56 10000 3.1 330 18:56 09.09.2019
2212 Clear 34 999 56 10000 3.1 330 18:37 09.09.2019
2213 Clear 34 999 63 10000 3.1 340 18:19 09.09.2019
2214 Clear 34 999 63 10000 3.1 340 17:56 09.09.2019
2215 Clear 34 999 63 10000 3.1 340 17:38 09.09.2019
2216 Clear 35 999 63 10000 3.6 340 17:20 09.09.2019
2217 Clear 35 999 63 10000 3.6 340 17:20 09.09.2019
2218 Clear 35 999 63 10000 3.6 340 16:55 09.09.2019
2219 Clear 35 999 63 10000 3.6 340 16:36 09.09.2019
2220 Clear 36 998 56 10000 5.7 330 16:18 09.09.2019
2221 Clear 36 998 56 10000 5.7 330 15:42 09.09.2019
2222 Clear 36 998 56 10000 5.7 330 15:24 09.09.2019
2223 Clear 37 998 60 10000 6.2 340 14:58 09.09.2019
2224 Clear 37 998 60 10000 6.2 340 14:40 09.09.2019
2225 Clear 37 998 60 10000 6.2 340 14:40 09.09.2019
2226 Clear 37 998 60 10000 6.2 340 14:40 09.09.2019
2227 Clear 37 998 60 10000 6.2 340 14:21 09.09.2019
2228 Clear 37 998 56 10000 6.2 350 13:55 09.09.2019
2229 Clear 37 998 56 10000 6.2 350 13:36 09.09.2019
2230 Clear 38 999 50 10000 5.1 310 13:18 09.09.2019
2231 Clear 38 999 50 10000 5.1 310 12:42 09.09.2019
2232 Clear 38 1000 50 10000 5.1 320 12:22 09.09.2019
2233 Clear 38 1000 50 10000 5.1 320 11:59 09.09.2019
2234 Clear 38 1000 50 10000 5.1 320 11:40 09.09.2019
2235 Clear 38 1000 53 10000 4.6 320 11:18 09.09.2019
2236 Clear 38 1000 53 10000 4.6 320 10:42 09.09.2019
2237 Clear 37 1001 45 10000 2.1 0 10:23 09.09.2019
2238 Clear 37 1001 45 10000 2.1 0 10:23 09.09.2019
2239 Clear 37 1001 45 10000 2.1 0 09:58 09.09.2019
2240 Clear 37 1001 45 10000 2.1 0 09:40 09.09.2019
2241 Clear 35 1002 53 10000 2.6 60 09:21 09.09.2019
2242 Clear 35 1002 53 10000 2.6 60 08:39 09.09.2019
2243 Clear 34 1002 63 10000 1.5 0 08:21 09.09.2019
2244 Clear 34 1002 63 10000 1.5 0 07:58 09.09.2019
2245 Clear 34 1002 63 10000 1.5 0 07:39 09.09.2019
2246 Clouds 32 1001 70 10000 2.6 160 07:20 09.09.2019
2247 Clouds 32 1001 70 10000 2.6 160 06:46 09.09.2019
2248 Clear 31 1001 75 10000 2.6 180 05:56 09.09.2019
2249 Clouds 32 999 71 10000 2.1 230 02:59 09.09.2019
2250 Clouds 32 999 71 10000 2.1 230 02:41 09.09.2019
2251 Clear 33 1000 67 10000 2.6 290 01:22 09.09.2019
2252 Clear 34 1000 71 10000 2.6 270 00:24 09.09.2019
2253 Clear 34 1000 71 10000 2.6 270 23:47 08.09.2019
2254 Clear 34 1000 71 10000 2.6 270 23:29 08.09.2019
2255 Clear 33 1000 67 10000 3.6 280 22:59 08.09.2019
2256 Clear 33 1000 67 10000 3.6 280 22:39 08.09.2019
2257 Clear 34 1000 71 10000 3.1 280 22:21 08.09.2019
2258 Clear 34 1000 71 10000 3.1 280 21:57 08.09.2019
2259 Clear 34 1000 71 10000 3.1 280 21:39 08.09.2019
2260 Clear 34 1000 71 10000 3.1 280 21:21 08.09.2019
2261 Clear 34 1000 67 10000 4.1 280 20:41 08.09.2019
2262 Clear 34 1000 67 10000 4.1 280 20:22 08.09.2019
2263 Clear 34 1000 67 10000 5.1 320 19:59 08.09.2019
2264 Clear 34 1000 67 10000 5.1 320 19:39 08.09.2019
2265 Clear 34 999 67 10000 5.7 290 19:21 08.09.2019
2266 Clear 34 999 67 10000 5.7 290 18:58 08.09.2019
2267 Clear 34 999 67 10000 5.7 290 18:39 08.09.2019
2268 Clear 35 998 71 10000 5.7 320 18:19 08.09.2019
2269 Clear 35 998 71 10000 5.7 320 17:57 08.09.2019
2270 Clear 35 998 71 10000 5.7 320 17:37 08.09.2019
2271 Clear 35 998 71 10000 5.7 320 17:37 08.09.2019
2272 Clear 36 998 67 10000 5.7 320 17:18 08.09.2019
2273 Clear 36 998 67 10000 5.7 320 16:45 08.09.2019
2274 Clear 36 998 67 10000 5.7 320 16:23 08.09.2019
2275 Clear 37 998 63 10000 6.2 320 15:59 08.09.2019
2276 Clear 37 998 63 10000 6.2 320 15:41 08.09.2019
2277 Clear 37 998 63 10000 6.2 320 15:22 08.09.2019
2278 Clear 37 998 63 10000 6.2 320 15:22 08.09.2019
2279 Clear 37 997 56 10000 6.2 320 14:58 08.09.2019
2280 Clear 37 997 56 10000 6.2 320 14:39 08.09.2019
2281 Clear 38 997 53 10000 5.7 310 14:20 08.09.2019
2282 Clear 38 997 53 10000 5.7 310 13:57 08.09.2019
2283 Clear 38 997 53 10000 5.7 310 13:38 08.09.2019
2284 Clear 37 998 67 10000 6.7 320 13:19 08.09.2019
2285 Clear 37 998 67 10000 6.7 320 12:42 08.09.2019
2286 Clear 38 999 64 7000 4.6 300 12:24 08.09.2019
2287 Clear 38 999 64 7000 4.6 300 11:59 08.09.2019
2288 Clear 38 999 64 7000 4.6 300 11:40 08.09.2019
2289 Clear 39 1000 60 6000 5.1 290 11:20 08.09.2019
2290 Clear 39 1000 60 6000 5.1 290 10:58 08.09.2019
2291 Clear 39 1000 60 6000 5.1 290 10:40 08.09.2019
2292 Clear 39 1000 60 6000 5.1 290 10:22 08.09.2019
2293 Clear 38 1000 56 7000 2.6 250 09:39 08.09.2019
2294 Clouds 38 1000 56 7000 2.6 250 09:21 08.09.2019
2295 Clouds 35 1001 63 6000 2.1 180 08:57 08.09.2019
2296 Clouds 35 1001 63 6000 2.1 180 08:38 08.09.2019
2297 Haze 33 1000 79 5000 3.1 200 08:18 08.09.2019
2298 Haze 33 1000 79 5000 3.1 200 07:40 08.09.2019
2299 Haze 32 1000 79 3500 3.1 200 07:21 08.09.2019
2300 Haze 32 1001 84 1200 2.1 130 06:53 08.09.2019
2301 Haze 32 1001 84 1200 2.1 130 06:33 08.09.2019
2302 Haze 30 999 89 3000 2.6 170 05:38 08.09.2019
2303 Mist 31 998 84 7000 2.6 200 04:18 08.09.2019
2304 Mist 32 998 79 7000 3.1 230 02:59 08.09.2019
2305 Mist 32 998 79 7000 3.1 230 02:29 08.09.2019
2306 Mist 32 998 79 7000 1 0 01:52 08.09.2019
2307 Mist 32 998 79 7000 1 0 01:22 08.09.2019
2308 Haze 32 998 84 7000 2.1 210 00:45 08.09.2019
2309 Haze 32 998 84 7000 2.1 210 00:27 08.09.2019
2310 Haze 33 998 84 7000 2.6 220 23:39 07.09.2019
2311 Haze 33 998 84 7000 2.6 220 23:21 07.09.2019
2312 Haze 33 998 84 6000 3.1 230 22:58 07.09.2019
2313 Haze 33 998 84 6000 3.1 230 22:39 07.09.2019
2314 Haze 34 999 79 6000 2.1 250 22:20 07.09.2019
2315 Haze 34 999 79 6000 2.1 250 21:43 07.09.2019
2316 Haze 34 999 79 6000 2.1 250 21:25 07.09.2019
2317 Haze 34 999 71 7000 1.5 0 20:58 07.09.2019
2318 Haze 34 999 71 7000 1.5 0 20:39 07.09.2019
2319 Haze 34 999 71 6000 2.1 360 20:20 07.09.2019
2320 Haze 34 999 71 6000 2.1 360 19:55 07.09.2019
2321 Haze 34 999 71 6000 2.1 360 19:37 07.09.2019
2322 Clear 33 998 78 0 3.61 281.22 19:19 07.09.2019
2323 Clear 33 998 78 0 3.61 281.22 18:56 07.09.2019
2324 Haze 35 997 75 6000 4.1 340 18:36 07.09.2019
2325 Haze 35 997 75 6000 4.1 340 18:18 07.09.2019
2326 Haze 35 997 75 6000 4.1 340 18:18 07.09.2019
2327 Haze 35 997 75 6000 4.1 340 17:56 07.09.2019
2328 Haze 35 997 75 6000 4.1 340 17:56 07.09.2019
2329 Haze 35 997 75 6000 4.1 340 17:37 07.09.2019
2330 Haze 36 997 67 6000 4.6 320 17:18 07.09.2019
2331 Haze 36 997 67 6000 4.6 320 17:18 07.09.2019
2332 Haze 36 997 67 6000 4.6 320 16:43 07.09.2019
2333 Haze 36 997 67 6000 4.6 320 16:21 07.09.2019
2334 Clear 38 997 53 8000 5.1 330 15:55 07.09.2019
2335 Clear 38 997 53 8000 5.1 330 15:55 07.09.2019
2336 Clear 38 997 53 8000 5.1 330 15:36 07.09.2019
2337 Clear 39 997 45 10000 5.7 320 15:18 07.09.2019
2338 Clear 39 997 45 10000 5.7 320 14:54 07.09.2019
2339 Clear 39 997 45 10000 5.7 320 14:54 07.09.2019
2340 Clear 39 997 45 10000 5.7 320 14:36 07.09.2019
2341 Clouds 34 996 76 0 3.62 291.108 14:18 07.09.2019
2342 Clouds 34 996 76 0 3.62 291.108 13:43 07.09.2019
2343 Clear 42 997 32 10000 6.2 330 13:25 07.09.2019
2344 Clear 42 997 32 10000 6.2 330 12:46 07.09.2019
2345 Clear 42 997 32 10000 6.2 330 12:26 07.09.2019
2346 Clear 43 998 32 10000 4.6 300 11:59 07.09.2019
2347 Clear 43 998 32 10000 4.6 300 11:40 07.09.2019
2348 Clear 43 998 32 10000 4.6 300 11:21 07.09.2019
2349 Clear 44 999 15 10000 3.6 260 10:41 07.09.2019
2350 Clear 44 999 15 10000 3.6 260 10:22 07.09.2019
2351 Clear 42 999 23 10000 3.6 240 09:58 07.09.2019
2352 Clear 42 999 23 10000 3.6 240 09:39 07.09.2019
2353 Clear 42 999 23 10000 3.6 240 09:20 07.09.2019
2354 Clear 39 999 29 10000 2.6 260 08:44 07.09.2019
2355 Clear 39 999 29 10000 2.6 260 08:26 07.09.2019
2356 Clear 39 999 29 10000 2.6 260 08:26 07.09.2019
2357 Clear 35 999 39 9000 3.1 200 07:48 07.09.2019
2358 Clear 35 999 39 9000 3.1 200 07:28 07.09.2019
2359 Haze 32 999 66 7000 4.6 190 06:53 07.09.2019
2360 Haze 32 999 66 7000 4.6 190 06:29 07.09.2019
2361 Haze 30 998 62 8000 1.5 180 05:32 07.09.2019
2362 Haze 30 998 66 9000 2.1 200 04:25 07.09.2019
2363 Clouds 31 997 63 9000 2.6 180 02:57 07.09.2019
2364 Clouds 31 997 63 9000 2.6 180 02:21 07.09.2019
2365 Clouds 31 997 71 9000 2.1 0 01:26 07.09.2019
2366 Clouds 31 997 67 9000 2.1 90 00:44 07.09.2019
2367 Clear 32 998 59 10000 2.1 70 00:21 07.09.2019
2368 Clear 32 998 59 10000 2.1 70 23:43 06.09.2019
2369 Clear 32 998 59 10000 2.1 70 23:23 06.09.2019
2370 Clear 33 998 59 10000 2.1 100 22:59 06.09.2019
2371 Clear 33 998 59 10000 2.1 100 22:40 06.09.2019
2372 Clear 33 998 50 10000 1.5 290 22:19 06.09.2019
2373 Clear 33 998 50 10000 1.5 290 21:58 06.09.2019
2374 Clear 33 998 50 10000 1.5 290 21:39 06.09.2019
2375 Clear 33 998 50 10000 1.5 290 21:21 06.09.2019
2376 Clear 33 998 63 10000 2.6 0 20:58 06.09.2019
2377 Clear 33 998 63 10000 2.6 0 20:40 06.09.2019
2378 Clear 33 998 63 10000 2.6 0 20:21 06.09.2019
2379 Clear 34 998 53 10000 3.6 330 19:57 06.09.2019
2380 Clear 34 998 53 10000 3.6 330 19:39 06.09.2019
2381 Clear 35 998 60 10000 3.1 340 19:20 06.09.2019
2382 Clear 35 998 60 10000 3.1 340 18:47 06.09.2019
2383 Clear 35 998 60 10000 3.1 340 18:27 06.09.2019
2384 Clear 36 997 53 10000 5.1 340 17:59 06.09.2019
2385 Clear 36 997 53 10000 5.1 340 17:38 06.09.2019
2386 Clear 37 997 60 10000 4.1 340 17:19 06.09.2019
2387 Clear 37 997 60 10000 4.1 340 17:19 06.09.2019
2388 Clear 37 997 60 10000 4.1 340 16:41 06.09.2019
2389 Clear 38 997 60 10000 5.7 340 16:19 06.09.2019
2390 Clear 38 997 60 10000 5.7 340 15:45 06.09.2019
2391 Clear 38 997 60 10000 5.7 340 15:27 06.09.2019
2392 Clear 39 997 57 10000 5.7 350 14:59 06.09.2019
2393 Clear 39 997 57 10000 5.7 350 14:39 06.09.2019
2394 Clear 41 997 48 10000 6.7 340 14:18 06.09.2019
2395 Clear 41 997 48 10000 6.7 340 13:43 06.09.2019
2396 Clear 42 997 43 10000 7.2 330 13:22 06.09.2019
2397 Clear 42 997 43 10000 7.2 330 12:39 06.09.2019
2398 Clear 42 998 38 10000 4.6 320 12:21 06.09.2019
2399 Clear 42 998 38 10000 4.6 320 11:57 06.09.2019
2400 Clear 42 998 38 10000 4.6 320 11:39 06.09.2019
2401 Clear 42 998 38 10000 4.6 320 11:39 06.09.2019
2402 Clear 43 999 22 10000 1.5 0 11:20 06.09.2019
2403 Clear 43 999 22 10000 1.5 0 10:42 06.09.2019
2404 Clear 43 999 22 10000 1.5 0 10:22 06.09.2019
2405 Clear 40 1000 26 10000 1.5 0 09:58 06.09.2019
2406 Clear 40 1000 26 10000 1.5 0 09:37 06.09.2019
2407 Clear 38 1000 31 10000 1.5 90 09:18 06.09.2019
2408 Clear 38 1000 31 10000 1.5 90 08:44 06.09.2019
2409 Clear 38 1000 31 10000 1.5 90 08:26 06.09.2019
2410 Clear 35 1000 53 10000 2.6 100 07:50 06.09.2019
2411 Clear 35 1000 53 10000 2.6 100 07:28 06.09.2019
2412 Clear 32 1000 66 10000 2.1 90 06:58 06.09.2019
2413 Clear 32 1000 66 10000 2.1 90 06:31 06.09.2019
2414 Clear 30 999 66 10000 4.6 110 05:44 06.09.2019
2415 Clear 30 998 63 10000 3.1 100 04:54 06.09.2019
2416 Clear 30 998 63 10000 2.1 340 04:19 06.09.2019
2417 Clear 30 997 59 10000 2.6 20 02:40 06.09.2019
2418 Clear 32 998 53 10000 2.1 340 00:51 06.09.2019
2419 Clear 32 998 63 10000 2.6 350 23:58 05.09.2019
2420 Clear 32 998 63 10000 2.6 350 23:40 05.09.2019
2421 Clear 32 998 63 10000 2.6 350 23:21 05.09.2019
2422 Clear 33 998 47 10000 2.1 330 22:45 05.09.2019
2423 Clear 33 998 47 10000 2.1 330 22:25 05.09.2019
2424 Clear 35 998 47 10000 1.5 250 21:57 05.09.2019
2425 Clear 35 998 47 10000 1.5 250 21:38 05.09.2019
2426 Clear 35 999 35 10000 2.1 10 21:20 05.09.2019
2427 Clear 35 999 35 10000 2.1 10 20:58 05.09.2019
2428 Clear 35 999 35 10000 2.1 10 20:38 05.09.2019
2429 Clear 35 998 32 10000 2.6 30 20:20 05.09.2019
2430 Clear 35 998 32 10000 2.6 30 19:57 05.09.2019
2431 Clear 35 998 32 10000 2.6 30 19:38 05.09.2019
2432 Clear 36 998 39 10000 2.1 40 19:19 05.09.2019
2433 Clear 36 998 39 10000 2.1 40 18:41 05.09.2019
2434 Clear 36 998 44 10000 2.6 340 18:22 05.09.2019
2435 Clear 36 998 44 10000 2.6 340 17:57 05.09.2019
2436 Clear 36 998 44 10000 2.6 340 17:39 05.09.2019
2437 Clear 37 997 39 10000 6.2 330 17:20 05.09.2019
2438 Clear 37 997 39 10000 6.2 330 16:42 05.09.2019
2439 Clear 38 997 45 10000 6.2 340 16:22 05.09.2019
2440 Clear 38 997 45 10000 6.2 340 15:59 05.09.2019
2441 Clear 38 997 45 10000 6.2 340 15:39 05.09.2019
2442 Clear 39 997 50 10000 6.7 350 15:19 05.09.2019
2443 Clear 39 997 50 10000 6.7 350 14:56 05.09.2019
2444 Clear 39 997 50 10000 6.7 350 14:38 05.09.2019
2445 Clear 40 997 51 10000 6.2 340 14:18 05.09.2019
2446 Clear 40 997 51 10000 6.2 340 13:42 05.09.2019
2447 Clear 41 998 48 10000 6.7 340 13:19 05.09.2019
2448 Clear 41 998 48 10000 6.7 340 12:43 05.09.2019
2449 -273 0 0 0 0 0 12:25 05.09.2019
2450 Clear 41 998 43 10000 5.7 340 11:56 05.09.2019
2451 Clear 41 998 43 10000 5.7 340 11:37 05.09.2019
2452 Clear 42 999 25 10000 2.6 130 11:18 05.09.2019
2453 Clear 42 999 25 10000 2.6 130 10:40 05.09.2019
2454 Clear 39 1000 31 10000 2.6 0 10:20 05.09.2019
2455 Clear 39 1000 31 10000 2.6 0 09:57 05.09.2019
2456 Clear 39 1000 31 10000 2.6 0 09:38 05.09.2019
2457 Clear 37 1000 39 10000 3.1 100 09:18 05.09.2019
2458 Clear 37 1000 39 10000 3.1 100 09:18 05.09.2019
2459 Clear 37 1000 39 10000 3.1 100 08:43 05.09.2019
2460 Clear 37 1000 39 10000 3.1 100 08:24 05.09.2019
2461 Clear 34 1000 53 10000 2.6 100 07:44 05.09.2019
2462 Clear 32 1000 66 10000 2.6 90 07:25 05.09.2019
2463 Clear 32 1000 66 10000 2.6 90 06:50 05.09.2019
2464 Clear 32 1000 66 10000 2.6 90 06:29 05.09.2019
2465 Clear 29 999 62 10000 2.1 110 05:49 05.09.2019
2466 Clear 29 999 62 10000 2.1 110 05:28 05.09.2019
2467 Clear 29 999 55 10000 2.1 100 04:45 05.09.2019
2468 Clear 29 998 55 10000 2.6 70 04:19 05.09.2019
2469 Clear 29 998 55 10000 2.6 70 03:27 05.09.2019
2470 Clear 32 998 70 0 3.45 80.281 02:42 05.09.2019
2471 Clear 31 998 67 10000 4.1 330 02:18 05.09.2019
2472 Clear 31 998 63 10000 3.1 340 01:19 05.09.2019
2473 Clear 31 998 63 10000 3.1 340 00:40 05.09.2019
2474 Clear 32 998 44 10000 1 0 00:20 05.09.2019
2475 Clear 32 998 44 10000 1 0 23:45 04.09.2019
2476 Clear 32 998 44 10000 1 0 23:23 04.09.2019
2477 Clear 32 998 47 10000 1 0 22:49 04.09.2019
2478 Clear 34 998 41 10000 2.6 110 22:22 04.09.2019
2479 Clear 34 998 41 10000 2.6 110 21:58 04.09.2019
2480 Clear 34 998 41 10000 2.6 110 21:39 04.09.2019
2481 Clear 34 998 41 10000 2.6 110 21:20 04.09.2019
2482 Clear 34 999 37 10000 2.6 90 20:56 04.09.2019
2483 Clear 34 999 37 10000 2.6 90 20:37 04.09.2019
2484 Clear 35 998 35 10000 2.1 90 20:18 04.09.2019
2485 Clear 35 998 35 10000 2.1 90 20:18 04.09.2019
2486 Clear 35 998 35 10000 2.1 90 19:44 04.09.2019
2487 Clear 36 998 42 10000 2.1 80 19:24 04.09.2019
2488 Clear 36 998 42 10000 2.1 80 18:55 04.09.2019
2489 Clear 36 998 42 10000 2.1 80 18:37 04.09.2019
2490 Clear 37 997 31 10000 2.6 340 18:19 04.09.2019
2491 Clear 37 997 31 10000 2.6 340 17:41 04.09.2019
2492 Clear 37 997 31 10000 2.6 340 17:23 04.09.2019
2493 Clear 37 997 42 10000 3.6 340 16:57 04.09.2019
2494 Clear 37 997 42 10000 3.6 340 16:38 04.09.2019
2495 Clear 37 997 53 10000 5.1 350 16:20 04.09.2019
2496 Clear 37 997 53 10000 5.1 350 15:43 04.09.2019
2497 Clear 38 997 50 10000 5.7 350 15:22 04.09.2019
2498 Clear 38 997 50 10000 5.7 350 14:59 04.09.2019
2499 Clear 38 997 50 10000 5.7 350 14:39 04.09.2019
2500 Clear 39 997 42 10000 6.2 340 14:21 04.09.2019
2501 Clear 39 997 42 10000 6.2 340 14:00 04.09.2019
2502 Clear 39 997 42 10000 6.2 340 13:39 04.09.2019
2503 Clear 40 998 33 10000 6.2 320 13:21 04.09.2019
2504 Clear 40 998 33 10000 6.2 320 12:45 04.09.2019
2505 Clear 40 998 33 10000 6.2 320 12:26 04.09.2019
2506 Clear 40 999 40 10000 5.7 320 11:58 04.09.2019
2507 Clear 40 999 40 10000 5.7 320 11:39 04.09.2019
2508 Clear 40 999 40 10000 5.7 320 11:21 04.09.2019
2509 Clear 41 999 33 10000 5.1 310 10:56 04.09.2019
2510 Clear 41 999 33 10000 5.1 310 10:38 04.09.2019
2511 Clear 41 999 33 10000 5.1 310 10:38 04.09.2019
2512 Clear 42 1000 24 10000 3.6 290 10:19 04.09.2019
2513 Clouds 33 999 58 0 3.78 274.382 09:45 04.09.2019
2514 Clear 39 1000 29 10000 3.1 210 09:21 04.09.2019
2515 Clear 39 1000 29 10000 3.1 210 08:43 04.09.2019
2516 Clear 39 1000 29 10000 3.1 210 08:24 04.09.2019
2517 Clear 37 1000 35 10000 3.1 200 07:59 04.09.2019
2518 Clear 37 1000 35 10000 3.1 200 07:36 04.09.2019
2519 Clear 34 999 38 10000 3.1 220 06:58 04.09.2019
2520 Clear 34 999 38 10000 3.1 220 06:38 04.09.2019
2521 Clear 31 999 41 10000 3.1 170 04:55 04.09.2019
2522 Clear 31 999 41 10000 3.1 170 04:23 04.09.2019
2523 Clear 31 998 44 10000 3.1 50 02:51 04.09.2019
2524 Clear 31 998 53 10000 2.1 90 01:20 04.09.2019
2525 Clear 31 998 53 10000 2.1 90 00:45 04.09.2019
2526 Clear 31 998 53 10000 2.1 90 00:27 04.09.2019
2527 Clear 32 998 47 10000 1.5 50 23:51 03.09.2019
2528 Clear 32 998 47 10000 1.5 50 23:27 03.09.2019
2529 Clear 33 999 53 10000 2.6 90 22:43 03.09.2019
2530 Clear 33 999 53 10000 2.6 90 22:24 03.09.2019
2531 Clear 34 999 53 10000 2.6 80 21:59 03.09.2019
2532 Clear 34 999 53 10000 2.6 80 21:38 03.09.2019
2533 Clear 34 999 47 10000 3.1 70 21:20 03.09.2019
2534 Clear 34 999 47 10000 3.1 70 20:57 03.09.2019
2535 Clear 34 999 47 10000 3.1 70 20:38 03.09.2019
2536 Clear 35 998 50 10000 2.6 30 20:20 03.09.2019
2537 Clear 35 998 50 10000 2.6 30 19:55 03.09.2019
2538 Clear 35 998 50 10000 2.6 30 19:55 03.09.2019
2539 Clear 35 998 50 10000 2.6 30 19:36 03.09.2019
2540 Clear 35 998 50 10000 2.6 30 19:18 03.09.2019
2541 Clear 35 998 50 10000 2.6 30 19:18 03.09.2019
2542 Clear 36 998 42 10000 2.1 20 18:41 03.09.2019
2543 Clear 38 998 29 10000 2.6 20 18:23 03.09.2019
2544 Clear 38 998 29 10000 2.6 20 17:56 03.09.2019
2545 Clear 38 998 29 10000 2.6 20 17:38 03.09.2019
2546 Clear 39 998 31 10000 4.1 340 17:18 03.09.2019
2547 Clear 39 998 31 10000 4.1 340 16:43 03.09.2019
2548 Clear 41 997 20 10000 6.2 330 16:22 03.09.2019
2549 Clear 41 997 20 10000 6.2 330 15:56 03.09.2019
2550 Clear 41 997 20 10000 6.2 330 15:37 03.09.2019
2551 Clear 41 997 22 10000 5.7 350 15:19 03.09.2019
2552 Clear 41 997 22 10000 5.7 350 15:19 03.09.2019
2553 Clear 41 997 22 10000 5.7 350 14:56 03.09.2019
2554 Clear 41 997 22 10000 5.7 350 14:37 03.09.2019
2555 Dust 42 998 23 10000 5.7 340 14:18 03.09.2019
2556 Dust 42 998 23 10000 5.7 340 13:55 03.09.2019
2557 Dust 42 998 23 10000 5.7 340 13:55 03.09.2019
2558 Dust 42 998 23 10000 5.7 340 13:55 03.09.2019
2559 Dust 42 998 23 10000 5.7 340 13:36 03.09.2019
2560 Clear 42 998 32 10000 6.2 330 13:18 03.09.2019
2561 Clear 42 998 32 10000 6.2 330 12:45 03.09.2019
2562 Clear 42 998 32 10000 6.2 330 12:26 03.09.2019
2563 Clear 44 999 14 10000 2.1 260 11:43 03.09.2019
2564 Clear 43 1000 16 10000 3.6 180 11:23 03.09.2019
2565 Clear 43 1000 16 10000 3.6 180 10:58 03.09.2019
2566 Clear 43 1000 16 10000 3.6 180 10:39 03.09.2019
2567 Clear 43 1000 16 10000 3.6 180 10:21 03.09.2019
2568 Clear 42 1000 19 10000 5.7 160 09:49 03.09.2019
2569 Clear 42 1000 19 10000 5.7 160 09:31 03.09.2019
2570 Clear 39 1001 22 10000 5.7 120 08:57 03.09.2019
2571 Clear 39 1001 22 10000 5.7 120 08:37 03.09.2019
2572 Clear 36 1001 32 10000 4.6 120 08:19 03.09.2019
2573 Clear 36 1001 32 10000 4.6 120 07:42 03.09.2019
2574 Clear 34 1001 28 10000 3.6 110 07:24 03.09.2019
2575 Clear 34 1001 28 10000 3.6 110 06:45 03.09.2019
2576 Clear 34 1001 28 10000 3.6 110 06:27 03.09.2019
2577 Clear 31 999 36 10000 3.1 80 03:44 03.09.2019
2578 Clear 31 998 30 10000 2.6 60 02:47 03.09.2019
2579 Clear 31 998 30 10000 2.6 60 02:26 03.09.2019
2580 Clear 31 998 30 10000 1.5 0 01:52 03.09.2019
2581 Clear 31 998 30 10000 1.5 0 01:33 03.09.2019
2582 Clear 31 998 34 10000 1.5 80 00:44 03.09.2019
2583 Clear 31 998 34 10000 1.5 80 00:25 03.09.2019
2584 Clear 34 998 34 10000 2.1 160 23:40 02.09.2019
2585 Clear 34 998 34 10000 2.1 160 23:40 02.09.2019
2586 Clear 34 998 34 10000 2.1 160 23:40 02.09.2019
2587 Clear 33 999 37 10000 2.1 140 23:20 02.09.2019
2588 Clear 33 999 37 10000 2.1 140 22:56 02.09.2019
2589 Clear 33 999 37 10000 2.1 140 22:38 02.09.2019
2590 Clear 34 999 35 10000 2.6 110 22:20 02.09.2019
2591 Clear 34 999 35 10000 2.6 110 21:57 02.09.2019
2592 Clear 34 999 35 10000 2.6 110 21:39 02.09.2019
2593 Clear 34 999 37 10000 2.1 110 21:20 02.09.2019
2594 Clear 34 999 37 10000 2.1 110 20:58 02.09.2019
2595 Clear 34 999 37 10000 2.1 110 20:39 02.09.2019
2596 Clear 36 999 33 10000 2.6 70 20:18 02.09.2019
2597 Clear 36 999 33 10000 2.6 70 19:56 02.09.2019
2598 Clear 36 999 33 10000 2.6 70 19:38 02.09.2019
2599 Clear 36 999 33 10000 2.6 70 19:19 02.09.2019
2600 Clear 36 999 37 10000 3.1 40 18:39 02.09.2019
2601 Clear 37 998 42 10000 3.1 40 18:21 02.09.2019
2602 Clear 37 998 42 10000 3.1 40 17:57 02.09.2019
2603 Clear 37 998 42 10000 3.1 40 17:39 02.09.2019
2604 Clear 38 998 37 10000 4.1 10 17:19 02.09.2019
2605 Clear 38 998 37 10000 4.1 10 16:42 02.09.2019
2606 Clear 38 998 37 10000 4.1 10 16:22 02.09.2019
2607 Clear 39 998 42 10000 4.6 10 15:57 02.09.2019
2608 Clear 39 998 42 10000 4.6 10 15:38 02.09.2019
2609 Dust 39 998 48 10000 6.2 350 15:19 02.09.2019
2610 Dust 39 998 48 10000 6.2 350 14:56 02.09.2019
2611 Dust 39 998 48 10000 6.2 350 14:37 02.09.2019
2612 Dust 39 998 48 10000 6.2 350 14:37 02.09.2019
2613 Dust 40 998 45 10000 7.2 340 14:18 02.09.2019
2614 Dust 40 998 45 10000 7.2 340 13:44 02.09.2019
2615 Dust 40 998 45 10000 7.2 340 13:25 02.09.2019
2616 Clear 43 998 32 10000 6.7 320 12:47 02.09.2019
2617 Clear 42 999 28 10000 5.7 310 12:27 02.09.2019
2618 Clear 42 999 28 10000 5.7 310 12:00 02.09.2019
2619 Clear 42 999 28 10000 5.7 310 11:41 02.09.2019
2620 Clear 43 1000 19 10000 2.1 190 11:22 02.09.2019
2621 Clear 43 1000 19 10000 2.1 190 10:58 02.09.2019
2622 Clear 43 1000 19 10000 2.1 190 10:39 02.09.2019
2623 Clear 42 1001 23 10000 2.1 230 10:21 02.09.2019
2624 Clear 42 1001 23 10000 2.1 230 09:58 02.09.2019
2625 Clear 42 1001 23 10000 2.1 230 09:38 02.09.2019
2626 Clear 39 1001 33 10000 3.1 220 09:19 02.09.2019
2627 Clear 39 1001 33 10000 3.1 220 08:39 02.09.2019
2628 Clear 36 1001 39 10000 3.1 170 08:21 02.09.2019
2629 Clear 36 1001 39 10000 3.1 170 07:42 02.09.2019
2630 Dust 33 1001 46 7000 2.1 0 07:22 02.09.2019
2631 Dust 33 1001 46 7000 2.1 0 06:58 02.09.2019
2632 Dust 33 1001 46 7000 2.1 0 06:39 02.09.2019
2633 Haze 31 1000 70 5000 2.6 110 05:50 02.09.2019
2634 Haze 31 1000 70 5000 2.6 110 05:20 02.09.2019
2635 Haze 30 999 66 7000 2.1 0 04:45 02.09.2019
2636 Clear 32 998 56 9000 2.6 40 01:50 02.09.2019
2637 Clear 32 998 53 9000 3.1 40 00:55 02.09.2019
2638 Clear 32 998 53 9000 3.1 40 00:32 02.09.2019
2639 Clear 33 999 47 10000 2.6 50 23:48 01.09.2019
2640 Clear 33 999 47 10000 2.6 50 23:23 01.09.2019
2641 Clear 33 999 50 10000 1.5 20 22:59 01.09.2019
2642 Clear 33 999 50 10000 1.5 20 22:59 01.09.2019
2643 Clear 33 999 50 10000 1.5 20 22:40 01.09.2019
2644 Clear 34 999 50 9000 2.1 100 22:20 01.09.2019
2645 Clear 34 999 50 9000 2.1 100 21:59 01.09.2019
2646 Clear 34 999 50 9000 2.1 100 21:40 01.09.2019
2647 Clear 34 999 50 9000 2.1 100 21:22 01.09.2019
2648 Clear 35 999 42 10000 2.6 80 20:57 01.09.2019
2649 Clear 35 999 42 10000 2.6 80 20:38 01.09.2019
2650 Clear 36 998 31 10000 2.6 340 20:19 01.09.2019
2651 Clear 36 998 31 10000 2.6 340 19:58 01.09.2019
2652 Clear 36 998 31 10000 2.6 340 19:38 01.09.2019
2653 Clear 36 998 31 10000 2.6 340 19:19 01.09.2019
2654 Clear 36 998 37 10000 2.6 10 18:43 01.09.2019
2655 Clear 37 997 35 10000 2.1 0 18:25 01.09.2019
2656 Clear 37 997 35 10000 2.1 0 17:57 01.09.2019
2657 Clear 37 997 35 10000 2.1 0 17:38 01.09.2019
2658 Clear 37 997 50 10000 3.6 360 17:19 01.09.2019
2659 Clear 37 997 50 10000 3.6 360 16:41 01.09.2019
2660 Clear 38 997 53 10000 5.7 340 16:20 01.09.2019
2661 Clear 38 997 53 10000 5.7 340 15:55 01.09.2019
2662 Clear 38 997 53 10000 5.7 340 15:37 01.09.2019
2663 Clear 38 997 53 10000 5.7 340 15:37 01.09.2019
2664 Clear 38 996 42 10000 7.2 310 15:19 01.09.2019
2665 Clear 38 996 42 10000 7.2 310 14:42 01.09.2019
2666 Clear 38 996 42 10000 7.2 310 14:21 01.09.2019
2667 Clear 39 997 37 10000 7.7 330 13:59 01.09.2019
2668 Clear 39 997 37 10000 7.7 330 13:40 01.09.2019
2669 Clear 40 997 38 10000 5.7 320 13:21 01.09.2019
2670 Clear 40 997 38 10000 5.7 320 12:43 01.09.2019
2671 Clear 40 998 42 9000 5.7 310 12:25 01.09.2019
2672 Clear 40 998 42 9000 5.7 310 11:55 01.09.2019
2673 Clear 40 998 42 9000 5.7 310 11:37 01.09.2019
2674 Clear 41 999 42 8000 5.1 340 11:18 01.09.2019
2675 Clear 41 999 42 8000 5.1 340 10:43 01.09.2019
2676 Clear 40 999 26 8000 2.1 0 10:23 01.09.2019
2677 Clear 40 999 26 8000 2.1 0 09:47 01.09.2019
2678 Clear 40 999 26 8000 2.1 0 09:26 01.09.2019
2679 Clear 38 1000 47 7000 2.6 50 08:46 01.09.2019
2680 Clear 38 1000 47 7000 2.6 50 08:25 01.09.2019
2681 Clear 36 1000 53 7000 3.6 10 07:59 01.09.2019
2682 Clear 36 1000 53 7000 3.6 10 07:41 01.09.2019
2683 Haze 34 999 47 6000 3.1 20 07:18 01.09.2019
2684 Haze 34 999 47 6000 3.1 20 06:37 01.09.2019
2685 Clear 33 998 44 7000 1.5 0 05:57 01.09.2019
2686 Clear 33 998 44 7000 1.5 0 05:57 01.09.2019
2687 Clear 33 998 53 6000 1 0 04:34 01.09.2019
2688 Clear 33 997 59 8000 2.6 200 03:43 01.09.2019
2689 Clear 33 997 56 10000 2.6 160 02:59 01.09.2019
2690 Clear 33 997 56 10000 2.6 160 02:29 01.09.2019
2691 Clear 33 997 53 10000 2.1 180 01:51 01.09.2019
2692 Clear 33 997 53 10000 2.1 180 01:25 01.09.2019
2693 Clear 33 998 53 10000 2.1 170 00:47 01.09.2019
2694 Clear 32 998 53 10000 2.6 160 00:23 01.09.2019
2695 Clear 32 998 53 10000 2.6 160 23:55 31.08.2019
2696 Clear 32 998 53 10000 2.6 160 23:36 31.08.2019
2697 Clear 33 998 50 10000 2.6 110 23:18 31.08.2019
2698 Clear 33 998 50 10000 2.6 110 22:44 31.08.2019
2699 Clear 33 998 50 10000 2.6 110 22:25 31.08.2019
2700 Clear 33 998 53 10000 1 0 21:58 31.08.2019
2701 Clear 33 998 53 10000 1 0 21:39 31.08.2019
2702 Clear 34 998 50 10000 1.5 210 21:20 31.08.2019
2703 Clear 34 998 50 10000 1.5 210 20:47 31.08.2019
2704 Clear 34 998 50 10000 1.5 210 20:29 31.08.2019
2705 Clear 35 997 47 10000 2.6 250 19:57 31.08.2019
2706 Clear 35 997 47 10000 2.6 250 19:39 31.08.2019
2707 Clear 35 997 47 10000 3.1 270 19:20 31.08.2019
2708 Clear 35 997 47 10000 3.1 270 18:40 31.08.2019
2709 Clouds 36 997 56 8000 3.6 330 18:21 31.08.2019
2710 Clouds 36 997 56 8000 3.6 330 17:57 31.08.2019
2711 Clouds 36 997 56 8000 3.6 330 17:37 31.08.2019
2712 Clouds 36 997 56 8000 3.6 330 17:37 31.08.2019
2713 Clouds 37 997 50 8000 4.1 320 17:19 31.08.2019
2714 Clouds 37 997 50 8000 4.1 320 16:57 31.08.2019
2715 Clouds 37 997 50 8000 4.1 320 16:39 31.08.2019
2716 Clouds 38 997 50 8000 5.1 340 16:20 31.08.2019
2717 Clouds 38 997 50 8000 5.1 340 15:57 31.08.2019
2718 Clouds 38 997 50 8000 5.1 340 15:36 31.08.2019
2719 Clear 39 997 54 10000 6.2 350 15:18 31.08.2019
2720 Clear 39 997 54 10000 6.2 350 14:41 31.08.2019
2721 Clear 39 997 54 10000 6.2 350 14:41 31.08.2019
2722 Clear 39 997 54 10000 6.2 350 14:22 31.08.2019
2723 Clear 40 997 40 10000 6.2 330 13:41 31.08.2019
2724 Clear 42 998 28 10000 5.7 340 13:23 31.08.2019
2725 Clear 42 998 28 10000 5.7 340 12:59 31.08.2019
2726 Clear 42 998 28 10000 5.7 340 12:39 31.08.2019
2727 Clear 43 998 25 10000 4.1 350 12:20 31.08.2019
2728 Clear 43 998 25 10000 4.1 350 12:20 31.08.2019
2729 Clear 43 998 25 10000 4.1 350 11:55 31.08.2019
2730 Clear 43 998 25 10000 4.1 350 11:36 31.08.2019
2731 Clear 42 999 32 10000 5.1 340 11:18 31.08.2019
2732 Clear 42 999 32 10000 5.1 340 10:41 31.08.2019
2733 Clear 42 1000 22 8000 1.5 360 10:19 31.08.2019
2734 Clear 42 1000 22 8000 1.5 360 09:57 31.08.2019
2735 Clear 42 1000 22 8000 1.5 360 09:37 31.08.2019
2736 Clear 40 1000 26 10000 2.6 0 09:19 31.08.2019
2737 Clear 40 1000 26 10000 2.6 0 08:43 31.08.2019
2738 Clear 37 999 41 10000 2.1 230 08:23 31.08.2019
2739 Clear 37 999 41 10000 2.1 230 07:40 31.08.2019
2740 Clouds 33 999 46 9000 1.5 210 07:22 31.08.2019
2741 Clouds 33 999 46 9000 1.5 210 06:41 31.08.2019
2742 Clouds 33 999 46 9000 1.5 210 06:41 31.08.2019
2743 Clouds 31 999 55 8000 2.1 220 06:18 31.08.2019
2744 Clouds 31 999 55 8000 2.1 220 06:18 31.08.2019
2745 Clouds 31 999 55 8000 2.1 220 05:33 31.08.2019
2746 Clouds 30 999 59 8000 1.5 190 04:36 31.08.2019
2747 Clear 29 998 52 10000 2.6 150 03:45 31.08.2019
2748 Clear 29 998 55 10000 2.1 160 02:37 31.08.2019
2749 Clear 30 998 59 10000 2.1 140 01:53 31.08.2019
2750 Clear 30 998 59 10000 2.1 140 01:33 31.08.2019
2751 Clear 30 999 59 10000 2.1 160 00:50 31.08.2019
2752 Clear 30 999 59 10000 2.1 160 00:50 31.08.2019
2753 Clear 30 999 59 10000 2.1 160 00:30 31.08.2019
2754 Clear 31 999 56 10000 3.1 100 23:57 30.08.2019
2755 Clear 31 999 56 10000 3.1 100 23:57 30.08.2019
2756 Clear 31 999 56 10000 3.1 100 23:38 30.08.2019
2757 Clear 32 1000 56 10000 2.1 100 23:18 30.08.2019
2758 Clear 32 1000 56 10000 2.1 100 22:42 30.08.2019
2759 Clear 32 1000 56 10000 2.1 100 22:22 30.08.2019
2760 Clear 33 1000 56 10000 1 0 21:58 30.08.2019
2761 Clear 33 1000 56 10000 1 0 21:58 30.08.2019
2762 Clear 33 1000 56 10000 1 0 21:38 30.08.2019
2763 Clear 33 1000 59 10000 2.1 10 21:19 30.08.2019
2764 Clear 33 1000 59 10000 2.1 10 21:19 30.08.2019
2765 Clear 33 1000 59 10000 2.1 10 21:19 30.08.2019
2766 Clear 33 1000 59 10000 2.1 10 20:58 30.08.2019
2767 Clear 33 1000 59 10000 2.1 10 20:39 30.08.2019
2768 Clear 34 999 53 10000 2.1 360 20:20 30.08.2019
2769 Clear 34 999 53 10000 2.1 360 19:57 30.08.2019
2770 Clear 34 999 53 10000 2.1 360 19:38 30.08.2019
2771 Clear 34 999 53 10000 2.1 360 19:19 30.08.2019
2772 Clear 35 999 50 10000 2.6 330 18:47 30.08.2019
2773 Clear 35 999 50 10000 2.6 330 18:25 30.08.2019
2774 Clear 36 999 56 10000 5.1 320 17:58 30.08.2019
2775 Clear 36 999 56 10000 5.1 320 17:58 30.08.2019
2776 Clear 36 999 56 10000 5.1 320 17:40 30.08.2019
2777 Clear 37 999 47 10000 6.2 330 17:19 30.08.2019
2778 Clear 37 999 47 10000 6.2 330 16:59 30.08.2019
2779 Clear 37 999 47 10000 6.2 330 16:40 30.08.2019
2780 Clear 37 999 47 10000 6.2 330 16:40 30.08.2019
2781 Clear 37 999 47 10000 6.2 330 16:21 30.08.2019
2782 Clear 38 999 42 10000 7.2 320 15:43 30.08.2019
2783 Clear 38 999 42 10000 7.2 320 15:23 30.08.2019
2784 Clear 39 999 35 10000 6.7 330 14:46 30.08.2019
2785 Clear 39 999 35 10000 6.7 330 14:28 30.08.2019
2786 Clear 40 1000 40 10000 6.2 320 13:58 30.08.2019
2787 Clear 40 1000 40 10000 6.2 320 13:40 30.08.2019
2788 Clear 41 1000 38 10000 6.2 330 13:21 30.08.2019
2789 Clear 41 1000 38 10000 6.2 330 12:45 30.08.2019
2790 Clear 41 1000 38 10000 6.2 330 12:26 30.08.2019
2791 Clear 41 1001 43 10000 5.1 330 11:58 30.08.2019
2792 Clear 41 1001 43 10000 5.1 330 11:39 30.08.2019
2793 Clear 41 1001 43 10000 5.1 330 11:21 30.08.2019
2794 Clear 41 1001 43 10000 5.1 330 11:21 30.08.2019
2795 Clear 41 1001 40 10000 5.1 330 10:39 30.08.2019
2796 Clear 42 1002 22 10000 2.6 70 10:20 30.08.2019
2797 Clear 42 1002 22 10000 2.6 70 09:56 30.08.2019
2798 Clear 42 1002 22 10000 2.6 70 09:36 30.08.2019
2799 Clear 42 1002 22 10000 2.6 70 09:36 30.08.2019
2800 Clear 39 1002 31 10000 2.1 0 09:18 30.08.2019
2801 Clear 39 1002 31 10000 2.1 0 09:18 30.08.2019
2802 Clear 39 1002 31 10000 2.1 0 08:44 30.08.2019
2803 Clear 39 1002 31 10000 2.1 0 08:24 30.08.2019
2804 Clear 36 1002 39 10000 1.5 100 07:56 30.08.2019
2805 Clear 36 1002 39 10000 1.5 100 07:37 30.08.2019
2806 Clear 32 1002 55 10000 1.5 150 07:18 30.08.2019
2807 Clear 32 1002 55 10000 1.5 150 06:40 30.08.2019
2808 Clear 29 1002 59 10000 2.1 140 06:21 30.08.2019
2809 Clear 29 1002 59 10000 2.1 140 05:32 30.08.2019
2810 Clear 29 1001 59 10000 1.5 190 03:57 30.08.2019
2811 Clear 29 1001 59 10000 1.5 190 03:57 30.08.2019
2812 Clear 29 1001 59 10000 1.5 190 03:57 30.08.2019
2813 Clear 29 1001 59 10000 1.5 190 03:37 30.08.2019
2814 Clear 29 1001 55 10000 2.1 0 02:42 30.08.2019
2815 Clear 30 1000 52 10000 1.5 0 02:19 30.08.2019
2816 Clear 31 1001 52 10000 1.5 80 00:57 30.08.2019
2817 Clear 31 1002 52 10000 3.1 120 00:23 30.08.2019
2818 Clear 31 1002 52 10000 3.1 120 23:49 29.08.2019
2819 Clear 31 1002 52 10000 3.1 120 23:23 29.08.2019
2820 Clear 32 1002 47 10000 3.6 110 22:58 29.08.2019
2821 Clear 32 1002 47 10000 3.6 110 22:38 29.08.2019
2822 Clear 33 1002 53 10000 3.1 330 22:20 29.08.2019
2823 Clear 33 1002 53 10000 3.1 330 21:42 29.08.2019
2824 Clear 33 1002 53 10000 3.1 330 21:42 29.08.2019
2825 Clear 33 1002 53 10000 3.1 330 21:22 29.08.2019
2826 Clear 34 1002 42 10000 3.6 10 20:59 29.08.2019
2827 Clear 34 1002 42 10000 3.6 10 20:59 29.08.2019
2828 Clear 34 1002 42 10000 3.6 10 20:41 29.08.2019
2829 Clear 34 1002 42 10000 3.6 10 20:19 29.08.2019
2830 Clear 36 1001 39 10000 3.1 340 19:57 29.08.2019
2831 Clear 36 1001 39 10000 3.1 340 19:38 29.08.2019
2832 Clear 36 1001 39 10000 3.1 340 19:20 29.08.2019
2833 Clear 36 1001 42 10000 3.6 340 18:41 29.08.2019
2834 Clear 37 1001 47 10000 4.6 350 18:20 29.08.2019
2835 Clear 37 1001 47 10000 4.6 350 17:56 29.08.2019
2836 Clear 37 1001 47 10000 4.6 350 17:56 29.08.2019
2837 Clear 37 1001 47 10000 4.6 350 17:37 29.08.2019
2838 Clear 37 1001 47 10000 4.6 350 17:19 29.08.2019
2839 Clear 38 1000 42 10000 6.2 350 16:43 29.08.2019
2840 Clear 40 1000 35 10000 5.7 350 16:24 29.08.2019
2841 Clear 40 1000 35 10000 5.7 350 15:58 29.08.2019
2842 Clear 40 1000 35 10000 5.7 350 15:37 29.08.2019
2843 Clear 41 1000 26 10000 7.2 350 15:19 29.08.2019
2844 Clear 41 1000 26 10000 7.2 350 15:19 29.08.2019
2845 Clear 41 1000 26 10000 7.2 350 14:45 29.08.2019
2846 Clear 41 1000 26 10000 7.2 350 14:22 29.08.2019
2847 Clear 43 1000 23 10000 6.7 350 13:58 29.08.2019
2848 Clear 43 1000 23 10000 6.7 350 13:39 29.08.2019
2849 Clear 44 1001 17 10000 5.7 340 13:20 29.08.2019
2850 Clear 44 1001 17 10000 5.7 340 12:58 29.08.2019
2851 Clear 44 1001 17 10000 5.7 340 12:39 29.08.2019
2852 Clear 45 1001 13 10000 3.6 10 12:20 29.08.2019
2853 Clear 45 1001 13 10000 3.6 10 11:58 29.08.2019
2854 Clear 45 1001 13 10000 3.6 10 11:37 29.08.2019
2855 Clear 44 1002 10 10000 1.5 0 11:18 29.08.2019
2856 Clear 44 1002 10 10000 1.5 0 10:42 29.08.2019
2857 Clear 44 1002 10 10000 1.5 0 10:24 29.08.2019
2858 Clear 42 1003 11 10000 2.6 190 09:42 29.08.2019
2859 Clear 39 1004 21 10000 3.6 220 09:21 29.08.2019
2860 Clear 39 1004 21 10000 3.6 220 08:59 29.08.2019
2861 Clear 39 1004 21 10000 3.6 220 08:40 29.08.2019
2862 Clear 37 1004 22 10000 3.1 220 08:21 29.08.2019
2863 Clear 37 1004 22 10000 3.1 220 07:48 29.08.2019
2864 Clear 33 1003 27 10000 3.6 210 07:26 29.08.2019
2865 Clear 33 1003 27 10000 3.6 210 06:47 29.08.2019
2866 Clear 33 1003 27 10000 3.6 210 06:28 29.08.2019
2867 Clear 31 1003 24 10000 1 0 05:41 29.08.2019
2868 Clear 29 1002 26 10000 1.5 160 04:50 29.08.2019
2869 Clear 29 1002 26 10000 1.5 160 04:29 29.08.2019
2870 Clear 30 1001 24 10000 2.1 60 02:49 29.08.2019
2871 Clear 31 1002 24 10000 2.6 80 01:49 29.08.2019
2872 Clear 31 1002 24 10000 2.6 80 01:30 29.08.2019
2873 Clear 31 1002 28 10000 2.6 80 00:40 29.08.2019
2874 Clear 33 1001 34 10000 2.1 20 00:20 29.08.2019
2875 Clear 33 1001 34 10000 2.1 20 23:43 28.08.2019
2876 Clear 33 1001 34 10000 2.1 20 23:24 28.08.2019
2877 Clear 34 1002 25 10000 2.1 60 22:58 28.08.2019
2878 Clear 34 1002 25 10000 2.1 60 22:39 28.08.2019
2879 Clear 35 1002 29 10000 2.1 50 22:18 28.08.2019
2880 Clear 35 1002 29 10000 2.1 50 21:57 28.08.2019
2881 Clear 35 1002 29 10000 2.1 50 21:38 28.08.2019
2882 Clear 35 1002 29 10000 2.6 70 21:20 28.08.2019
2883 Clear 35 1002 29 10000 2.6 70 20:41 28.08.2019
2884 Clear 36 1001 33 10000 3.1 60 20:22 28.08.2019
2885 Clear 36 1001 33 10000 3.1 60 20:22 28.08.2019
2886 Clear 36 1001 33 10000 3.1 60 19:55 28.08.2019
2887 Clear 36 1001 33 10000 3.1 60 19:37 28.08.2019
2888 Clear 36 1001 33 10000 3.1 60 19:18 28.08.2019
2889 Clear 37 1001 33 10000 2.6 40 18:42 28.08.2019
2890 Clear 38 1000 27 10000 3.6 30 18:21 28.08.2019
2891 Clear 38 1000 27 10000 3.6 30 17:55 28.08.2019
2892 Clear 38 1000 27 10000 3.6 30 17:37 28.08.2019
2893 Clear 38 1000 27 10000 3.6 30 17:37 28.08.2019
2894 Clear 40 1000 23 10000 3.6 350 17:19 28.08.2019
2895 Clear 40 1000 23 10000 3.6 350 16:42 28.08.2019
2896 Dust 41 999 24 10000 6.2 330 16:18 28.08.2019
2897 Dust 41 999 24 10000 6.2 330 15:54 28.08.2019
2898 Dust 41 999 24 10000 6.2 330 15:36 28.08.2019
2899 Dust 41 999 30 10000 6.2 350 15:18 28.08.2019
2900 Dust 41 999 30 10000 6.2 350 14:55 28.08.2019
2901 Dust 41 999 30 10000 6.2 350 14:36 28.08.2019
2902 Dust 42 1000 36 10000 7.2 340 14:18 28.08.2019
2903 Dust 42 1000 36 10000 7.2 340 13:39 28.08.2019
2904 Clear 42 1000 14 10000 6.7 310 13:20 28.08.2019
2905 Clear 42 1000 14 10000 6.7 310 12:58 28.08.2019
2906 Clear 42 1000 14 10000 6.7 310 12:40 28.08.2019
2907 Clear 42 1000 14 10000 6.7 310 12:40 28.08.2019
2908 Clear 44 1001 14 10000 5.7 320 12:21 28.08.2019
2909 Clear 44 1001 14 10000 5.7 320 11:40 28.08.2019
2910 Clear 44 1001 14 10000 5.7 320 11:22 28.08.2019
2911 Clear 44 1002 9 10000 2.1 0 10:57 28.08.2019
2912 Clear 44 1002 9 10000 2.1 0 10:38 28.08.2019
2913 Clear 42 1002 11 10000 1.5 190 10:20 28.08.2019
2914 Clear 42 1002 11 10000 1.5 190 10:20 28.08.2019
2915 Clear 42 1002 11 10000 1.5 190 09:42 28.08.2019
2916 Clear 42 1002 11 10000 1.5 190 09:21 28.08.2019
2917 Clear 40 1003 14 10000 2.6 200 08:57 28.08.2019
2918 Clear 40 1003 14 10000 2.6 200 08:38 28.08.2019
2919 Clear 38 1003 17 10000 5.1 190 08:19 28.08.2019
2920 Clear 38 1003 17 10000 5.1 190 07:38 28.08.2019
2921 Clear 34 1002 25 8000 2.1 100 07:20 28.08.2019
2922 Clear 34 1002 25 8000 2.1 100 07:20 28.08.2019
2923 Clear 34 1002 25 8000 2.1 100 06:49 28.08.2019
2924 Clear 31 1002 28 10000 1 0 05:59 28.08.2019
2925 Clear 30 1001 27 10000 1 0 04:49 28.08.2019
2926 Clear 32 1002 20 10000 5.1 10 01:58 28.08.2019
2927 Clear 33 1000 28 10000 3.1 70 01:30 28.08.2019
2928 Clear 33 1000 30 10000 0.5 0 00:50 28.08.2019
2929 Clear 33 1000 30 10000 0.5 0 00:32 28.08.2019
2930 Clear 34 1000 31 10000 2.1 160 23:46 27.08.2019
2931 Clear 34 1000 31 10000 2.1 160 23:22 27.08.2019
2932 Clear 34 1000 25 10000 3.1 100 22:59 27.08.2019
2933 Clear 34 1000 25 10000 3.1 100 22:41 27.08.2019
2934 Clear 34 1000 25 10000 3.1 100 22:22 27.08.2019
2935 Clear 35 1001 21 10000 1.5 110 21:57 27.08.2019
2936 Clear 35 1001 21 10000 1.5 110 21:38 27.08.2019
2937 Clear 36 1001 21 10000 2.6 60 21:19 27.08.2019
2938 Clear 36 1001 21 10000 2.6 60 20:57 27.08.2019
2939 Clear 36 1001 21 10000 2.6 60 20:37 27.08.2019
2940 Clear 38 1001 23 10000 3.1 40 20:19 27.08.2019
2941 Clear 38 1001 23 10000 3.1 40 19:43 27.08.2019
2942 Clear 38 1001 23 10000 3.1 40 19:25 27.08.2019
2943 Clear 38 1000 23 10000 3.6 30 18:56 27.08.2019
2944 Clear 38 1000 23 10000 3.6 30 18:37 27.08.2019
2945 Clear 39 1000 23 10000 4.6 30 18:18 27.08.2019
2946 Clear 39 1000 23 10000 4.6 30 17:43 27.08.2019
2947 Clear 39 1000 23 10000 4.6 30 17:24 27.08.2019
2948 Clear 41 999 20 10000 5.1 20 16:57 27.08.2019
2949 Clear 41 999 20 10000 5.1 20 16:36 27.08.2019
2950 Clouds 42 999 23 10000 5.1 360 16:18 27.08.2019
2951 Clouds 42 999 23 10000 5.1 360 15:42 27.08.2019
2952 Clouds 42 999 23 10000 5.1 360 15:23 27.08.2019
2953 Clouds 43 999 18 10000 6.2 340 14:59 27.08.2019
2954 Clouds 43 999 18 10000 6.2 340 14:41 27.08.2019
2955 Clouds 42 999 25 10000 6.7 340 14:23 27.08.2019
2956 Clouds 42 999 25 10000 6.7 340 13:43 27.08.2019
2957 Clouds 42 999 25 10000 6.7 340 13:24 27.08.2019
2958 Clear 43 1000 15 10000 6.7 350 12:56 27.08.2019
2959 Clear 43 1000 15 10000 6.7 350 12:37 27.08.2019
2960 Clear 44 1000 40 10000 8.2 290 12:18 27.08.2019
2961 Clear 45 1001 10 10000 1.5 0 11:43 27.08.2019
2962 Clear 45 1001 10 10000 1.5 0 11:25 27.08.2019
2963 Clear 43 1002 14 10000 2.6 0 10:44 27.08.2019
2964 Clear 43 1002 14 10000 2.6 0 10:22 27.08.2019
2965 Clear 42 1002 17 10000 3.6 70 09:58 27.08.2019
2966 Clear 42 1002 17 10000 3.6 70 09:39 27.08.2019
2967 Clear 39 1003 31 10000 2.6 0 09:20 27.08.2019
2968 Clear 39 1003 31 10000 2.6 0 08:55 27.08.2019
2969 Clear 39 1003 31 10000 2.6 0 08:37 27.08.2019
2970 Clear 36 1003 41 10000 2.6 160 08:18 27.08.2019
2971 Clear 36 1003 41 10000 2.6 160 07:39 27.08.2019
2972 Clear 33 1002 49 9000 3.6 120 07:19 27.08.2019
2973 Clear 33 1002 49 9000 3.6 120 06:51 27.08.2019
2974 Clear 33 1002 49 9000 3.6 120 06:23 27.08.2019
2975 Haze 30 1002 79 5000 2.1 130 05:42 27.08.2019
2976 Haze 29 1001 84 5000 1.5 110 04:37 27.08.2019
2977 Haze 29 1001 84 7000 2.6 80 03:34 27.08.2019
2978 Haze 31 1001 79 8000 2.6 70 02:23 27.08.2019
2979 Haze 31 1001 79 8000 2.6 70 01:40 27.08.2019
2980 Haze 31 1001 84 8000 3.1 40 00:58 27.08.2019
2981 Haze 31 1001 84 8000 3.1 40 00:38 27.08.2019
2982 Haze 32 1001 79 8000 2.1 0 00:19 27.08.2019
2983 Haze 32 1001 79 8000 2.1 0 23:37 26.08.2019
2984 Clouds 33 1001 84 8000 3.6 350 23:19 26.08.2019
2985 Clouds 33 1001 84 8000 3.6 350 22:39 26.08.2019
2986 Clouds 33 1001 84 8000 3.6 350 22:19 26.08.2019
2987 Clear 33 1002 67 10000 2.1 0 21:57 26.08.2019
2988 Clear 33 1002 67 10000 2.1 0 21:37 26.08.2019
2989 Clear 33 1002 67 10000 2.1 0 21:18 26.08.2019
2990 Clear 34 1002 63 10000 1.5 220 20:54 26.08.2019
2991 Clear 34 1002 63 10000 1.5 220 20:36 26.08.2019
2992 Clear 34 1002 63 10000 1.5 220 20:36 26.08.2019
2993 Clear 34 1002 63 10000 1.5 220 20:18 26.08.2019
2994 Clear 35 1002 56 10000 2.6 310 19:42 26.08.2019
2995 Clear 35 1002 56 10000 2.6 310 19:19 26.08.2019
2996 Clear 35 1001 63 10000 4.1 340 18:58 26.08.2019
2997 Clear 35 1001 63 10000 4.1 340 18:37 26.08.2019
2998 Clear 35 1001 63 10000 4.1 340 18:37 26.08.2019
2999 Clear 35 1001 63 10000 4.1 340 18:19 26.08.2019
3000 Clear 35 1001 53 10000 5.1 340 17:44 26.08.2019
3001 Clear 35 1001 53 10000 5.1 340 17:19 26.08.2019
3002 Dust 35 1000 71 9000 5.7 360 16:57 26.08.2019
3003 Dust 35 1000 71 9000 5.7 360 16:39 26.08.2019
3004 Dust 35 1000 71 9000 5.7 360 16:18 26.08.2019
3005 Dust 36 1000 63 9000 6.2 360 15:44 26.08.2019
3006 Dust 36 1000 63 9000 6.2 360 15:22 26.08.2019
3007 Dust 36 1000 67 9000 7.7 360 14:58 26.08.2019
3008 Dust 36 1000 67 9000 7.7 360 14:40 26.08.2019
3009 Dust 36 1000 67 9000 7.7 360 14:21 26.08.2019
3010 Dust 37 1000 60 9000 7.7 330 13:43 26.08.2019
3011 Dust 37 1000 60 9000 7.7 330 13:23 26.08.2019
3012 Clear 38 1001 56 10000 5.7 340 12:57 26.08.2019
3013 Clear 38 1001 56 10000 5.7 340 12:39 26.08.2019
3014 Clear 38 1001 56 10000 5.7 340 12:20 26.08.2019
3015 Clear 39 1001 51 10000 5.1 350 11:38 26.08.2019
3016 Clear 39 1001 51 10000 5.1 350 11:20 26.08.2019
3017 Clear 41 1002 45 10000 5.1 340 10:57 26.08.2019
3018 Clear 41 1002 45 10000 5.1 340 10:39 26.08.2019
3019 Clear 41 1002 45 10000 5.1 340 10:19 26.08.2019
3020 Clear 41 1003 21 10000 2.1 0 09:42 26.08.2019
3021 Clear 39 1003 23 10000 2.6 80 09:24 26.08.2019
3022 Clear 39 1003 23 10000 2.6 80 08:56 26.08.2019
3023 Clear 39 1003 23 10000 2.6 80 08:38 26.08.2019
3024 Clear 39 1003 23 10000 2.6 80 08:38 26.08.2019
3025 Clear 37 1003 30 10000 1.5 60 08:19 26.08.2019
3026 Clear 37 1003 30 10000 1.5 60 07:43 26.08.2019
3027 Clear 37 1003 30 10000 1.5 60 07:24 26.08.2019
3028 Clear 34 1003 34 10000 1.5 90 06:57 26.08.2019
3029 Clear 34 1003 34 10000 1.5 90 06:38 26.08.2019
3030 Clear 34 1003 34 10000 1.5 90 06:18 26.08.2019
3031 Clear 29 1001 59 10000 1 0 04:36 26.08.2019
3032 Clear 29 1001 63 10000 2.1 130 03:48 26.08.2019
3033 Clear 30 1001 59 10000 2.6 120 02:31 26.08.2019
3034 Clear 31 1001 66 10000 3.1 110 01:23 26.08.2019
3035 Clear 31 1001 67 10000 3.1 110 00:43 26.08.2019
3036 Clear 31 1001 67 10000 3.1 110 00:24 26.08.2019
3037 Clear 32 1001 63 10000 2.6 100 23:44 25.08.2019
3038 Clear 32 1001 63 10000 2.6 100 23:20 25.08.2019
3039 Clear 33 1002 59 10000 2.6 70 22:58 25.08.2019
3040 Clear 33 1002 59 10000 2.6 70 22:40 25.08.2019
3041 Clear 33 1002 59 10000 2.6 70 22:20 25.08.2019
3042 Clear 33 1002 56 10000 2.1 30 21:58 25.08.2019
3043 Clear 33 1002 56 10000 2.1 30 21:39 25.08.2019
3044 Clear 33 1002 56 10000 2.1 30 21:19 25.08.2019
3045 Clear 34 1002 50 10000 3.1 360 20:42 25.08.2019
3046 Clear 34 1002 50 10000 3.1 360 20:20 25.08.2019
3047 Clear 34 1002 56 10000 2.6 360 19:59 25.08.2019
3048 Clear 34 1002 56 10000 2.6 360 19:39 25.08.2019
3049 Clear 34 1002 56 10000 2.6 360 19:20 25.08.2019
3050 Clear 34 1002 56 10000 2.6 360 18:58 25.08.2019
3051 Clear 35 1001 53 10000 4.1 340 18:40 25.08.2019
3052 Clear 35 1001 53 10000 4.1 340 18:21 25.08.2019
3053 Clear 36 1001 47 10000 5.1 330 17:55 25.08.2019
3054 Clear 36 1001 47 10000 5.1 330 17:36 25.08.2019
3055 Clear 36 1001 47 10000 5.1 330 17:18 25.08.2019
3056 Clear 38 1001 42 10000 5.1 320 16:39 25.08.2019
3057 Clear 38 1001 42 10000 5.1 320 16:21 25.08.2019
3058 Dust 39 1000 33 10000 6.2 320 15:44 25.08.2019
3059 Dust 39 1000 33 10000 6.2 320 15:26 25.08.2019
3060 Dust 40 1000 38 10000 6.2 330 14:55 25.08.2019
3061 Dust 40 1000 38 10000 6.2 330 14:55 25.08.2019
3062 Dust 40 1000 38 10000 6.2 330 14:37 25.08.2019
3063 Dust 40 1000 38 10000 6.2 330 14:19 25.08.2019
3064 Dust 41 1000 40 10000 6.2 340 13:43 25.08.2019
3065 Dust 41 1000 40 10000 6.2 340 13:21 25.08.2019
3066 Clear 41 1001 38 10000 6.7 340 12:54 25.08.2019
3067 Clear 41 1001 38 10000 6.7 340 12:36 25.08.2019
3068 Clear 41 1001 38 10000 7.2 350 12:18 25.08.2019
3069 Clear 41 1001 38 10000 7.2 350 11:41 25.08.2019
3070 Clear 41 1001 38 10000 7.2 350 11:22 25.08.2019
3071 Clear 41 1002 33 10000 7.7 350 10:59 25.08.2019
3072 Clear 42 1002 17 10000 4.6 290 10:40 25.08.2019
3073 Clear 42 1002 17 10000 4.6 290 10:20 25.08.2019
3074 Clear 42 1002 17 10000 4.6 290 10:20 25.08.2019
3075 Clear 42 1003 18 10000 3.1 300 09:55 25.08.2019
3076 Clear 42 1003 18 10000 3.1 300 09:37 25.08.2019
3077 Clear 42 1003 18 10000 3.1 300 09:18 25.08.2019
3078 Clear 40 1003 26 10000 2.6 210 08:41 25.08.2019
3079 Clear 40 1003 26 10000 2.6 210 08:20 25.08.2019
3080 Clear 38 1003 29 10000 1.5 0 07:35 25.08.2019
3081 Clear 34 1003 41 10000 1.5 0 06:46 25.08.2019
3082 Clear 34 1003 41 10000 1.5 0 06:46 25.08.2019
3083 Clear 32 1002 49 10000 1.5 230 05:43 25.08.2019
3084 Clear 31 1002 52 10000 2.1 220 04:32 25.08.2019
3085 Clear 31 1002 36 10000 2.1 180 03:31 25.08.2019
3086 Clear 31 1001 34 10000 1.5 160 02:39 25.08.2019
3087 Clear 32 1001 34 10000 2.1 130 01:20 25.08.2019
3088 Clear 32 1001 39 10000 2.1 60 00:38 25.08.2019
3089 Clear 32 1001 39 10000 2.1 60 00:20 25.08.2019
3090 Clear 33 1002 39 10000 2.1 170 23:47 24.08.2019
3091 Clear 33 1002 39 10000 2.1 170 23:22 24.08.2019
3092 Clear 34 1002 41 10000 2.1 170 22:55 24.08.2019
3093 Clear 34 1002 41 10000 2.1 170 22:37 24.08.2019
3094 Clear 34 1002 41 10000 2.1 170 22:18 24.08.2019
3095 Clear 35 1002 37 10000 2.1 160 21:55 24.08.2019
3096 Clear 35 1002 37 10000 2.1 160 21:36 24.08.2019
3097 Clear 35 1002 37 10000 2.1 160 21:18 24.08.2019
3098 Clear 35 1002 25 10000 1.5 0 20:41 24.08.2019
3099 Clear 35 1002 25 10000 1.5 0 20:20 24.08.2019
3100 Clear 36 1003 31 10000 2.1 330 19:59 24.08.2019
3101 Clear 36 1003 31 10000 2.1 330 19:40 24.08.2019
3102 Clear 36 1003 31 10000 2.1 330 19:22 24.08.2019
3103 Clear 37 1002 35 10000 2.1 360 18:57 24.08.2019
3104 Clear 37 1002 35 10000 2.1 360 18:37 24.08.2019
3105 Clear 37 1002 35 10000 2.1 360 18:19 24.08.2019
3106 Clear 38 1002 39 10000 4.1 350 17:43 24.08.2019
3107 Clear 38 1002 39 10000 4.1 350 17:24 24.08.2019
3108 Clear 40 1001 28 10000 5.7 310 16:44 24.08.2019
3109 Clear 40 1001 28 10000 5.7 310 16:20 24.08.2019
3110 Clear 41 1001 24 10000 6.7 310 15:57 24.08.2019
3111 Clear 41 1001 24 10000 6.7 310 15:38 24.08.2019
3112 Clear 41 1001 24 10000 6.7 310 15:20 24.08.2019
3113 Clear 41 1001 23 10000 7.2 320 14:42 24.08.2019
3114 Clear 41 1001 23 10000 7.2 320 14:21 24.08.2019
3115 Dust 42 1001 20 10000 8.2 300 13:56 24.08.2019
3116 Dust 42 1001 20 10000 8.2 300 13:37 24.08.2019
3117 Dust 42 1001 20 10000 8.2 300 13:18 24.08.2019
3118 Dust 42 1002 22 10000 7.7 290 12:42 24.08.2019
3119 Dust 42 1002 22 10000 7.7 290 12:24 24.08.2019
3120 Clear 42 1003 22 10000 4.1 270 11:56 24.08.2019
3121 Clear 42 1003 22 10000 4.1 270 11:38 24.08.2019
3122 Clear 42 1003 22 10000 4.1 270 11:18 24.08.2019
3123 Clear 42 1004 22 10000 3.6 0 10:43 24.08.2019
3124 Clear 42 1004 22 10000 3.6 0 10:22 24.08.2019
3125 Clear 41 1004 28 10000 2.6 0 09:44 24.08.2019
3126 Clear 41 1004 28 10000 2.6 0 09:20 24.08.2019
3127 Clear 39 1005 27 10000 4.6 180 08:56 24.08.2019
3128 Clear 39 1005 27 10000 4.6 180 08:36 24.08.2019
3129 Clear 39 1005 27 10000 4.6 180 08:18 24.08.2019
3130 Clear 37 1005 30 10000 5.7 180 07:41 24.08.2019
3131 Clear 37 1005 30 10000 5.7 180 07:22 24.08.2019
3132 Clear 35 1005 41 10000 2.6 170 06:24 24.08.2019
3133 Clear 32 1004 56 10000 2.1 90 05:40 24.08.2019
3134 Clear 32 1003 49 10000 2.6 70 03:54 24.08.2019
3135 Clear 32 1003 49 10000 2.6 70 03:34 24.08.2019
3136 Clear 32 1002 46 10000 3.1 60 02:24 24.08.2019
3137 Clear 32 1002 46 10000 3.1 70 01:30 24.08.2019
3138 Clear 32 1001 46 10000 3.1 130 00:49 24.08.2019
3139 Clear 32 1001 46 10000 3.1 130 00:24 24.08.2019
3140 Clear 33 1001 47 10000 4.1 130 23:49 23.08.2019
3141 Clear 33 1001 47 10000 4.1 130 23:24 23.08.2019
3142 Clear 34 1002 44 10000 4.6 130 22:59 23.08.2019
3143 Clear 34 1002 44 10000 4.6 130 22:41 23.08.2019
3144 Clear 34 1002 44 10000 4.6 130 22:20 23.08.2019
3145 Clear 35 1002 47 10000 3.1 100 21:38 23.08.2019
3146 Clear 35 1002 47 10000 3.1 100 21:19 23.08.2019
3147 Clear 36 1002 42 10000 4.6 100 20:53 23.08.2019
3148 Clear 36 1002 42 10000 4.6 100 20:35 23.08.2019
3149 Clear 37 1002 35 8000 5.1 90 19:58 23.08.2019
3150 Clear 37 1002 35 8000 5.1 90 19:40 23.08.2019
3151 Clear 37 1002 35 8000 5.1 90 19:18 23.08.2019
3152 Clear 37 1002 35 8000 5.1 90 19:18 23.08.2019
3153 Clear 38 1002 31 10000 6.7 110 18:43 23.08.2019
3154 Clear 38 1002 31 10000 6.7 110 18:24 23.08.2019
3155 Clear 40 1000 21 8000 5.1 40 17:46 23.08.2019
3156 Clear 40 1000 21 8000 5.1 40 17:28 23.08.2019
3157 Rain 40 1000 11 8000 5.1 180 16:59 23.08.2019
3158 Rain 40 1000 11 8000 5.1 180 16:40 23.08.2019
3159 Rain 40 1000 11 8000 5.1 180 16:22 23.08.2019
3160 Dust 39 1001 23 8000 6.7 160 15:41 23.08.2019
3161 Dust 39 1001 23 8000 6.7 160 15:22 23.08.2019
3162 Dust 41 1000 38 10000 7.7 20 14:58 23.08.2019
3163 Dust 41 1000 38 10000 7.7 20 14:40 23.08.2019
3164 Dust 41 1000 38 10000 7.7 20 14:20 23.08.2019
3165 Dust 41 1001 23 2500 5.7 360 13:56 23.08.2019
3166 Clouds 42 1000 30 10000 6.7 10 13:38 23.08.2019
3167 Clouds 42 1000 30 10000 6.7 10 13:19 23.08.2019
3168 Clouds 42 1001 36 10000 6.7 350 12:44 23.08.2019
3169 Clouds 42 1001 36 10000 6.7 350 12:25 23.08.2019
3170 Clouds 42 1001 34 10000 7.2 340 11:59 23.08.2019
3171 Clear 43 1002 22 10000 2.1 0 11:41 23.08.2019
3172 Clear 43 1002 22 10000 2.1 0 11:41 23.08.2019
3173 Clear 43 1002 22 10000 2.1 0 11:20 23.08.2019
3174 Clear 42 1002 23 10000 2.1 0 10:59 23.08.2019
3175 Clear 42 1002 23 10000 2.1 0 10:41 23.08.2019
3176 Clear 42 1002 23 10000 2.1 0 10:21 23.08.2019
3177 Clear 40 1003 29 10000 2.6 170 09:48 23.08.2019
3178 Clear 40 1003 29 10000 2.6 170 09:30 23.08.2019
3179 Clear 38 1003 35 10000 3.1 170 08:58 23.08.2019
3180 Clear 38 1003 35 10000 3.1 170 08:38 23.08.2019
3181 Clear 38 1003 35 10000 3.1 170 08:19 23.08.2019
3182 Clear 36 1003 44 10000 3.1 150 07:42 23.08.2019
3183 Clear 36 1003 44 10000 3.1 150 07:24 23.08.2019
3184 Clear 34 1003 49 10000 3.6 110 06:56 23.08.2019
3185 Clear 34 1003 49 10000 3.6 110 06:37 23.08.2019
3186 Clear 34 1003 49 10000 3.6 110 06:19 23.08.2019
3187 Clear 32 1003 52 10000 3.1 100 05:32 23.08.2019
3188 Clear 32 1002 52 10000 3.1 100 04:20 23.08.2019
3189 Clear 33 1001 47 10000 3.1 110 02:49 23.08.2019
3190 Clear 33 1001 47 10000 3.1 110 02:22 23.08.2019
3191 Clear 33 1001 47 10000 1.5 350 01:38 23.08.2019
3192 Clear 33 1000 47 10000 4.1 140 00:44 23.08.2019
3193 Clear 33 1000 47 10000 4.1 140 00:19 23.08.2019
3194 Clear 34 1000 44 10000 2.6 100 23:45 22.08.2019
3195 Clear 34 1000 44 10000 2.6 100 23:23 22.08.2019
3196 Clear 35 1001 42 10000 3.1 90 22:56 22.08.2019
3197 Clear 35 1001 42 10000 3.1 90 22:38 22.08.2019
3198 Clear 35 1001 42 10000 3.1 90 22:19 22.08.2019
3199 Clear 35 1001 42 10000 2.6 90 21:55 22.08.2019
3200 Clear 35 1001 42 10000 2.6 90 21:36 22.08.2019
3201 Clear 35 1001 42 10000 2.6 90 21:18 22.08.2019
3202 Clear 35 1001 44 10000 3.1 90 20:54 22.08.2019
3203 Clear 35 1001 44 10000 3.1 90 20:54 22.08.2019
3204 Clear 35 1001 44 10000 3.1 90 20:36 22.08.2019
3205 Clear 35 1001 44 10000 3.1 90 20:18 22.08.2019
3206 Clear 36 1001 44 10000 3.1 80 19:40 22.08.2019
3207 Clear 36 1001 44 10000 3.1 80 19:21 22.08.2019
3208 Clear 36 1001 47 10000 2.6 30 18:59 22.08.2019
3209 Clear 36 1001 47 10000 2.6 30 18:40 22.08.2019
3210 Clear 36 1001 47 10000 2.6 30 18:20 22.08.2019
3211 Clear 36 1000 50 10000 2.6 30 17:58 22.08.2019
3212 Clear 36 1000 50 10000 2.6 30 17:39 22.08.2019
3213 Clear 37 1000 50 10000 3.6 30 17:19 22.08.2019
3214 Clear 37 1000 50 10000 3.6 30 16:56 22.08.2019
3215 Clear 37 1000 50 10000 3.6 30 16:37 22.08.2019
3216 Clear 37 1000 50 10000 3.6 30 16:19 22.08.2019
3217 Clear 37 1000 50 10000 3.6 30 16:19 22.08.2019
3218 Clear 37 1000 50 10000 3.6 30 16:19 22.08.2019
3219 Clear 37 1000 50 10000 3.6 30 16:19 22.08.2019
3220 Clear 37 1000 50 9000 5.7 340 15:42 22.08.2019
3221 Clear 37 1000 50 9000 5.7 340 15:24 22.08.2019
3222 Clear 37 1000 50 9000 5.7 340 15:24 22.08.2019
3223 Clear 37 1000 50 9000 5.7 340 15:24 22.08.2019
3224 Clear 37 1000 50 9000 5.7 340 15:24 22.08.2019
3225 Clear 37 1000 50 9000 5.7 350 14:59 22.08.2019
3226 Clear 37 1000 50 9000 5.7 350 14:41 22.08.2019
3227 Clear 37 1000 50 9000 5.7 350 14:21 22.08.2019
3228 Clear 38 1000 50 9000 7.2 350 13:58 22.08.2019
3229 Clear 38 1000 50 9000 7.2 350 13:39 22.08.2019
3230 Clear 38 1000 45 9000 6.2 320 13:19 22.08.2019
3231 Clear 38 1000 45 9000 6.2 320 12:56 22.08.2019
3232 Clear 38 1000 45 9000 6.2 320 12:37 22.08.2019
3233 Dust 38 1001 47 8000 5.7 320 12:19 22.08.2019
3234 Dust 38 1001 47 8000 5.7 320 11:42 22.08.2019
3235 Dust 38 1001 47 8000 5.7 320 11:20 22.08.2019
3236 Clear 39 1002 53 7000 4.6 310 10:58 22.08.2019
3237 Clear 39 1002 53 7000 4.6 310 10:38 22.08.2019
3238 Clear 39 1002 53 7000 4.6 310 10:20 22.08.2019
3239 Clear 39 1002 35 10000 2.6 0 09:56 22.08.2019
3240 Clear 39 1002 35 10000 2.6 0 09:38 22.08.2019
3241 Clear 39 1002 35 10000 2.6 0 09:19 22.08.2019
3242 Clear 37 1002 44 10000 2.6 180 08:41 22.08.2019
3243 Clear 37 1002 44 10000 2.6 180 08:22 22.08.2019
3244 Clear 34 1003 59 8000 3.1 110 07:58 22.08.2019
3245 Clear 34 1003 59 8000 3.1 110 07:38 22.08.2019
3246 Clear 34 1003 59 8000 3.1 110 07:19 22.08.2019
3247 Clear 33 1002 59 7000 1.5 0 06:46 22.08.2019
3248 Haze 31 1002 75 6000 3.1 140 06:21 22.08.2019
3249 Haze 31 1002 75 6000 3.1 140 05:29 22.08.2019
3250 Haze 30 1001 75 7000 3.1 110 03:26 22.08.2019
3251 Haze 31 1001 75 7000 3.6 90 02:36 22.08.2019
3252 Haze 31 1001 75 7000 4.1 80 01:36 22.08.2019
3253 Haze 32 1001 70 8000 3.6 70 00:57 22.08.2019
3254 Haze 32 1001 70 8000 3.6 70 00:38 22.08.2019
3255 Haze 32 1001 70 8000 3.6 70 00:20 22.08.2019
3256 Clear 32 1002 67 8000 2.6 20 23:41 21.08.2019
3257 Clear 32 1002 67 8000 2.6 20 23:23 21.08.2019
3258 Clear 33 1002 67 8000 1.5 0 22:58 21.08.2019
3259 Clear 33 1002 67 8000 1.5 0 22:39 21.08.2019
3260 Clear 33 1002 67 8000 1.5 0 22:20 21.08.2019
3261 Clear 33 1002 63 8000 2.6 360 21:56 21.08.2019
3262 Clear 33 1002 63 8000 2.6 360 21:37 21.08.2019
3263 Clear 33 1002 63 8000 2.6 360 21:19 21.08.2019
3264 Clear 33 1002 63 8000 2.6 20 20:55 21.08.2019
3265 Clear 33 1002 63 8000 2.6 20 20:55 21.08.2019
3266 Clear 33 1002 63 8000 2.6 20 20:37 21.08.2019
3267 Clear 33 1002 63 8000 2.6 20 20:19 21.08.2019
3268 Clear 34 1002 67 8000 2.6 0 19:42 21.08.2019
3269 Clear 34 1002 67 8000 2.6 0 19:23 21.08.2019
3270 Clear 34 1002 63 8000 3.6 330 18:56 21.08.2019
3271 Clear 34 1002 63 8000 3.6 330 18:56 21.08.2019
3272 Clear 34 1002 63 8000 3.6 330 18:38 21.08.2019
3273 Clear 34 1002 63 8000 3.6 330 18:20 21.08.2019
3274 Clear 35 1001 56 7000 5.1 340 17:44 21.08.2019
3275 Clear 35 1001 56 7000 5.1 340 17:22 21.08.2019
3276 Clear 36 1001 53 7000 5.1 340 16:57 21.08.2019
3277 Clear 36 1001 53 7000 5.1 340 16:39 21.08.2019
3278 Clear 36 1001 53 7000 5.1 340 16:18 21.08.2019
3279 Clear 37 1001 53 7000 7.2 330 15:56 21.08.2019
3280 Clear 37 1001 53 7000 7.2 330 15:38 21.08.2019
3281 Clear 37 1001 53 7000 7.2 330 15:18 21.08.2019
3282 Clear 38 1001 42 8000 6.7 340 14:54 21.08.2019
3283 Clear 38 1001 42 8000 6.7 340 14:36 21.08.2019
3284 Clear 38 1001 42 8000 6.7 340 14:18 21.08.2019
3285 Clear 39 1002 37 8000 6.2 310 13:43 21.08.2019
3286 Clear 39 1003 42 8000 6.7 310 13:20 21.08.2019
3287 Clear 39 1003 42 8000 6.7 310 12:57 21.08.2019
3288 Clear 39 1003 42 8000 6.7 310 12:39 21.08.2019
3289 Clear 39 1003 42 8000 6.7 310 12:19 21.08.2019
3290 Clear 39 1003 35 8000 4.6 280 11:44 21.08.2019
3291 Clear 39 1003 35 8000 4.6 280 11:24 21.08.2019
3292 Clear 39 1004 35 7000 3.6 260 10:59 21.08.2019
3293 Clear 33 1004 59 0 3.2 281.57 10:40 21.08.2019
3294 Clear 37 1005 37 7000 5.1 260 10:22 21.08.2019
3295 Clear 37 1005 37 7000 5.1 260 09:58 21.08.2019
3296 Clear 37 1005 37 7000 5.1 260 09:40 21.08.2019
3297 Clear 37 1005 37 7000 5.1 260 09:21 21.08.2019
3298 Clear 36 1005 41 8000 4.6 220 08:50 21.08.2019
3299 Clear 36 1005 41 8000 4.6 220 08:26 21.08.2019
3300 Clear 34 1004 46 8000 4.6 220 07:56 21.08.2019
3301 Clear 34 1004 46 8000 4.6 220 07:37 21.08.2019
3302 Clear 34 1004 46 8000 4.6 220 07:18 21.08.2019
3303 Clear 33 1004 43 6000 5.7 190 06:44 21.08.2019
3304 Clear 33 1004 43 6000 5.7 190 06:19 21.08.2019
3305 Dust 32 1004 49 5000 4.6 200 05:29 21.08.2019
3306 Dust 31 1003 62 9000 2.6 200 04:51 21.08.2019
3307 Clear 31 1003 56 10000 2.6 60 02:44 21.08.2019
3308 Clear 31 1003 55 9000 2.1 70 01:36 21.08.2019
3309 Clear 31 1003 52 9000 2.1 60 00:43 21.08.2019
3310 Clear 31 1003 52 9000 2.1 60 00:21 21.08.2019
3311 Clear 32 1003 53 9000 2.6 70 23:45 20.08.2019
3312 Clear 32 1003 53 9000 2.6 70 23:45 20.08.2019
3313 Clear 32 1003 53 9000 2.6 70 23:21 20.08.2019
3314 Clear 33 1003 56 8000 3.1 70 22:59 20.08.2019
3315 Clear 33 1003 56 8000 3.1 70 22:41 20.08.2019
3316 Clear 33 1003 56 8000 3.1 70 22:22 20.08.2019
3317 Clear 33 1003 56 8000 2.6 90 21:59 20.08.2019
3318 Clear 33 1003 56 8000 2.6 90 21:39 20.08.2019
3319 Clear 33 1003 56 8000 2.6 90 21:20 20.08.2019
3320 Clear 34 1003 50 7000 2.6 10 20:59 20.08.2019
3321 Clear 34 1003 50 7000 2.6 10 20:59 20.08.2019
3322 Clear 34 1003 50 7000 2.6 10 20:41 20.08.2019
3323 Clear 34 1003 50 7000 2.6 10 20:23 20.08.2019
3324 Clear 35 1003 47 7000 2.6 320 19:41 20.08.2019
3325 Clear 35 1003 47 7000 2.6 320 19:22 20.08.2019
3326 Clear 35 1003 56 8000 3.6 330 18:58 20.08.2019
3327 Clear 33 1003 70 0 3.67 345.119 18:40 20.08.2019
3328 Dust 35 1002 50 6000 4.6 330 18:19 20.08.2019
3329 Dust 35 1002 50 6000 4.6 330 18:19 20.08.2019
3330 Dust 35 1002 50 6000 4.6 330 17:57 20.08.2019
3331 Dust 35 1002 50 6000 4.6 330 17:39 20.08.2019
3332 Dust 37 1002 44 7000 5.1 330 17:20 20.08.2019
3333 Dust 37 1002 44 7000 5.1 330 17:20 20.08.2019
3334 Dust 37 1002 44 7000 5.1 330 16:46 20.08.2019
3335 Dust 37 1002 44 7000 5.1 330 16:26 20.08.2019
3336 Clear 38 1002 45 7000 5.7 340 15:57 20.08.2019
3337 Clear 38 1002 45 7000 5.7 340 15:57 20.08.2019
3338 Clear 38 1002 45 7000 5.7 340 15:38 20.08.2019
3339 Clear 39 1002 45 7000 6.7 360 15:18 20.08.2019
3340 Clear 39 1002 45 7000 6.7 360 14:43 20.08.2019
3341 Clear 40 1002 35 8000 6.2 330 14:22 20.08.2019
3342 Clear 40 1002 35 8000 6.2 330 14:22 20.08.2019
3343 Clear 40 1002 35 8000 6.2 330 13:57 20.08.2019
3344 Clear 40 1002 35 8000 6.2 330 13:57 20.08.2019
3345 Clear 40 1002 35 8000 6.2 330 13:39 20.08.2019
3346 Clear 41 1003 30 7000 6.7 320 13:20 20.08.2019
3347 Clear 41 1003 35 8000 6.7 340 12:51 20.08.2019
3348 Clear 41 1003 35 8000 6.7 340 12:31 20.08.2019
3349 Clear 42 1003 20 10000 3.6 320 11:59 20.08.2019
3350 Clear 42 1003 20 10000 3.6 320 11:40 20.08.2019
3351 Clear 42 1003 20 10000 3.6 320 11:21 20.08.2019
3352 Clear 41 1004 26 10000 3.1 190 10:57 20.08.2019
3353 Clear 41 1004 26 10000 3.1 190 10:38 20.08.2019
3354 Clear 39 1005 33 10000 4.6 200 10:20 20.08.2019
3355 Clear 39 1005 33 10000 4.6 200 09:54 20.08.2019
3356 Clear 39 1005 33 10000 4.6 200 09:36 20.08.2019
3357 Clear 37 1005 39 10000 5.7 160 09:18 20.08.2019
3358 Clear 37 1005 39 10000 5.7 160 08:41 20.08.2019
3359 Clear 35 1005 50 10000 5.1 160 08:21 20.08.2019
3360 Clear 35 1005 50 10000 5.1 160 07:57 20.08.2019
3361 Clear 35 1005 50 10000 5.1 160 07:38 20.08.2019
3362 Dust 33 1005 62 10000 6.2 130 07:18 20.08.2019
3363 Dust 33 1005 62 10000 6.2 130 06:41 20.08.2019
3364 Dust 31 1005 62 10000 4.6 140 06:19 20.08.2019
3365 Dust 31 1005 62 10000 4.6 140 05:40 20.08.2019
3366 Clear 30 1004 55 10000 5.1 130 04:21 20.08.2019
3367 Clear 30 1002 55 10000 2.6 80 02:47 20.08.2019
3368 Clear 31 1002 52 10000 2.6 100 01:50 20.08.2019
3369 Clear 32 1002 47 10000 2.6 0 01:20 20.08.2019
3370 Clear 32 1002 47 10000 2.6 0 00:43 20.08.2019
3371 Clear 33 1002 47 10000 1.5 80 00:21 20.08.2019
3372 Clear 33 1002 47 10000 1.5 80 23:42 19.08.2019
3373 Clear 34 1003 47 10000 3.6 80 23:18 19.08.2019
3374 Clear 34 1003 47 10000 3.6 80 22:58 19.08.2019
3375 Clear 34 1003 47 10000 3.6 80 22:39 19.08.2019
3376 Clear 34 1003 44 10000 4.6 70 22:19 19.08.2019
3377 Clear 34 1003 44 10000 4.6 70 22:19 19.08.2019
3378 Clear 34 1003 44 10000 4.6 70 21:56 19.08.2019
3379 Clear 34 1003 44 10000 4.6 70 21:38 19.08.2019
3380 Clear 36 1003 39 10000 3.1 60 21:19 19.08.2019
3381 Clear 36 1003 39 10000 3.1 60 20:40 19.08.2019
3382 Clear 36 1003 42 10000 4.1 50 20:21 19.08.2019
3383 Clear 36 1003 42 10000 4.1 50 19:59 19.08.2019
3384 Clear 36 1003 42 10000 4.1 50 19:40 19.08.2019
3385 Clear 36 1003 42 10000 4.1 50 19:19 19.08.2019
3386 Clear 37 1002 44 10000 4.1 20 18:58 19.08.2019
3387 Clear 37 1002 44 10000 4.1 20 18:39 19.08.2019
3388 Dust 37 1001 42 8000 5.1 20 18:21 19.08.2019
3389 Dust 37 1001 42 8000 5.1 20 17:55 19.08.2019
3390 Dust 37 1001 42 8000 5.1 20 17:36 19.08.2019
3391 Dust 38 1001 47 8000 6.2 20 17:18 19.08.2019
3392 Dust 38 1001 47 8000 6.2 20 16:38 19.08.2019
3393 Dust 38 1001 47 8000 6.2 20 16:20 19.08.2019
3394 Dust 40 1001 43 8000 6.2 20 15:56 19.08.2019
3395 Dust 40 1001 43 8000 6.2 20 15:38 19.08.2019
3396 Dust 40 1001 43 8000 6.2 20 15:19 19.08.2019
3397 Dust 41 1001 38 6000 6.7 20 14:43 19.08.2019
3398 Dust 41 1001 38 6000 6.7 20 14:23 19.08.2019
3399 Clear 42 1001 34 6000 7.7 360 13:58 19.08.2019
3400 Clear 42 1001 34 6000 7.7 360 13:38 19.08.2019
3401 Clear 42 1001 34 6000 7.7 360 13:19 19.08.2019
3402 Clear 42 1002 34 7000 5.1 340 12:57 19.08.2019
3403 Clear 42 1002 34 7000 5.1 340 12:57 19.08.2019
3404 Clear 43 1001 23 10000 3.1 0 12:39 19.08.2019
3405 Clear 43 1001 23 10000 3.1 0 12:19 19.08.2019
3406 Clear 42 1002 28 9000 3.1 0 11:39 19.08.2019
3407 Clear 42 1002 28 9000 3.1 0 11:21 19.08.2019
3408 Clear 41 1003 30 8000 3.1 0 10:58 19.08.2019
3409 Clear 41 1003 30 8000 3.1 0 10:37 19.08.2019
3410 Clear 41 1003 30 8000 3.1 0 10:18 19.08.2019
3411 Clear 39 1003 35 7000 3.6 170 09:45 19.08.2019
3412 Clear 39 1003 35 7000 3.6 170 09:24 19.08.2019
3413 Clear 39 1003 35 7000 3.6 170 09:24 19.08.2019
3414 Dust 38 1004 42 7000 6.2 150 08:57 19.08.2019
3415 Dust 38 1004 42 7000 6.2 150 08:39 19.08.2019
3416 Dust 38 1004 42 7000 6.2 150 08:19 19.08.2019
3417 Dust 36 1004 47 6000 6.7 140 07:48 19.08.2019
3418 Dust 36 1004 47 6000 6.7 140 07:30 19.08.2019
3419 Dust 34 1004 41 4500 5.7 150 06:48 19.08.2019
3420 Clear 33 1003 59 9000 6.7 120 06:26 19.08.2019
3421 Clear 33 1003 59 9000 6.7 120 06:26 19.08.2019
3422 Clear 31 1001 52 10000 3.6 80 04:57 19.08.2019
3423 Clear 31 1001 52 10000 3.6 80 04:26 19.08.2019
3424 Clear 32 1001 49 10000 3.6 80 03:22 19.08.2019
3425 Clear 33 1001 44 10000 3.6 110 02:23 19.08.2019
3426 Clear 33 1000 47 10000 2.6 70 01:31 19.08.2019
3427 Clear 34 1000 41 10000 1.5 10 00:43 19.08.2019
3428 Clear 34 1000 41 10000 1.5 10 00:23 19.08.2019
3429 Clear 34 1001 39 10000 1.5 60 23:42 18.08.2019
3430 Clear 34 1001 39 10000 1.5 60 23:21 18.08.2019
3431 Clear 35 1001 39 10000 2.6 100 22:55 18.08.2019
3432 Clear 35 1001 39 10000 2.6 100 22:37 18.08.2019
3433 Clear 35 1001 39 10000 2.6 100 22:19 18.08.2019
3434 Clear 35 1001 39 10000 3.6 80 21:42 18.08.2019
3435 Clear 35 1001 39 10000 3.6 80 21:23 18.08.2019
3436 Clear 36 1001 39 10000 4.6 80 20:59 18.08.2019
3437 Clear 36 1001 39 10000 4.6 80 20:41 18.08.2019
3438 Clear 36 1001 39 10000 4.6 80 20:23 18.08.2019
3439 Clear 38 1000 31 10000 4.1 80 19:54 18.08.2019
3440 Clear 38 1000 31 10000 4.1 80 19:36 18.08.2019
3441 Clear 38 1000 31 10000 4.1 80 19:18 18.08.2019
3442 Clear 38 999 33 10000 5.1 80 18:41 18.08.2019
3443 Clear 38 999 33 10000 5.1 80 18:23 18.08.2019
3444 Clear 38 999 42 7000 4.6 40 17:56 18.08.2019
3445 Clear 38 999 42 7000 4.6 40 17:38 18.08.2019
3446 Clear 38 999 42 7000 4.6 40 17:19 18.08.2019
3447 Dust 38 998 53 8000 6.2 20 16:55 18.08.2019
3448 Dust 38 998 53 8000 6.2 20 16:37 18.08.2019
3449 Dust 38 998 53 8000 6.2 20 16:18 18.08.2019
3450 Dust 39 998 51 8000 6.2 20 15:40 18.08.2019
3451 Dust 39 998 51 8000 6.2 20 15:20 18.08.2019
3452 Dust 40 999 45 7000 6.2 360 14:59 18.08.2019
3453 Dust 40 999 45 7000 6.2 360 14:59 18.08.2019
3454 Dust 40 999 45 7000 6.2 360 14:40 18.08.2019
3455 Dust 40 999 45 7000 6.2 360 14:20 18.08.2019
3456 Dust 40 999 42 2000 8.7 340 13:58 18.08.2019
3457 Dust 42 999 36 6000 7.2 330 13:40 18.08.2019
3458 Dust 42 999 36 6000 7.2 330 13:20 18.08.2019
3459 Dust 42 999 36 6000 7.2 330 13:20 18.08.2019
3460 Clear 44 999 30 7000 6.2 340 12:54 18.08.2019
3461 Clear 44 999 30 7000 6.2 340 12:36 18.08.2019
3462 Clear 44 999 30 7000 6.2 340 12:18 18.08.2019
3463 Clear 43 999 28 8000 5.1 330 11:41 18.08.2019
3464 Clear 43 999 28 8000 5.1 330 11:21 18.08.2019
3465 Clear 42 1000 23 9000 3.1 230 10:41 18.08.2019
3466 Clear 42 1000 23 9000 3.1 230 10:22 18.08.2019
3467 Clear 40 1000 31 8000 4.6 150 09:56 18.08.2019
3468 Clear 40 1000 31 8000 4.6 150 09:37 18.08.2019
3469 Clear 40 1000 31 8000 4.6 150 09:18 18.08.2019
3470 Clear 39 1001 35 7000 5.1 130 08:42 18.08.2019
3471 Clear 39 1001 35 7000 5.1 130 08:24 18.08.2019
3472 Dust 37 1001 35 5000 5.1 180 07:49 18.08.2019
3473 Dust 37 1001 35 5000 5.1 180 07:29 18.08.2019
3474 Clear 33 999 44 10000 5.1 130 05:50 18.08.2019
3475 Clear 33 999 34 10000 2.6 110 04:58 18.08.2019
3476 Clear 33 998 36 10000 2.1 70 03:44 18.08.2019
3477 Clear 34 998 37 10000 3.1 0 02:49 18.08.2019
3478 Clear 34 998 37 10000 3.1 0 02:26 18.08.2019
3479 Clear 34 997 32 10000 2.1 70 01:47 18.08.2019
3480 Clear 34 997 32 10000 2.1 70 01:22 18.08.2019
3481 Clear 34 997 30 10000 2.1 70 00:40 18.08.2019
3482 Clear 34 997 30 10000 2.1 70 00:19 18.08.2019
3483 Clear 35 997 29 10000 2.6 90 23:57 17.08.2019
3484 Clear 35 997 29 10000 2.6 90 23:37 17.08.2019
3485 Clear 35 997 29 10000 2.6 90 23:18 17.08.2019
3486 Clear 36 997 27 10000 1.5 70 22:56 17.08.2019
3487 Clear 36 997 27 10000 1.5 70 22:38 17.08.2019
3488 Clear 36 997 27 10000 1.5 70 22:20 17.08.2019
3489 Clear 36 997 29 10000 2.1 60 21:42 17.08.2019
3490 Clear 36 997 29 10000 2.1 60 21:23 17.08.2019
3491 Clear 37 998 27 10000 3.1 20 20:56 17.08.2019
3492 Clear 37 998 27 10000 3.1 20 20:36 17.08.2019
3493 Clear 37 998 27 10000 3.1 20 20:18 17.08.2019
3494 Clear 37 997 27 10000 3.1 30 19:41 17.08.2019
3495 Clear 37 997 27 10000 3.1 30 19:22 17.08.2019
3496 Clear 37 997 27 10000 3.1 30 19:22 17.08.2019
3497 Clear 37 997 35 10000 3.1 30 18:54 17.08.2019
3498 Clear 37 997 35 10000 3.1 30 18:36 17.08.2019
3499 Clear 37 997 35 10000 3.1 30 18:18 17.08.2019
3500 Clear 37 997 35 10000 3.1 30 18:18 17.08.2019
3501 Clear 37 997 39 10000 4.1 360 17:42 17.08.2019
3502 Clear 37 997 39 10000 4.1 360 17:21 17.08.2019
3503 Clear 39 996 40 10000 3.6 10 16:56 17.08.2019
3504 Clear 39 996 40 10000 3.6 10 16:37 17.08.2019
3505 Clear 39 996 40 10000 3.6 10 16:18 17.08.2019
3506 Clear 39 996 42 8000 4.6 340 15:42 17.08.2019
3507 Clear 39 996 42 8000 4.6 340 15:42 17.08.2019
3508 Clear 39 996 42 8000 4.6 340 15:21 17.08.2019
3509 Clear 38 996 57 8000 7.2 340 14:57 17.08.2019
3510 Clear 38 996 57 8000 7.2 340 14:38 17.08.2019
3511 Clear 38 996 57 8000 7.2 340 14:19 17.08.2019
3512 Clear 39 996 57 8000 7.2 340 13:43 17.08.2019
3513 Clear 39 996 57 8000 7.2 340 13:19 17.08.2019
3514 Clear 39 997 45 7000 7.2 330 12:43 17.08.2019
3515 Clear 39 997 45 7000 7.2 330 12:20 17.08.2019
3516 Dust 40 998 33 6000 6.7 320 11:58 17.08.2019
3517 Dust 40 998 33 6000 6.7 320 11:38 17.08.2019
3518 Dust 40 998 33 6000 6.7 320 11:19 17.08.2019
3519 Clear 41 998 34 6000 5.1 280 10:40 17.08.2019
3520 Clear 41 998 34 6000 5.1 280 10:21 17.08.2019
3521 Clear 41 999 23 6000 5.1 210 09:55 17.08.2019
3522 Clear 41 999 23 6000 5.1 210 09:36 17.08.2019
3523 Clear 41 999 23 6000 5.1 210 09:18 17.08.2019
3524 Dust 39 999 31 5000 4.1 210 08:42 17.08.2019
3525 Dust 39 999 31 5000 4.1 210 08:20 17.08.2019
3526 Clear 38 999 31 6000 3.1 200 07:42 17.08.2019
3527 Clear 38 999 31 6000 3.1 200 07:19 17.08.2019
3528 Clear 34 998 59 8000 3.6 140 05:59 17.08.2019
3529 Clear 32 997 63 8000 2.6 110 04:32 17.08.2019
3530 Clear 32 997 63 8000 2.6 110 04:32 17.08.2019
3531 Clear 32 997 63 8000 2.6 110 04:32 17.08.2019
3532 Clear 33 997 63 8000 2.6 60 03:38 17.08.2019
3533 Clear 34 997 50 8000 3.1 360 01:59 17.08.2019
3534 Clear 34 997 50 8000 3.1 360 01:36 17.08.2019
3535 Clear 34 997 50 8000 3.1 360 01:18 17.08.2019
3536 Clear 34 997 50 8000 2.1 350 00:39 17.08.2019
3537 Clear 36 997 31 8000 2.1 50 23:57 16.08.2019
3538 Clear 36 997 31 8000 2.1 50 23:38 16.08.2019
3539 Clear 36 997 31 8000 2.1 50 23:19 16.08.2019
3540 Clear 36 997 33 8000 2.1 120 22:40 16.08.2019
3541 Clear 36 997 33 8000 2.1 120 22:19 16.08.2019
3542 Clear 36 998 35 8000 3.6 120 21:42 16.08.2019
3543 Clear 36 998 35 8000 3.6 120 21:22 16.08.2019
3544 Clear 37 998 33 7000 2.6 80 20:58 16.08.2019
3545 Clear 37 998 33 7000 2.6 80 20:40 16.08.2019
3546 Clear 37 998 33 7000 2.6 80 20:19 16.08.2019
3547 Clear 37 998 33 7000 3.1 30 19:45 16.08.2019
3548 Clear 37 998 33 7000 3.1 30 19:45 16.08.2019
3549 Clear 37 998 33 7000 3.1 30 19:24 16.08.2019
3550 Clear 37 998 33 7000 3.1 30 19:24 16.08.2019
3551 Dust 38 998 33 7000 3.1 30 18:59 16.08.2019
3552 Dust 38 998 33 7000 3.1 30 18:41 16.08.2019
3553 Dust 38 998 33 7000 3.1 30 18:22 16.08.2019
3554 Dust 38 997 37 5000 2.6 60 17:44 16.08.2019
3555 Dust 38 997 37 5000 2.6 60 17:25 16.08.2019
3556 Dust 38 997 40 4500 3.6 40 16:56 16.08.2019
3557 Dust 38 997 40 4500 3.6 40 16:38 16.08.2019
3558 Dust 38 997 40 4500 3.6 40 16:18 16.08.2019
3559 Dust 39 997 42 4000 4.1 350 15:54 16.08.2019
3560 Dust 38 997 45 5000 6.2 340 15:36 16.08.2019
3561 Dust 38 997 45 5000 6.2 340 15:18 16.08.2019
3562 Dust 39 997 48 6000 7.7 340 14:41 16.08.2019
3563 Dust 39 997 48 6000 7.7 340 14:19 16.08.2019
3564 Dust 39 997 48 6000 7.7 340 14:19 16.08.2019
3565 Dust 39 997 48 6000 7.7 340 14:19 16.08.2019
3566 Clear 40 997 48 7000 7.7 350 13:59 16.08.2019
3567 Clear 40 997 48 7000 7.7 350 13:38 16.08.2019
3568 Clear 40 997 48 7000 7.7 350 13:20 16.08.2019
3569 Clear 43 998 32 8000 6.7 320 12:39 16.08.2019
3570 Clear 43 998 32 8000 6.7 320 12:20 16.08.2019
3571 Clear 44 999 20 8000 2.1 0 11:43 16.08.2019
3572 Clear 44 999 20 8000 2.1 0 11:24 16.08.2019
3573 Clear 43 999 26 9000 3.1 210 10:58 16.08.2019
3574 Clear 43 999 26 9000 3.1 210 10:40 16.08.2019
3575 Clear 43 999 26 9000 3.1 210 10:18 16.08.2019
3576 Clear 41 1000 26 9000 4.6 200 09:38 16.08.2019
3577 Clear 41 1000 26 9000 4.6 200 09:19 16.08.2019
3578 Clear 39 1000 33 8000 5.7 200 08:56 16.08.2019
3579 Clear 39 1000 33 8000 5.7 200 08:38 16.08.2019
3580 Clear 39 1000 33 8000 5.7 200 08:18 16.08.2019
3581 Clear 38 1000 33 8000 5.1 200 07:44 16.08.2019
3582 Clear 38 1000 33 8000 5.1 200 07:24 16.08.2019
3583 Dust 36 1000 39 7000 5.1 190 06:34 16.08.2019
3584 Dust 34 1000 47 10000 3.6 170 05:58 16.08.2019
3585 Dust 34 1000 47 10000 3.6 170 05:33 16.08.2019
3586 Clear 33 999 34 10000 2.6 80 03:19 16.08.2019
3587 Clear 34 999 32 10000 2.6 70 01:45 16.08.2019
3588 Clear 34 999 32 10000 2.6 70 01:25 16.08.2019
3589 Clear 35 999 33 10000 3.6 30 00:48 16.08.2019
3590 Clear 35 999 33 10000 3.6 30 00:22 16.08.2019
3591 Clear 35 1000 33 10000 3.1 30 23:46 15.08.2019
3592 Clear 35 1000 33 10000 3.1 30 23:25 15.08.2019
3593 Clear 36 1000 29 10000 2.6 60 22:59 15.08.2019
3594 Clear 36 1000 29 10000 2.6 60 22:41 15.08.2019
3595 Clear 36 1000 29 10000 2.6 60 22:21 15.08.2019
3596 Clear 36 1000 33 10000 2.1 60 21:56 15.08.2019
3597 Clear 36 1000 33 10000 2.1 60 21:38 15.08.2019
3598 Clear 36 1000 33 10000 2.1 60 21:19 15.08.2019
3599 Clear 37 999 37 10000 2.1 50 20:44 15.08.2019
3600 Clear 37 999 37 10000 2.1 50 20:22 15.08.2019
3601 Clear 37 999 35 10000 3.1 30 19:59 15.08.2019
3602 Clear 37 999 35 10000 3.1 30 19:39 15.08.2019
3603 Clear 37 999 35 10000 3.1 30 19:21 15.08.2019
3604 Clear 38 999 45 10000 3.6 40 18:48 15.08.2019
3605 Clear 38 999 45 10000 3.6 40 18:24 15.08.2019
3606 Dust 38 998 45 7000 3.6 30 17:58 15.08.2019
3607 Dust 38 998 45 7000 3.6 30 17:38 15.08.2019
3608 Dust 38 998 45 7000 3.6 30 17:20 15.08.2019
3609 Dust 39 998 38 7000 4.1 360 16:58 15.08.2019
3610 Dust 39 998 38 7000 4.1 360 16:40 15.08.2019
3611 Dust 39 998 38 7000 4.1 360 16:21 15.08.2019
3612 Dust 41 998 36 6000 5.1 340 15:39 15.08.2019
3613 Dust 41 998 36 6000 5.1 340 15:20 15.08.2019
3614 Dust 41 998 32 5000 6.2 10 14:57 15.08.2019
3615 Dust 41 998 32 5000 6.2 10 14:38 15.08.2019
3616 Dust 41 998 32 5000 6.2 10 14:19 15.08.2019
3617 Dust 43 998 36 5000 7.2 360 13:56 15.08.2019
3618 Dust 43 998 36 5000 7.2 360 13:38 15.08.2019
3619 Dust 43 998 36 5000 7.2 360 13:19 15.08.2019
3620 Clear 44 999 36 7000 6.7 320 12:40 15.08.2019
3621 Clear 44 999 36 7000 6.7 320 12:21 15.08.2019
3622 Clear 45 999 12 7000 5.7 170 11:59 15.08.2019
3623 Clear 45 999 12 7000 5.7 170 11:39 15.08.2019
3624 Clear 45 999 12 7000 5.7 170 11:20 15.08.2019
3625 Clear 44 1000 18 10000 5.1 140 10:58 15.08.2019
3626 Clear 44 1000 18 10000 5.1 140 10:37 15.08.2019
3627 Clear 44 1000 18 10000 5.1 140 10:18 15.08.2019
3628 Clear 42 1001 28 9000 3.1 190 09:44 15.08.2019
3629 Clouds 42 1001 28 9000 3.1 190 09:22 15.08.2019
3630 Clouds 40 1001 28 8000 4.6 190 08:39 15.08.2019
3631 Clouds 40 1001 28 8000 4.6 190 08:21 15.08.2019
3632 Dust 38 1001 33 5000 4.6 180 07:59 15.08.2019
3633 Dust 38 1001 33 5000 4.6 180 07:40 15.08.2019
3634 Dust 38 1001 33 5000 4.6 180 07:21 15.08.2019
3635 Dust 36 1001 44 4500 4.1 180 06:48 15.08.2019
3636 Dust 36 1001 44 4500 4.1 180 06:26 15.08.2019
3637 Clear 35 1000 56 10000 3.1 150 05:31 15.08.2019
3638 Clear 34 1000 47 10000 4.1 110 04:58 15.08.2019
3639 Clear 34 1000 47 10000 4.1 110 04:19 15.08.2019
3640 Clear 34 999 47 10000 3.1 90 03:21 15.08.2019
3641 Clear 35 999 47 10000 4.6 50 02:34 15.08.2019
3642 Clear 35 999 44 10000 3.1 30 01:44 15.08.2019
3643 Clear 36 999 31 10000 3.6 20 00:58 15.08.2019
3644 Clear 36 999 31 10000 3.6 20 00:37 15.08.2019
3645 Clear 36 999 31 10000 3.6 20 00:19 15.08.2019
3646 Clear 36 999 33 10000 3.6 30 23:55 14.08.2019
3647 Clear 36 999 33 10000 3.6 30 23:37 14.08.2019
3648 Clear 36 999 33 10000 3.6 30 23:18 14.08.2019
3649 Clear 36 999 35 10000 3.6 30 22:41 14.08.2019
3650 Clear 36 999 35 10000 3.6 30 22:22 14.08.2019
3651 Clear 37 999 35 10000 4.1 40 21:57 14.08.2019
3652 Clear 37 999 35 10000 4.1 40 21:39 14.08.2019
3653 Clear 37 999 35 10000 4.1 40 21:21 14.08.2019
3654 Clear 37 999 35 10000 1.5 0 20:56 14.08.2019
3655 Clear 37 999 35 10000 1.5 0 20:38 14.08.2019
3656 Clear 37 999 35 10000 1.5 0 20:18 14.08.2019
3657 Clear 38 999 33 10000 2.1 60 19:41 14.08.2019
3658 Clear 38 998 35 10000 3.1 50 19:22 14.08.2019
3659 Clear 38 998 35 10000 3.1 50 18:59 14.08.2019
3660 Clear 38 998 35 10000 3.1 50 18:39 14.08.2019
3661 Clear 38 998 35 10000 3.1 50 18:21 14.08.2019
3662 Clear 39 998 38 10000 4.6 20 17:59 14.08.2019
3663 Clear 39 998 38 10000 4.6 20 17:40 14.08.2019
3664 Clear 39 998 38 10000 4.6 20 17:21 14.08.2019
3665 Clear 40 997 35 10000 4.6 330 16:56 14.08.2019
3666 Clear 40 997 35 10000 4.6 330 16:38 14.08.2019
3667 Clear 40 997 35 10000 4.6 330 16:19 14.08.2019
3668 Clear 41 997 40 9000 5.1 330 15:43 14.08.2019
3669 Clear 41 997 40 9000 5.1 330 15:19 14.08.2019
3670 Clear 41 997 40 9000 5.1 330 15:19 14.08.2019
3671 Dust 41 997 38 9000 6.7 330 14:56 14.08.2019
3672 Dust 41 997 38 9000 6.7 330 14:38 14.08.2019
3673 Dust 41 997 38 9000 6.7 330 14:18 14.08.2019
3674 Dust 41 997 38 8000 6.7 340 13:43 14.08.2019
3675 Dust 41 997 38 8000 6.7 340 13:24 14.08.2019
3676 Dust 42 998 38 8000 6.2 330 12:57 14.08.2019
3677 Dust 42 998 38 8000 6.2 330 12:39 14.08.2019
3678 Dust 42 998 38 8000 6.2 330 12:20 14.08.2019
3679 Clear 42 998 48 7000 5.7 350 11:56 14.08.2019
3680 Clear 42 998 48 7000 5.7 350 11:37 14.08.2019
3681 Clear 42 998 48 7000 5.7 350 11:19 14.08.2019
3682 Clear 42 999 27 8000 2.6 0 10:42 14.08.2019
3683 Clear 42 999 27 8000 2.6 0 10:24 14.08.2019
3684 Clear 41 1000 32 8000 2.6 230 09:56 14.08.2019
3685 Clear 41 1000 32 8000 2.6 230 09:37 14.08.2019
3686 Clouds 41 1000 32 8000 2.6 230 09:19 14.08.2019
3687 Clouds 40 1000 35 8000 3.1 210 08:37 14.08.2019
3688 Clouds 40 1000 35 8000 3.1 210 08:19 14.08.2019
3689 Clear 38 1000 26 6000 4.1 200 07:50 14.08.2019
3690 Clouds 38 1000 45 8000 4.1 180 07:31 14.08.2019
3691 Clouds 35 1000 56 7000 3.1 0 06:45 14.08.2019
3692 Clouds 34 999 59 7000 3.6 120 05:52 14.08.2019
3693 Clouds 33 998 56 8000 3.6 100 04:54 14.08.2019
3694 Clouds 34 998 44 9000 3.1 70 03:37 14.08.2019
3695 Clear 35 998 37 10000 3.6 70 02:33 14.08.2019
3696 Clear 35 997 37 10000 3.1 70 01:45 14.08.2019
3697 Clear 36 997 39 9000 3.6 60 00:59 14.08.2019
3698 Clear 36 998 42 9000 3.1 40 23:50 13.08.2019
3699 Clear 36 998 42 9000 3.1 40 23:25 13.08.2019
3700 Clear 36 998 42 8000 3.1 60 22:59 13.08.2019
3701 Clear 36 998 42 8000 3.1 60 22:39 13.08.2019
3702 Clear 36 998 42 8000 3.1 60 22:21 13.08.2019
3703 Clear 37 998 42 9000 2.6 90 21:58 13.08.2019
3704 Clear 37 998 42 9000 2.6 90 21:38 13.08.2019
3705 Clear 37 998 42 9000 2.6 90 21:19 13.08.2019
3706 Clear 37 998 45 8000 2.1 100 20:56 13.08.2019
3707 Clear 37 998 45 8000 2.1 100 20:36 13.08.2019
3708 Clear 37 998 45 8000 2.1 100 20:18 13.08.2019
3709 Clear 37 998 42 8000 2.1 60 19:42 13.08.2019
3710 Clear 37 998 42 8000 2.1 60 19:21 13.08.2019
3711 Clear 37 998 45 8000 2.6 50 18:56 13.08.2019
3712 Clear 37 998 45 8000 2.6 50 18:37 13.08.2019
3713 Clear 37 998 45 8000 2.6 50 18:18 13.08.2019
3714 Clear 38 997 42 7000 2.6 30 17:41 13.08.2019
3715 Clear 38 997 42 7000 2.6 30 17:21 13.08.2019
3716 Clear 39 997 42 7000 3.6 20 16:57 13.08.2019
3717 Clear 39 997 42 7000 3.6 20 16:38 13.08.2019
3718 Clear 39 997 42 7000 3.6 20 16:20 13.08.2019
3719 Clear 40 997 40 7000 5.7 330 15:40 13.08.2019
3720 Clouds 40 997 40 7000 5.7 330 15:20 13.08.2019
3721 Clouds 41 997 32 7000 4.1 330 14:58 13.08.2019
3722 Clouds 41 997 32 7000 4.1 330 14:38 13.08.2019
3723 Clouds 41 997 32 7000 4.1 330 14:19 13.08.2019
3724 Clouds 41 997 35 7000 3.6 350 13:42 13.08.2019
3725 Clouds 41 997 35 7000 3.6 350 13:21 13.08.2019
3726 Clouds 40 997 40 7000 5.1 350 12:59 13.08.2019
3727 Clouds 40 997 40 7000 5.1 350 12:41 13.08.2019
3728 Clouds 40 997 40 7000 5.1 350 12:22 13.08.2019
3729 Clouds 40 998 28 7000 3.1 260 11:58 13.08.2019
3730 Clouds 40 998 28 7000 3.1 260 11:38 13.08.2019
3731 Clouds 40 998 28 7000 3.1 260 11:20 13.08.2019
3732 Clouds 40 998 29 7000 3.6 250 10:56 13.08.2019
3733 Clouds 40 998 29 7000 3.6 250 10:56 13.08.2019
3734 Clouds 40 998 29 7000 3.6 250 10:37 13.08.2019
3735 Clouds 40 998 29 7000 3.6 250 10:18 13.08.2019
3736 Clouds 40 999 45 8000 4.6 250 09:42 13.08.2019
3737 Clouds 40 999 45 8000 4.6 250 09:23 13.08.2019
3738 Clouds 39 999 37 7000 3.6 100 08:44 13.08.2019
3739 Clouds 39 999 37 7000 3.6 100 08:23 13.08.2019
3740 Clouds 38 998 35 8000 5.1 110 07:57 13.08.2019
3741 Clouds 38 998 35 8000 5.1 110 07:34 13.08.2019
3742 Clouds 36 998 35 8000 5.7 120 06:56 13.08.2019
3743 Clouds 36 998 35 8000 5.7 120 06:36 13.08.2019
3744 Clouds 35 997 56 7000 5.1 140 05:35 13.08.2019
3745 Clouds 34 996 59 9000 3.6 110 03:35 13.08.2019
3746 Clouds 34 996 59 9000 5.1 110 02:19 13.08.2019
3747 Clouds 35 995 56 9000 4.6 90 01:18 13.08.2019
3748 Clouds 36 996 53 9000 4.1 70 00:42 13.08.2019
3749 Clouds 35 996 60 9000 4.1 80 23:57 12.08.2019
3750 Clouds 35 996 60 9000 4.1 80 23:36 12.08.2019
3751 Clouds 35 996 60 9000 4.1 80 23:18 12.08.2019
3752 Clouds 35 996 63 9000 3.1 90 22:40 12.08.2019
3753 Clouds 35 996 63 9000 3.1 90 22:20 12.08.2019
3754 Clouds 35 997 63 9000 3.6 50 21:56 12.08.2019
3755 Clouds 35 997 63 9000 3.6 50 21:37 12.08.2019
3756 Clouds 35 997 63 9000 3.6 50 21:19 12.08.2019
3757 Clear 36 996 53 10000 4.1 30 20:57 12.08.2019
3758 Clear 36 996 53 10000 4.1 30 20:38 12.08.2019
3759 Clear 36 996 53 10000 4.1 30 20:20 12.08.2019
3760 Clear 36 996 53 10000 4.1 30 20:20 12.08.2019
3761 Clear 36 996 47 10000 3.1 30 19:55 12.08.2019
3762 Clear 36 996 47 10000 3.1 30 19:37 12.08.2019
3763 Clear 36 996 47 10000 3.1 30 19:18 12.08.2019
3764 Clear 36 996 60 10000 2.1 30 18:54 12.08.2019
3765 Clear 36 996 60 10000 2.1 30 18:36 12.08.2019
3766 Clear 36 996 60 10000 2.1 30 18:18 12.08.2019
3767 Clouds 36 995 67 8000 2.1 320 17:46 12.08.2019
3768 Clouds 36 995 67 8000 2.1 320 17:28 12.08.2019
3769 Clouds 36 995 71 7000 4.6 340 16:56 12.08.2019
3770 Clouds 36 995 71 7000 4.6 340 16:56 12.08.2019
3771 Clouds 36 995 71 7000 4.6 340 16:56 12.08.2019
3772 -273 0 0 0 0 0 16:56 12.08.2019
3773 Clouds 36 995 71 7000 4.6 340 16:37 12.08.2019
3774 Clouds 36 995 71 7000 4.6 340 16:37 12.08.2019
3775 Clouds 36 995 71 7000 4.6 340 16:19 12.08.2019
3776 -273 0 0 0 0 0 15:54 12.08.2019
3777 Clouds 37 995 71 7000 4.6 340 15:54 12.08.2019
3778 Clouds 37 995 71 7000 4.6 340 15:36 12.08.2019
3779 Clouds 37 995 71 7000 4.6 340 15:36 12.08.2019
3780 Clouds 37 995 71 7000 4.6 340 15:18 12.08.2019
3781 Clouds 38 994 67 8000 6.7 330 14:42 12.08.2019
3782 Clouds 38 994 67 8000 6.7 330 14:41 12.08.2019
3783 Clouds 38 994 67 8000 6.7 330 14:41 12.08.2019
3784 -273 0 0 0 0 0 14:41 12.08.2019
3785 Clouds 38 994 67 8000 6.7 330 14:22 12.08.2019
3786 Clear 38 994 63 10000 7.2 340 13:57 12.08.2019
3787 Clear 38 994 63 10000 7.2 340 13:39 12.08.2019
3788 Clear 38 994 63 10000 7.2 340 13:20 12.08.2019
3789 Clear 40 994 57 10000 6.7 330 12:43 12.08.2019
3790 Clear 40 994 57 10000 6.7 330 12:21 12.08.2019
3791 Clear 40 995 60 10000 5.7 310 11:45 12.08.2019
3792 Clear 40 995 60 10000 5.7 310 11:44 12.08.2019
3793 -273 0 0 0 0 0 11:44 12.08.2019
3794 Clear 40 995 60 10000 5.7 310 11:26 12.08.2019
3795 Clouds 41 995 38 8000 3.1 150 10:56 12.08.2019
3796 Clouds 41 995 38 8000 3.1 150 10:56 12.08.2019
3797 Clouds 41 995 38 8000 3.1 150 10:37 12.08.2019
3798 Clouds 41 995 38 8000 3.1 150 10:19 12.08.2019
3799 Clear 38 996 53 10000 3.6 130 09:42 12.08.2019
3800 Clear 38 996 53 10000 3.6 130 09:21 12.08.2019
3801 Clear 36 997 60 10000 3.6 140 08:59 12.08.2019
3802 Clear 36 997 60 10000 3.6 140 08:39 12.08.2019
3803 Clear 36 997 60 10000 3.6 140 08:39 12.08.2019
3804 Clear 36 997 60 10000 3.6 140 08:21 12.08.2019
3805 Haze 34 996 63 10000 2.1 180 07:56 12.08.2019
3806 Haze 34 996 63 10000 2.1 180 07:34 12.08.2019
3807 Haze 32 996 79 8000 2.6 200 06:53 12.08.2019
3808 Haze 32 995 84 6000 2.6 200 05:46 12.08.2019
3809 Haze 32 994 84 10000 3.1 200 03:30 12.08.2019
3810 Haze 32 994 79 10000 3.1 190 02:42 12.08.2019
3811 Clear 32 994 84 10000 3.1 190 01:23 12.08.2019
3812 Clear 32 994 75 10000 2.6 200 00:58 12.08.2019
3813 Clear 32 994 75 10000 2.6 200 00:40 12.08.2019
3814 Clear 32 994 75 10000 2.6 200 00:20 12.08.2019
3815 Clear 33 994 79 10000 2.6 190 23:57 11.08.2019
3816 Clear 33 994 79 10000 2.6 190 23:38 11.08.2019
3817 Clear 33 994 79 10000 2.6 190 23:19 11.08.2019
3818 Clear 33 995 79 10000 2.6 240 22:55 11.08.2019
3819 Clear 33 995 79 10000 2.6 240 22:36 11.08.2019
3820 Clear 33 995 79 10000 2.6 240 22:18 11.08.2019
3821 Clear 34 995 75 10000 2.6 0 21:54 11.08.2019
3822 Clear 34 995 75 10000 2.6 0 21:36 11.08.2019
3823 Clear 34 995 75 10000 2.6 0 21:18 11.08.2019
3824 Clear 34 995 75 10000 3.6 260 20:41 11.08.2019
3825 Clear 34 995 75 10000 3.6 260 20:22 11.08.2019
3826 Clear 34 995 75 10000 3.6 260 20:22 11.08.2019
3827 Clear 34 995 71 10000 3.1 290 19:45 11.08.2019
3828 Clear 34 995 71 10000 3.1 290 19:22 11.08.2019
3829 Clear 35 994 63 10000 3.6 330 18:58 11.08.2019
3830 Clear 35 994 63 10000 3.6 330 18:38 11.08.2019
3831 Clear 35 994 63 10000 3.6 330 18:19 11.08.2019
3832 Clear 36 993 53 10000 4.1 320 17:42 11.08.2019
3833 Clear 36 993 53 10000 4.1 320 17:20 11.08.2019
3834 Clear 36 993 53 10000 4.6 320 16:59 11.08.2019
3835 Clear 36 993 53 10000 4.6 320 16:59 11.08.2019
3836 Clear 36 993 53 10000 4.6 320 16:40 11.08.2019
3837 Clear 36 993 53 10000 4.6 320 16:20 11.08.2019
3838 Clear 37 993 63 10000 5.1 310 15:56 11.08.2019
3839 Clear 37 993 63 10000 5.1 310 15:38 11.08.2019
3840 Clear 37 993 63 10000 5.1 310 15:19 11.08.2019
3841 Clouds 37 992 67 9000 6.7 330 14:40 11.08.2019
3842 Clouds 37 992 67 9000 6.7 330 14:22 11.08.2019
3843 Clear 37 993 60 10000 6.2 330 13:46 11.08.2019
3844 Clear 37 993 60 10000 6.2 330 13:26 11.08.2019
3845 Clear 38 993 57 7000 5.7 310 12:58 11.08.2019
3846 Clear 38 993 57 7000 5.7 310 12:38 11.08.2019
3847 Clear 38 993 57 7000 5.7 310 12:20 11.08.2019
3848 Clear 39 994 51 7000 4.1 280 11:40 11.08.2019
3849 Clear 39 994 51 7000 4.1 280 11:22 11.08.2019
3850 Clear 39 994 45 7000 3.6 300 10:56 11.08.2019
3851 Clear 39 994 45 7000 3.6 300 10:38 11.08.2019
3852 Clear 39 994 45 7000 3.6 300 10:19 11.08.2019
3853 Clear 39 995 57 7000 4.6 320 09:44 11.08.2019
3854 Clear 39 995 57 7000 4.6 320 09:26 11.08.2019
3855 Clouds 39 995 35 8000 2.1 230 08:58 11.08.2019
3856 Clouds 39 995 35 8000 2.1 230 08:39 11.08.2019
3857 Clouds 39 995 35 8000 2.1 230 08:21 11.08.2019
3858 Clouds 37 995 53 7000 2.6 210 07:43 11.08.2019
3859 Clouds 37 995 53 7000 2.6 210 07:18 11.08.2019
3860 Haze 35 995 53 7000 3.6 200 06:37 11.08.2019
3861 Haze 34 994 56 6000 3.1 200 05:19 11.08.2019
3862 Clouds 34 993 60 8000 3.6 360 02:53 11.08.2019
3863 Clouds 35 994 53 8000 3.1 330 01:58 11.08.2019
3864 Clouds 35 994 53 8000 3.1 330 01:32 11.08.2019
3865 Clouds 35 994 50 8000 2.6 340 00:56 11.08.2019
3866 Clouds 35 994 50 8000 2.6 340 00:36 11.08.2019
3867 Clouds 36 994 47 8000 1.5 300 23:56 10.08.2019
3868 Clouds 36 994 47 8000 1.5 300 23:37 10.08.2019
3869 Clouds 36 994 47 8000 1.5 300 23:18 10.08.2019
3870 Clouds 36 995 53 8000 2.1 10 22:38 10.08.2019
3871 Clouds 36 995 53 8000 2.1 10 22:20 10.08.2019
3872 Clouds 36 995 56 8000 3.1 340 21:41 10.08.2019
3873 Clouds 36 995 56 8000 3.1 340 21:22 10.08.2019
3874 Clouds 36 995 56 8000 3.1 340 21:22 10.08.2019
3875 Clouds 37 995 53 8000 3.6 340 20:59 10.08.2019
3876 Clouds 37 995 53 8000 3.6 340 20:41 10.08.2019
3877 Clouds 37 995 53 8000 3.6 340 20:20 10.08.2019
3878 Clouds 37 995 50 8000 4.6 350 19:56 10.08.2019
3879 Clouds 37 995 50 8000 4.6 350 19:37 10.08.2019
3880 Clouds 37 995 50 8000 4.6 350 19:18 10.08.2019
3881 Clouds 38 994 42 7000 4.6 320 18:39 10.08.2019
3882 Clouds 38 994 42 7000 4.6 320 18:20 10.08.2019
3883 Dust 39 993 40 6000 5.1 330 17:41 10.08.2019
3884 Dust 39 993 40 6000 5.1 330 17:23 10.08.2019
3885 Dust 39 992 42 6000 5.1 340 16:45 10.08.2019
3886 Dust 39 992 42 6000 5.1 340 16:26 10.08.2019
3887 Dust 40 992 45 6000 6.7 340 15:53 10.08.2019
3888 Dust 40 992 45 6000 6.7 340 15:23 10.08.2019
3889 Dust 41 992 48 6000 7.2 340 14:45 10.08.2019
3890 Dust 41 992 48 6000 7.2 340 14:21 10.08.2019
3891 Clouds 44 992 29 7000 5.7 330 13:42 10.08.2019
3892 Clouds 44 992 29 7000 5.7 330 13:21 10.08.2019
3893 Dust 44 993 25 7000 5.1 340 12:58 10.08.2019
3894 Dust 44 993 25 7000 5.1 340 12:39 10.08.2019
3895 Dust 44 993 25 7000 5.1 340 12:21 10.08.2019
3896 Dust 44 994 28 8000 1.5 0 11:42 10.08.2019
3897 Dust 44 994 28 8000 1.5 0 11:23 10.08.2019
3898 Dust 42 994 30 10000 2.1 30 10:58 10.08.2019
3899 Dust 42 994 30 10000 2.1 30 10:37 10.08.2019
3900 Dust 42 994 30 10000 2.1 30 10:19 10.08.2019
3901 Dust 42 994 30 10000 2.1 30 10:19 10.08.2019
3902 Dust 41 995 34 10000 3.1 80 09:43 10.08.2019
3903 Dust 41 995 34 10000 3.1 80 09:24 10.08.2019
3904 Dust 40 995 40 8000 3.6 110 08:56 10.08.2019
3905 Dust 40 995 40 8000 3.6 110 08:55 10.08.2019
3906 Dust 40 995 40 8000 3.6 110 08:37 10.08.2019
3907 Dust 40 995 40 8000 3.6 110 08:18 10.08.2019
3908 Clouds 37 995 44 8000 3.6 110 07:43 10.08.2019
3909 Clouds 37 995 44 8000 3.6 110 07:19 10.08.2019
3910 Clouds 35 995 47 8000 4.6 100 06:43 10.08.2019
3911 Clouds 34 994 50 8000 4.1 90 05:46 10.08.2019
3912 Clouds 34 994 50 8000 4.1 90 05:19 10.08.2019
3913 Clouds 34 993 50 8000 4.6 80 03:51 10.08.2019
3914 Clear 33 993 72 0 5.22 56.84 02:38 10.08.2019
3915 Clear 35 992 34 10000 4.1 100 01:44 10.08.2019
3916 Clear 35 992 34 10000 4.1 100 01:24 10.08.2019
3917 Clear 36 993 32 10000 3.6 80 00:59 10.08.2019
3918 Clear 36 993 32 10000 3.6 80 00:40 10.08.2019
3919 Clear 36 993 32 10000 3.6 80 00:18 10.08.2019
3920 Clear 36 993 32 10000 2.6 80 23:39 09.08.2019
3921 Clear 36 993 32 10000 2.6 80 23:20 09.08.2019
3922 Clear 36 993 32 10000 2.6 80 23:20 09.08.2019
3923 Clear 36 993 32 10000 2.6 80 23:20 09.08.2019
3924 Clear 37 993 33 9000 4.6 90 22:55 09.08.2019
3925 Clear 37 993 33 9000 4.6 90 22:55 09.08.2019
3926 Clear 37 993 33 9000 4.6 90 22:37 09.08.2019
3927 Clear 37 993 33 9000 4.6 90 22:18 09.08.2019
3928 Clear 37 994 33 8000 4.6 100 21:40 09.08.2019
3929 Clear 37 994 33 8000 4.6 100 21:21 09.08.2019
3930 Clear 38 994 29 7000 4.6 100 20:57 09.08.2019
3931 Clear 38 994 29 7000 4.6 100 20:38 09.08.2019
3932 Clear 38 994 29 7000 4.6 100 20:18 09.08.2019
3933 Clear 39 993 26 6000 6.2 90 19:43 09.08.2019
3934 Clear 39 993 26 6000 6.2 90 19:22 09.08.2019
3935 Dust 41 993 24 5000 6.2 90 18:56 09.08.2019
3936 Dust 41 993 24 5000 6.2 90 18:38 09.08.2019
3937 Dust 41 993 24 5000 6.2 90 18:38 09.08.2019
3938 Dust 41 993 24 5000 6.2 90 18:19 09.08.2019
3939 Dust 42 992 22 3000 7.2 80 17:42 09.08.2019
3940 Dust 42 992 22 3000 7.2 80 17:24 09.08.2019
3941 Dust 43 991 18 3500 9.3 100 16:54 09.08.2019
3942 Dust 43 991 18 3500 9.3 100 16:36 09.08.2019
3943 Dust 43 991 18 3500 9.3 100 16:18 09.08.2019
3944 Dust 44 990 20 3000 10.3 110 15:41 09.08.2019
3945 Dust 44 990 20 3000 10.3 110 15:21 09.08.2019
3946 Dust 44 990 24 3000 9.8 90 14:57 09.08.2019
3947 Dust 44 990 24 3000 9.8 90 14:38 09.08.2019
3948 Dust 44 990 24 3000 9.8 90 14:19 09.08.2019
3949 Dust 44 990 18 3500 9.3 120 13:44 09.08.2019
3950 Dust 44 990 18 3500 9.3 120 13:21 09.08.2019
3951 Dust 45 991 26 4500 7.7 90 12:48 09.08.2019
3952 Dust 45 991 26 4500 7.7 90 12:26 09.08.2019
3953 Dust 45 992 24 4500 6.7 90 11:59 09.08.2019
3954 Dust 45 992 24 4500 6.7 90 11:41 09.08.2019
3955 Dust 45 992 24 4500 6.7 90 11:20 09.08.2019
3956 Dust 44 992 24 4500 7.7 90 10:41 09.08.2019
3957 Dust 44 992 24 4500 7.7 90 10:22 09.08.2019
3958 Dust 42 993 30 4000 7.2 80 09:59 09.08.2019
3959 Dust 42 993 30 4000 7.2 80 09:37 09.08.2019
3960 Dust 42 993 30 4000 7.2 80 09:18 09.08.2019
3961 Dust 40 993 33 4500 7.2 110 08:44 09.08.2019
3962 Dust 40 993 33 4500 7.2 110 08:25 09.08.2019
3963 Dust 38 993 42 7000 6.2 110 07:56 09.08.2019
3964 Dust 38 993 42 7000 6.2 110 07:37 09.08.2019
3965 Dust 38 993 42 7000 6.2 110 07:19 09.08.2019
3966 Dust 36 993 56 7000 3.6 120 06:40 09.08.2019
3967 Dust 36 993 56 7000 3.6 120 06:20 09.08.2019
3968 Haze 33 993 67 6000 3.6 110 05:30 09.08.2019
3969 Clear 34 992 75 8000 3.6 30 02:27 09.08.2019
3970 Clouds 34 992 75 7000 3.1 40 01:23 09.08.2019
3971 Clouds 34 992 79 9000 4.1 340 00:41 09.08.2019
3972 Clouds 34 992 79 9000 4.1 340 00:22 09.08.2019
3973 Clear 34 992 71 10000 3.6 290 23:56 08.08.2019
3974 Clear 34 992 71 10000 3.6 290 23:36 08.08.2019
3975 Clear 34 992 71 10000 3.6 290 23:18 08.08.2019
3976 Clear 36 992 56 10000 2.1 250 22:38 08.08.2019
3977 Clear 36 992 56 10000 2.1 250 22:19 08.08.2019
3978 Clear 36 992 53 10000 3.1 240 21:59 08.08.2019
3979 Clear 36 992 53 10000 3.1 240 21:41 08.08.2019
3980 Clear 36 992 53 10000 3.1 240 21:22 08.08.2019
3981 Clear 37 992 53 10000 2.1 220 20:57 08.08.2019
3982 Clear 37 992 53 10000 2.1 220 20:39 08.08.2019
3983 Clear 37 992 53 10000 2.1 220 20:19 08.08.2019
3984 Clear 36 992 56 10000 2.1 230 19:47 08.08.2019
3985 Clear 36 992 56 10000 2.1 230 19:28 08.08.2019
3986 Clear 37 991 37 10000 1 0 18:45 08.08.2019
3987 Clear 37 991 37 10000 1 0 18:25 08.08.2019
3988 Clear 38 991 33 10000 1.5 330 17:59 08.08.2019
3989 Clear 38 991 33 10000 1.5 330 17:41 08.08.2019
3990 Clear 38 991 33 10000 1.5 330 17:22 08.08.2019
3991 Clear 38 991 42 10000 3.6 330 16:55 08.08.2019
3992 Clear 38 991 42 10000 3.6 330 16:37 08.08.2019
3993 Clear 38 991 42 10000 3.6 330 16:19 08.08.2019
3994 Clear 38 990 51 10000 6.7 350 15:42 08.08.2019
3995 Clear 38 990 51 10000 6.7 350 15:23 08.08.2019
3996 Clear 40 990 51 10000 5.1 320 14:59 08.08.2019
3997 Clear 40 990 51 10000 5.1 320 14:37 08.08.2019
3998 Clear 40 990 51 10000 5.1 320 14:18 08.08.2019
3999 Clear 40 991 48 10000 3.1 0 13:40 08.08.2019
4000 Clear 40 991 48 10000 3.1 0 13:22 08.08.2019
4001 Clear 40 991 48 10000 3.6 270 12:43 08.08.2019
4002 Clear 40 991 48 10000 3.6 270 12:23 08.08.2019
4003 Clear 41 992 51 10000 3.1 320 11:59 08.08.2019
4004 Clear 41 992 51 10000 3.1 320 11:39 08.08.2019
4005 Clear 41 992 51 10000 3.1 320 11:21 08.08.2019
4006 Clear 39 993 48 9000 2.1 0 10:41 08.08.2019
4007 Clear 39 993 48 9000 2.1 0 10:22 08.08.2019
4008 Clear 37 993 60 8000 1.5 0 09:53 08.08.2019
4009 Clear 37 993 60 8000 1.5 0 09:31 08.08.2019
4010 Dust 35 994 71 8000 2.1 190 08:59 08.08.2019
4011 Dust 35 994 71 8000 2.1 190 08:39 08.08.2019
4012 Dust 35 994 71 8000 2.1 190 08:19 08.08.2019
4013 Haze 33 994 75 7000 2.6 210 07:41 08.08.2019
4014 Haze 33 994 75 7000 2.6 210 07:20 08.08.2019
4015 Haze 32 994 75 7000 3.1 210 06:56 08.08.2019
4016 Haze 32 994 75 7000 3.1 210 06:37 08.08.2019
4017 Haze 31 993 79 7000 3.1 190 05:53 08.08.2019
4018 Haze 31 993 79 7000 3.1 190 05:19 08.08.2019
4019 Clear 32 993 75 10000 3.6 190 03:53 08.08.2019
4020 Clear 32 993 75 10000 3.1 210 02:51 08.08.2019
4021 Clear 33 993 71 10000 3.1 190 01:38 08.08.2019
4022 Clear 33 993 75 10000 2.6 200 00:26 08.08.2019
4023 Clear 34 993 71 10000 3.1 200 23:56 07.08.2019
4024 Clear 34 993 71 10000 3.1 200 23:21 07.08.2019
4025 Clear 34 993 63 10000 2.6 200 22:59 07.08.2019
4026 Clear 34 993 63 10000 2.6 200 22:40 07.08.2019
4027 Clear 34 993 63 10000 2.6 200 22:20 07.08.2019
4028 Clear 35 994 63 10000 2.6 230 21:56 07.08.2019
4029 Clear 35 994 63 10000 2.6 230 21:37 07.08.2019
4030 Clear 35 994 63 10000 2.6 230 21:19 07.08.2019
4031 Clear 35 994 59 10000 3.1 250 20:43 07.08.2019
4032 Clear 35 994 59 10000 3.1 250 20:24 07.08.2019
4033 Clear 35 994 63 10000 2.1 260 19:59 07.08.2019
4034 Clear 35 994 63 10000 2.1 260 19:39 07.08.2019
4035 Clear 35 994 63 10000 2.1 260 19:21 07.08.2019
4036 Clear 36 993 60 10000 2.6 260 18:44 07.08.2019
4037 Clear 36 993 60 10000 2.6 260 18:22 07.08.2019
4038 Clear 37 993 50 10000 3.1 270 17:59 07.08.2019
4039 Clear 37 993 50 10000 3.1 270 17:41 07.08.2019
4040 Clear 37 993 50 10000 3.1 270 17:22 07.08.2019
4041 Clear 37 993 50 10000 4.1 280 16:57 07.08.2019
4042 Clear 37 993 50 10000 4.1 280 16:57 07.08.2019
4043 Clear 37 993 50 10000 4.1 280 16:39 07.08.2019
4044 Clear 37 993 50 10000 4.1 280 16:21 07.08.2019
4045 Clear 39 993 45 10000 5.1 290 15:58 07.08.2019
4046 Clear 39 993 45 10000 5.1 290 15:40 07.08.2019
4047 Clear 39 993 45 10000 5.1 290 15:19 07.08.2019
4048 Clear 40 993 42 10000 5.7 280 14:49 07.08.2019
4049 Clear 40 993 42 10000 5.7 280 14:29 07.08.2019
4050 Clear 40 993 35 10000 5.1 290 13:56 07.08.2019
4051 Clear 40 993 35 10000 5.1 290 13:38 07.08.2019
4052 Clear 40 993 35 10000 5.1 290 13:18 07.08.2019
4053 Clear 39 994 47 10000 4.6 290 12:55 07.08.2019
4054 Clear 39 994 47 10000 4.6 290 12:36 07.08.2019
4055 Clear 39 994 47 10000 4.6 290 12:18 07.08.2019
4056 Clear 39 995 47 10000 5.1 280 11:43 07.08.2019
4057 Clear 39 995 47 10000 5.1 280 11:21 07.08.2019
4058 Clear 39 995 35 10000 5.1 280 10:57 07.08.2019
4059 Clear 39 995 35 10000 5.1 280 10:39 07.08.2019
4060 Clear 39 995 35 10000 5.1 280 10:18 07.08.2019
4061 Clear 39 995 35 10000 5.1 280 09:45 07.08.2019
4062 Clear 39 995 35 10000 5.1 280 09:22 07.08.2019
4063 Clear 37 995 47 10000 2.6 0 08:57 07.08.2019
4064 Clear 37 995 47 10000 2.6 0 08:38 07.08.2019
4065 Clear 37 995 47 10000 2.6 0 08:38 07.08.2019
4066 Clear 37 995 47 10000 2.6 0 08:20 07.08.2019
4067 Clear 35 995 56 10000 2.6 220 07:41 07.08.2019
4068 Clear 35 995 56 10000 2.6 220 07:20 07.08.2019
4069 Clear 32 995 55 10000 4.1 210 06:31 07.08.2019
4070 Clear 31 995 58 10000 3.6 210 05:56 07.08.2019
4071 Clear 30 995 62 10000 3.6 200 04:57 07.08.2019
4072 Clear 31 994 66 10000 3.1 210 03:21 07.08.2019
4073 Clear 32 994 63 10000 3.1 150 02:50 07.08.2019
4074 Clear 32 994 63 10000 3.1 150 02:20 07.08.2019
4075 Clear 32 993 63 10000 3.6 200 01:39 07.08.2019
4076 Clear 32 993 66 10000 3.1 200 00:51 07.08.2019
4077 Clear 32 993 66 10000 3.1 200 00:22 07.08.2019
4078 Clear 33 994 71 10000 3.1 200 23:42 06.08.2019
4079 Clear 33 994 71 10000 3.1 200 23:21 06.08.2019
4080 Clear 34 994 63 10000 3.1 240 22:57 06.08.2019
4081 Clear 34 994 63 10000 3.1 240 22:38 06.08.2019
4082 Clear 34 994 63 10000 3.1 240 22:19 06.08.2019
4083 Clear 35 995 63 10000 3.1 260 21:43 06.08.2019
4084 Clear 35 995 63 10000 3.1 260 21:25 06.08.2019
4085 Clear 35 995 67 10000 3.1 260 20:58 06.08.2019
4086 Clear 35 995 67 10000 3.1 260 20:40 06.08.2019
4087 Clear 35 995 67 10000 3.1 260 20:21 06.08.2019
4088 Clear 35 995 67 10000 3.1 270 19:43 06.08.2019
4089 Clear 35 995 67 10000 3.1 270 19:25 06.08.2019
4090 Clear 35 994 67 10000 4.1 270 18:48 06.08.2019
4091 Clear 35 994 67 10000 4.1 270 18:29 06.08.2019
4092 Clear 36 994 60 10000 4.6 270 17:59 06.08.2019
4093 Clear 36 994 60 10000 4.6 270 17:40 06.08.2019
4094 Clear 36 994 60 10000 4.6 270 17:21 06.08.2019
4095 Clear 36 994 60 10000 6.2 280 16:59 06.08.2019
4096 Clear 36 994 60 10000 6.2 280 16:39 06.08.2019
4097 Clear 36 994 60 10000 6.2 280 16:20 06.08.2019
4098 Clear 37 994 53 10000 6.7 290 15:57 06.08.2019
4099 Clear 37 994 53 10000 6.7 290 15:38 06.08.2019
4100 Clear 37 994 53 10000 6.7 290 15:19 06.08.2019
4101 Clear 38 994 50 10000 6.7 290 14:44 06.08.2019
4102 Clear 38 994 50 10000 6.7 290 14:25 06.08.2019
4103 Clear 39 994 45 10000 7.2 300 13:58 06.08.2019
4104 Clear 39 994 47 10000 5.7 270 13:39 06.08.2019
4105 Clear 39 994 47 10000 5.7 270 13:20 06.08.2019
4106 Clear 39 995 47 10000 6.2 270 12:57 06.08.2019
4107 Clear 39 995 47 10000 6.2 270 12:38 06.08.2019
4108 Clear 39 995 47 10000 6.2 270 12:20 06.08.2019
4109 Clear 39 995 40 10000 5.1 280 11:41 06.08.2019
4110 Clear 39 995 40 10000 5.1 280 11:19 06.08.2019
4111 Clear 39 995 40 10000 5.1 280 10:42 06.08.2019
4112 Clear 39 995 40 10000 5.1 280 10:23 06.08.2019
4113 Clear 38 996 42 10000 4.6 290 09:57 06.08.2019
4114 Clear 38 996 42 10000 4.6 290 09:37 06.08.2019
4115 Clear 38 996 42 10000 4.6 290 09:19 06.08.2019
4116 Clear 37 996 53 10000 3.1 0 08:41 06.08.2019
4117 Clear 37 996 53 10000 3.1 0 08:23 06.08.2019
4118 Clear 34 996 59 10000 3.6 200 07:36 06.08.2019
4119 Clear 32 996 62 10000 3.6 170 06:51 06.08.2019
4120 Clear 32 996 62 10000 3.6 170 06:32 06.08.2019
4121 Clear 31 995 62 10000 3.6 180 05:48 06.08.2019
4122 Clear 31 994 66 10000 3.6 190 03:44 06.08.2019
4123 Clear 32 994 70 10000 3.6 210 01:51 06.08.2019
4124 Clear 32 994 70 10000 3.6 210 01:22 06.08.2019
4125 Clear 33 994 70 10000 4.1 200 00:29 06.08.2019
4126 Clear 34 994 63 10000 2.6 190 23:46 05.08.2019
4127 Clear 34 994 63 10000 2.6 190 23:18 05.08.2019
4128 Clear 34 995 63 10000 2.6 220 22:40 05.08.2019
4129 Clear 34 995 63 10000 2.6 220 22:22 05.08.2019
4130 Clear 35 995 63 10000 2.1 0 21:54 05.08.2019
4131 Clear 35 995 63 10000 2.1 0 21:36 05.08.2019
4132 Clear 35 995 63 10000 2.1 0 21:18 05.08.2019
4133 Clear 35 995 67 10000 3.6 260 20:54 05.08.2019
4134 Clear 35 995 67 10000 3.6 260 20:36 05.08.2019
4135 Clear 35 995 67 10000 3.6 260 20:18 05.08.2019
4136 Clear 35 994 63 10000 4.6 260 19:40 05.08.2019
4137 Clear 35 994 63 10000 4.6 260 19:21 05.08.2019
4138 Clear 35 994 63 10000 4.1 260 18:45 05.08.2019
4139 Clear 35 994 63 10000 4.1 260 18:22 05.08.2019
4140 Clear 36 994 53 10000 4.6 270 17:58 05.08.2019
4141 Clear 36 994 53 10000 4.6 270 17:40 05.08.2019
4142 Clear 36 994 53 10000 4.6 270 17:22 05.08.2019
4143 Clear 36 994 53 10000 4.6 270 17:22 05.08.2019
4144 Clear 37 993 50 10000 6.7 280 16:44 05.08.2019
4145 Clear 37 993 50 10000 6.7 280 16:24 05.08.2019
4146 Clear 38 993 50 10000 5.7 290 15:44 05.08.2019
4147 Clear 38 993 50 10000 5.7 290 15:21 05.08.2019
4148 Clear 39 993 42 10000 5.1 280 14:54 05.08.2019
4149 Clear 39 993 42 10000 5.1 280 14:54 05.08.2019
4150 Clear 39 993 42 10000 5.1 280 14:36 05.08.2019
4151 Clear 39 993 42 10000 5.1 280 14:18 05.08.2019
4152 Clear 39 994 47 10000 4.6 290 13:40 05.08.2019
4153 Clear 39 994 47 10000 4.6 290 13:20 05.08.2019
4154 Clear 39 994 39 10000 5.1 270 12:43 05.08.2019
4155 Clear 39 994 39 10000 5.1 270 12:19 05.08.2019
4156 Clear 39 995 47 10000 5.1 270 11:45 05.08.2019
4157 Clear 39 995 47 10000 5.1 270 11:45 05.08.2019
4158 Clear 39 995 47 10000 5.1 270 11:26 05.08.2019
4159 Clear 39 995 45 10000 4.1 280 10:49 05.08.2019
4160 Clear 39 995 45 10000 4.1 280 10:31 05.08.2019
4161 Clear 34 995 71 0 5.07 257.194 09:57 05.08.2019
4162 Clear 34 995 71 0 5.07 257.194 09:38 05.08.2019
4163 Clouds 36 996 63 10000 2.6 0 09:20 05.08.2019
4164 Clouds 36 996 63 10000 2.6 0 08:44 05.08.2019
4165 Clouds 36 996 63 10000 2.6 0 08:25 05.08.2019
4166 Haze 34 996 71 6000 2.1 0 07:49 05.08.2019
4167 Haze 34 996 71 6000 2.1 0 07:30 05.08.2019
4168 Haze 32 996 79 5000 3.1 210 06:57 05.08.2019
4169 Haze 32 996 84 4000 3.6 220 06:24 05.08.2019
4170 Haze 31 996 89 3000 3.6 200 05:31 05.08.2019
4171 Haze 31 995 84 4500 3.1 190 04:51 05.08.2019
4172 Haze 32 995 79 6000 3.1 200 03:50 05.08.2019
4173 Haze 32 995 79 7000 2.6 190 02:46 05.08.2019
4174 Haze 32 995 75 7000 2.6 220 01:55 05.08.2019
4175 Haze 32 995 75 7000 2.6 220 01:22 05.08.2019
4176 Haze 33 995 75 8000 2.1 230 00:40 05.08.2019
4177 Haze 33 995 75 8000 2.1 230 00:20 05.08.2019
4178 Haze 33 995 75 8000 2.1 240 23:43 04.08.2019
4179 Haze 33 995 75 8000 2.1 240 23:23 04.08.2019
4180 Clouds 34 995 75 8000 2.1 240 22:57 04.08.2019
4181 Clouds 34 995 75 8000 2.1 240 22:38 04.08.2019
4182 Clouds 34 995 75 8000 2.1 240 22:19 04.08.2019
4183 Clouds 34 995 75 8000 2.6 250 21:46 04.08.2019
4184 Clouds 34 995 75 8000 2.6 250 21:24 04.08.2019
4185 Clear 34 995 67 8000 4.1 280 20:59 04.08.2019
4186 Clear 34 995 67 8000 4.1 280 20:41 04.08.2019
4187 Clear 34 995 67 8000 4.1 280 20:18 04.08.2019
4188 Clear 35 995 63 8000 3.1 260 19:48 04.08.2019
4189 Clear 35 995 63 8000 3.1 260 19:28 04.08.2019
4190 Dust 35 995 56 7000 4.1 300 18:58 04.08.2019
4191 Dust 35 995 56 7000 4.1 300 18:40 04.08.2019
4192 Dust 35 995 56 7000 4.1 300 18:20 04.08.2019
4193 Dust 35 994 60 6000 4.1 320 17:43 04.08.2019
4194 Dust 35 994 60 6000 4.1 320 17:22 04.08.2019
4195 Clear 36 994 60 6000 4.6 330 16:45 04.08.2019
4196 Clear 36 994 60 6000 4.6 330 16:26 04.08.2019
4197 Clear 37 993 53 6000 5.7 320 15:55 04.08.2019
4198 Clear 37 993 53 6000 5.7 320 15:37 04.08.2019
4199 Clear 37 993 53 6000 5.7 320 15:37 04.08.2019
4200 Clouds 37 993 53 6000 5.7 320 15:18 04.08.2019
4201 Clouds 38 993 53 6000 6.7 340 14:42 04.08.2019
4202 Clouds 38 993 53 6000 6.7 340 14:21 04.08.2019
4203 Clouds 39 994 45 7000 6.7 320 13:43 04.08.2019
4204 Clouds 39 994 45 7000 6.7 320 13:24 04.08.2019
4205 Clouds 39 994 51 6000 6.2 320 12:55 04.08.2019
4206 Clouds 39 994 51 6000 6.2 320 12:37 04.08.2019
4207 Clouds 39 994 51 6000 6.2 320 12:18 04.08.2019
4208 Clouds 42 995 48 7000 5.7 330 11:39 04.08.2019
4209 Clouds 42 995 48 7000 5.7 330 11:21 04.08.2019
4210 Clouds 41 995 43 7000 5.1 330 10:41 04.08.2019
4211 Clouds 41 996 30 7000 3.1 250 10:21 04.08.2019
4212 Clouds 40 996 29 7000 2.6 0 09:46 04.08.2019
4213 Clouds 40 996 29 7000 2.6 0 09:25 04.08.2019
4214 Clouds 40 996 29 7000 2.6 0 09:25 04.08.2019
4215 Clear 38 996 37 10000 1.5 0 08:57 04.08.2019
4216 Clear 38 996 37 10000 1.5 0 08:32 04.08.2019
4217 Clouds 36 997 39 9000 2.1 100 07:54 04.08.2019
4218 Clouds 36 997 39 9000 2.1 100 07:22 04.08.2019
4219 Clear 34 996 50 8000 3.6 90 06:28 04.08.2019
4220 Haze 32 996 56 7000 2.1 70 05:43 04.08.2019
4221 Clear 34 994 32 10000 3.6 360 02:47 04.08.2019
4222 Clear 34 994 35 10000 2.6 100 01:51 04.08.2019
4223 Clear 34 994 35 10000 2.6 100 01:28 04.08.2019
4224 Clear 34 995 35 10000 1 0 00:41 04.08.2019
4225 Clear 34 995 35 10000 1 0 00:22 04.08.2019
4226 Clear 34 995 37 10000 2.1 340 23:42 03.08.2019
4227 Clear 34 995 37 10000 2.1 340 23:19 03.08.2019
4228 Clear 34 995 33 10000 1 0 22:55 03.08.2019
4229 Clear 34 995 33 10000 1 0 22:37 03.08.2019
4230 Clear 34 995 33 10000 1 0 22:18 03.08.2019
4231 Clear 35 995 31 10000 1.5 110 21:38 03.08.2019
4232 Clear 35 995 31 10000 1.5 110 21:19 03.08.2019
4233 Clear 36 994 33 10000 2.1 60 20:43 03.08.2019
4234 Clear 36 994 33 10000 2.1 60 20:23 03.08.2019
4235 Clear 37 994 27 10000 1.5 320 19:43 03.08.2019
4236 Clear 37 994 27 10000 1.5 320 19:24 03.08.2019
4237 Clear 37 994 27 10000 2.6 340 18:56 03.08.2019
4238 Clear 37 994 27 10000 2.6 340 18:28 03.08.2019
4239 Clear 38 993 35 10000 2.6 350 17:50 03.08.2019
4240 Clear 38 993 35 10000 2.6 350 17:22 03.08.2019
4241 Clear 40 993 33 10000 4.1 330 16:58 03.08.2019
4242 Clear 40 993 33 10000 4.1 330 16:38 03.08.2019
4243 Clear 40 993 33 10000 4.1 330 16:19 03.08.2019
4244 Clear 40 993 40 10000 4.6 350 15:45 03.08.2019
4245 Clear 40 993 40 10000 4.6 350 15:23 03.08.2019
4246 Clear 41 993 24 10000 6.2 330 14:43 03.08.2019
4247 Clear 41 993 24 10000 6.2 330 14:22 03.08.2019
4248 Clear 41 993 23 10000 5.7 330 13:53 03.08.2019
4249 Clear 41 993 23 10000 5.7 330 13:26 03.08.2019
4250 Clear 42 994 16 10000 5.1 320 12:59 03.08.2019
4251 Clear 42 994 16 10000 5.1 320 12:40 03.08.2019
4252 Clear 42 994 16 10000 5.1 320 12:22 03.08.2019
4253 Clear 41 994 35 10000 3.6 330 11:49 03.08.2019
4254 Clear 41 994 35 10000 3.6 330 11:28 03.08.2019
4255 Clear 40 994 33 10000 5.1 0 10:42 03.08.2019
4256 Clear 40 994 33 10000 5.1 0 10:24 03.08.2019
4257 Clear 40 994 33 10000 5.1 0 10:24 03.08.2019
4258 Clear 41 995 24 10000 2.1 210 09:44 03.08.2019
4259 Clear 41 995 24 10000 2.1 210 09:23 03.08.2019
4260 Clear 40 995 21 10000 1 0 08:55 03.08.2019
4261 Clear 40 995 21 10000 1 0 08:18 03.08.2019
4262 Clear 37 995 25 10000 2.1 110 07:36 03.08.2019
4263 Clouds 35 994 30 8000 2.1 90 06:39 03.08.2019
4264 Clear 32 994 26 10000 1.5 0 04:56 03.08.2019
4265 Clear 32 993 32 10000 2.6 90 02:42 03.08.2019
4266 Clear 33 993 30 10000 2.1 110 01:50 03.08.2019
4267 Clear 34 993 29 10000 2.1 150 00:51 03.08.2019
4268 Clear 34 993 29 10000 2.1 150 00:29 03.08.2019
4269 Clear 35 994 30 10000 1.5 130 23:41 02.08.2019
4270 Clear 35 994 30 10000 1.5 130 23:19 02.08.2019
4271 Clear 35 994 35 10000 2.6 130 22:57 02.08.2019
4272 Clear 35 994 35 10000 2.6 130 22:39 02.08.2019
4273 Clear 35 994 35 10000 2.6 130 22:20 02.08.2019
4274 Clear 35 994 31 10000 3.1 100 21:44 02.08.2019
4275 Clear 35 994 31 10000 3.1 100 21:25 02.08.2019
4276 Clear 35 994 37 10000 1.5 230 20:59 02.08.2019
4277 Clear 35 994 37 10000 1.5 230 20:41 02.08.2019
4278 Clear 35 994 37 10000 1.5 230 20:20 02.08.2019
4279 Clear 37 994 33 10000 1.5 220 19:48 02.08.2019
4280 Clear 37 994 33 10000 1.5 220 19:28 02.08.2019
4281 Clear 37 994 42 10000 2.1 210 18:45 02.08.2019
4282 Clear 37 994 42 10000 2.1 210 18:26 02.08.2019
4283 Clear 38 993 37 10000 2.6 260 17:48 02.08.2019
4284 Clear 38 993 37 10000 2.6 260 17:25 02.08.2019
4285 Clear 40 993 33 10000 3.6 270 16:59 02.08.2019
4286 Clear 40 993 33 10000 3.6 270 16:38 02.08.2019
4287 Clear 40 993 33 10000 3.6 270 16:19 02.08.2019
4288 Clear 41 994 31 10000 4.1 290 15:40 02.08.2019
4289 Clear 41 994 31 10000 4.1 290 15:20 02.08.2019
4290 Clear 40 994 33 10000 4.6 270 14:47 02.08.2019
4291 Clear 40 994 33 10000 4.6 270 14:19 02.08.2019
4292 Clear 41 994 33 10000 5.1 270 13:50 02.08.2019
4293 Clear 41 994 33 10000 5.1 270 13:29 02.08.2019
4294 Clear 41 995 29 10000 5.7 290 12:47 02.08.2019
4295 Clear 41 995 29 10000 5.7 290 12:24 02.08.2019
4296 Clear 40 995 42 10000 4.1 290 11:58 02.08.2019
4297 Clear 40 995 42 10000 4.1 290 11:39 02.08.2019
4298 Clear 40 995 42 10000 4.1 290 11:21 02.08.2019
4299 Clear 40 995 35 10000 4.6 300 10:43 02.08.2019
4300 Clear 40 995 35 10000 4.6 300 10:23 02.08.2019
4301 Clear 39 996 45 10000 3.6 290 09:52 02.08.2019
4302 Clear 39 996 45 10000 3.6 290 09:29 02.08.2019
4303 Clouds 36 996 63 7000 2.1 0 08:53 02.08.2019
4304 Clouds 36 996 63 7000 2.1 0 08:25 02.08.2019
4305 Haze 35 996 56 6000 2.6 230 07:52 02.08.2019
4306 Haze 35 996 56 6000 2.6 230 07:34 02.08.2019
4307 Haze 33 996 71 5000 2.1 250 06:55 02.08.2019
4308 Haze 33 996 71 5000 2.1 250 06:26 02.08.2019
4309 Haze 32 995 84 4500 2.6 230 05:38 02.08.2019
4310 Haze 32 995 79 7000 2.6 230 03:31 02.08.2019
4311 Haze 33 994 71 8000 3.1 140 02:37 02.08.2019
4312 Haze 33 995 75 8000 2.6 200 00:54 02.08.2019
4313 Haze 33 995 75 8000 2.6 200 00:20 02.08.2019
4314 Haze 33 995 75 8000 2.6 200 23:43 01.08.2019
4315 Haze 33 995 75 8000 2.6 200 23:19 01.08.2019
4316 Haze 34 996 71 8000 2.6 230 22:41 01.08.2019
4317 Haze 34 996 71 8000 2.6 230 22:21 01.08.2019
4318 Haze 34 996 71 8000 2.1 240 21:54 01.08.2019
4319 Haze 34 996 71 8000 2.1 240 21:36 01.08.2019
4320 Haze 34 996 71 8000 2.1 240 21:18 01.08.2019
4321 Haze 34 996 67 7000 2.6 290 20:41 01.08.2019
4322 Haze 34 996 67 7000 2.6 290 20:22 01.08.2019
4323 Dust 35 996 67 7000 4.6 340 19:45 01.08.2019
4324 Dust 35 996 67 7000 4.6 340 19:23 01.08.2019
4325 Dust 35 996 56 6000 4.1 330 18:55 01.08.2019
4326 Dust 35 996 56 6000 4.1 330 18:36 01.08.2019
4327 Dust 35 996 56 6000 4.1 330 18:18 01.08.2019
4328 Dust 36 995 60 4000 4.6 320 17:44 01.08.2019
4329 Dust 36 995 60 4000 4.6 320 17:26 01.08.2019
4330 Dust 36 995 60 4000 5.7 320 16:44 01.08.2019
4331 Dust 36 995 60 4000 5.7 320 16:22 01.08.2019
4332 Dust 37 995 47 4500 6.2 320 15:45 01.08.2019
4333 Dust 37 995 47 4500 6.2 320 15:20 01.08.2019
4334 Dust 38 995 48 5000 6.2 300 14:44 01.08.2019
4335 Dust 38 995 48 5000 6.2 300 14:22 01.08.2019
4336 Dust 38 995 50 6000 5.7 300 13:59 01.08.2019
4337 Clouds 33 995 71 0 4.13 280.333 13:41 01.08.2019
4338 Dust 39 996 51 8000 6.2 300 13:21 01.08.2019
4339 Dust 39 996 51 8000 6.2 300 12:52 01.08.2019
4340 Dust 39 996 51 8000 6.2 300 12:33 01.08.2019
4341 Clear 41 997 38 10000 6.2 280 11:58 01.08.2019
4342 Clear 41 997 38 10000 6.2 280 11:40 01.08.2019
4343 Clear 41 997 38 10000 6.2 280 11:22 01.08.2019
4344 Clear 41 997 38 10000 5.7 290 10:43 01.08.2019
4345 Clear 41 997 38 10000 5.7 290 10:25 01.08.2019
4346 Clear 41 998 35 7000 5.1 280 09:50 01.08.2019
4347 Clear 41 998 35 7000 5.1 280 09:24 01.08.2019
4348 Clear 41 998 30 7000 5.1 220 08:57 01.08.2019
4349 Clear 41 998 30 7000 5.1 220 08:39 01.08.2019
4350 Clear 41 998 30 7000 5.1 220 08:18 01.08.2019
4351 Clear 39 998 35 10000 4.1 210 07:45 01.08.2019
4352 Clear 39 998 35 10000 4.1 210 07:20 01.08.2019
4353 Clear 37 998 35 10000 4.6 180 06:39 01.08.2019
4354 Clear 35 997 39 10000 2.6 220 05:32 01.08.2019
4355 Clear 36 996 41 10000 3.1 210 02:41 01.08.2019
4356 Clear 37 996 39 10000 2.6 210 01:45 01.08.2019
4357 Clear 37 997 39 10000 2.6 220 00:37 01.08.2019
4358 Clear 37 997 39 10000 2.6 220 00:18 01.08.2019
4359 Clear 38 997 39 10000 2.1 210 23:42 31.07.2019
4360 Clear 38 997 39 10000 2.1 210 23:20 31.07.2019
4361 Clouds 38 997 35 8000 2.1 170 22:45 31.07.2019
4362 Clouds 38 997 35 8000 2.1 170 22:27 31.07.2019
4363 Clouds 38 997 35 8000 2.1 170 22:27 31.07.2019
4364 Clouds 38 997 33 8000 2.1 130 21:45 31.07.2019
4365 Clouds 38 997 33 8000 2.1 130 21:23 31.07.2019
4366 Clouds 38 997 42 8000 2.1 210 20:51 31.07.2019
4367 Clouds 38 997 42 8000 2.1 210 20:25 31.07.2019
4368 Clouds 38 997 45 8000 2.1 230 19:58 31.07.2019
4369 Clouds 38 997 45 8000 2.1 230 19:39 31.07.2019
4370 Clouds 38 997 45 8000 2.1 230 19:19 31.07.2019
4371 Clouds 38 996 42 8000 1.5 0 18:40 31.07.2019
4372 Clouds 38 996 42 8000 1.5 0 18:40 31.07.2019
4373 Clouds 38 996 42 8000 1.5 0 18:22 31.07.2019
4374 Clouds 39 996 35 8000 3.6 330 17:45 31.07.2019
4375 Clouds 39 996 35 8000 3.6 330 17:20 31.07.2019
4376 Clear 39 995 40 10000 5.1 330 16:56 31.07.2019
4377 Clear 39 995 40 10000 5.1 330 16:37 31.07.2019
4378 Clear 39 995 40 10000 5.1 330 16:18 31.07.2019
4379 Clear 40 995 40 10000 6.7 320 15:42 31.07.2019
4380 Clear 40 995 40 10000 6.7 320 15:23 31.07.2019
4381 Clear 42 996 32 10000 6.7 320 14:42 31.07.2019
4382 Clear 42 996 32 10000 6.7 320 14:20 31.07.2019
4383 -273 0 0 0 0 0 13:56 31.07.2019
4384 Clear 43 996 27 10000 5.7 290 13:56 31.07.2019
4385 Clear 43 996 27 10000 5.7 290 13:37 31.07.2019
4386 Clear 43 996 27 10000 5.7 290 13:19 31.07.2019
4387 Clear 43 997 28 10000 5.7 290 12:42 31.07.2019
4388 Clear 43 997 28 10000 5.7 290 12:23 31.07.2019
4389 Clouds 43 998 28 8000 5.1 240 11:40 31.07.2019
4390 Clouds 43 998 28 8000 5.1 240 11:21 31.07.2019
4391 Clear 41 998 30 10000 5.7 220 10:56 31.07.2019
4392 Clear 41 998 30 10000 5.7 220 10:38 31.07.2019
4393 Clear 41 998 30 10000 5.7 220 10:19 31.07.2019
4394 Clouds 41 998 32 9000 5.1 210 09:42 31.07.2019
4395 Clouds 41 998 32 9000 5.1 210 09:23 31.07.2019
4396 Clouds 39 999 31 8000 5.1 190 08:44 31.07.2019
4397 Clouds 39 999 31 8000 5.1 190 08:24 31.07.2019
4398 Clouds 38 999 37 8000 5.1 170 07:48 31.07.2019
4399 Clouds 38 999 37 8000 5.1 170 07:30 31.07.2019
4400 Clear 36 998 39 10000 4.6 180 05:23 31.07.2019
4401 Clear 37 997 42 10000 3.1 210 03:56 31.07.2019
4402 Clouds 36 997 39 8000 2.1 80 00:37 31.07.2019
4403 Clouds 36 997 39 8000 2.6 130 23:49 30.07.2019
4404 Clouds 36 997 39 8000 2.6 130 23:27 30.07.2019
4405 Clouds 36 997 42 7000 2.6 100 22:49 30.07.2019
4406 Clouds 36 997 42 7000 2.6 100 22:26 30.07.2019
4407 Clouds 37 997 47 7000 2.6 100 21:59 30.07.2019
4408 Clouds 37 997 47 7000 2.6 100 21:37 30.07.2019
4409 Clouds 37 997 47 7000 2.6 100 21:19 30.07.2019
4410 Clear 37 997 45 7000 3.1 80 20:55 30.07.2019
4411 Clear 37 997 45 7000 3.1 80 20:36 30.07.2019
4412 Clear 37 997 45 7000 3.1 80 20:18 30.07.2019
4413 Clear 37 997 50 7000 2.1 40 19:42 30.07.2019
4414 Clear 37 997 50 7000 2.1 40 19:24 30.07.2019
4415 Clear 37 996 50 7000 2.1 360 18:45 30.07.2019
4416 Clear 37 996 50 7000 2.1 360 18:21 30.07.2019
4417 Dust 38 996 47 7000 3.6 360 17:43 30.07.2019
4418 Dust 38 996 47 7000 3.6 360 17:20 30.07.2019
4419 Clear 39 996 40 7000 5.7 330 16:55 30.07.2019
4420 Clear 39 996 40 7000 5.7 330 16:37 30.07.2019
4421 Clear 39 996 40 7000 5.7 330 16:18 30.07.2019
4422 Clear 39 996 40 6000 7.2 320 15:39 30.07.2019
4423 Clear 39 996 40 6000 7.2 320 15:39 30.07.2019
4424 Clear 39 996 40 6000 7.2 320 15:19 30.07.2019
4425 Dust 40 996 38 7000 7.7 320 14:43 30.07.2019
4426 Dust 40 996 38 7000 7.7 320 14:43 30.07.2019
4427 Dust 40 996 38 7000 7.7 320 14:22 30.07.2019
4428 Dust 41 996 32 8000 7.7 310 13:55 30.07.2019
4429 Dust 41 996 32 8000 7.7 310 13:36 30.07.2019
4430 Dust 41 996 32 8000 7.7 310 13:18 30.07.2019
4431 Clouds 43 997 32 8000 6.7 290 12:43 30.07.2019
4432 Clouds 43 997 32 8000 6.7 290 12:24 30.07.2019
4433 Clouds 44 997 22 8000 4.1 270 11:44 30.07.2019
4434 Clouds 44 997 22 8000 4.1 270 11:23 30.07.2019
4435 Clouds 42 997 26 8000 4.1 230 10:55 30.07.2019
4436 Clouds 42 997 26 8000 4.1 230 10:37 30.07.2019
4437 Clouds 42 997 26 8000 4.1 230 10:19 30.07.2019
4438 Clouds 41 998 32 8000 4.1 210 09:46 30.07.2019
4439 Clouds 41 998 32 8000 4.1 210 09:26 30.07.2019
4440 Clouds 39 998 33 8000 5.1 200 08:32 30.07.2019
4441 Clouds 38 999 37 8000 5.1 210 07:52 30.07.2019
4442 Clouds 38 999 37 8000 5.1 210 07:34 30.07.2019
4443 Clouds 36 999 39 8000 4.6 190 06:52 30.07.2019
4444 Clouds 36 999 39 8000 4.6 190 06:32 30.07.2019
4445 Clouds 35 998 41 8000 3.1 190 05:35 30.07.2019
4446 Clear 35 997 50 10000 1.5 220 03:32 30.07.2019
4447 Clear 35 997 37 10000 2.6 150 01:22 30.07.2019
4448 Clear 35 997 37 10000 2.6 130 00:27 30.07.2019
4449 Clear 36 998 37 10000 3.1 130 23:57 29.07.2019
4450 Clear 36 998 37 10000 3.1 130 23:38 29.07.2019
4451 Clear 36 998 37 10000 3.1 130 23:20 29.07.2019
4452 Clear 37 998 37 10000 2.1 140 22:54 29.07.2019
4453 Clear 37 998 37 10000 2.1 140 22:36 29.07.2019
4454 Clear 37 998 37 10000 2.1 140 22:18 29.07.2019
4455 Smoke 33 998 37 10000 2.6 30 21:41 29.07.2019
4456 Smoke 33 998 37 10000 2.6 30 21:23 29.07.2019
4457 Clear 37 998 37 10000 3.1 340 20:57 29.07.2019
4458 Clear 37 998 37 10000 3.1 340 20:38 29.07.2019
4459 Clear 37 998 37 10000 3.1 340 20:19 29.07.2019
4460 Clear 37 997 39 10000 3.6 340 19:43 29.07.2019
4461 Clear 37 997 39 10000 3.6 340 19:22 29.07.2019
4462 Clear 38 997 37 10000 4.6 320 18:55 29.07.2019
4463 Clear 38 997 37 10000 4.6 320 18:36 29.07.2019
4464 Clear 38 997 37 10000 4.6 320 18:18 29.07.2019
4465 Clear 39 996 37 8000 6.7 310 17:46 29.07.2019
4466 Clear 39 996 37 8000 6.7 310 17:26 29.07.2019
4467 Clear 39 996 40 7000 7.2 310 16:46 29.07.2019
4468 Clear 39 996 40 7000 7.2 310 16:26 29.07.2019
4469 Dust 41 996 38 7000 7.7 320 15:54 29.07.2019
4470 Dust 41 996 38 7000 7.7 320 15:35 29.07.2019
4471 Dust 41 996 32 9000 8.7 320 14:57 29.07.2019
4472 Dust 41 996 32 9000 8.7 320 14:39 29.07.2019
4473 Dust 41 996 32 9000 8.7 320 14:21 29.07.2019
4474 Dust 42 997 25 10000 7.7 300 13:44 29.07.2019
4475 Dust 42 997 25 10000 7.7 300 13:23 29.07.2019
4476 Clear 43 997 27 10000 6.7 290 12:45 29.07.2019
4477 Clear 43 997 27 10000 6.7 290 12:26 29.07.2019
4478 Clear 43 997 27 10000 6.2 290 11:45 29.07.2019
4479 Clear 43 997 27 10000 6.2 290 11:24 29.07.2019
4480 Clear 43 998 27 10000 3.1 0 10:59 29.07.2019
4481 Clear 43 998 27 10000 3.1 0 10:40 29.07.2019
4482 Clear 43 998 27 10000 3.1 0 10:21 29.07.2019
4483 Clear 42 999 30 10000 4.6 230 09:41 29.07.2019
4484 Clear 42 999 30 10000 4.6 230 09:21 29.07.2019
4485 Clear 40 999 35 8000 5.1 220 08:42 29.07.2019
4486 Clear 40 999 35 8000 5.1 220 08:22 29.07.2019
4487 Clear 39 999 35 8000 5.1 200 07:45 29.07.2019
4488 Clear 39 999 35 8000 5.1 200 07:24 29.07.2019
4489 Clear 36 999 37 8000 3.6 190 05:52 29.07.2019
4490 Clear 36 998 44 8000 3.1 180 04:59 29.07.2019
4491 Clear 35 996 47 9000 3.1 110 02:28 29.07.2019
4492 Clear 36 996 45 8000 2.6 90 01:46 29.07.2019
4493 Clouds 36 996 45 8000 2.6 90 01:24 29.07.2019
4494 Clear 36 996 45 10000 3.1 90 00:50 29.07.2019
4495 Clear 36 996 45 10000 3.1 90 00:22 29.07.2019
4496 Clear 37 996 45 10000 4.6 120 23:41 28.07.2019
4497 Clear 37 996 45 10000 4.6 120 23:19 28.07.2019
4498 Dust 37 997 37 8000 5.1 120 22:42 28.07.2019
4499 Dust 37 997 37 8000 5.1 120 22:23 28.07.2019
4500 Dust 38 997 33 7000 4.1 100 21:50 28.07.2019
4501 Dust 38 997 33 7000 4.1 100 21:19 28.07.2019
4502 Dust 38 997 33 7000 3.1 90 20:49 28.07.2019
4503 Dust 38 997 33 7000 3.1 90 20:30 28.07.2019
4504 Dust 38 997 37 7000 3.6 80 19:56 28.07.2019
4505 Dust 38 997 37 7000 3.6 80 19:38 28.07.2019
4506 Dust 38 997 37 7000 3.6 80 19:20 28.07.2019
4507 Dust 39 996 37 7000 4.1 70 18:44 28.07.2019
4508 Dust 39 996 37 7000 4.1 70 18:25 28.07.2019
4509 Dust 39 996 38 5000 3.1 20 17:43 28.07.2019
4510 Dust 39 996 38 5000 3.1 20 17:22 28.07.2019
4511 Dust 39 996 38 5000 3.1 20 17:22 28.07.2019
4512 Dust 40 995 33 5000 4.6 340 16:59 28.07.2019
4513 Dust 40 995 33 5000 4.6 340 16:40 28.07.2019
4514 Dust 40 995 33 5000 4.6 340 16:22 28.07.2019
4515 Dust 40 995 35 6000 5.7 350 15:43 28.07.2019
4516 Dust 40 995 35 6000 5.7 350 15:22 28.07.2019
4517 Dust 41 996 40 6000 5.1 350 14:38 28.07.2019
4518 Dust 41 996 40 6000 5.1 350 14:20 28.07.2019
4519 Dust 41 996 43 6000 6.7 340 13:55 28.07.2019
4520 Dust 42 996 43 6000 6.7 340 13:36 28.07.2019
4521 Dust 42 996 43 6000 6.7 340 13:18 28.07.2019
4522 Dust 42 996 43 5000 6.7 340 12:40 28.07.2019
4523 Dust 42 996 43 5000 6.7 340 12:22 28.07.2019
4524 Clear 42 997 36 6000 5.7 300 11:48 28.07.2019
4525 Clear 42 997 25 6000 4.6 260 11:27 28.07.2019
4526 Clear 42 998 30 6000 5.1 240 10:42 28.07.2019
4527 Clear 42 998 30 6000 5.1 240 10:22 28.07.2019
4528 Dust 40 998 30 5000 5.7 190 09:54 28.07.2019
4529 Dust 40 998 30 5000 5.7 190 09:36 28.07.2019
4530 Dust 39 998 35 5000 5.7 180 09:18 28.07.2019
4531 Dust 39 998 35 5000 5.7 180 08:41 28.07.2019
4532 Dust 39 998 35 5000 5.7 180 08:18 28.07.2019
4533 Dust 38 998 37 6000 5.7 180 07:38 28.07.2019
4534 Dust 36 998 39 10000 4.6 180 06:46 28.07.2019
4535 Dust 35 997 37 10000 4.1 160 05:53 28.07.2019
4536 Clear 33 996 39 8000 3.6 130 03:39 28.07.2019
4537 Dust 33 996 44 8000 3.6 140 02:24 28.07.2019
4538 Dust 33 995 44 8000 4.6 130 01:21 28.07.2019
4539 Dust 33 995 41 6000 2.6 100 00:47 28.07.2019
4540 Dust 33 995 41 6000 2.6 100 00:22 28.07.2019
4541 Dust 33 996 37 6000 1.5 90 23:46 27.07.2019
4542 Dust 33 996 37 6000 1.5 90 23:22 27.07.2019
4543 Dust 34 996 37 6000 2.1 70 22:42 27.07.2019
4544 Dust 34 996 37 6000 2.1 70 22:22 27.07.2019
4545 Dust 34 996 37 6000 2.1 70 22:22 27.07.2019
4546 Dust 34 996 41 6000 3.1 70 21:41 27.07.2019
4547 Dust 34 996 41 6000 3.1 70 21:20 27.07.2019
4548 Dust 35 996 47 6000 5.1 70 20:52 27.07.2019
4549 Dust 35 996 47 6000 5.1 70 20:26 27.07.2019
4550 Dust 36 996 44 7000 3.6 60 19:56 27.07.2019
4551 Dust 36 996 44 7000 3.6 60 19:38 27.07.2019
4552 Dust 36 996 44 7000 3.6 60 19:18 27.07.2019
4553 Dust 37 995 44 8000 3.1 350 18:42 27.07.2019
4554 Dust 37 995 44 8000 3.1 350 18:24 27.07.2019
4555 Dust 39 995 37 8000 5.7 340 17:42 27.07.2019
4556 Dust 39 995 37 8000 5.7 340 17:42 27.07.2019
4557 Dust 39 995 37 8000 5.7 340 17:23 27.07.2019
4558 Clear 41 994 19 10000 5.1 280 16:50 27.07.2019
4559 Clear 41 994 19 10000 5.1 280 16:32 27.07.2019
4560 Clear 42 994 20 8000 4.1 280 15:54 27.07.2019
4561 Clouds 42 994 20 8000 4.1 280 15:24 27.07.2019
4562 Dust 43 994 22 6000 5.1 290 14:51 27.07.2019
4563 Dust 43 994 22 6000 5.1 290 14:32 27.07.2019
4564 Dust 43 994 22 5000 6.7 280 13:58 27.07.2019
4565 Dust 43 994 22 5000 6.7 280 13:39 27.07.2019
4566 Dust 43 994 22 5000 6.7 280 13:19 27.07.2019
4567 Dust 42 995 23 5000 6.2 230 12:42 27.07.2019
4568 Dust 42 995 23 5000 6.2 230 12:22 27.07.2019
4569 Dust 42 995 22 4500 6.7 230 11:44 27.07.2019
4570 Dust 42 995 22 4500 6.7 230 11:25 27.07.2019
4571 Dust 41 996 28 3500 6.7 230 10:43 27.07.2019
4572 Dust 41 996 28 3500 6.7 230 10:24 27.07.2019
4573 Dust 40 996 31 3700 7.7 220 09:59 27.07.2019
4574 Dust 40 996 31 3700 7.7 220 09:39 27.07.2019
4575 Dust 40 996 31 3700 7.7 220 09:39 27.07.2019
4576 Dust 40 996 31 3700 7.7 220 09:20 27.07.2019
4577 Dust 38 997 37 3500 7.2 210 08:42 27.07.2019
4578 Dust 38 997 37 3500 7.2 210 08:24 27.07.2019
4579 Dust 36 997 39 3000 5.7 190 07:42 27.07.2019
4580 Dust 36 997 39 3000 5.7 190 07:22 27.07.2019
4581 Dust 35 997 44 2700 5.7 180 06:52 27.07.2019
4582 Dust 35 996 47 3500 4.6 190 06:25 27.07.2019
4583 Clouds 32 996 59 8000 3.1 160 05:37 27.07.2019
4584 Clouds 31 995 59 8000 2.1 80 04:51 27.07.2019
4585 Clear 31 995 59 10000 1.5 230 03:50 27.07.2019
4586 Clear 31 995 59 10000 2.6 180 02:43 27.07.2019
4587 Clear 33 995 66 10000 2.6 180 01:59 27.07.2019
4588 Clear 33 995 66 10000 2.6 180 01:36 27.07.2019
4589 Clear 33 995 66 10000 3.1 200 00:41 27.07.2019
4590 Clear 33 995 66 10000 3.1 200 00:22 27.07.2019
4591 Clouds 34 995 63 9000 2.6 240 23:44 26.07.2019
4592 Clouds 34 995 63 9000 2.6 240 23:44 26.07.2019
4593 Clouds 34 995 63 9000 2.6 240 23:44 26.07.2019
4594 Clouds 34 995 63 9000 2.6 240 23:26 26.07.2019
4595 Clear 34 995 59 10000 2.1 250 22:43 26.07.2019
4596 Clear 34 995 59 10000 2.1 250 22:25 26.07.2019
4597 Clear 35 995 59 10000 2.6 240 21:52 26.07.2019
4598 Clear 35 995 59 10000 2.6 240 21:21 26.07.2019
4599 Clear 35 995 53 10000 3.1 250 20:52 26.07.2019
4600 Clear 35 995 53 10000 3.1 250 20:33 26.07.2019
4601 Clouds 36 995 47 9000 3.6 280 19:57 26.07.2019
4602 Clouds 36 995 47 9000 3.6 280 19:38 26.07.2019
4603 Clouds 36 995 47 9000 3.6 280 19:20 26.07.2019
4604 Clouds 36 995 47 9000 3.1 280 18:44 26.07.2019
4605 Clouds 36 995 47 9000 3.1 280 18:21 26.07.2019
4606 Clouds 37 995 45 7000 4.6 290 17:57 26.07.2019
4607 Clouds 37 995 45 7000 4.6 290 17:38 26.07.2019
4608 Clouds 37 995 45 7000 4.6 290 17:18 26.07.2019
4609 Clouds 39 994 40 6000 6.7 300 16:55 26.07.2019
4610 Clouds 39 994 40 6000 6.7 300 16:36 26.07.2019
4611 Clouds 39 994 40 6000 6.7 300 16:18 26.07.2019
4612 Clouds 40 994 35 7000 6.7 290 15:44 26.07.2019
4613 Clouds 40 994 35 7000 6.7 290 15:22 26.07.2019
4614 Clouds 41 995 32 7000 6.2 290 14:46 26.07.2019
4615 Clouds 41 995 32 7000 6.2 290 14:25 26.07.2019
4616 Dust 41 995 40 4500 6.2 290 13:56 26.07.2019
4617 Dust 41 995 40 4500 6.2 290 13:36 26.07.2019
4618 Dust 41 995 40 4500 6.2 290 13:18 26.07.2019
4619 Dust 41 996 38 5000 6.2 280 12:42 26.07.2019
4620 Dust 41 996 38 5000 6.2 280 12:18 26.07.2019
4621 Dust 41 997 34 6000 4.6 240 11:38 26.07.2019
4622 Dust 41 997 34 6000 4.6 240 11:19 26.07.2019
4623 Dust 40 997 37 5000 6.2 250 10:47 26.07.2019
4624 Dust 40 997 37 5000 6.2 250 10:28 26.07.2019
4625 Dust 38 998 42 5000 5.1 200 09:53 26.07.2019
4626 Dust 38 998 42 5000 5.1 200 09:34 26.07.2019
4627 Dust 37 998 44 5000 5.7 210 08:42 26.07.2019
4628 Dust 37 998 44 5000 5.7 210 08:21 26.07.2019
4629 Dust 35 998 47 4500 5.1 200 07:54 26.07.2019
4630 Dust 35 998 47 4500 5.1 200 07:27 26.07.2019
4631 Dust 34 998 50 8000 6.2 190 06:41 26.07.2019
4632 Clear 34 997 52 10000 3.6 220 04:50 26.07.2019
4633 Clear 34 997 52 10000 3.6 220 04:21 26.07.2019
4634 Clear 34 997 50 10000 2.1 210 02:39 26.07.2019
4635 Clear 34 997 56 10000 3.6 160 01:35 26.07.2019
4636 Clear 34 997 56 10000 4.1 140 00:39 26.07.2019
4637 Clear 34 997 50 10000 2.6 130 23:55 25.07.2019
4638 Clear 34 997 50 10000 2.6 130 23:23 25.07.2019
4639 Clear 35 997 50 10000 2.1 50 22:55 25.07.2019
4640 Clear 35 997 50 10000 2.1 50 22:36 25.07.2019
4641 Clear 35 997 50 10000 2.1 50 22:18 25.07.2019
4642 Clear 35 998 50 10000 1 0 21:42 25.07.2019
4643 Clear 35 998 50 10000 1 0 21:21 25.07.2019
4644 Clear 36 998 50 10000 3.1 250 20:47 25.07.2019
4645 Clear 36 998 50 10000 3.1 250 20:22 25.07.2019
4646 Clear 36 997 50 10000 2.6 260 19:44 25.07.2019
4647 Clear 36 997 50 10000 2.6 260 19:25 25.07.2019
4648 Clear 36 997 50 10000 4.1 270 18:56 25.07.2019
4649 Clear 36 997 50 10000 4.1 270 18:38 25.07.2019
4650 Clear 36 997 50 10000 4.1 270 18:19 25.07.2019
4651 Clear 37 997 47 10000 5.1 300 17:40 25.07.2019
4652 Clear 37 997 47 10000 5.1 300 17:22 25.07.2019
4653 Clouds 37 997 50 9000 6.7 320 16:43 25.07.2019
4654 Clouds 37 997 50 9000 6.7 320 16:25 25.07.2019
4655 Clouds 38 997 47 8000 7.7 320 15:51 25.07.2019
4656 Clouds 38 997 47 8000 7.7 320 15:21 25.07.2019
4657 Clear 38 997 45 10000 6.7 320 14:56 25.07.2019
4658 Clear 38 997 45 10000 6.7 320 14:38 25.07.2019
4659 Clear 38 997 45 10000 6.7 320 14:18 25.07.2019
4660 Clouds 40 998 40 9000 5.1 300 13:40 25.07.2019
4661 Clouds 40 998 40 9000 5.1 300 13:22 25.07.2019
4662 Clouds 39 998 40 9000 5.1 280 12:35 25.07.2019
4663 Clouds 39 999 40 9000 3.1 280 11:59 25.07.2019
4664 Clouds 39 999 40 9000 3.1 280 11:40 25.07.2019
4665 Clouds 39 999 40 9000 3.1 280 11:22 25.07.2019
4666 Clouds 37 1000 44 8000 3.6 270 10:45 25.07.2019
4667 Clouds 37 1000 44 8000 3.6 270 10:24 25.07.2019
4668 Clouds 36 1000 47 8000 3.1 190 09:46 25.07.2019
4669 Clouds 36 1000 47 8000 3.1 190 09:27 25.07.2019
4670 Clouds 36 1000 47 8000 3.1 190 09:27 25.07.2019
4671 Clouds 35 1000 50 7000 4.1 200 08:53 25.07.2019
4672 Clouds 35 1000 50 7000 4.1 200 08:32 25.07.2019
4673 Clouds 34 1000 52 7000 4.6 200 07:40 25.07.2019
4674 Clouds 33 1000 55 7000 5.7 190 06:46 25.07.2019
4675 Clouds 33 1000 55 7000 5.7 190 06:20 25.07.2019
4676 Dust 33 1000 52 6000 6.7 190 05:36 25.07.2019
4677 Dust 33 999 49 4000 5.1 180 04:45 25.07.2019
4678 Dust 35 998 41 10000 5.7 110 02:26 25.07.2019
4679 Dust 35 998 39 10000 4.6 80 01:21 25.07.2019
4680 Clear 35 998 39 10000 4.6 100 00:31 25.07.2019
4681 Clear 35 998 44 10000 4.6 80 23:56 24.07.2019
4682 Clear 35 998 44 10000 4.6 80 23:38 24.07.2019
4683 Clear 35 998 44 10000 4.6 80 23:19 24.07.2019
4684 Clear 36 998 39 10000 3.6 90 22:44 24.07.2019
4685 Clear 36 998 39 10000 3.6 90 22:22 24.07.2019
4686 Clear 36 998 42 10000 3.6 80 21:55 24.07.2019
4687 Clear 36 998 42 10000 3.6 80 21:37 24.07.2019
4688 Clear 36 998 42 10000 3.6 80 21:18 24.07.2019
4689 Clear 36 998 44 10000 3.6 80 20:40 24.07.2019
4690 Clear 36 998 44 10000 3.6 80 20:22 24.07.2019
4691 Clear 36 997 47 10000 4.1 30 19:57 24.07.2019
4692 Clear 36 997 47 10000 4.1 30 19:39 24.07.2019
4693 Clear 36 997 47 10000 4.1 30 19:19 24.07.2019
4694 Clear 37 997 47 10000 4.1 10 18:42 24.07.2019
4695 Clear 37 997 47 10000 4.1 10 18:23 24.07.2019
4696 Clear 37 996 47 10000 3.6 10 17:46 24.07.2019
4697 Clear 37 996 47 10000 3.6 10 17:20 24.07.2019
4698 Clear 37 996 47 10000 4.6 20 16:43 24.07.2019
4699 Clear 37 996 47 10000 4.6 20 16:23 24.07.2019
4700 Dust 38 996 50 10000 5.1 20 15:59 24.07.2019
4701 Dust 38 996 50 10000 5.1 20 15:36 24.07.2019
4702 Dust 38 996 50 10000 5.1 20 15:18 24.07.2019
4703 Dust 38 996 53 10000 6.2 350 14:43 24.07.2019
4704 Dust 38 996 53 10000 6.2 350 14:19 24.07.2019
4705 Dust 39 996 56 8000 7.2 350 13:39 24.07.2019
4706 Dust 39 996 56 8000 7.2 350 13:19 24.07.2019
4707 Clouds 40 997 45 6000 7.2 350 12:51 24.07.2019
4708 Clouds 40 997 45 6000 7.2 350 12:33 24.07.2019
4709 Clouds 40 997 45 6000 6.7 320 11:40 24.07.2019
4710 Clouds 40 997 45 6000 6.7 320 11:21 24.07.2019
4711 Clear 41 997 34 10000 2.6 150 10:46 24.07.2019
4712 Clear 41 997 34 10000 2.6 150 10:26 24.07.2019
4713 Clear 39 998 40 10000 3.1 0 09:52 24.07.2019
4714 Clear 39 998 40 10000 3.1 0 09:26 24.07.2019
4715 Dust 37 998 47 10000 3.1 140 08:58 24.07.2019
4716 Dust 36 998 50 10000 3.1 0 08:35 24.07.2019
4717 Dust 36 998 50 10000 3.1 0 07:52 24.07.2019
4718 Dust 36 998 50 10000 3.1 0 07:31 24.07.2019
4719 Dust 35 998 50 10000 6.2 120 06:49 24.07.2019
4720 Dust 35 998 50 10000 6.2 120 06:23 24.07.2019
4721 Clear 33 996 56 10000 6.2 110 02:56 24.07.2019
4722 Clear 34 996 52 10000 6.2 110 01:44 24.07.2019
4723 Clear 34 997 50 10000 5.1 90 00:57 24.07.2019
4724 Clear 34 997 50 10000 5.1 90 00:24 24.07.2019
4725 Clear 35 997 44 10000 4.1 70 23:46 23.07.2019
4726 Clear 35 997 44 10000 4.1 70 23:25 23.07.2019
4727 Clear 36 997 50 10000 5.1 80 22:56 23.07.2019
4728 Clear 36 997 50 10000 5.1 80 22:36 23.07.2019
4729 Clear 36 997 50 10000 5.1 80 22:18 23.07.2019
4730 Clear 36 997 42 10000 4.6 70 21:42 23.07.2019
4731 Clear 36 997 42 10000 4.6 70 21:23 23.07.2019
4732 Clear 36 997 47 10000 5.7 60 20:48 23.07.2019
4733 Clear 36 997 47 10000 5.7 60 20:27 23.07.2019
4734 Clear 37 996 50 10000 4.6 50 19:43 23.07.2019
4735 Clear 37 996 50 10000 4.6 50 19:24 23.07.2019
4736 Clear 37 996 53 10000 4.6 40 18:53 23.07.2019
4737 Clear 37 996 53 10000 4.6 40 18:25 23.07.2019
4738 Dust 37 995 50 9000 5.1 20 17:58 23.07.2019
4739 Dust 37 995 50 9000 5.1 20 17:40 23.07.2019
4740 Dust 37 995 50 9000 5.1 20 17:20 23.07.2019
4741 Dust 38 994 45 8000 4.6 20 16:41 23.07.2019
4742 Dust 38 994 45 8000 4.6 20 16:22 23.07.2019
4743 Dust 39 995 45 7000 4.1 10 15:47 23.07.2019
4744 Dust 39 995 45 7000 4.1 10 15:27 23.07.2019
4745 Dust 39 995 48 8000 5.1 360 14:41 23.07.2019
4746 Dust 39 995 48 8000 5.1 360 14:22 23.07.2019
4747 Dust 40 995 40 7000 4.6 20 13:59 23.07.2019
4748 Dust 40 995 40 7000 4.6 20 13:40 23.07.2019
4749 Dust 40 995 40 7000 4.6 20 13:22 23.07.2019
4750 Clear 40 996 45 6000 6.7 350 12:48 23.07.2019
4751 Clear 40 996 45 6000 6.7 350 12:26 23.07.2019
4752 Clear 41 996 38 6000 7.7 340 11:51 23.07.2019
4753 Clear 41 996 38 6000 7.7 340 11:32 23.07.2019
4754 Clear 40 996 32 9000 3.1 230 10:59 23.07.2019
4755 Clear 40 996 32 9000 3.1 230 10:41 23.07.2019
4756 Clear 40 996 32 9000 3.1 230 10:21 23.07.2019
4757 Clear 40 997 35 9000 3.6 200 09:41 23.07.2019
4758 Clear 40 997 35 9000 3.6 200 09:19 23.07.2019
4759 Clear 38 997 37 8000 4.6 160 08:43 23.07.2019
4760 Clear 38 997 37 8000 4.6 160 08:19 23.07.2019
4761 Dust 36 997 39 10000 6.2 160 07:55 23.07.2019
4762 Dust 36 997 39 10000 6.2 160 07:36 23.07.2019
4763 Dust 35 997 53 8000 7.2 130 06:48 23.07.2019
4764 Dust 35 997 53 8000 7.2 130 06:29 23.07.2019
4765 Clear 34 995 59 10000 3.6 100 03:27 23.07.2019
4766 Clear 34 995 56 10000 3.6 80 01:33 23.07.2019
4767 Clear 34 995 59 9000 3.6 0 00:31 23.07.2019
4768 Clear 34 995 59 9000 3.1 60 23:56 22.07.2019
4769 Clear 34 995 59 9000 3.1 60 23:36 22.07.2019
4770 Clear 34 995 59 9000 3.1 60 23:18 22.07.2019
4771 Clear 35 995 63 8000 3.6 70 22:42 22.07.2019
4772 Clear 35 995 63 8000 3.6 70 22:21 22.07.2019
4773 Clear 35 996 63 8000 2.6 70 21:43 22.07.2019
4774 Clear 35 996 63 8000 2.6 70 21:23 22.07.2019
4775 Clear 35 996 67 8000 3.6 40 20:50 22.07.2019
4776 Clear 35 996 67 8000 3.6 40 20:32 22.07.2019
4777 Clear 36 996 67 8000 3.1 360 19:57 22.07.2019
4778 Clear 36 996 67 8000 3.1 360 19:37 22.07.2019
4779 Clear 36 996 67 8000 3.1 360 19:18 22.07.2019
4780 Dust 36 995 67 8000 4.6 350 18:44 22.07.2019
4781 Dust 36 995 67 8000 4.6 350 18:26 22.07.2019
4782 Dust 37 995 60 6000 4.1 360 17:44 22.07.2019
4783 Dust 37 995 60 6000 4.1 360 17:26 22.07.2019
4784 Dust 38 994 57 6000 5.1 330 16:58 22.07.2019
4785 Dust 38 994 57 6000 5.1 330 16:38 22.07.2019
4786 Dust 38 994 57 6000 5.1 330 16:18 22.07.2019
4787 Dust 39 994 51 6000 5.1 330 15:43 22.07.2019
4788 Dust 39 994 51 6000 5.1 330 15:19 22.07.2019
4789 Dust 40 995 43 6000 5.7 320 14:44 22.07.2019
4790 Dust 40 995 43 6000 5.7 320 14:22 22.07.2019
4791 Dust 39 995 48 5000 5.7 320 13:50 22.07.2019
4792 Dust 39 995 48 5000 5.7 320 13:30 22.07.2019
4793 Dust 40 996 43 4500 6.7 320 12:50 22.07.2019
4794 Dust 40 996 43 4500 6.7 320 12:31 22.07.2019
4795 Dust 41 996 43 4500 5.7 10 11:46 22.07.2019
4796 Dust 41 996 43 4500 5.7 10 11:27 22.07.2019
4797 Clear 41 997 36 7000 2.1 0 10:59 22.07.2019
4798 Clear 41 997 36 7000 2.1 0 10:33 22.07.2019
4799 Dust 39 997 37 6000 3.1 180 09:46 22.07.2019
4800 Dust 39 997 37 6000 3.1 180 09:26 22.07.2019
4801 Dust 38 998 42 6000 5.1 150 08:59 22.07.2019
4802 Dust 38 998 42 6000 5.1 150 08:37 22.07.2019
4803 Dust 38 998 42 6000 5.1 150 08:18 22.07.2019
4804 Dust 37 998 50 6000 6.2 140 07:46 22.07.2019
4805 Dust 37 998 50 6000 6.2 140 07:27 22.07.2019
4806 Clear 33 997 63 10000 3.6 110 04:56 22.07.2019
4807 Clear 34 997 59 10000 3.1 70 02:58 22.07.2019
4808 Clouds 35 997 50 8000 3.1 40 00:58 22.07.2019
4809 Clouds 35 997 50 8000 3.1 40 00:38 22.07.2019
4810 Clouds 35 997 50 8000 3.1 40 00:18 22.07.2019
4811 Clouds 35 998 50 8000 3.6 60 23:43 21.07.2019
4812 Clouds 35 998 56 8000 2.6 340 22:57 21.07.2019
4813 Clouds 35 998 56 8000 2.6 340 22:38 21.07.2019
4814 Clouds 35 998 56 8000 2.6 340 22:20 21.07.2019
4815 Clouds 36 998 56 8000 2.6 340 21:48 21.07.2019
4816 Clear 36 998 56 8000 2.6 340 21:25 21.07.2019
4817 Clear 36 998 56 8000 3.6 340 20:56 21.07.2019
4818 Clear 36 998 56 8000 3.6 340 20:38 21.07.2019
4819 Clear 36 998 56 8000 3.6 340 20:20 21.07.2019
4820 Clear 36 997 50 8000 3.6 360 19:47 21.07.2019
4821 Clear 36 997 50 8000 3.6 360 19:26 21.07.2019
4822 Clear 37 997 50 8000 3.6 340 18:48 21.07.2019
4823 Clear 37 997 50 8000 3.6 340 18:26 21.07.2019
4824 Clear 37 997 50 8000 3.6 340 18:26 21.07.2019
4825 Clear 37 996 53 6000 4.1 340 17:44 21.07.2019
4826 Clear 37 996 53 6000 4.1 340 17:21 21.07.2019
4827 Clear 38 996 47 6000 4.6 330 16:59 21.07.2019
4828 Clear 38 996 47 6000 4.6 330 16:40 21.07.2019
4829 Clear 38 996 47 6000 4.6 330 16:20 21.07.2019
4830 Clear 38 996 47 6000 5.7 330 15:39 21.07.2019
4831 Clear 38 996 47 6000 5.7 330 15:19 21.07.2019
4832 Dust 39 996 50 5000 5.7 350 14:42 21.07.2019
4833 Dust 39 996 50 5000 5.7 350 14:23 21.07.2019
4834 Dust 39 997 40 5000 6.2 340 13:53 21.07.2019
4835 Dust 39 997 40 5000 6.2 340 13:32 21.07.2019
4836 Dust 41 998 36 5000 5.7 330 12:46 21.07.2019
4837 Dust 41 998 36 5000 5.7 330 12:28 21.07.2019
4838 Dust 41 998 34 5000 5.7 330 11:55 21.07.2019
4839 Dust 41 998 34 5000 5.7 330 11:37 21.07.2019
4840 Dust 41 998 34 5000 5.7 330 11:18 21.07.2019
4841 Clear 34 999 63 0 2.81 358.388 10:41 21.07.2019
4842 Clear 40 999 29 6000 3.1 170 10:22 21.07.2019
4843 Clear 40 999 29 6000 3.1 170 09:42 21.07.2019
4844 Clear 40 999 29 6000 3.1 170 09:24 21.07.2019
4845 Clear 39 1000 31 7000 4.1 190 08:45 21.07.2019
4846 Clear 39 1000 31 7000 4.1 190 08:26 21.07.2019
4847 Clear 37 1000 35 7000 3.6 190 07:39 21.07.2019
4848 Clear 35 1000 41 7000 5.1 170 06:52 21.07.2019
4849 Clear 34 999 59 8000 5.1 160 05:43 21.07.2019
4850 Clear 33 998 59 10000 3.6 100 02:52 21.07.2019
4851 Clear 33 998 56 10000 2.6 90 01:19 21.07.2019
4852 Clear 34 998 56 10000 3.6 100 00:40 21.07.2019
4853 Clear 34 998 56 10000 3.6 100 00:18 21.07.2019
4854 Clear 35 998 53 10000 4.1 110 23:40 20.07.2019
4855 Clear 35 998 53 10000 4.1 110 23:21 20.07.2019
4856 Clear 35 998 56 10000 4.1 80 22:44 20.07.2019
4857 Clear 35 998 56 10000 4.1 80 22:22 20.07.2019
4858 Clear 35 998 47 10000 4.1 60 21:46 20.07.2019
4859 Clear 35 998 47 10000 4.1 60 21:28 20.07.2019
4860 Clear 37 998 35 10000 4.1 50 20:57 20.07.2019
4861 Clear 37 998 35 10000 4.1 50 20:38 20.07.2019
4862 Clear 37 998 35 10000 4.1 50 20:18 20.07.2019
4863 Clear 37 998 35 10000 4.1 50 20:18 20.07.2019
4864 Clear 37 997 37 10000 3.1 30 19:44 20.07.2019
4865 Clear 37 997 37 10000 3.1 30 19:19 20.07.2019
4866 Clear 37 997 45 10000 3.1 30 18:41 20.07.2019
4867 Clear 37 997 45 10000 3.1 30 18:20 20.07.2019
4868 Dust 38 997 40 10000 4.1 10 17:51 20.07.2019
4869 Dust 38 997 40 10000 4.1 10 17:23 20.07.2019
4870 Dust 39 996 42 10000 6.2 20 16:44 20.07.2019
4871 Dust 39 996 42 10000 6.2 20 16:26 20.07.2019
4872 Dust 40 996 45 8000 6.7 20 15:57 20.07.2019
4873 Dust 40 996 45 8000 6.7 20 15:38 20.07.2019
4874 Dust 40 996 45 8000 6.7 20 15:19 20.07.2019
4875 Dust 40 996 48 6000 7.2 10 14:47 20.07.2019
4876 Dust 40 996 48 6000 7.2 10 14:22 20.07.2019
4877 Dust 41 997 48 5000 7.2 10 13:39 20.07.2019
4878 Dust 41 997 48 5000 7.2 10 13:20 20.07.2019
4879 Dust 41 997 48 5000 7.2 10 13:20 20.07.2019
4880 Dust 42 997 32 10000 4.6 60 12:54 20.07.2019
4881 Dust 42 997 32 10000 4.6 60 12:21 20.07.2019
4882 Clear 42 998 38 9000 4.6 60 11:57 20.07.2019
4883 Clear 42 998 38 9000 4.6 60 11:24 20.07.2019
4884 Clear 41 998 38 9000 4.6 90 10:55 20.07.2019
4885 Clear 41 998 38 9000 4.6 90 10:36 20.07.2019
4886 Clear 41 998 38 9000 4.6 90 10:18 20.07.2019
4887 Clear 40 999 42 7000 4.6 110 09:45 20.07.2019
4888 Clear 40 999 42 7000 4.6 110 09:18 20.07.2019
4889 Dust 38 999 47 5000 7.7 120 08:44 20.07.2019
4890 Dust 38 999 47 5000 7.7 120 08:20 20.07.2019
4891 Dust 37 999 56 5000 8.7 120 07:20 20.07.2019
4892 Dust 35 999 59 6000 9.3 120 06:41 20.07.2019
4893 Clear 33 998 59 8000 5.7 110 04:31 20.07.2019
4894 Clear 33 997 67 10000 5.7 90 03:28 20.07.2019
4895 Clear 34 997 53 10000 4.1 50 01:21 20.07.2019
4896 Clear 34 997 53 10000 4.1 50 01:21 20.07.2019
4897 Clear 35 997 50 10000 3.1 60 00:46 20.07.2019
4898 Clear 35 997 50 10000 3.1 60 00:21 20.07.2019
4899 Clear 35 997 44 10000 3.1 80 23:44 19.07.2019
4900 Clear 35 997 44 10000 3.1 80 23:25 19.07.2019
4901 Clear 35 997 47 10000 3.1 70 22:50 19.07.2019
4902 Clear 35 997 47 10000 3.1 70 22:26 19.07.2019
4903 Clear 36 997 47 10000 2.1 160 21:51 19.07.2019
4904 Clear 36 997 47 10000 2.1 160 21:33 19.07.2019
4905 Clear 36 997 50 10000 3.1 80 20:58 19.07.2019
4906 Clear 36 997 50 10000 3.1 80 20:38 19.07.2019
4907 Clear 36 997 50 10000 3.1 80 20:20 19.07.2019
4908 Clear 36 997 56 10000 3.1 20 19:35 19.07.2019
4909 Clear 36 997 56 10000 2.1 20 18:43 19.07.2019
4910 Clear 36 997 56 10000 2.1 20 18:25 19.07.2019
4911 Clear 37 996 53 10000 5.1 30 17:56 19.07.2019
4912 Clear 37 996 53 10000 5.1 30 17:29 19.07.2019
4913 Clear 38 995 50 10000 5.1 20 16:57 19.07.2019
4914 Clear 38 995 50 10000 5.1 20 16:39 19.07.2019
4915 Clear 38 995 50 10000 5.1 20 16:39 19.07.2019
4916 Clear 38 995 50 10000 5.1 20 16:18 19.07.2019
4917 Dust 38 995 50 10000 5.7 20 15:43 19.07.2019
4918 Dust 38 995 50 10000 5.7 20 15:24 19.07.2019
4919 Dust 39 994 48 9000 7.2 20 14:45 19.07.2019
4920 Dust 39 994 48 9000 7.2 20 14:25 19.07.2019
4921 Dust 40 995 45 8000 7.2 360 13:47 19.07.2019
4922 Dust 40 995 45 8000 7.2 360 13:27 19.07.2019
4923 Dust 41 995 45 7000 6.7 10 12:58 19.07.2019
4924 Dust 41 996 32 10000 3.1 0 12:38 19.07.2019
4925 Dust 41 996 32 10000 3.1 0 12:19 19.07.2019
4926 Dust 41 997 38 3500 5.7 340 11:45 19.07.2019
4927 Clear 41 996 36 10000 3.6 0 11:18 19.07.2019
4928 Clear 41 996 36 10000 3.6 0 11:18 19.07.2019
4929 Clear 40 997 40 10000 3.6 80 10:48 19.07.2019
4930 Clear 40 997 40 10000 3.6 80 10:23 19.07.2019
4931 Clouds 38 997 45 8000 5.1 100 09:59 19.07.2019
4932 Clouds 38 997 45 8000 5.1 100 09:41 19.07.2019
4933 Clouds 38 997 45 8000 5.1 100 09:22 19.07.2019
4934 Clouds 37 997 53 8000 6.2 110 08:49 19.07.2019
4935 Clouds 37 997 53 8000 6.2 110 08:22 19.07.2019
4936 Clouds 35 998 59 8000 5.1 100 07:29 19.07.2019
4937 Clouds 34 998 63 9000 3.6 80 06:19 19.07.2019
4938 Clear 33 996 63 10000 3.1 60 02:55 19.07.2019
4939 Clouds 33 996 71 9000 2.6 70 01:21 19.07.2019
4940 Clouds 33 996 75 9000 2.1 0 00:45 19.07.2019
4941 Clouds 34 996 71 9000 2.6 50 23:58 18.07.2019
4942 Clouds 34 996 71 9000 2.6 50 23:40 18.07.2019
4943 Clouds 34 996 71 9000 2.6 50 23:21 18.07.2019
4944 Clouds 34 996 75 9000 2.6 320 22:41 18.07.2019
4945 Clouds 34 996 75 9000 2.6 320 22:20 18.07.2019
4946 Clouds 34 997 75 9000 4.1 320 21:49 18.07.2019
4947 Clouds 34 997 75 9000 4.1 320 21:31 18.07.2019
4948 Clear 35 997 71 9000 3.6 340 20:54 18.07.2019
4949 Clear 35 997 71 9000 3.6 340 20:36 18.07.2019
4950 Clear 35 997 71 9000 3.6 340 20:18 18.07.2019
4951 Clear 35 997 71 9000 4.1 350 19:45 18.07.2019
4952 Clear 35 997 71 9000 4.1 350 19:20 18.07.2019
4953 Clear 35 996 71 9000 4.6 340 18:49 18.07.2019
4954 Clear 35 996 71 9000 4.6 340 18:21 18.07.2019
4955 Clear 36 996 63 8000 4.1 330 17:44 18.07.2019
4956 Clear 36 996 63 8000 4.1 330 17:25 18.07.2019
4957 Clear 36 995 63 8000 5.7 340 16:58 18.07.2019
4958 Clear 36 995 63 8000 5.7 340 16:40 18.07.2019
4959 Clear 36 995 63 8000 5.7 340 16:19 18.07.2019
4960 Clear 36 995 60 7000 6.2 350 15:53 18.07.2019
4961 Clear 36 995 60 7000 6.2 350 15:34 18.07.2019
4962 Clear 37 995 53 8000 7.2 350 14:55 18.07.2019
4963 Clear 37 995 53 8000 7.2 350 14:36 18.07.2019
4964 Clear 38 996 54 8000 7.2 320 13:52 18.07.2019
4965 Clear 38 996 54 8000 7.2 320 13:31 18.07.2019
4966 Clear 38 996 53 8000 7.2 330 12:57 18.07.2019
4967 Clear 38 996 53 8000 7.2 330 12:37 18.07.2019
4968 Clear 39 997 51 8000 6.2 330 12:18 18.07.2019
4969 Clear 39 997 51 8000 6.2 330 11:47 18.07.2019
4970 Clear 39 997 51 8000 6.2 330 11:26 18.07.2019
4971 Clear 39 997 40 10000 2.6 90 10:51 18.07.2019
4972 Dust 38 999 57 5000 7.2 300 09:51 18.07.2019
4973 Clear 38 998 50 10000 3.6 70 09:27 18.07.2019
4974 Clouds 36 998 60 10000 2.6 0 08:55 18.07.2019
4975 Clouds 36 998 60 10000 2.6 0 08:25 18.07.2019
4976 Clouds 35 998 63 8000 3.6 130 07:59 18.07.2019
4977 Clouds 35 998 63 8000 3.6 130 07:36 18.07.2019
4978 Clouds 34 998 67 8000 2.1 100 06:55 18.07.2019
4979 Clouds 34 998 67 8000 2.1 100 06:30 18.07.2019
4980 Clouds 32 996 71 10000 2.6 10 03:56 18.07.2019
4981 Clouds 33 996 79 10000 3.1 360 02:51 18.07.2019
4982 Clear 33 996 75 10000 4.6 330 01:36 18.07.2019
4983 Clear 33 996 71 10000 3.6 330 00:23 18.07.2019
4984 Clear 33 996 71 10000 3.6 330 23:40 17.07.2019
4985 Clear 34 997 63 10000 4.1 320 23:18 17.07.2019
4986 Clear 34 997 63 10000 4.1 320 22:41 17.07.2019
4987 Clear 34 997 63 10000 4.1 320 22:22 17.07.2019
4988 Clear 35 997 56 10000 3.1 340 21:58 17.07.2019
4989 Clear 35 997 56 10000 3.1 340 21:38 17.07.2019
4990 Clear 35 997 56 10000 3.1 340 21:20 17.07.2019
4991 Clear 35 997 60 10000 3.6 320 20:56 17.07.2019
4992 Clear 35 997 60 10000 3.6 320 20:56 17.07.2019
4993 Clear 35 997 60 10000 3.6 320 20:38 17.07.2019
4994 Clear 36 996 56 10000 3.1 350 20:18 17.07.2019
4995 Clear 36 996 56 10000 3.1 350 19:42 17.07.2019
4996 Clear 37 996 50 10000 2.6 40 19:20 17.07.2019
4997 Clear 37 996 50 10000 2.6 40 18:45 17.07.2019
4998 Clear 37 996 56 10000 3.6 30 18:21 17.07.2019
4999 Clear 37 996 56 10000 3.6 30 17:57 17.07.2019
5000 Clear 37 996 56 10000 3.6 30 17:39 17.07.2019
5001 Clear 38 995 56 10000 3.6 350 17:20 17.07.2019
5002 Clear 38 995 56 10000 3.6 350 16:40 17.07.2019
5003 Clear 38 995 56 10000 3.6 350 16:20 17.07.2019
5004 Clear 37 995 50 9000 5.1 330 15:51 17.07.2019
5005 Clear 37 995 50 9000 5.1 330 15:31 17.07.2019
5006 Clear 38 995 50 10000 6.2 340 14:57 17.07.2019
5007 Clear 38 995 50 10000 6.2 340 14:38 17.07.2019
5008 Clear 39 996 50 8000 6.2 340 14:20 17.07.2019
5009 Clear 39 996 50 8000 6.2 340 13:49 17.07.2019
5010 Clear 39 996 50 8000 6.2 340 13:31 17.07.2019
5011 Clear 40 996 38 10000 5.1 320 12:55 17.07.2019
5012 Clear 40 996 38 10000 5.1 320 12:36 17.07.2019
5013 Clear 42 996 23 10000 2.6 220 12:18 17.07.2019
5014 Clear 42 996 23 10000 2.6 220 11:40 17.07.2019
5015 Clear 42 996 23 10000 2.6 220 11:40 17.07.2019
5016 Clear 41 997 18 10000 1.5 0 11:19 17.07.2019
5017 Clear 41 997 18 10000 1.5 0 10:43 17.07.2019
5018 Clear 39 997 26 10000 3.1 200 10:20 17.07.2019
5019 Clear 39 997 26 10000 3.1 200 09:45 17.07.2019
5020 Clear 39 997 26 10000 3.1 200 09:26 17.07.2019
5021 Clear 36 997 37 10000 2.6 180 08:44 17.07.2019
5022 Clear 35 998 50 10000 2.6 180 08:23 17.07.2019
5023 Clear 35 998 50 10000 2.6 180 07:53 17.07.2019
5024 Clear 35 998 50 10000 2.6 180 07:28 17.07.2019
5025 Clear 32 997 59 10000 2.1 160 06:59 17.07.2019
5026 Clear 32 997 59 10000 2.1 160 06:38 17.07.2019
5027 Clear 31 997 62 10000 2.1 160 06:18 17.07.2019
5028 Clear 31 997 62 10000 2.1 160 05:33 17.07.2019
5029 Clear 31 996 70 10000 2.6 190 04:56 17.07.2019
5030 Clear 31 996 70 10000 2.1 180 03:50 17.07.2019
5031 Clear 31 995 70 10000 2.6 200 02:32 17.07.2019
5032 Clear 31 995 70 10000 4.1 150 01:41 17.07.2019
5033 Clear 31 995 70 10000 4.1 150 01:21 17.07.2019
5034 Clear 32 996 70 10000 2.1 190 00:38 17.07.2019
5035 Clear 32 996 70 10000 2.1 190 00:38 17.07.2019
5036 Clear 32 996 66 10000 2.1 170 00:20 17.07.2019
5037 Clear 32 996 66 10000 2.1 170 23:44 16.07.2019
5038 Clear 32 996 66 10000 2.1 170 23:22 16.07.2019
5039 Clear 33 996 63 10000 3.1 200 22:43 16.07.2019
5040 Clear 33 996 63 10000 3.1 200 22:25 16.07.2019
5041 Clear 34 996 63 10000 3.6 200 21:57 16.07.2019
5042 Clear 34 996 63 10000 3.6 200 21:39 16.07.2019
5043 Clear 34 996 63 10000 2.6 210 21:19 16.07.2019
5044 Clear 34 996 63 10000 2.6 210 20:41 16.07.2019
5045 Clear 35 995 63 10000 3.6 230 20:23 16.07.2019
5046 Clear 35 995 63 10000 3.6 230 20:23 16.07.2019
5047 Clear 35 995 63 10000 3.6 230 19:54 16.07.2019
5048 Clear 35 995 63 10000 3.6 230 19:30 16.07.2019
5049 Clear 35 995 63 10000 4.1 280 18:59 16.07.2019
5050 Clear 35 995 63 10000 4.1 280 18:40 16.07.2019
5051 Clear 36 994 60 10000 4.6 270 18:20 16.07.2019
5052 Clear 36 994 60 10000 4.6 270 17:49 16.07.2019
5053 Clear 36 994 60 10000 4.6 270 17:49 16.07.2019
5054 Clear 36 994 60 10000 4.6 270 17:28 16.07.2019
5055 Clear 37 994 53 10000 4.6 280 16:50 16.07.2019
5056 Clear 37 994 53 10000 4.6 280 16:27 16.07.2019
5057 Clear 38 994 50 10000 4.6 280 15:57 16.07.2019
5058 Clear 38 994 50 10000 4.6 280 15:38 16.07.2019
5059 Clear 38 994 50 10000 4.6 280 15:38 16.07.2019
5060 Clear 38 994 50 10000 4.6 280 15:38 16.07.2019
5061 Clear 39 994 47 10000 6.2 290 15:19 16.07.2019
5062 Clear 39 994 47 10000 6.2 290 14:47 16.07.2019
5063 Clear 39 994 47 10000 6.2 290 14:28 16.07.2019
5064 Clear 39 994 47 10000 6.7 290 13:57 16.07.2019
5065 Clear 39 994 47 10000 6.7 290 13:37 16.07.2019
5066 Clear 39 994 50 10000 6.2 290 13:18 16.07.2019
5067 Clear 39 994 50 10000 6.2 290 12:43 16.07.2019
5068 Clear 40 995 42 10000 6.2 290 12:20 16.07.2019
5069 Clear 40 995 42 10000 6.2 290 11:54 16.07.2019
5070 Clear 40 995 42 10000 6.2 290 11:36 16.07.2019
5071 Clear 40 995 42 10000 3.6 0 11:18 16.07.2019
5072 Clear 40 995 42 10000 3.6 0 11:18 16.07.2019
5073 Clear 40 995 42 10000 3.6 0 10:43 16.07.2019
5074 Clear 40 995 42 10000 3.6 0 10:20 16.07.2019
5075 Clear 38 996 45 10000 4.1 230 09:44 16.07.2019
5076 Clear 38 996 45 10000 4.1 230 09:21 16.07.2019
5077 Clear 36 996 47 10000 4.1 220 08:49 16.07.2019
5078 Clear 36 996 47 10000 4.1 220 08:27 16.07.2019
5079 Clear 34 996 59 10000 4.6 210 07:57 16.07.2019
5080 Clear 34 996 59 10000 4.6 210 07:36 16.07.2019
5081 Clear 33 996 63 10000 4.6 210 06:59 16.07.2019
5082 Clear 33 996 63 10000 4.6 210 06:37 16.07.2019
5083 Clear 31 995 66 10000 3.6 210 05:52 16.07.2019
5084 Clear 31 995 66 10000 3.6 210 05:28 16.07.2019
5085 Clear 31 995 66 10000 4.6 200 04:36 16.07.2019
5086 Clear 31 995 66 10000 4.1 200 03:43 16.07.2019
5087 Clear 31 994 66 10000 3.6 200 02:46 16.07.2019
5088 Clear 31 994 66 10000 3.6 200 02:28 16.07.2019
5089 Clear 32 994 70 10000 4.1 200 01:26 16.07.2019
5090 Clear 32 994 66 10000 3.6 200 00:25 16.07.2019
5091 Clear 33 995 70 10000 4.1 200 23:59 15.07.2019
5092 Clear 33 995 70 10000 4.1 200 23:39 15.07.2019
5093 Clear 33 995 70 10000 4.1 200 23:20 15.07.2019
5094 Clear 33 995 67 10000 3.6 240 22:44 15.07.2019
5095 Clear 34 995 67 10000 3.6 240 22:20 15.07.2019
5096 Clear 34 995 67 10000 3.6 240 21:57 15.07.2019
5097 Clear 34 995 67 10000 3.6 240 21:39 15.07.2019
5098 Clear 34 995 67 10000 4.1 260 21:19 15.07.2019
5099 Clear 34 995 67 10000 4.1 260 20:44 15.07.2019
5100 Clear 34 995 67 10000 4.1 260 20:24 15.07.2019
5101 Clear 34 995 67 10000 5.1 260 19:57 15.07.2019
5102 Clear 34 995 67 10000 5.1 260 19:38 15.07.2019
5103 Clear 34 995 67 10000 4.6 260 19:18 15.07.2019
5104 Clear 34 995 67 10000 4.6 260 18:44 15.07.2019
5105 Clear 35 994 63 10000 4.6 270 18:21 15.07.2019
5106 Clear 35 994 63 10000 4.6 270 17:56 15.07.2019
5107 Clear 35 994 63 10000 4.6 270 17:56 15.07.2019
5108 Clear 35 994 63 10000 4.6 270 17:38 15.07.2019
5109 Clear 35 994 63 10000 4.6 270 17:20 15.07.2019
5110 Clear 36 994 56 10000 6.2 280 16:57 15.07.2019
5111 Clear 36 994 56 10000 6.2 280 16:36 15.07.2019
5112 Clear 36 994 56 10000 6.2 280 16:36 15.07.2019
5113 Clear 38 994 47 10000 4.6 270 16:18 15.07.2019
5114 Clear 38 994 47 10000 4.6 270 15:38 15.07.2019
5115 Clear 38 994 47 10000 4.6 270 15:38 15.07.2019
5116 Clear 38 995 45 10000 5.7 290 15:20 15.07.2019
5117 Clear 38 995 45 10000 5.7 290 14:55 15.07.2019
5118 Clear 38 995 45 10000 5.7 290 14:37 15.07.2019
5119 Clear 39 995 37 10000 4.6 290 14:18 15.07.2019
5120 Clear 39 995 37 10000 4.6 290 13:43 15.07.2019
5121 Clear 38 996 39 10000 5.7 290 13:18 15.07.2019
5122 Clear 38 996 39 10000 5.7 290 12:43 15.07.2019
5123 Clear 38 996 39 10000 5.7 290 12:23 15.07.2019
5124 Clear 38 996 42 10000 6.2 280 11:44 15.07.2019
5125 Clear 38 996 42 10000 6.2 280 11:26 15.07.2019
5126 Clear 37 997 50 10000 5.7 280 10:49 15.07.2019
5127 Clear 37 997 50 10000 5.7 280 10:30 15.07.2019
5128 Clear 37 997 53 10000 6.2 290 09:58 15.07.2019
5129 Clear 37 997 53 10000 6.2 290 09:39 15.07.2019
5130 Clear 36 997 53 10000 5.1 320 09:19 15.07.2019
5131 Clear 36 997 60 9000 4.6 220 08:42 15.07.2019
5132 Clear 36 997 60 9000 4.6 220 08:23 15.07.2019
5133 Dust 34 997 67 8000 5.1 210 07:41 15.07.2019
5134 Haze 33 997 75 6000 5.1 200 07:21 15.07.2019
5135 Haze 33 997 75 6000 5.1 200 06:39 15.07.2019
5136 Haze 32 996 84 3000 4.1 200 05:51 15.07.2019
5137 Haze 32 996 84 3000 4.1 200 05:51 15.07.2019
5138 Haze 32 996 84 3000 4.1 200 05:32 15.07.2019
5139 Haze 32 996 84 2500 3.6 200 04:43 15.07.2019
5140 Haze 32 996 84 2500 3.6 200 04:21 15.07.2019
5141 Haze 32 995 75 7000 3.6 200 02:49 15.07.2019
5142 Haze 32 995 75 10000 3.1 220 01:54 15.07.2019
5143 Haze 32 995 75 10000 3.1 220 01:32 15.07.2019
5144 Haze 33 995 75 10000 3.1 200 00:53 15.07.2019
5145 Haze 33 995 75 10000 3.1 200 00:26 15.07.2019
5146 Clear 33 996 71 10000 3.1 240 23:57 14.07.2019
5147 Clear 33 996 71 10000 3.1 240 23:39 14.07.2019
5148 Clear 34 997 67 10000 2.1 310 23:19 14.07.2019
5149 Clear 34 997 67 10000 2.1 310 22:57 14.07.2019
5150 Clear 34 997 67 10000 2.1 310 22:37 14.07.2019
5151 Clear 34 997 71 10000 2.1 360 22:18 14.07.2019
5152 Clear 34 997 71 10000 2.1 360 21:42 14.07.2019
5153 Clear 34 997 63 10000 2.6 350 21:19 14.07.2019
5154 Clear 34 997 63 10000 2.6 350 20:57 14.07.2019
5155 Clear 34 997 63 10000 2.6 350 20:37 14.07.2019
5156 Clear 35 997 63 10000 4.6 350 20:19 14.07.2019
5157 Clear 35 997 63 10000 4.6 350 19:45 14.07.2019
5158 Clear 35 997 63 10000 4.6 350 19:26 14.07.2019
5159 Clear 36 996 47 10000 2.6 280 18:58 14.07.2019
5160 Clear 36 996 47 10000 2.6 280 18:39 14.07.2019
5161 Dust 36 996 47 8000 4.6 290 18:21 14.07.2019
5162 Dust 36 996 47 8000 4.6 290 17:49 14.07.2019
5163 Dust 35 996 67 6000 5.7 320 17:21 14.07.2019
5164 Dust 35 996 67 6000 5.7 320 16:47 14.07.2019
5165 Dust 35 996 67 6000 5.7 320 16:24 14.07.2019
5166 Dust 36 996 67 5000 6.2 310 15:56 14.07.2019
5167 Dust 36 996 67 5000 6.2 310 15:34 14.07.2019
5168 Dust 37 996 63 5000 7.2 330 14:51 14.07.2019
5169 Dust 37 996 63 5000 7.2 330 14:22 14.07.2019
5170 Dust 38 996 57 6000 6.7 320 13:58 14.07.2019
5171 Dust 38 996 57 6000 6.7 320 13:38 14.07.2019
5172 Dust 39 997 48 5000 5.7 310 13:20 14.07.2019
5173 Dust 39 997 48 5000 5.7 310 12:43 14.07.2019
5174 Dust 41 997 40 4500 5.1 300 12:22 14.07.2019
5175 Dust 41 997 40 4500 5.1 300 11:55 14.07.2019
5176 Dust 41 997 40 4500 5.1 300 11:28 14.07.2019
5177 Dust 41 998 28 5000 4.6 250 10:59 14.07.2019
5178 Dust 41 998 28 5000 4.6 250 10:40 14.07.2019
5179 Dust 40 999 29 5000 4.1 240 10:19 14.07.2019
5180 Dust 40 999 29 5000 4.1 240 09:42 14.07.2019
5181 Dust 38 999 35 5000 4.1 210 09:23 14.07.2019
5182 Dust 38 999 35 5000 4.1 210 08:43 14.07.2019
5183 Dust 37 999 31 6000 4.1 200 07:58 14.07.2019
5184 Dust 37 999 39 5000 4.6 220 07:39 14.07.2019
5185 Dust 35 999 39 7000 4.1 190 06:57 14.07.2019
5186 Dust 33 998 49 8000 2.6 230 05:45 14.07.2019
5187 Clear 32 997 41 10000 3.1 160 03:48 14.07.2019
5188 Clear 32 997 41 10000 3.1 160 03:29 14.07.2019
5189 Clear 33 996 44 10000 2.6 150 02:41 14.07.2019
5190 Clear 33 997 46 7000 1 0 02:21 14.07.2019
5191 Clear 33 996 32 10000 2.1 110 01:33 14.07.2019
5192 Clear 33 997 55 7000 1 120 00:57 14.07.2019
5193 Clear 34 996 35 10000 2.1 90 00:38 14.07.2019
5194 Clear 34 997 55 7000 0.5 270 00:19 14.07.2019
5195 Clear 34 997 31 10000 1.5 40 23:44 13.07.2019
5196 Clear 34 997 31 10000 1.5 40 23:25 13.07.2019
5197 Clear 34 997 37 10000 1.5 30 22:47 13.07.2019
5198 Clear 34 997 37 10000 1.5 30 22:26 13.07.2019
5199 Clear 35 998 49 7000 1 0 21:58 13.07.2019
5200 Clear 35 998 39 10000 2.1 50 21:39 13.07.2019
5201 Clear 35 998 50 7000 1 0 21:19 13.07.2019
5202 Clear 35 998 44 10000 3.6 30 20:41 13.07.2019
5203 Clear 35 998 44 10000 3.6 30 20:23 13.07.2019
5204 Clear 35 997 50 10000 4.1 30 19:43 13.07.2019
5205 Clear 35 997 50 10000 4.1 30 19:25 13.07.2019
5206 Clear 35 996 56 10000 3.6 40 18:42 13.07.2019
5207 Clear 36 997 60 7000 3.1 310 18:20 13.07.2019
5208 Clear 36 996 60 10000 4.1 350 17:38 13.07.2019
5209 Clear 36 996 60 10000 4.1 350 17:20 13.07.2019
5210 Clear 37 995 63 8000 4.6 360 16:46 13.07.2019
5211 Clear 37 995 63 8000 4.6 360 16:26 13.07.2019
5212 Clear 37 995 63 8000 4.6 360 16:26 13.07.2019
5213 Clear 38 996 50 7000 4.6 310 15:59 13.07.2019
5214 Clear 38 995 56 8000 5.1 340 15:40 13.07.2019
5215 Clear 38 996 48 7000 5.1 310 15:20 13.07.2019
5216 Clear 39 995 60 8000 6.2 340 14:41 13.07.2019
5217 Clear 39 995 60 8000 6.2 340 14:21 13.07.2019
5218 Clear 39 996 57 8000 7.2 340 13:45 13.07.2019
5219 Clear 39 996 57 8000 7.2 340 13:24 13.07.2019
5220 Clear 42 996 48 8000 6.2 330 12:42 13.07.2019
5221 Clear 42 996 48 8000 6.2 330 12:23 13.07.2019
5222 Clear 42 997 14 10000 4.1 210 11:59 13.07.2019
5223 Clear 42 997 40 8000 5.1 310 11:38 13.07.2019
5224 Clear 42 998 18 10000 3.1 230 11:19 13.07.2019
5225 Clear 42 997 20 10000 3.6 240 10:42 13.07.2019
5226 Clear 41 997 20 10000 3.6 240 10:23 13.07.2019
5227 Clear 40 998 24 10000 3.1 170 09:50 13.07.2019
5228 Clear 40 998 24 10000 3.1 170 09:30 13.07.2019
5229 Clear 38 998 29 10000 2.6 200 08:56 13.07.2019
5230 Clear 38 998 37 10000 3.6 130 08:28 13.07.2019
5231 Clear 36 998 39 7000 2.1 80 07:55 13.07.2019
5232 Clear 35 997 50 10000 4.1 100 07:28 13.07.2019
5233 Clear 34 997 53 8000 4.1 80 06:32 13.07.2019
5234 Haze 31 997 59 7000 2.6 80 05:49 13.07.2019
5235 Haze 30 996 56 7000 3.1 80 04:41 13.07.2019
5236 Haze 31 997 74 4200 1.5 100 04:21 13.07.2019
5237 Clear 31 996 56 8000 3.6 0 03:42 13.07.2019
5238 Clouds 31 997 74 7000 1 360 03:18 13.07.2019
5239 Clouds 32 996 66 8000 1 0 01:53 13.07.2019
5240 Clouds 32 995 67 8000 1.5 210 01:53 13.07.2019
5241 Clouds 32 995 67 8000 1.5 210 01:21 13.07.2019
5242 Clouds 32 995 67 8000 1.5 210 01:21 13.07.2019
5243 Clouds 32 996 66 8000 1 0 00:59 13.07.2019
5244 Clear 32 996 67 10000 2.1 220 00:21 13.07.2019
5245 Clouds 33 997 66 8000 2.1 210 23:55 12.07.2019
5246 Clear 33 996 59 10000 2.1 220 23:34 12.07.2019
5247 Clouds 34 997 63 10000 1.5 220 22:59 12.07.2019
5248 Clear 33 996 56 10000 2.1 260 22:40 12.07.2019
5249 Clouds 34 998 66 9000 1.5 260 22:22 12.07.2019
5250 Clear 34 997 56 10000 2.1 110 21:42 12.07.2019
5251 Clear 34 997 56 10000 2.1 110 21:21 12.07.2019
5252 Clear 33 997 59 10000 1 0 20:52 12.07.2019
5253 Clear 33 997 59 10000 1 0 20:23 12.07.2019
5254 Clear 34 996 63 10000 1.5 0 19:44 12.07.2019
5255 Clear 34 996 63 10000 1.5 0 19:26 12.07.2019
5256 Clear 35 997 59 10000 2.6 310 18:58 12.07.2019
5257 Clear 35 996 63 10000 3.1 360 18:37 12.07.2019
5258 Clear 35 996 56 9000 2.6 290 18:19 12.07.2019
5259 Clear 35 995 60 10000 3.6 340 17:45 12.07.2019
5260 Clear 35 995 60 10000 3.6 340 17:27 12.07.2019
5261 Clear 37 994 56 10000 4.1 310 16:38 12.07.2019
5262 Clear 38 995 40 10000 4.1 250 16:20 12.07.2019
5263 Clear 38 994 48 10000 3.6 280 15:41 12.07.2019
5264 Clear 38 994 48 10000 3.6 280 15:20 12.07.2019
5265 Clear 38 994 48 10000 4.1 310 14:47 12.07.2019
5266 Clear 38 994 48 10000 4.1 310 14:47 12.07.2019
5267 Clear 38 994 48 10000 4.1 310 14:22 12.07.2019
5268 Clear 38 995 47 10000 4.6 320 13:55 12.07.2019
5269 Clear 38 995 47 10000 4.6 320 13:37 12.07.2019
5270 Clear 38 995 45 10000 5.1 310 12:55 12.07.2019
5271 Clear 38 995 45 10000 5.1 310 12:37 12.07.2019
5272 Clear 39 996 22 10000 2.6 0 12:18 12.07.2019
5273 Clear 40 996 47 10000 6.7 340 11:43 12.07.2019
5274 Clear 39 996 47 10000 6.7 340 11:20 12.07.2019
5275 Clear 40 996 31 10000 2.1 0 10:43 12.07.2019
5276 Clear 40 996 31 10000 2.1 0 10:23 12.07.2019
5277 Clear 39 997 19 10000 3.1 230 09:54 12.07.2019
5278 Clear 39 997 31 10000 2.1 0 09:30 12.07.2019
5279 Clear 37 998 26 10000 2.6 220 08:58 12.07.2019
5280 Clear 37 997 41 10000 1.5 0 08:26 12.07.2019
5281 Clear 35 998 44 10000 2.1 220 07:55 12.07.2019
5282 Clear 35 997 39 10000 1.5 230 07:32 12.07.2019
5283 Clear 35 997 39 10000 1.5 230 07:32 12.07.2019
5284 Clear 33 998 32 10000 3.6 180 06:59 12.07.2019
5285 Clear 33 997 36 10000 2.1 0 06:28 12.07.2019
5286 Clear 31 996 36 10000 2.1 180 05:42 12.07.2019
5287 Clear 31 995 49 10000 2.6 230 03:22 12.07.2019
5288 Clear 30 995 49 10000 2.6 140 01:41 12.07.2019
5289 Clouds 31 996 37 10000 1 100 00:58 12.07.2019
5290 -273 0 0 0 0 0 00:20 12.07.2019
5291 Clear 32 995 50 10000 2.1 200 23:47 11.07.2019
5292 Clear 32 995 50 10000 2.1 200 23:26 11.07.2019
5293 Clouds 33 996 45 10000 2.6 170 22:55 11.07.2019
5294 Clear 32 996 53 10000 1.5 220 22:37 11.07.2019
5295 Clouds 33 997 52 10000 0.5 170 22:19 11.07.2019
5296 Clear 33 996 53 10000 1.5 230 21:40 11.07.2019
5297 Clouds 34 997 43 10000 1 0 21:18 11.07.2019
5298 Clear 34 996 44 10000 1.5 230 20:43 11.07.2019
5299 Clear 34 996 44 10000 1.5 230 20:24 11.07.2019
5300 Clear 34 996 44 10000 1.5 230 20:24 11.07.2019
5301 Clouds 35 997 36 10000 1 240 19:59 11.07.2019
5302 Clear 35 996 39 10000 2.6 280 19:40 11.07.2019
5303 Clouds 36 996 28 10000 3.6 250 19:22 11.07.2019
5304 Clear 36 995 39 10000 3.6 280 18:43 11.07.2019
5305 Clear 36 995 39 10000 3.6 280 18:25 11.07.2019
5306 Clear 38 995 39 10000 4.1 270 17:53 11.07.2019
5307 Clear 38 995 39 10000 4.1 270 17:31 11.07.2019
5308 Clouds 39 995 16 10000 4.1 270 16:58 11.07.2019
5309 Clear 39 994 33 10000 4.6 280 16:40 11.07.2019
5310 Clear 39 994 33 10000 4.6 280 16:19 11.07.2019
5311 Clear 39 994 33 10000 4.6 280 16:19 11.07.2019
5312 Clear 40 994 24 10000 4.6 270 15:43 11.07.2019
5313 Clear 40 994 24 10000 4.6 270 15:24 11.07.2019
5314 Clear 41 994 13 10000 5.7 320 14:46 11.07.2019
5315 Clear 41 994 13 10000 5.7 320 14:25 11.07.2019
5316 Clear 41 995 16 10000 6.2 280 13:59 11.07.2019
5317 Clear 41 995 17 10000 4.6 310 13:41 11.07.2019
5318 Clear 42 995 17 10000 4.6 310 13:23 11.07.2019
5319 Clear 41 995 26 10000 4.6 300 12:38 11.07.2019
5320 Clear 41 996 10 10000 5.7 250 12:19 11.07.2019
5321 Clear 41 996 17 10000 3.6 300 11:45 11.07.2019
5322 Clear 42 996 17 10000 3.6 300 11:27 11.07.2019
5323 Clear 41 996 19 10000 2.6 310 10:52 11.07.2019
5324 Clear 40 997 10 10000 2.6 0 10:20 11.07.2019
5325 Clear 40 997 10 10000 2.6 0 10:20 11.07.2019
5326 Clear 40 997 10 10000 2.6 0 09:56 11.07.2019
5327 Clear 40 997 18 10000 1.5 0 09:36 11.07.2019
5328 Clear 40 997 18 10000 1.5 0 09:36 11.07.2019
5329 Clear 39 998 10 10000 4.1 240 09:18 11.07.2019
5330 Clear 39 997 21 10000 2.6 200 08:42 11.07.2019
5331 Clear 39 997 21 10000 2.6 200 08:20 11.07.2019
5332 Clear 36 997 32 10000 2.6 180 07:45 11.07.2019
5333 Clear 34 998 19 10000 4.1 170 07:23 11.07.2019
5334 Clear 31 997 31 10000 3.6 150 06:19 11.07.2019
5335 Clear 30 996 46 10000 2.1 200 05:32 11.07.2019
5336 Clear 29 996 39 10000 2.1 120 04:56 11.07.2019
5337 Clear 29 996 42 10000 1.5 140 03:57 11.07.2019
5338 Clear 30 994 55 10000 2.1 180 02:25 11.07.2019
5339 Clear 30 994 62 10000 4.1 200 00:35 11.07.2019
5340 Clear 32 994 63 10000 3.6 210 23:51 10.07.2019
5341 Clear 32 994 63 10000 3.6 210 23:28 10.07.2019
5342 Clouds 32 995 62 10000 3.1 180 22:58 10.07.2019
5343 Clear 32 994 56 10000 3.6 200 22:26 10.07.2019
5344 Clouds 33 996 62 10000 2.6 170 21:57 10.07.2019
5345 Clear 33 995 56 10000 2.1 210 21:39 10.07.2019
5346 Clear 33 995 56 10000 2.1 210 21:21 10.07.2019
5347 Clear 34 995 56 10000 3.1 250 20:47 10.07.2019
5348 Clear 34 995 56 10000 3.1 250 20:26 10.07.2019
5349 Clouds 34 996 55 10000 3.1 220 19:58 10.07.2019
5350 Clear 34 994 56 10000 3.6 260 19:40 10.07.2019
5351 Clouds 35 995 52 10000 4.1 240 19:20 10.07.2019
5352 Clear 34 994 59 10000 5.1 260 18:46 10.07.2019
5353 Clear 35 994 59 10000 5.1 260 18:23 10.07.2019
5354 Clear 35 993 59 10000 5.1 280 17:47 10.07.2019
5355 Clear 35 993 59 10000 5.1 280 17:29 10.07.2019
5356 Clear 36 993 59 10000 6.7 280 16:47 10.07.2019
5357 Clear 36 993 59 10000 6.7 280 16:47 10.07.2019
5358 Dust 37 993 42 10000 6.2 270 16:21 10.07.2019
5359 Dust 37 992 60 10000 6.7 280 15:47 10.07.2019
5360 Dust 37 992 60 10000 6.7 280 15:26 10.07.2019
5361 Dust 38 992 53 10000 6.2 270 14:49 10.07.2019
5362 Dust 38 992 53 10000 6.2 270 14:29 10.07.2019
5363 Dust 38 993 33 8000 8.2 260 13:59 10.07.2019
5364 Dust 39 992 50 10000 6.2 280 13:36 10.07.2019
5365 Dust 39 992 50 10000 6.2 280 13:36 10.07.2019
5366 Dust 39 993 29 8000 7.7 270 13:18 10.07.2019
5367 Dust 39 992 45 10000 6.7 280 12:41 10.07.2019
5368 Dust 39 994 31 10000 8.7 260 12:21 10.07.2019
5369 Dust 39 993 47 10000 6.7 280 11:49 10.07.2019
5370 Dust 39 993 47 10000 6.7 280 11:22 10.07.2019
5371 Dust 39 994 26 4000 10.3 290 10:58 10.07.2019
5372 Dust 39 994 26 4000 10.3 290 10:58 10.07.2019
5373 Dust 39 994 26 4000 10.3 290 10:58 10.07.2019
5374 Dust 39 993 50 10000 6.2 280 10:24 10.07.2019
5375 Dust 38 994 28 10000 6.2 270 09:57 10.07.2019
5376 Dust 38 994 50 10000 6.2 270 09:38 10.07.2019
5377 Dust 38 995 39 10000 7.7 270 09:19 10.07.2019
5378 Dust 38 994 47 10000 6.7 280 08:49 10.07.2019
5379 Dust 38 994 47 10000 6.7 280 08:24 10.07.2019
5380 Clear 37 993 50 10000 5.1 260 07:51 10.07.2019
5381 Clear 37 993 50 10000 5.1 260 07:23 10.07.2019
5382 Clear 34 994 49 10000 3.6 200 06:40 10.07.2019
5383 Clear 32 993 52 10000 3.6 210 05:42 10.07.2019
5384 Clear 31 993 52 10000 4.1 180 04:33 10.07.2019
5385 Clouds 32 993 55 10000 3.6 170 02:20 10.07.2019
5386 Clear 32 992 63 10000 3.6 210 00:44 10.07.2019
5387 Clear 33 993 56 10000 2.6 210 23:42 09.07.2019
5388 Clear 33 993 56 10000 2.6 210 23:24 09.07.2019
5389 Clear 34 994 59 10000 3.1 180 22:58 09.07.2019
5390 Clear 34 993 50 10000 3.1 210 22:40 09.07.2019
5391 Clear 34 993 50 10000 3.1 210 22:20 09.07.2019
5392 Clear 35 993 47 10000 3.6 270 21:47 09.07.2019
5393 Clear 35 993 47 10000 3.6 270 21:26 09.07.2019
5394 Clear 35 995 59 10000 3.6 200 20:55 09.07.2019
5395 Clear 35 994 50 10000 3.6 270 20:36 09.07.2019
5396 Clear 35 995 47 10000 3.1 250 20:18 09.07.2019
5397 Clear 35 994 53 10000 4.1 270 19:37 09.07.2019
5398 Clear 36 995 50 10000 3.6 260 19:19 09.07.2019
5399 Clear 36 993 60 10000 4.1 280 18:39 09.07.2019
5400 Clear 36 994 47 10000 3.6 260 18:19 09.07.2019
5401 Clear 37 993 63 10000 4.6 280 17:44 09.07.2019
5402 Clear 37 993 63 10000 4.6 280 17:21 09.07.2019
5403 Clear 37 993 42 10000 4.1 280 16:58 09.07.2019
5404 Clear 37 992 60 6000 4.6 280 16:39 09.07.2019
5405 Clear 37 992 60 6000 4.6 280 16:21 09.07.2019
5406 Clear 38 992 56 6000 6.7 290 15:41 09.07.2019
5407 Clear 39 993 45 7000 6.2 290 15:22 09.07.2019
5408 Clear 39 992 50 9000 6.7 280 14:43 09.07.2019
5409 Clear 39 993 34 10000 5.7 290 14:23 09.07.2019
5410 Clear 40 992 51 10000 5.1 310 13:50 09.07.2019
5411 Clear 40 992 51 10000 5.1 310 13:29 09.07.2019
5412 Clear 40 993 30 10000 4.6 300 12:59 09.07.2019
5413 Clear 40 993 51 10000 5.1 320 12:38 09.07.2019
5414 Clear 39 993 36 10000 4.1 260 12:19 09.07.2019
5415 Clear 39 993 54 10000 4.6 290 11:42 09.07.2019
5416 Clear 39 994 40 10000 4.1 300 11:22 09.07.2019
5417 Clear 39 994 40 10000 4.1 300 10:59 09.07.2019
5418 Clear 39 993 51 10000 3.1 350 10:40 09.07.2019
5419 Clear 38 995 42 8000 2.6 280 10:21 09.07.2019
5420 Clear 39 994 47 10000 2.1 0 09:38 09.07.2019
5421 Clear 38 994 47 10000 2.1 0 09:20 09.07.2019
5422 Clear 37 995 56 10000 2.6 0 08:44 09.07.2019
5423 Clear 35 995 53 7000 3.6 230 08:18 09.07.2019
5424 Clear 32 995 53 10000 2.1 200 03:45 05.07.2019
5425 Clear 33 996 55 9000 0.5 180 03:21 05.07.2019
5426 Clear 33 995 53 10000 1.5 160 02:52 05.07.2019
5427 Clear 33 996 55 9000 0.5 30 02:20 05.07.2019
5428 Clear 33 995 53 10000 2.1 100 01:34 05.07.2019
5429 Clear 33 995 56 10000 1.5 50 00:52 05.07.2019
5430 Clear 33 995 56 10000 1.5 50 00:31 05.07.2019
5431 Clear 34 995 63 10000 2.6 360 23:40 04.07.2019
5432 Clear 35 997 59 9000 1 270 23:19 04.07.2019
5433 Clear 35 996 50 10000 2.6 330 22:42 04.07.2019
5434 Clear 35 996 50 10000 2.6 330 22:23 04.07.2019
5435 Clear 35 996 50 10000 2.6 350 21:45 04.07.2019
5436 Clear 35 996 50 10000 2.6 350 21:26 04.07.2019
5437 Clear 36 997 56 10000 1.5 300 20:59 04.07.2019
5438 Clear 35 996 53 10000 2.1 350 20:38 04.07.2019
5439 Clear 36 997 50 10000 1.5 310 20:19 04.07.2019
5440 Clear 36 997 50 10000 1.5 310 20:19 04.07.2019
5441 Clear 36 997 50 10000 1.5 310 20:19 04.07.2019
5442 Clear 36 996 56 10000 3.1 10 19:42 04.07.2019
5443 Clear 37 997 47 10000 2.6 310 19:22 04.07.2019
5444 Clear 37 997 47 10000 2.6 310 18:55 04.07.2019
5445 Clear 37 995 47 10000 3.6 360 18:36 04.07.2019
5446 Clear 37 996 37 9000 4.1 310 18:18 04.07.2019
5447 Clear 38 995 50 10000 4.1 350 17:41 04.07.2019
5448 Clear 39 996 35 9000 5.1 300 17:18 04.07.2019
5449 Dust 40 995 40 10000 6.2 330 15:45 04.07.2019
5450 Dust 40 995 40 10000 6.2 330 15:25 04.07.2019
5451 Dust 41 996 28 6000 4.6 330 14:59 04.07.2019
5452 Dust 41 996 34 8000 6.7 340 14:40 04.07.2019
5453 Dust 41 996 27 7000 6.2 310 14:20 04.07.2019
5454 Dust 41 996 27 7000 6.2 310 13:57 04.07.2019
5455 Dust 41 996 45 8000 6.2 340 13:38 04.07.2019
5456 Clear 41 997 32 7000 6.2 310 13:19 04.07.2019
5457 Clear 42 996 48 8000 7.2 340 12:39 04.07.2019
5458 Clear 42 996 48 8000 7.2 340 12:39 04.07.2019
5459 Clear 42 996 48 8000 7.2 340 12:20 04.07.2019
5460 Clear 43 997 38 7000 6.2 320 11:55 04.07.2019
5461 Clear 43 997 38 7000 6.2 320 11:36 04.07.2019
5462 Clear 44 998 16 7000 1.5 200 11:18 04.07.2019
5463 Clear 44 997 22 8000 2.1 230 10:39 04.07.2019
5464 Clear 42 998 19 7000 2.1 0 10:18 04.07.2019
5465 Clear 42 998 28 8000 2.1 210 09:39 04.07.2019
5466 Clear 42 998 28 8000 2.1 210 09:19 04.07.2019
5467 Clear 40 998 29 8000 3.1 200 08:53 04.07.2019
5468 Clear 38 999 26 6000 5.1 160 08:19 04.07.2019
5469 Clear 38 998 42 8000 5.1 150 07:42 04.07.2019
5470 Clear 36 998 33 6000 5.7 140 07:19 04.07.2019
5471 Clear 35 998 50 10000 4.6 160 06:33 04.07.2019
5472 Clear 33 997 59 8000 3.1 80 05:43 04.07.2019
5473 Clear 32 998 66 10000 1.5 80 04:59 04.07.2019
5474 Clear 32 997 71 10000 3.1 30 02:36 04.07.2019
5475 Clear 33 997 67 10000 4.1 30 01:27 04.07.2019
5476 Clear 33 997 67 10000 2.1 360 00:52 04.07.2019
5477 Clear 34 998 43 10000 2.1 70 23:53 03.07.2019
5478 Clear 35 998 41 10000 2.1 320 23:21 03.07.2019
5479 Clear 35 998 41 10000 2.1 320 23:21 03.07.2019
5480 Clear 35 998 41 10000 2.1 320 22:57 03.07.2019
5481 Clear 35 997 33 10000 2.6 20 22:39 03.07.2019
5482 Clear 36 997 33 10000 2.6 20 22:21 03.07.2019
5483 Clear 36 998 27 10000 3.6 40 21:56 03.07.2019
5484 Clear 36 998 27 10000 3.6 40 21:37 03.07.2019
5485 Clear 36 998 32 10000 2.1 340 20:57 03.07.2019
5486 Clear 36 997 27 10000 3.6 30 20:37 03.07.2019
5487 Clear 37 998 22 10000 2.6 320 20:19 03.07.2019
5488 Clear 37 997 24 10000 4.1 30 19:44 03.07.2019
5489 Clear 37 997 24 10000 4.1 30 19:44 03.07.2019
5490 Clear 37 997 24 10000 4.1 30 19:25 03.07.2019
5491 Clear 38 997 31 10000 3.1 0 18:45 03.07.2019
5492 Clear 39 997 33 10000 3.6 320 18:22 03.07.2019
5493 Clear 39 996 24 10000 4.1 20 17:49 03.07.2019
5494 Clear 39 996 24 10000 4.1 20 17:19 03.07.2019
5495 Clear 40 997 33 9000 5.1 320 16:58 03.07.2019
5496 Clear 40 996 29 10000 6.2 20 16:39 03.07.2019
5497 Clear 41 997 35 8000 4.6 0 16:18 03.07.2019
5498 Clear 40 996 36 10000 5.7 350 15:44 03.07.2019
5499 Clear 40 996 36 10000 5.7 350 15:26 03.07.2019
5500 Clear 40 996 40 10000 5.1 360 14:44 03.07.2019
5501 Clear 40 996 40 10000 5.1 360 14:22 03.07.2019
5502 Clear 40 996 45 8000 5.7 10 13:50 03.07.2019
5503 Clear 40 996 45 8000 5.7 10 13:31 03.07.2019
5504 Clear 40 997 51 8000 5.1 20 12:52 03.07.2019
5505 Clear 40 997 40 10000 4.6 300 12:20 03.07.2019
5506 Clear 40 997 40 10000 4.6 300 11:55 03.07.2019
5507 Clear 41 997 57 8000 6.2 330 11:36 03.07.2019
5508 Clear 41 998 51 8000 5.1 320 11:18 03.07.2019
5509 Clear 41 998 51 8000 5.1 320 10:40 03.07.2019
5510 Clear 41 998 51 8000 5.1 320 10:21 03.07.2019
5511 Clear 41 998 22 10000 1.5 0 09:42 03.07.2019
5512 Clear 42 998 22 10000 1.5 0 09:20 03.07.2019
5513 Clear 40 999 15 10000 1.5 0 08:53 03.07.2019
5514 Clear 39 998 28 10000 2.6 150 08:31 03.07.2019
5515 Clear 37 999 44 10000 4.1 110 07:49 03.07.2019
5516 Clear 37 999 44 10000 4.1 110 07:31 03.07.2019
5517 Clear 34 999 56 10000 5.1 120 06:35 03.07.2019
5518 Clear 31 998 52 10000 2.1 120 05:42 03.07.2019
5519 Clear 30 997 52 10000 2.6 160 04:52 03.07.2019
5520 Clear 30 997 55 10000 2.1 170 03:27 03.07.2019
5521 Clear 31 997 59 10000 2.6 180 02:37 03.07.2019
5522 Clear 30 997 63 10000 2.6 170 01:22 03.07.2019
5523 Clear 31 998 62 10000 2.1 110 00:52 03.07.2019
5524 Clear 31 997 63 10000 3.6 130 00:33 03.07.2019
5525 Clear 32 997 59 10000 2.6 160 23:39 02.07.2019
5526 Clear 33 998 66 10000 1 0 23:20 02.07.2019
5527 Clear 32 997 63 10000 2.1 210 22:57 02.07.2019
5528 Clear 32 997 63 10000 2.1 210 22:57 02.07.2019
5529 Clear 32 997 63 10000 2.1 210 22:57 02.07.2019
5530 Clear 32 997 63 10000 2.1 210 22:39 02.07.2019
5531 Clear 33 998 66 10000 2.6 220 22:20 02.07.2019
5532 Clear 33 997 59 10000 2.6 230 21:47 02.07.2019
5533 Clear 34 998 59 10000 4.6 230 21:25 02.07.2019
5534 Clear 34 997 56 10000 3.1 0 20:59 02.07.2019
5535 Clear 34 997 56 10000 3.1 0 20:40 02.07.2019
5536 Clear 34 997 56 10000 3.1 0 20:22 02.07.2019
5537 Clear 35 997 44 10000 3.1 240 19:44 02.07.2019
5538 Clear 35 997 44 10000 3.1 240 19:24 02.07.2019
5539 Clear 35 997 44 10000 3.1 240 19:24 02.07.2019
5540 Clear 36 997 47 10000 3.1 230 18:59 02.07.2019
5541 Clear 36 996 44 10000 3.1 260 18:37 02.07.2019
5542 Clear 36 996 44 10000 3.1 260 18:18 02.07.2019
5543 Clear 37 996 37 10000 3.6 280 17:37 02.07.2019
5544 Clear 39 996 33 10000 4.1 260 17:19 02.07.2019
5545 Clear 39 995 40 10000 4.1 280 16:46 02.07.2019
5546 Clear 39 995 40 10000 4.1 280 16:27 02.07.2019
5547 Clear 40 995 33 9000 4.1 270 15:42 02.07.2019
5548 Clear 41 996 14 10000 5.1 270 15:24 02.07.2019
5549 Clear 41 995 33 8000 4.6 270 14:49 02.07.2019
5550 Clear 41 995 33 8000 4.6 270 14:30 02.07.2019
5551 Clear 40 995 40 9000 4.6 300 13:45 02.07.2019
5552 Clear 41 996 13 10000 4.6 270 13:20 02.07.2019
5553 Clear 41 996 35 10000 4.6 290 12:46 02.07.2019
5554 Clear 41 996 35 10000 4.6 290 12:25 02.07.2019
5555 Clear 40 996 33 10000 5.1 280 11:57 02.07.2019
5556 Clear 40 996 33 10000 5.1 280 11:39 02.07.2019
5557 Clear 40 997 20 10000 3.1 250 11:18 02.07.2019
5558 Clear 40 997 31 10000 4.6 280 10:45 02.07.2019
5559 Clear 40 997 31 10000 4.6 280 10:24 02.07.2019
5560 Clear 40 997 26 10000 2.6 0 09:44 02.07.2019
5561 Clear 39 998 29 8000 1.5 270 09:21 02.07.2019
5562 Clear 38 998 37 10000 2.6 240 08:42 02.07.2019
5563 Clear 38 998 37 10000 2.6 240 08:42 02.07.2019
5564 Clear 36 998 35 8000 1.5 210 08:20 02.07.2019
5565 Clear 35 998 50 10000 2.1 0 07:53 02.07.2019
5566 Clear 35 998 50 10000 2.1 0 07:21 02.07.2019
5567 Clear 33 997 55 10000 3.1 170 06:49 02.07.2019
5568 Clear 32 997 55 10000 3.1 170 06:26 02.07.2019
5569 Clear 30 997 66 7000 4.1 210 04:57 02.07.2019
5570 Clear 31 996 70 10000 4.1 200 01:37 02.07.2019
5571 Clear 32 996 70 10000 3.6 200 23:49 01.07.2019
5572 Clear 32 996 70 10000 3.6 200 23:22 01.07.2019
5573 Clear 33 997 63 10000 3.1 220 22:46 01.07.2019
5574 Clear 33 997 63 10000 3.1 220 22:27 01.07.2019
5575 Clear 34 997 59 10000 3.1 210 21:48 01.07.2019
5576 Clear 34 997 59 10000 3.1 210 21:26 01.07.2019
5577 Clear 34 997 59 10000 2.6 230 20:52 01.07.2019
5578 Clear 35 998 56 10000 2.6 230 20:22 01.07.2019
5579 Clear 35 996 53 10000 3.1 260 19:59 01.07.2019
5580 Clear 35 996 53 10000 3.1 260 19:40 01.07.2019
5581 Clear 35 997 47 10000 2.6 260 19:22 01.07.2019
5582 Clear 35 997 47 10000 3.1 280 18:53 01.07.2019
5583 Clear 36 997 47 10000 3.1 280 18:31 01.07.2019
5584 Clear 36 997 41 10000 2.6 310 17:59 01.07.2019
5585 Clear 37 995 42 10000 5.1 320 17:41 01.07.2019
5586 Clear 37 995 42 10000 5.1 320 17:21 01.07.2019
5587 Clear 38 995 39 10000 5.1 320 16:47 01.07.2019
5588 Clear 38 995 39 10000 5.1 320 16:25 01.07.2019
5589 Clear 39 996 28 10000 4.6 310 15:54 01.07.2019
5590 Clear 39 995 45 10000 6.7 330 15:36 01.07.2019
5591 Clear 40 995 45 10000 6.7 330 15:18 01.07.2019
5592 Clear 41 995 35 10000 6.2 300 14:42 01.07.2019
5593 Clear 41 995 35 10000 6.2 300 14:19 01.07.2019
5594 Clear 42 996 36 10000 6.7 290 13:40 01.07.2019
5595 Clear 42 996 36 10000 6.7 290 13:22 01.07.2019
5596 Clear 42 996 31 10000 7.2 280 12:44 01.07.2019
5597 Clear 42 996 31 10000 7.2 280 12:23 01.07.2019
5598 Clear 44 997 11 10000 6.7 300 11:58 01.07.2019
5599 Clear 41 997 14 8000 6.2 280 11:38 01.07.2019
5600 Clear 41 997 15 8000 6.7 270 11:18 01.07.2019
5601 Clear 41 997 47 10000 5.1 280 10:46 01.07.2019
5602 Clear 41 997 47 10000 5.1 280 10:22 01.07.2019
5603 Clear 40 997 47 10000 4.1 290 09:45 01.07.2019
5604 Clear 40 997 47 10000 4.1 290 09:27 01.07.2019
5605 Clear 38 998 35 8000 3.6 250 08:59 01.07.2019
5606 Clear 38 997 47 10000 2.6 0 08:35 01.07.2019
5607 Clear 36 998 37 8000 2.6 210 07:37 01.07.2019
5608 Clear 34 997 41 10000 2.6 170 06:51 01.07.2019
5609 Clear 31 996 49 10000 3.1 220 05:23 01.07.2019
5610 Clear 31 995 55 10000 2.6 200 01:22 01.07.2019
5611 Clear 32 995 59 10000 3.1 190 00:43 01.07.2019
5612 Clear 32 995 59 10000 3.1 190 00:21 01.07.2019
5613 Clear 33 996 63 10000 3.1 220 23:26 30.06.2019
5614 Clear 33 997 49 10000 2.6 200 22:58 30.06.2019
5615 Clear 33 996 59 10000 3.1 210 22:38 30.06.2019
5616 Clear 33 996 59 10000 3.1 210 22:18 30.06.2019
5617 Clear 34 996 59 10000 2.6 0 21:41 30.06.2019
5618 Clear 34 996 59 10000 2.6 0 21:19 30.06.2019
5619 Clear 35 997 53 10000 2.1 0 20:43 30.06.2019
5620 Clear 35 997 53 10000 2.1 0 20:24 30.06.2019
5621 Clear 35 998 44 10000 1 160 19:55 30.06.2019
5622 Clear 34 996 50 10000 1 0 19:37 30.06.2019
5623 Clear 35 996 50 10000 1 0 19:18 30.06.2019
5624 Clear 36 996 50 10000 2.6 310 18:26 30.06.2019
5625 Clear 37 997 41 10000 2.1 310 17:56 30.06.2019
5626 Clear 37 995 44 9000 5.1 330 17:37 30.06.2019
5627 Clear 37 995 44 9000 5.1 330 17:18 30.06.2019
5628 Clear 38 995 42 9000 7.2 310 16:44 30.06.2019
5629 Clear 38 995 42 9000 7.2 310 16:25 30.06.2019
5630 Clear 39 995 31 10000 7.7 290 15:37 30.06.2019
5631 Clear 41 996 20 7000 7.7 280 15:18 30.06.2019
5632 Clear 41 995 24 10000 6.7 290 14:50 30.06.2019
5633 Clear 41 995 24 10000 6.7 290 14:29 30.06.2019
5634 Clear 42 995 15 10000 7.2 280 13:46 30.06.2019
5635 Clear 42 995 15 10000 7.2 280 13:25 30.06.2019
5636 Clear 44 996 14 10000 6.2 280 12:52 30.06.2019
5637 Clear 44 996 14 10000 6.2 280 12:27 30.06.2019
5638 Clear 44 996 13 10000 5.1 290 11:56 30.06.2019
5639 Clear 44 996 13 10000 5.1 290 11:38 30.06.2019
5640 Clear 44 996 13 10000 5.1 290 11:18 30.06.2019
5641 Clear 43 997 13 10000 5.7 290 10:44 30.06.2019
5642 Clear 43 997 13 10000 5.7 290 10:19 30.06.2019
5643 Clear 43 997 13 9000 5.1 280 09:57 30.06.2019
5644 Clear 43 997 19 8000 3.1 220 09:36 30.06.2019
5645 Clear 42 997 19 8000 3.1 220 09:18 30.06.2019
5646 Clear 41 997 16 9000 2.1 220 08:38 30.06.2019
5647 Clear 40 997 16 9000 2.1 220 08:18 30.06.2019
5648 Clear 38 997 18 10000 2.1 220 07:38 30.06.2019
5649 Clear 35 997 17 10000 6.2 160 07:19 30.06.2019
5650 Clear 32 997 11 10000 4.6 160 06:18 30.06.2019
5651 Clear 30 995 33 10000 2.1 200 03:26 30.06.2019
5652 Clear 31 994 41 10000 2.6 190 01:31 30.06.2019
5653 Clear 32 995 44 10000 3.1 210 00:38 30.06.2019
5654 Clear 32 995 44 10000 3.1 210 00:38 30.06.2019
5655 Clear 32 995 44 10000 3.1 210 00:38 30.06.2019
5656 Clear 32 995 44 10000 3.1 210 00:18 30.06.2019
5657 Clear 32 995 44 10000 2.1 230 23:36 29.06.2019
5658 Clear 33 995 44 10000 2.1 230 23:18 29.06.2019
5659 Clear 33 996 32 10000 2.6 180 22:42 29.06.2019
5660 Clear 33 996 32 10000 2.6 180 22:21 29.06.2019
5661 Clear 33 996 47 10000 1.5 220 21:51 29.06.2019
5662 Clear 33 996 47 10000 1.5 220 21:23 29.06.2019
5663 Clear 34 996 47 10000 1.5 0 20:45 29.06.2019
5664 Clear 34 996 47 10000 1.5 0 20:27 29.06.2019
5665 Clear 35 996 39 10000 1.5 0 19:48 29.06.2019
5666 Clear 35 996 39 10000 1.5 0 19:25 29.06.2019
5667 Clear 37 995 35 10000 3.1 350 18:55 29.06.2019
5668 Clear 37 995 35 10000 3.1 350 18:27 29.06.2019
5669 Clear 39 996 24 10000 1.5 310 17:57 29.06.2019
5670 Clear 39 995 33 10000 2.6 320 17:37 29.06.2019
5671 Clear 39 995 33 10000 2.6 320 17:19 29.06.2019
5672 Clear 40 995 28 10000 4.6 280 16:42 29.06.2019
5673 Clear 42 995 13 10000 5.1 290 15:56 29.06.2019
5674 Clear 42 995 19 10000 4.6 280 15:31 29.06.2019
5675 Clear 43 995 11 10000 5.7 310 14:45 29.06.2019
5676 Clear 44 995 11 10000 5.7 310 14:26 29.06.2019
5677 Clear 44 995 15 10000 5.1 280 13:51 29.06.2019
5678 Clear 44 995 15 10000 5.1 280 13:27 29.06.2019
5679 Clear 45 996 8 10000 6.2 270 12:57 29.06.2019
5680 Clear 45 996 12 10000 5.7 290 12:38 29.06.2019
5681 Clear 45 996 12 10000 5.7 290 12:20 29.06.2019
5682 Clear 45 997 16 10000 4.6 290 11:42 29.06.2019
5683 Clear 45 997 16 10000 4.6 290 11:21 29.06.2019
5684 Clear 44 997 17 10000 5.1 290 10:46 29.06.2019
5685 Clear 44 997 17 10000 5.1 290 10:21 29.06.2019
5686 Clear 43 997 16 10000 5.1 250 09:50 29.06.2019
5687 Clear 41 998 12 10000 6.2 240 08:55 29.06.2019
5688 Clear 41 998 24 10000 3.6 220 08:30 29.06.2019
5689 Clear 39 998 22 10000 3.6 240 07:45 29.06.2019
5690 Clear 36 997 23 10000 1 0 06:49 29.06.2019
5691 Clear 35 997 23 10000 1 0 06:25 29.06.2019
5692 Clear 31 996 34 10000 2.1 230 03:55 29.06.2019
5693 Clear 33 996 30 10000 1 0 01:42 29.06.2019
5694 Clear 33 995 34 10000 3.1 230 00:41 29.06.2019
5695 Clear 33 996 27 10000 2.6 190 23:39 28.06.2019
5696 Clear 33 996 27 10000 2.6 190 23:20 28.06.2019
5697 Clear 33 996 29 10000 2.6 170 22:47 28.06.2019
5698 Clear 34 997 29 10000 0.5 160 21:59 28.06.2019
5699 Clear 34 997 22 10000 1 0 21:37 28.06.2019
5700 Clear 35 997 22 10000 1 0 21:18 28.06.2019
5701 Clear 35 997 37 10000 2.1 350 20:40 28.06.2019
5702 Clear 36 997 26 10000 1.5 280 20:19 28.06.2019
5703 Clear 36 996 24 10000 2.6 340 19:38 28.06.2019
5704 Clear 37 996 24 10000 2.6 340 19:20 28.06.2019
5705 Clear 38 996 28 10000 1.5 0 18:41 28.06.2019
5706 Clear 38 996 28 10000 1.5 0 18:21 28.06.2019
5707 Clear 39 995 31 8000 2.1 0 17:41 28.06.2019
5708 Clear 40 995 31 8000 2.1 0 17:23 28.06.2019
5709 Clear 40 995 29 8000 3.6 330 16:46 28.06.2019
5710 Clear 41 995 29 8000 3.6 330 16:18 28.06.2019
5711 Clear 41 995 23 10000 5.1 320 15:40 28.06.2019
5712 Clear 42 996 20 7000 5.1 300 15:18 28.06.2019
5713 Clear 42 995 28 10000 5.1 330 14:39 28.06.2019
5714 Clear 42 995 28 10000 5.1 330 14:21 28.06.2019
5715 Clear 42 996 30 10000 5.7 290 13:46 28.06.2019
5716 Clear 42 996 30 10000 5.7 290 13:27 28.06.2019
5717 Clear 42 996 32 10000 7.2 280 12:51 28.06.2019
5718 Clear 42 996 32 10000 7.2 280 12:32 28.06.2019
5719 Clear 44 997 28 10000 6.2 290 11:29 28.06.2019
5720 Clear 43 998 19 8000 7.2 210 10:58 28.06.2019
5721 Clear 43 998 32 10000 5.1 290 10:38 28.06.2019
5722 Clear 43 998 32 10000 5.1 290 10:18 28.06.2019
5723 Clear 43 998 23 7000 6.7 240 09:43 28.06.2019
5724 Clear 43 998 23 7000 6.7 240 09:24 28.06.2019
5725 Clear 41 998 26 10000 3.6 220 08:42 28.06.2019
5726 Clear 41 998 26 10000 3.6 220 08:23 28.06.2019
5727 Clear 39 998 31 10000 3.1 0 07:42 28.06.2019
5728 Clear 37 998 37 8000 2.6 200 06:52 28.06.2019
5729 Clear 32 996 50 9000 1.5 0 03:57 28.06.2019
5730 Clear 35 996 50 8000 2.1 230 00:46 28.06.2019
5731 Clear 35 997 46 7000 1 220 00:19 28.06.2019
5732 Clear 35 996 50 9000 2.1 220 23:43 27.06.2019
5733 Clear 34 996 50 9000 2.1 220 23:22 27.06.2019
5734 Clear 35 997 47 9000 1.5 240 22:43 27.06.2019
5735 Clear 35 997 47 9000 1.5 240 22:25 27.06.2019
5736 Clear 35 998 46 6000 1 270 21:57 27.06.2019
5737 Clear 35 997 42 9000 2.6 130 21:38 27.06.2019
5738 Clear 35 997 42 9000 2.6 130 21:19 27.06.2019
5739 Clear 36 997 39 9000 2.1 220 20:46 27.06.2019
5740 Clear 36 997 39 9000 2.1 220 20:27 27.06.2019
5741 Clear 37 997 33 9000 1 0 19:48 27.06.2019
5742 Clear 37 997 33 9000 1 0 19:29 27.06.2019
5743 Clear 37 997 37 9000 2.1 20 18:52 27.06.2019
5744 Clear 37 997 37 9000 2.1 20 18:30 27.06.2019
5745 Haze 38 997 42 8000 3.1 320 17:47 27.06.2019
5746 Clear 38 997 42 8000 3.1 320 17:24 27.06.2019
5747 Clear 38 997 35 5000 3.6 310 16:59 27.06.2019
5748 Clear 38 996 42 8000 3.6 340 16:37 27.06.2019
5749 Clear 39 997 37 5000 4.1 320 16:18 27.06.2019
5750 Clear 39 997 37 5000 4.1 320 16:18 27.06.2019
5751 Clear 39 996 47 7000 5.1 340 15:45 27.06.2019
5752 Dust 39 997 38 5000 5.1 300 15:21 27.06.2019
5753 Dust 39 997 47 7000 6.2 330 14:46 27.06.2019
5754 Dust 39 997 47 7000 6.2 330 14:28 27.06.2019
5755 Dust 40 997 42 7000 6.7 320 13:49 27.06.2019
5756 Dust 40 997 42 7000 6.7 320 13:30 27.06.2019
5757 Clear 42 998 48 7000 6.7 330 12:53 27.06.2019
5758 Dust 41 998 48 7000 6.7 330 12:34 27.06.2019
5759 Dust 42 998 38 7000 6.7 300 11:57 27.06.2019
5760 Dust 42 998 38 7000 6.7 300 11:39 27.06.2019
5761 Dust 42 998 38 7000 6.7 300 11:20 27.06.2019
5762 Dust 43 999 26 4500 6.2 250 10:44 27.06.2019
5763 Dust 43 999 26 4500 6.2 250 10:21 27.06.2019
5764 Dust 41 999 28 5000 6.7 240 09:50 27.06.2019
5765 Dust 41 999 28 5000 6.7 240 09:22 27.06.2019
5766 Dust 40 1000 29 5000 6.7 220 08:52 27.06.2019
5767 Dust 40 1000 29 5000 6.7 220 08:30 27.06.2019
5768 Dust 39 1000 31 6000 5.7 210 07:53 27.06.2019
5769 Dust 39 1000 31 6000 5.7 210 07:29 27.06.2019
5770 Dust 37 1000 37 8000 5.1 210 06:43 27.06.2019
5771 Dust 35 999 44 5000 3.1 200 04:24 27.06.2019
5772 Clouds 36 998 39 9000 3.1 170 02:44 27.06.2019
5773 Clouds 34 998 32 9000 4.1 160 01:48 27.06.2019
5774 Clouds 34 999 43 6000 2.6 120 00:57 27.06.2019
5775 Clouds 34 998 30 8000 2.6 100 00:38 27.06.2019
5776 Clear 33 998 30 8000 2.6 100 00:18 27.06.2019
5777 Clear 34 998 33 8000 2.6 110 23:38 26.06.2019
5778 Clear 34 998 33 8000 2.6 110 23:19 26.06.2019
5779 Clear 35 999 33 8000 2.1 100 22:41 26.06.2019
5780 Clear 35 999 33 8000 2.1 100 22:23 26.06.2019
5781 Clear 35 1000 41 5000 2.1 60 21:55 26.06.2019
5782 Clear 35 999 35 7000 2.6 100 21:37 26.06.2019
5783 Clear 36 999 35 7000 2.6 100 21:19 26.06.2019
5784 Clear 36 999 35 7000 2.6 80 20:43 26.06.2019
5785 Clear 36 999 35 7000 2.6 80 20:25 26.06.2019
5786 Clear 37 999 33 7000 2.6 70 19:48 26.06.2019
5787 Clear 37 999 33 7000 2.6 70 19:30 26.06.2019
5788 Clear 38 999 33 6000 2.1 70 18:54 26.06.2019
5789 Clear 38 999 33 6000 2.1 70 18:36 26.06.2019
5790 Dust 38 999 35 6000 2.6 40 18:18 26.06.2019
5791 Dust 38 999 35 6000 2.6 40 17:38 26.06.2019
5792 Dust 38 999 35 6000 2.6 40 17:19 26.06.2019
5793 Dust 39 999 40 5000 4.1 350 16:50 26.06.2019
5794 Dust 39 999 40 5000 4.1 350 16:26 26.06.2019
5795 Dust 39 999 42 5000 5.1 20 15:48 26.06.2019
5796 Dust 39 999 42 5000 5.1 20 15:26 26.06.2019
5797 Dust 39 999 40 5000 5.1 340 14:39 26.06.2019
5798 Dust 39 999 40 5000 5.1 340 14:20 26.06.2019
5799 Dust 39 1000 45 5000 6.2 340 13:45 26.06.2019
5800 Dust 39 1000 45 5000 6.2 340 13:21 26.06.2019
5801 Dust 40 1000 51 4500 5.7 330 12:43 26.06.2019
5802 Dust 40 1000 51 4500 5.7 330 12:25 26.06.2019
5803 Dust 41 1001 43 3500 7.2 350 11:54 26.06.2019
5804 Dust 41 1001 43 3500 7.2 350 11:23 26.06.2019
5805 Dust 42 1001 40 3500 7.2 320 10:48 26.06.2019
5806 Dust 42 1001 40 3500 7.2 320 10:29 26.06.2019
5807 Dust 42 1002 32 6000 1.5 0 09:51 26.06.2019
5808 Dust 41 1002 32 6000 1.5 0 09:26 26.06.2019
5809 Dust 40 1002 37 5000 4.6 160 08:52 26.06.2019
5810 Dust 39 1002 37 5000 4.6 160 08:21 26.06.2019
5811 Dust 37 1002 44 4500 3.6 140 07:55 26.06.2019
5812 Dust 37 1002 44 4500 3.6 140 07:35 26.06.2019
5813 Dust 35 1002 50 6000 3.6 160 06:32 26.06.2019
5814 Clear 33 1000 59 10000 5.7 100 01:36 26.06.2019
5815 Clear 33 1000 56 10000 5.1 80 00:27 26.06.2019
5816 Clear 34 1000 50 10000 6.2 70 23:49 25.06.2019
5817 Clear 34 1000 50 10000 6.2 70 23:29 25.06.2019
5818 Clear 36 1000 59 7000 5.7 60 22:59 25.06.2019
5819 Clear 36 1000 37 10000 4.6 70 22:40 25.06.2019
5820 Clear 36 1000 37 10000 4.6 70 22:21 25.06.2019
5821 Clear 36 1000 33 10000 3.6 80 21:45 25.06.2019
5822 Clear 36 1000 33 10000 3.6 80 21:24 25.06.2019
5823 Clear 37 999 42 10000 2.6 50 20:48 25.06.2019
5824 Clear 37 999 42 10000 2.6 50 20:48 25.06.2019
5825 Clear 37 999 42 10000 2.6 50 20:48 25.06.2019
5826 Clear 37 999 42 10000 2.6 50 20:48 25.06.2019
5827 Clear 37 999 42 10000 2.6 50 20:23 25.06.2019
5828 Clear 37 1000 47 7000 1.5 290 19:56 25.06.2019
5829 Clear 37 999 45 10000 2.1 50 19:56 25.06.2019
5830 Clear 37 999 45 10000 2.1 50 19:37 25.06.2019
5831 Clear 37 999 45 10000 2.1 50 19:18 25.06.2019
5832 Clear 37 998 50 10000 3.1 20 18:41 25.06.2019
5833 Clear 38 998 50 10000 3.1 20 18:22 25.06.2019
5834 -273 0 0 0 0 0 17:42 25.06.2019
5835 -273 0 0 0 0 0 17:42 25.06.2019
5836 Clear 38 999 48 9000 3.6 360 17:21 25.06.2019
5837 Clear 38 999 48 9000 3.6 360 17:21 25.06.2019
5838 -273 0 0 0 0 0 17:21 25.06.2019
5839 Clear 38 999 48 9000 3.6 360 17:21 25.06.2019
5840 Clear 38 999 48 9000 3.6 360 17:21 25.06.2019
5841 Clear 39 998 48 8000 3.6 20 16:43 25.06.2019
5842 Clear 39 998 48 8000 3.6 20 16:25 25.06.2019
5843 Clear 39 998 50 8000 5.1 10 15:43 25.06.2019
5844 Clear 39 998 50 8000 5.1 10 15:25 25.06.2019
5845 Clear 39 999 45 7000 4.1 0 14:57 25.06.2019
5846 Clear 39 998 53 8000 4.6 340 14:37 25.06.2019
5847 Clear 39 999 36 10000 5.7 300 13:59 25.06.2019
5848 Clear 40 999 50 9000 6.7 340 13:39 25.06.2019
5849 Clear 41 999 32 10000 4.6 310 13:19 25.06.2019
5850 Clear 42 999 50 8000 6.2 330 12:39 25.06.2019
5851 Clear 42 999 50 8000 6.2 330 12:21 25.06.2019
5852 Clear 41 1000 45 10000 6.7 340 11:44 25.06.2019
5853 Clear 41 1000 45 10000 6.7 340 11:21 25.06.2019
5854 Clear 42 1000 23 10000 2.1 110 10:46 25.06.2019
5855 Clear 41 1000 23 10000 2.1 110 10:24 25.06.2019
5856 Clear 40 1001 19 10000 2.1 190 09:56 25.06.2019
5857 Clear 40 1001 29 10000 3.1 0 09:38 25.06.2019
5858 Clear 40 1001 29 10000 3.1 0 09:19 25.06.2019
5859 Clear 38 1001 33 10000 2.1 180 08:48 25.06.2019
5860 Clear 38 1001 33 10000 2.1 180 08:28 25.06.2019
5861 Clear 36 1001 37 10000 3.1 240 07:43 25.06.2019
5862 Clear 35 1002 32 10000 2.6 240 06:59 25.06.2019
5863 Clear 34 1001 41 10000 2.1 120 06:40 25.06.2019
5864 Clear 31 1000 55 10000 3.6 220 04:30 25.06.2019
5865 Clear 31 1000 59 10000 2.1 150 02:25 25.06.2019
5866 Clear 32 999 59 10000 3.6 200 00:38 25.06.2019
5867 Clear 33 1000 58 10000 2.6 180 00:18 25.06.2019
5868 Clear 33 1000 52 10000 3.1 210 23:43 24.06.2019
5869 Clear 33 1000 52 10000 3.1 210 23:25 24.06.2019
5870 Clear 33 1000 56 10000 3.1 220 22:45 24.06.2019
5871 Clear 33 1000 56 10000 3.1 220 22:45 24.06.2019
5872 Clear 33 1000 56 10000 3.1 220 22:19 24.06.2019
5873 Clear 34 1001 56 10000 2.1 220 21:42 24.06.2019
5874 Clear 34 1001 56 10000 2.1 220 21:20 24.06.2019
5875 Clear 34 1002 49 10000 2.1 210 20:59 24.06.2019
5876 Clear 34 1000 50 10000 2.6 250 20:40 24.06.2019
5877 Clear 34 1000 50 10000 2.6 250 20:21 24.06.2019
5878 Clear 35 1000 47 10000 3.1 270 19:46 24.06.2019
5879 Clear 35 1000 47 10000 3.1 270 19:24 24.06.2019
5880 Clear 35 1000 47 10000 3.1 270 19:24 24.06.2019
5881 Clear 35 999 50 10000 4.6 280 18:48 24.06.2019
5882 Clear 35 999 50 10000 4.6 280 18:30 24.06.2019
5883 Clear 37 999 44 10000 5.1 290 17:57 24.06.2019
5884 Clear 37 999 44 10000 5.1 290 17:36 24.06.2019
5885 Clear 37 999 44 10000 5.1 290 17:36 24.06.2019
5886 Clear 38 1000 31 9000 4.1 310 16:55 24.06.2019
5887 Clear 39 999 37 10000 5.7 290 16:36 24.06.2019
5888 Clear 39 999 37 10000 5.7 290 16:18 24.06.2019
5889 Clear 40 998 29 10000 7.2 300 15:38 24.06.2019
5890 Clear 40 998 29 10000 7.2 300 15:19 24.06.2019
5891 Dust 41 998 26 10000 7.7 300 14:34 24.06.2019
5892 Clear 42 999 23 10000 8.2 300 13:54 24.06.2019
5893 Clear 42 999 23 10000 8.2 300 13:31 24.06.2019
5894 Clear 42 999 23 10000 8.2 300 13:31 24.06.2019
5895 Clear 42 999 22 10000 7.7 310 12:45 24.06.2019
5896 Clear 42 999 22 10000 7.7 310 12:22 24.06.2019
5897 Clear 42 1000 14 10000 5.7 300 11:58 24.06.2019
5898 Clear 42 1000 14 10000 5.7 300 11:58 24.06.2019
5899 Clear 42 1000 20 10000 6.2 300 11:40 24.06.2019
5900 Clear 42 1000 20 10000 6.2 300 11:20 24.06.2019
5901 Clear 43 1001 20 10000 4.6 300 10:46 24.06.2019
5902 Clear 43 1001 20 10000 4.6 300 10:25 24.06.2019
5903 Clear 42 1001 17 10000 5.1 320 09:49 24.06.2019
5904 Clear 42 1001 17 10000 5.1 320 09:22 24.06.2019
5905 Clear 40 1001 29 10000 2.1 0 08:51 24.06.2019
5906 Clear 40 1001 29 10000 2.1 0 08:25 24.06.2019
5907 Clear 37 1001 39 10000 2.1 220 07:45 24.06.2019
5908 Clear 37 1001 39 10000 2.1 220 07:26 24.06.2019
5909 Clouds 35 1001 41 8000 3.1 170 06:39 24.06.2019
5910 Clear 33 1002 43 6000 1.5 140 06:19 24.06.2019
5911 Clear 32 1001 45 6000 1 0 04:59 24.06.2019
5912 Clouds 32 1000 49 9000 2.1 200 04:23 24.06.2019
5913 Clear 33 1000 45 7000 1 0 02:56 24.06.2019
5914 Clear 33 999 53 10000 2.6 230 02:20 24.06.2019
5915 Clear 33 999 47 10000 2.6 220 01:49 24.06.2019
5916 Clear 33 999 47 10000 2.6 220 01:21 24.06.2019
5917 Clear 33 999 41 10000 2.1 240 00:39 24.06.2019
5918 Clear 33 999 41 10000 2.1 240 00:19 24.06.2019
5919 Clear 34 999 50 10000 2.6 250 23:44 23.06.2019
5920 Clear 34 999 50 10000 2.6 250 23:22 23.06.2019
5921 Clear 34 1000 44 10000 3.1 330 22:43 23.06.2019
5922 Clear 35 1000 44 10000 3.1 330 22:20 23.06.2019
5923 Clear 35 1000 39 10000 2.1 260 21:44 23.06.2019
5924 Clear 35 1000 39 10000 2.1 260 21:25 23.06.2019
5925 Clear 37 1001 36 9000 1 220 20:58 23.06.2019
5926 Clear 36 1000 44 10000 2.6 220 20:40 23.06.2019
5927 Clear 37 1000 44 10000 2.6 220 20:21 23.06.2019
5928 Clear 37 1000 33 10000 3.6 290 19:43 23.06.2019
5929 Clear 37 1000 33 10000 3.6 290 19:20 23.06.2019
5930 Clear 38 1000 28 10000 4.6 300 18:52 23.06.2019
5931 Clear 38 1000 28 10000 4.6 300 18:22 23.06.2019
5932 Clear 39 999 29 10000 5.7 330 17:50 23.06.2019
5933 Clear 39 999 29 10000 5.7 330 17:25 23.06.2019
5934 Clear 41 1000 20 7000 4.6 310 16:55 23.06.2019
5935 Clear 41 999 24 10000 5.1 320 16:36 23.06.2019
5936 Clear 41 999 24 10000 5.1 320 16:18 23.06.2019
5937 Clear 42 1000 18 7000 5.7 310 15:40 23.06.2019
5938 Clear 42 1000 19 7000 6.7 300 15:19 23.06.2019
5939 Clear 42 999 23 10000 7.7 330 14:40 23.06.2019
5940 Clear 42 999 23 10000 7.7 330 14:22 23.06.2019
5941 Clear 42 1000 19 7000 6.2 310 13:56 23.06.2019
5942 Clear 42 1000 26 10000 6.7 320 13:36 23.06.2019
5943 Clear 42 1000 26 10000 6.7 320 13:18 23.06.2019
5944 Clear 42 1000 34 10000 5.7 300 12:42 23.06.2019
5945 Clear 42 1000 34 10000 5.7 300 12:21 23.06.2019
5946 Clear 43 1000 34 9000 5.7 310 11:50 23.06.2019
5947 Clear 43 1000 34 9000 5.7 310 11:29 23.06.2019
5948 Clear 42 1001 19 10000 5.7 320 10:53 23.06.2019
5949 Clear 42 1001 38 8000 4.1 300 10:22 23.06.2019
5950 Clear 42 1001 38 8000 4.1 300 10:22 23.06.2019
5951 Clear 41 1002 18 7000 3.6 230 09:59 23.06.2019
5952 Clear 41 1001 36 9000 3.1 210 09:25 23.06.2019
5953 Clear 40 1001 42 9000 1.5 0 08:55 23.06.2019
5954 Clear 40 1001 42 9000 1.5 0 08:36 23.06.2019
5955 Clear 40 1001 42 9000 1.5 0 08:18 23.06.2019
5956 Clear 37 1001 45 8000 2.1 0 07:48 23.06.2019
5957 Clear 37 1001 45 8000 2.1 0 07:19 23.06.2019
5958 Clear 35 1001 56 7000 2.1 80 06:53 23.06.2019
5959 Clear 33 1001 63 7000 2.1 80 05:53 23.06.2019
5960 Clear 34 999 50 10000 1.5 20 02:52 23.06.2019
5961 Clear 34 999 42 10000 2.6 30 01:43 23.06.2019
5962 Clear 34 999 42 10000 2.6 30 01:24 23.06.2019
5963 Clear 35 999 53 10000 3.6 340 00:34 23.06.2019
5964 Clear 35 999 50 10000 2.6 0 23:52 22.06.2019
5965 Clear 35 999 50 10000 2.6 0 23:26 22.06.2019
5966 Clear 36 999 29 10000 2.1 30 22:47 22.06.2019
5967 Clear 36 999 29 10000 2.1 30 22:29 22.06.2019
5968 Clouds 36 1000 41 10000 1 0 21:59 22.06.2019
5969 Clear 36 1000 29 10000 2.1 50 21:36 22.06.2019
5970 Clear 36 1000 29 10000 2.1 50 21:18 22.06.2019
5971 Clear 36 1000 31 10000 3.1 70 20:46 22.06.2019
5972 Clear 36 1000 31 10000 3.1 70 20:24 22.06.2019
5973 Clear 37 1000 33 10000 3.6 60 19:42 22.06.2019
5974 Clear 37 1000 33 10000 3.6 60 19:21 22.06.2019
5975 Clear 38 1000 31 10000 4.1 40 18:43 22.06.2019
5976 Clear 38 1000 31 10000 4.1 40 18:23 22.06.2019
5977 Clear 39 999 33 9000 5.7 30 17:46 22.06.2019
5978 Clear 39 999 33 9000 5.7 30 17:28 22.06.2019
5979 Dust 40 999 30 9000 5.1 20 16:46 22.06.2019
5980 Dust 40 999 30 9000 5.1 20 16:24 22.06.2019
5981 Dust 40 998 30 8000 6.2 350 15:46 22.06.2019
5982 Dust 41 998 30 8000 6.2 350 15:27 22.06.2019
5983 Dust 43 999 25 5000 7.2 300 14:52 22.06.2019
5984 Dust 41 999 25 5000 7.2 300 14:33 22.06.2019
5985 Dust 41 999 36 7000 7.7 330 13:58 22.06.2019
5986 Dust 41 999 36 7000 7.7 330 13:39 22.06.2019
5987 Clear 42 999 36 7000 6.2 330 13:19 22.06.2019
5988 Clear 42 999 36 7000 6.2 330 12:47 22.06.2019
5989 Clear 42 999 36 7000 6.2 330 12:29 22.06.2019
5990 Clear 43 1000 19 7000 2.1 0 11:46 22.06.2019
5991 Clear 43 1000 19 7000 2.1 0 11:27 22.06.2019
5992 Clear 41 1001 24 7000 2.6 130 10:47 22.06.2019
5993 Clear 41 1001 24 7000 2.6 130 10:19 22.06.2019
5994 Clear 40 1001 31 7000 4.6 160 09:37 22.06.2019
5995 Clear 37 1001 47 6000 3.6 150 08:56 22.06.2019
5996 Clear 37 1001 47 6000 3.6 150 08:37 22.06.2019
5997 Clear 35 1001 56 6000 3.1 90 07:53 22.06.2019
5998 Clear 35 1001 56 6000 3.1 90 07:29 22.06.2019
5999 Clear 33 1001 67 6000 3.1 90 06:44 22.06.2019
6000 Haze 31 1000 79 5000 2.1 70 04:37 22.06.2019
6001 Clouds 32 998 71 7000 3.6 30 02:26 22.06.2019
6002 Clouds 32 998 71 8000 3.1 320 00:54 22.06.2019
6003 Clear 32 998 71 8000 3.1 320 00:31 22.06.2019
6004 Clear 32 999 71 8000 2.6 340 23:50 21.06.2019
6005 Clear 32 999 71 8000 2.6 340 23:24 21.06.2019
6006 Clear 33 1000 66 10000 1 70 22:58 21.06.2019
6007 Clear 33 999 63 8000 2.1 10 22:39 21.06.2019
6008 Clear 33 999 63 8000 2.1 10 22:20 21.06.2019
6009 Clear 33 999 50 10000 2.1 80 21:40 21.06.2019
6010 Clear 33 999 50 10000 2.1 80 21:20 21.06.2019
6011 Clear 34 999 47 10000 2.1 30 20:48 21.06.2019
6012 Clear 34 999 47 10000 2.1 30 20:26 21.06.2019
6013 Clear 34 999 50 10000 2.1 70 19:54 21.06.2019
6014 Clear 34 999 50 10000 2.1 70 19:22 21.06.2019
6015 Clear 34 998 47 10000 2.6 90 18:41 21.06.2019
6016 Clear 34 998 47 10000 2.6 90 18:23 21.06.2019
6017 Clear 35 998 50 10000 3.1 340 17:31 21.06.2019
6018 Clear 36 998 53 6000 3.1 310 16:59 21.06.2019
6019 Clear 36 997 33 10000 2.6 260 16:37 21.06.2019
6020 Clear 35 997 33 10000 2.6 260 16:18 21.06.2019
6021 Dust 35 997 35 10000 2.6 310 15:37 21.06.2019
6022 Thunderstorm 33 998 37 10000 3.6 320 14:57 21.06.2019
6023 Thunderstorm 32 997 74 8000 9.8 50 14:39 21.06.2019
6024 Thunderstorm 32 997 74 8000 9.8 50 14:20 21.06.2019
6025 Dust 32 1000 94 600 19 160 13:39 21.06.2019
6026 Dust 34 1000 94 600 19 160 13:21 21.06.2019
6027 Clouds 40 998 45 7000 6.7 320 12:50 21.06.2019
6028 Clouds 40 998 45 7000 6.7 320 12:23 21.06.2019
6029 Clouds 41 998 38 10000 7.2 300 11:55 21.06.2019
6030 Clouds 41 998 45 7000 6.2 330 11:37 21.06.2019
6031 Clear 41 999 34 10000 2.1 0 11:19 21.06.2019
6032 Clouds 41 999 43 7000 4.1 330 10:42 21.06.2019
6033 Clouds 41 999 43 7000 4.1 330 10:20 21.06.2019
6034 Clouds 41 999 43 7000 4.1 330 10:20 21.06.2019
6035 Clear 39 999 43 9000 2.6 80 09:43 21.06.2019
6036 Clear 39 999 43 9000 2.6 80 09:23 21.06.2019
6037 Clear 38 1000 47 10000 2.6 110 08:56 21.06.2019
6038 Clear 38 999 45 9000 3.1 110 08:37 21.06.2019
6039 Clear 37 999 45 9000 3.1 110 08:18 21.06.2019
6040 Clear 36 1000 50 8000 3.6 120 07:42 21.06.2019
6041 Clear 36 1000 50 8000 3.6 120 07:19 21.06.2019
6042 Clear 35 1000 56 7000 3.6 120 06:28 21.06.2019
6043 Clear 33 999 59 6000 3.1 110 05:35 21.06.2019
6044 Clear 32 999 56 6000 2.6 100 04:40 21.06.2019
6045 Clear 32 998 56 7000 3.1 80 03:41 21.06.2019
6046 Clear 32 998 56 7000 3.1 80 03:23 21.06.2019
6047 Clear 32 997 56 7000 3.6 90 02:26 21.06.2019
6048 Clear 33 997 56 8000 3.6 0 01:30 21.06.2019
6049 Clear 33 997 56 9000 3.1 40 00:35 21.06.2019
6050 Clear 33 998 55 6000 3.1 40 23:56 20.06.2019
6051 Clear 33 997 67 8000 3.1 20 23:37 20.06.2019
6052 Clear 33 997 67 8000 3.1 20 23:19 20.06.2019
6053 Clear 34 997 50 7000 4.6 50 22:41 20.06.2019
6054 Clear 34 997 50 7000 4.6 50 22:23 20.06.2019
6055 Clear 34 997 50 6000 4.6 60 21:56 20.06.2019
6056 Clear 34 997 50 6000 4.6 60 21:37 20.06.2019
6057 Clear 34 997 50 6000 4.6 60 21:19 20.06.2019
6058 Clear 34 997 50 6000 4.6 60 21:19 20.06.2019
6059 Clear 35 997 47 6000 5.1 60 20:41 20.06.2019
6060 Clear 35 997 47 6000 5.1 60 20:23 20.06.2019
6061 Clear 36 996 45 7000 4.6 80 19:45 20.06.2019
6062 Clear 36 996 45 7000 4.6 80 19:19 20.06.2019
6063 Clear 37 996 42 8000 5.1 70 18:58 20.06.2019
6064 Clear 37 996 42 8000 5.1 70 18:40 20.06.2019
6065 Clear 37 996 42 8000 5.1 70 18:21 20.06.2019
6066 Haze 38 995 36 8000 5.7 70 17:46 20.06.2019
6067 Haze 39 995 36 8000 5.7 70 17:27 20.06.2019
6068 Haze 40 995 36 10000 6.7 80 16:44 20.06.2019
6069 Dust 41 995 32 7000 6.7 60 16:19 20.06.2019
6070 Dust 41 995 32 7000 6.7 60 15:56 20.06.2019
6071 Dust 41 995 30 10000 5.1 70 15:37 20.06.2019
6072 Dust 41 995 30 10000 5.1 70 15:18 20.06.2019
6073 Dust 42 995 30 8000 4.6 90 14:42 20.06.2019
6074 Dust 42 995 30 8000 4.6 90 14:21 20.06.2019
6075 Clouds 43 995 41 8000 6.2 350 13:40 20.06.2019
6076 Clouds 43 995 41 8000 6.2 350 13:19 20.06.2019
6077 Clouds 43 996 32 8000 5.7 90 12:44 20.06.2019
6078 Clouds 43 996 32 8000 5.7 90 12:22 20.06.2019
6079 Clouds 42 996 34 8000 5.7 80 11:44 20.06.2019
6080 Clouds 41 996 34 8000 5.7 80 11:23 20.06.2019
6081 Clear 40 997 43 10000 4.1 140 10:45 20.06.2019
6082 Clear 38 998 35 10000 4.1 140 10:25 20.06.2019
6083 Clear 38 998 35 10000 4.1 140 09:58 20.06.2019
6084 Clear 38 997 42 10000 5.7 130 09:38 20.06.2019
6085 Clear 38 997 42 10000 5.7 130 09:20 20.06.2019
6086 Clear 36 997 44 10000 5.1 160 08:45 20.06.2019
6087 Clear 36 997 44 10000 5.1 160 08:26 20.06.2019
6088 Clear 34 998 52 10000 5.1 140 07:51 20.06.2019
6089 Clear 33 998 52 10000 5.1 140 07:26 20.06.2019
6090 Clear 32 997 55 10000 4.1 150 06:25 20.06.2019
6091 Clear 30 997 70 9000 4.1 150 03:55 20.06.2019
6092 Clear 30 995 66 10000 3.6 180 02:29 20.06.2019
6093 Clouds 31 995 75 10000 4.1 190 00:33 20.06.2019
6094 Clouds 32 996 75 10000 3.1 210 23:49 19.06.2019
6095 Clouds 32 996 75 10000 3.1 210 23:30 19.06.2019
6096 Clouds 32 996 75 10000 3.1 240 22:49 19.06.2019
6097 Clouds 32 996 75 10000 3.1 240 22:25 19.06.2019
6098 Clear 33 997 75 8000 4.1 220 21:58 19.06.2019
6099 Clear 32 996 75 10000 2.6 220 21:40 19.06.2019
6100 Clear 32 996 75 10000 2.6 220 21:21 19.06.2019
6101 Clear 33 996 75 10000 2.6 240 20:42 19.06.2019
6102 Clear 33 996 75 10000 2.6 240 20:21 19.06.2019
6103 Clouds 33 996 75 10000 2.6 240 19:51 19.06.2019
6104 Clouds 33 996 75 10000 2.6 240 19:29 19.06.2019
6105 -273 0 0 0 0 0 18:57 19.06.2019
6106 Clouds 33 995 71 10000 3.1 240 18:28 19.06.2019
6107 Clouds 34 994 71 10000 4.1 270 17:53 19.06.2019
6108 Clouds 34 994 71 10000 4.1 270 17:33 19.06.2019
6109 -273 0 0 0 0 0 16:56 19.06.2019
6110 Clouds 35 994 67 10000 5.7 280 16:38 19.06.2019
6111 Clouds 35 994 67 10000 5.7 280 16:19 19.06.2019
6112 Mist 36 994 71 10000 6.2 290 15:46 19.06.2019
6113 Mist 36 994 71 10000 6.2 290 15:25 19.06.2019
6114 Clear 39 994 53 10000 6.2 280 14:48 19.06.2019
6115 Clear 39 994 53 10000 6.2 280 14:29 19.06.2019
6116 Clear 40 994 20 10000 3.6 260 13:56 19.06.2019
6117 Clear 40 994 42 10000 5.7 290 13:37 19.06.2019
6118 Clear 40 994 42 10000 5.7 290 13:19 19.06.2019
6119 Clear 41 994 48 10000 5.7 270 12:42 19.06.2019
6120 Clear 41 994 48 10000 5.7 270 12:20 19.06.2019
6121 Clear 41 994 36 10000 4.1 250 11:43 19.06.2019
6122 Clear 41 994 36 10000 4.1 250 11:23 19.06.2019
6123 Clear 40 995 35 10000 3.6 220 10:51 19.06.2019
6124 Clear 40 995 35 10000 3.6 220 10:30 19.06.2019
6125 Clear 39 996 29 10000 3.6 240 09:58 19.06.2019
6126 Clear 39 996 29 10000 3.6 240 09:58 19.06.2019
6127 Clear 39 995 42 10000 3.6 230 09:38 19.06.2019
6128 Clear 39 995 42 10000 3.6 230 09:19 19.06.2019
6129 Clear 37 995 47 10000 4.1 0 08:44 19.06.2019
6130 Clear 37 995 47 10000 4.1 0 08:25 19.06.2019
6131 Clear 36 995 50 10000 4.6 220 07:44 19.06.2019
6132 Clear 36 995 50 10000 4.6 220 07:23 19.06.2019
6133 Clear 34 995 52 10000 4.1 200 06:44 19.06.2019
6134 Clear 34 995 52 10000 4.1 200 06:22 19.06.2019
6135 Clear 32 995 59 10000 4.6 200 05:41 19.06.2019
6136 Clear 32 996 62 8000 5.1 180 03:58 19.06.2019
6137 Clouds 32 996 66 10000 4.1 180 02:59 19.06.2019
6138 Clear 32 995 59 10000 2.6 220 01:47 19.06.2019
6139 Clouds 34 996 70 10000 3.6 210 00:57 19.06.2019
6140 Clear 33 995 56 10000 3.1 220 00:39 19.06.2019
6141 Clear 34 995 56 10000 3.1 220 00:19 19.06.2019
6142 Clouds 33 996 75 9000 3.1 230 23:46 18.06.2019
6143 Clouds 33 996 75 9000 3.1 230 23:25 18.06.2019
6144 Clouds 33 996 67 9000 3.6 220 22:43 18.06.2019
6145 Clouds 33 996 67 9000 3.6 220 22:24 18.06.2019
6146 Clouds 34 996 59 9000 3.1 210 21:56 18.06.2019
6147 Clouds 34 996 59 9000 3.1 210 21:37 18.06.2019
6148 Clouds 34 996 59 9000 3.1 210 21:19 18.06.2019
6149 Clear 34 996 63 9000 3.1 200 20:42 18.06.2019
6150 Clear 34 996 63 9000 3.1 200 20:23 18.06.2019
6151 Clear 35 996 56 10000 2.6 230 19:41 18.06.2019
6152 Clear 35 996 56 10000 2.6 230 19:23 18.06.2019
6153 Clear 36 996 47 10000 2.6 250 18:56 18.06.2019
6154 Clear 36 996 47 10000 2.6 250 18:26 18.06.2019
6155 Clear 37 996 35 10000 3.6 300 17:56 18.06.2019
6156 Clear 37 996 35 10000 3.6 300 17:56 18.06.2019
6157 Clear 37 996 35 10000 3.6 300 17:38 18.06.2019
6158 Clear 37 997 25 10000 5.1 290 17:19 18.06.2019
6159 Clear 37 996 47 8000 5.1 320 16:42 18.06.2019
6160 Clear 38 996 47 8000 5.1 320 16:22 18.06.2019
6161 Clear 39 996 54 7000 5.7 320 15:43 18.06.2019
6162 Clouds 39 996 54 7000 5.7 320 15:23 18.06.2019
6163 Clear 39 996 38 7000 6.2 300 14:57 18.06.2019
6164 Clouds 40 996 51 6000 6.7 320 14:39 18.06.2019
6165 Clouds 40 996 51 6000 6.7 320 14:19 18.06.2019
6166 Clouds 40 996 51 7000 6.2 330 13:50 18.06.2019
6167 Clouds 40 996 51 7000 6.2 330 13:31 18.06.2019
6168 Dust 40 997 51 7000 4.6 330 12:46 18.06.2019
6169 Dust 40 997 51 7000 4.6 330 12:28 18.06.2019
6170 Dust 39 997 26 7000 1.5 0 11:56 18.06.2019
6171 Dust 40 997 60 6000 4.6 330 11:38 18.06.2019
6172 Dust 39 997 60 6000 4.6 330 11:18 18.06.2019
6173 Clouds 39 998 57 6000 3.1 0 10:43 18.06.2019
6174 Clouds 38 998 57 6000 3.1 0 10:22 18.06.2019
6175 Clouds 38 998 57 6000 3.1 0 10:22 18.06.2019
6176 Dust 38 998 53 5000 2.1 130 09:52 18.06.2019
6177 Dust 38 998 53 5000 2.1 130 09:25 18.06.2019
6178 Haze 35 998 71 3500 2.6 200 08:56 18.06.2019
6179 Haze 35 998 71 3500 2.6 200 08:38 18.06.2019
6180 Haze 34 998 71 3500 2.6 200 08:20 18.06.2019
6181 Haze 32 998 71 3000 2.1 110 07:26 18.06.2019
6182 Haze 31 998 79 3000 1.5 0 06:57 18.06.2019
6183 Fog 29 998 100 800 1.5 180 05:27 18.06.2019
6184 Fog 29 998 100 800 1.5 180 05:27 18.06.2019
6185 Fog 29 998 69 5000 2.1 90 04:22 18.06.2019
6186 Fog 30 997 75 10000 1.5 0 02:49 18.06.2019
6187 Haze 30 997 70 10000 2.1 0 01:28 18.06.2019
6188 Fog 30 998 79 5000 2.6 240 00:58 18.06.2019
6189 Fog 30 997 63 10000 1.5 160 00:39 18.06.2019
6190 Fog 30 997 63 10000 1.5 160 00:21 18.06.2019
6191 Mist 31 997 75 10000 2.1 180 23:38 17.06.2019
6192 Mist 31 997 75 10000 2.1 180 23:38 17.06.2019
6193 Mist 31 997 75 10000 2.1 180 23:18 17.06.2019
6194 Mist 31 998 67 10000 1.5 0 22:41 17.06.2019
6195 Mist 32 998 67 10000 1.5 0 22:21 17.06.2019
6196 Mist 32 998 75 10000 2.6 360 21:46 17.06.2019
6197 Mist 32 998 75 10000 2.6 360 21:24 17.06.2019
6198 Mist 32 998 75 10000 2.6 360 21:24 17.06.2019
6199 Clear 34 998 50 10000 2.1 300 20:44 17.06.2019
6200 Clear 34 998 50 10000 2.1 300 20:26 17.06.2019
6201 Clouds 35 999 63 10000 2.1 240 19:58 17.06.2019
6202 Clear 35 998 53 10000 2.1 260 19:40 17.06.2019
6203 Clear 35 998 53 10000 2.1 260 19:21 17.06.2019
6204 Clear 35 998 47 10000 1.5 70 18:39 17.06.2019
6205 Clear 36 997 50 10000 3.1 30 18:18 17.06.2019
6206 Clear 36 997 50 10000 3.1 30 17:59 17.06.2019
6207 Clear 36 997 50 10000 3.1 30 17:39 17.06.2019
6208 Clouds 37 998 37 10000 3.1 300 17:21 17.06.2019
6209 Clear 37 997 44 10000 3.6 330 16:43 17.06.2019
6210 Clear 38 997 44 10000 3.6 330 16:24 17.06.2019
6211 Clear 38 997 50 10000 4.6 360 15:55 17.06.2019
6212 Clouds 39 998 23 10000 3.6 320 15:36 17.06.2019
6213 Clear 39 998 21 10000 3.6 320 15:18 17.06.2019
6214 Clear 39 998 21 10000 3.6 320 15:18 17.06.2019
6215 Clear 39 997 50 10000 5.1 360 14:42 17.06.2019
6216 Clear 40 997 50 10000 5.1 360 14:22 17.06.2019
6217 Clear 40 998 45 10000 5.7 340 13:44 17.06.2019
6218 Clear 40 999 17 10000 4.6 310 13:21 17.06.2019
6219 Clear 40 998 50 10000 5.1 350 12:47 17.06.2019
6220 Clear 40 998 50 10000 5.1 350 12:24 17.06.2019
6221 Clear 40 999 53 10000 4.1 360 11:45 17.06.2019
6222 Clear 40 999 53 10000 4.1 360 11:26 17.06.2019
6223 Clear 40 1000 22 10000 4.6 310 10:56 17.06.2019
6224 Clear 41 999 35 10000 6.2 330 10:38 17.06.2019
6225 Clear 42 1000 11 10000 4.1 300 10:20 17.06.2019
6226 Clear 41 1000 23 10000 4.6 340 09:39 17.06.2019
6227 Clear 41 1000 11 10000 2.6 0 09:20 17.06.2019
6228 Clear 41 1000 28 10000 3.6 340 08:41 17.06.2019
6229 Clear 38 1000 12 10000 1.5 290 08:22 17.06.2019
6230 Clear 38 999 25 10000 1.5 210 07:40 17.06.2019
6231 Clear 35 1000 15 10000 2.6 220 07:20 17.06.2019
6232 Clear 35 999 26 10000 2.1 0 06:30 17.06.2019
6233 Clear 32 998 43 10000 2.1 250 05:44 17.06.2019
6234 Clear 30 998 41 10000 2.1 200 04:34 17.06.2019
6235 Clear 30 997 55 10000 2.6 180 03:35 17.06.2019
6236 Clear 30 998 59 10000 1 0 02:58 17.06.2019
6237 Clear 30 998 59 10000 1 0 02:39 17.06.2019
6238 Clear 30 998 52 10000 1.5 220 01:41 17.06.2019
6239 Clouds 30 999 51 10000 0.5 90 00:59 17.06.2019
6240 Clear 30 998 44 10000 1 150 00:41 17.06.2019
6241 Clouds 30 999 51 10000 1.91 344.331 00:21 17.06.2019
6242 Clear 31 998 56 10000 2.1 100 23:40 16.06.2019
6243 Clouds 32 999 51 10000 0.5 40 23:21 16.06.2019
6244 Clear 32 999 50 10000 2.6 90 22:47 16.06.2019
6245 Clouds 32 999 48 10000 2.6 70 22:21 16.06.2019
6246 Clouds 32 999 48 10000 2.6 70 21:59 16.06.2019
6247 Clear 32 999 53 10000 3.1 100 21:40 16.06.2019
6248 Clear 32 999 53 10000 3.1 100 21:40 16.06.2019
6249 Clouds 33 1000 55 10000 0.5 360 21:21 16.06.2019
6250 Clear 33 999 59 10000 2.1 340 20:56 16.06.2019
6251 Clear 33 999 59 10000 2.1 340 20:37 16.06.2019
6252 Clouds 34 999 52 10000 1.5 310 20:18 16.06.2019
6253 Clear 34 999 67 10000 3.1 330 19:40 16.06.2019
6254 Clouds 35 999 46 10000 2.1 300 19:22 16.06.2019
6255 Clear 35 998 63 10000 2.6 360 18:58 16.06.2019
6256 Clear 35 998 63 10000 2.6 360 18:39 16.06.2019
6257 Clouds 36 999 41 10000 1.5 280 18:20 16.06.2019
6258 Clear 36 997 53 10000 3.6 340 17:46 16.06.2019
6259 Clear 36 997 53 10000 3.6 340 17:22 16.06.2019
6260 Dust 37 998 42 10000 3.6 300 16:57 16.06.2019
6261 Dust 37 997 47 10000 4.6 360 16:57 16.06.2019
6262 Dust 37 997 47 10000 4.6 360 16:38 16.06.2019
6263 Dust 38 997 31 10000 5.1 310 16:20 16.06.2019
6264 Dust 38 997 50 10000 5.1 350 15:42 16.06.2019
6265 Dust 39 997 50 10000 5.1 350 15:23 16.06.2019
6266 Clear 39 997 45 10000 6.7 350 14:44 16.06.2019
6267 Clear 40 997 32 10000 6.2 310 14:23 16.06.2019
6268 Clear 41 997 50 10000 6.2 330 13:52 16.06.2019
6269 Clear 41 997 50 10000 6.2 330 13:27 16.06.2019
6270 Clear 41 998 50 10000 5.7 330 12:57 16.06.2019
6271 Clear 41 998 50 10000 5.7 330 12:38 16.06.2019
6272 Clear 42 998 31 10000 4.1 310 12:19 16.06.2019
6273 Clear 42 999 48 10000 5.1 320 11:45 16.06.2019
6274 Clear 43 999 9 10000 2.1 0 11:20 16.06.2019
6275 Clear 43 999 48 10000 4.6 340 10:45 16.06.2019
6276 Clear 42 1000 11 10000 1.5 0 10:21 16.06.2019
6277 Clear 42 999 40 10000 4.6 360 09:48 16.06.2019
6278 Clear 41 1000 14 10000 1 0 09:26 16.06.2019
6279 Clear 41 999 13 10000 1.5 0 08:59 16.06.2019
6280 Clear 41 999 13 10000 1.5 0 08:38 16.06.2019
6281 Clear 38 1000 22 10000 1.5 0 08:18 16.06.2019
6282 Clouds 37 999 21 9000 1.5 0 07:44 16.06.2019
6283 Clear 35 1000 27 10000 2.1 340 06:59 16.06.2019
6284 Clear 34 999 29 10000 1.5 90 06:37 16.06.2019
6285 Clear 31 999 36 10000 2.6 0 05:47 16.06.2019
6286 Clouds 29 998 46 8000 3.6 110 04:49 16.06.2019
6287 Clouds 30 999 42 9000 2.6 90 03:57 16.06.2019
6288 Clouds 30 999 42 9000 2.6 90 03:57 16.06.2019
6289 Clouds 30 999 42 9000 2.6 90 03:57 16.06.2019
6290 Clear 30 997 49 10000 2.1 220 03:32 16.06.2019
6291 Clear 31 997 35 10000 3.1 0 02:31 16.06.2019
6292 Clear 32 997 44 10000 2.6 340 01:44 16.06.2019
6293 Clear 32 997 44 10000 2.6 340 01:26 16.06.2019
6294 Clear 32 997 26 10000 2.1 30 00:40 16.06.2019
6295 Clouds 33 998 33 9000 1.5 80 00:21 16.06.2019
6296 Clear 33 998 25 10000 2.6 50 23:44 15.06.2019
6297 Clear 33 998 25 10000 2.6 50 23:25 15.06.2019
6298 Clear 33 998 47 10000 1 0 22:50 15.06.2019
6299 Clear 34 998 47 10000 1 0 22:27 15.06.2019
6300 Clear 35 998 35 10000 2.1 200 21:50 15.06.2019
6301 Clear 35 998 35 10000 2.1 200 21:29 15.06.2019
6302 Clouds 36 999 28 10000 1 230 20:59 15.06.2019
6303 Clouds 36 998 31 8000 2.1 30 20:40 15.06.2019
6304 Clouds 36 999 28 10000 1.5 310 20:19 15.06.2019
6305 Clear 36 998 20 10000 2.1 50 19:42 15.06.2019
6306 Clouds 37 999 23 10000 1 0 19:23 15.06.2019
6307 Clear 37 997 31 10000 2.6 350 18:40 15.06.2019
6308 Clear 38 998 24 10000 1.5 320 18:21 15.06.2019
6309 Clear 39 997 31 10000 3.6 340 17:43 15.06.2019
6310 Clear 39 997 31 10000 3.6 340 17:43 15.06.2019
6311 Clear 39 998 16 10000 3.6 310 17:23 15.06.2019
6312 Clear 39 997 45 10000 4.6 340 16:48 15.06.2019
6313 Clear 40 997 18 10000 5.1 310 16:20 15.06.2019
6314 Clear 40 997 26 10000 5.7 320 15:44 15.06.2019
6315 Clear 40 998 26 10000 5.7 300 15:24 15.06.2019
6316 Clear 40 997 42 10000 7.2 340 14:43 15.06.2019
6317 Clear 40 998 32 10000 6.2 300 14:19 15.06.2019
6318 Clear 40 998 32 10000 6.2 300 13:58 15.06.2019
6319 Clear 41 997 51 10000 6.7 340 13:40 15.06.2019
6320 Clear 40 998 30 10000 4.6 310 13:19 15.06.2019
6321 Clear 41 998 63 10000 5.7 350 12:49 15.06.2019
6322 Clear 41 998 63 10000 5.7 350 12:26 15.06.2019
6323 Clear 41 998 51 10000 5.7 340 11:52 15.06.2019
6324 Clear 41 998 51 10000 5.7 340 11:32 15.06.2019
6325 Clear 41 999 33 10000 3.1 260 10:49 15.06.2019
6326 Clear 41 999 33 10000 3.1 260 10:27 15.06.2019
6327 Clear 39 999 42 10000 3.1 260 09:59 15.06.2019
6328 Clear 39 999 42 10000 3.1 260 09:39 15.06.2019
6329 Clear 36 1000 39 10000 4.1 220 09:20 15.06.2019
6330 Clear 36 999 50 10000 3.6 220 08:44 15.06.2019
6331 Clear 36 999 50 10000 3.6 220 08:25 15.06.2019
6332 Clear 33 999 70 10000 2.6 0 07:41 15.06.2019
6333 Clear 31 1000 75 8000 2.6 180 07:20 15.06.2019
6334 Clear 31 1000 75 8000 2.6 180 07:20 15.06.2019
6335 Fog 30 999 75 10000 3.6 190 06:38 15.06.2019
6336 Fog 29 998 79 9000 2.6 210 05:46 15.06.2019
6337 Fog 29 999 100 100 2.6 170 05:18 15.06.2019
6338 Fog 29 997 52 9000 2.1 70 04:31 15.06.2019
6339 Fog 29 997 79 9000 2.1 360 03:38 15.06.2019
6340 Fog 30 997 70 9000 2.1 240 02:47 15.06.2019
6341 Fog 30 998 100 800 2.6 210 01:59 15.06.2019
6342 Fog 30 996 59 10000 2.1 240 01:27 15.06.2019
6343 Clear 31 996 59 10000 1.5 230 00:43 15.06.2019
6344 Clear 33 998 58 10000 1.5 140 00:25 15.06.2019
6345 Clear 33 997 56 10000 2.1 330 23:51 14.06.2019
6346 Clear 33 997 56 10000 2.1 330 23:23 14.06.2019
6347 Clear 33 998 41 10000 1.5 260 22:42 14.06.2019
6348 Clear 34 999 55 10000 1 260 22:21 14.06.2019
6349 Clear 34 998 39 10000 2.6 280 21:49 14.06.2019
6350 Clear 34 998 39 10000 2.6 280 21:29 14.06.2019
6351 Clear 35 999 52 10000 2.6 280 20:58 14.06.2019
6352 Clear 35 998 39 10000 1.5 0 20:39 14.06.2019
6353 Clear 36 999 46 10000 2.1 280 20:18 14.06.2019
6354 Clear 36 998 35 10000 1.5 90 19:42 14.06.2019
6355 Clear 36 998 44 10000 1 0 19:22 14.06.2019
6356 Clear 36 997 35 10000 1.5 50 18:55 14.06.2019
6357 Clear 36 997 35 10000 1.5 50 18:55 14.06.2019
6358 Clear 36 997 35 10000 1.5 50 18:37 14.06.2019
6359 Clear 37 998 41 10000 2.1 300 18:18 14.06.2019
6360 Clear 37 997 37 10000 2.1 340 17:45 14.06.2019
6361 Clear 37 998 39 10000 3.1 0 17:23 14.06.2019
6362 Clear 38 997 42 10000 4.6 320 16:53 14.06.2019
6363 Clear 38 997 42 10000 4.6 320 16:27 14.06.2019
6364 Clear 38 997 33 10000 4.1 300 15:59 14.06.2019
6365 Clear 39 997 35 10000 6.2 320 15:39 14.06.2019
6366 Clear 39 997 29 8000 5.1 300 15:20 14.06.2019
6367 Clear 39 997 29 8000 5.1 300 15:20 14.06.2019
6368 Clear 39 997 29 8000 5.1 300 15:20 14.06.2019
6369 Clear 39 997 40 10000 6.7 310 14:48 14.06.2019
6370 Clear 39 997 40 10000 6.7 310 14:29 14.06.2019
6371 Clouds 39 997 50 9000 6.7 320 13:49 14.06.2019
6372 Clouds 39 997 50 9000 6.7 320 13:30 14.06.2019
6373 Clouds 39 998 60 8000 6.7 320 12:59 14.06.2019
6374 Clouds 39 998 60 8000 6.7 320 12:39 14.06.2019
6375 Clear 41 998 36 8000 5.7 280 12:21 14.06.2019
6376 Clouds 42 998 43 8000 6.2 300 11:43 14.06.2019
6377 Clear 42 999 10 10000 6.2 220 11:23 14.06.2019
6378 Clouds 42 998 30 9000 4.1 290 10:50 14.06.2019
6379 Clouds 42 998 30 9000 4.1 290 10:22 14.06.2019
6380 Clear 42 999 21 10000 5.7 250 09:56 14.06.2019
6381 Clear 42 999 21 10000 5.7 250 09:34 14.06.2019
6382 Clear 40 1000 15 10000 7.7 190 08:56 14.06.2019
6383 Clear 40 999 24 10000 5.1 260 08:38 14.06.2019
6384 Clear 38 999 15 10000 7.7 180 08:18 14.06.2019
6385 Clear 38 999 27 10000 4.6 220 07:43 14.06.2019
6386 Clear 36 999 18 10000 6.7 180 07:19 14.06.2019
6387 Clear 35 999 30 10000 4.1 190 06:27 14.06.2019
6388 Clouds 32 998 41 8000 2.6 230 05:53 14.06.2019
6389 Clouds 32 998 41 8000 3.6 180 04:56 14.06.2019
6390 Clouds 32 998 41 8000 3.6 180 04:31 14.06.2019
6391 Clear 31 997 46 10000 2.1 210 03:46 14.06.2019
6392 Clear 31 997 46 10000 2.1 210 03:23 14.06.2019
6393 Clear 32 997 34 10000 2.6 320 02:43 14.06.2019
6394 Clear 32 996 28 10000 2.6 350 01:54 14.06.2019
6395 Clear 33 997 28 10000 1 0 00:45 14.06.2019
6396 Clouds 34 998 29 10000 0.5 210 00:22 14.06.2019
6397 Clear 34 997 37 10000 1.5 230 23:52 13.06.2019
6398 Clear 34 997 37 10000 1.5 230 23:26 13.06.2019
6399 Clouds 34 998 29 10000 1 0 22:58 13.06.2019
6400 Clear 34 998 30 10000 2.1 220 22:38 13.06.2019
6401 Clouds 36 999 28 10000 1 200 22:19 13.06.2019
6402 Clear 36 998 16 10000 1.5 70 21:38 13.06.2019
6403 Clear 36 999 28 10000 1 240 21:19 13.06.2019
6404 Clear 36 998 20 10000 2.6 30 20:45 13.06.2019
6405 Clear 37 999 28 10000 0.5 330 20:21 13.06.2019
6406 Clear 37 998 13 10000 3.1 30 19:55 13.06.2019
6407 Clear 37 998 13 10000 3.1 30 19:36 13.06.2019
6408 Clear 37 998 26 10000 1 320 19:18 13.06.2019
6409 Clear 37 997 20 10000 2.1 30 18:43 13.06.2019
6410 Clear 38 997 20 10000 2.1 30 18:25 13.06.2019
6411 Clear 39 997 19 10000 4.1 40 17:57 13.06.2019
6412 Clear 39 997 19 10000 4.1 40 17:38 13.06.2019
6413 Clouds 40 997 26 9000 3.1 10 17:19 13.06.2019
6414 Clear 40 997 26 10000 3.6 10 16:44 13.06.2019
6415 Clouds 40 997 28 10000 3.6 330 16:21 13.06.2019
6416 Clear 40 997 39 10000 6.2 360 15:43 13.06.2019
6417 Clear 40 997 39 10000 6.2 360 15:25 13.06.2019
6418 Clear 41 997 21 7000 6.7 300 14:56 13.06.2019
6419 Clear 41 996 35 9000 6.7 330 14:38 13.06.2019
6420 Clear 41 997 23 10000 6.7 300 14:19 13.06.2019
6421 Clear 42 997 24 9000 8.2 330 13:40 13.06.2019
6422 Clear 42 997 20 10000 5.7 290 13:21 13.06.2019
6423 Clear 42 997 20 10000 5.7 290 13:21 13.06.2019
6424 Clear 43 997 25 8000 7.7 280 12:42 13.06.2019
6425 Clear 44 998 17 10000 5.7 290 12:22 13.06.2019
6426 Clear 44 998 17 10000 5.7 290 11:56 13.06.2019
6427 Clear 44 998 26 9000 6.2 320 11:37 13.06.2019
6428 Clear 45 999 7 10000 4.1 200 11:18 13.06.2019
6429 Clear 45 999 18 8000 2.6 290 10:43 13.06.2019
6430 Clear 45 999 18 8000 2.6 290 10:23 13.06.2019
6431 Clear 44 999 18 8000 4.6 230 09:43 13.06.2019
6432 Clear 43 999 18 8000 4.6 230 09:23 13.06.2019
6433 Clear 43 999 18 8000 4.6 230 09:23 13.06.2019
6434 Clear 43 999 18 8000 4.6 230 09:23 13.06.2019
6435 Clear 42 999 26 7000 3.1 220 08:48 13.06.2019
6436 Clear 41 999 26 7000 3.1 220 08:28 13.06.2019
6437 Clear 40 999 17 8000 3.6 0 07:53 13.06.2019
6438 Clear 40 999 17 8000 3.6 0 07:25 13.06.2019
6439 Clear 37 999 25 8000 3.1 200 06:51 13.06.2019
6440 Clear 36 999 25 8000 3.1 200 06:24 13.06.2019
6441 Clear 32 998 30 10000 2.1 120 05:55 13.06.2019
6442 Clear 32 998 30 10000 2.1 120 05:37 13.06.2019
6443 Clear 30 997 32 10000 2.1 110 04:57 13.06.2019
6444 Clear 31 997 44 10000 3.1 90 02:33 13.06.2019
6445 Clear 32 997 47 10000 2.1 70 00:55 13.06.2019
6446 Clear 32 997 47 10000 2.1 70 00:22 13.06.2019
6447 Clear 33 999 62 9000 1.5 0 23:24 12.06.2019
6448 Clear 33 998 53 10000 2.1 30 22:45 12.06.2019
6449 Clear 33 998 53 10000 2.1 30 22:26 12.06.2019
6450 Clear 34 999 62 10000 2.1 330 21:57 12.06.2019
6451 Clear 34 999 53 10000 2.1 350 21:38 12.06.2019
6452 Clouds 34 999 63 10000 2.6 310 21:19 12.06.2019
6453 Clear 34 998 63 10000 3.1 330 20:40 12.06.2019
6454 Clear 35 998 63 10000 3.1 330 20:21 12.06.2019
6455 Clear 37 997 56 10000 5.7 330 19:42 12.06.2019
6456 Clouds 39 998 17 10000 2.1 310 19:23 12.06.2019
6457 Clear 40 997 14 10000 2.1 60 18:58 12.06.2019
6458 Clear 40 997 14 10000 2.1 60 18:39 12.06.2019
6459 Clouds 41 997 14 10000 2.1 330 18:20 12.06.2019
6460 Clear 41 996 14 10000 3.6 40 17:44 12.06.2019
6461 Clouds 42 997 13 10000 3.1 0 17:21 12.06.2019
6462 Clear 42 996 14 10000 3.6 30 16:42 12.06.2019
6463 Clouds 43 996 12 10000 4.1 0 16:24 12.06.2019
6464 Clouds 43 996 12 10000 4.1 0 15:56 12.06.2019
6465 Clear 43 996 14 10000 4.6 360 15:32 12.06.2019
6466 Clear 43 996 17 10000 5.7 350 14:50 12.06.2019
6467 Clear 43 996 17 10000 5.7 350 14:30 12.06.2019
6468 Clear 43 996 22 10000 6.7 330 13:55 12.06.2019
6469 Clear 43 996 22 10000 6.7 330 13:37 12.06.2019
6470 Clear 44 996 12 10000 6.2 300 13:18 12.06.2019
6471 Clear 44 996 20 10000 5.1 10 12:39 12.06.2019
6472 Clear 45 997 11 10000 5.1 0 12:19 12.06.2019
6473 Clear 45 997 24 10000 5.1 330 11:47 12.06.2019
6474 Clear 45 997 24 10000 5.1 330 11:29 12.06.2019
6475 Clear 45 998 25 10000 5.1 330 10:54 12.06.2019
6476 Clear 45 998 25 10000 5.1 330 10:35 12.06.2019
6477 Clear 45 999 7 10000 1 0 09:59 12.06.2019
6478 Clear 45 998 12 10000 2.6 20 09:40 12.06.2019
6479 Clear 43 999 7 10000 3.6 80 09:18 12.06.2019
6480 Clear 43 999 16 10000 3.6 70 08:26 12.06.2019
6481 Clear 41 999 15 10000 3.1 50 07:52 12.06.2019
6482 Clear 37 999 22 10000 2.6 90 06:57 12.06.2019
6483 Clear 36 999 22 10000 2.6 90 06:29 12.06.2019
6484 Clear 33 998 27 10000 2.1 150 05:25 12.06.2019
6485 Clear 32 998 48 10000 1 80 02:20 12.06.2019
6486 Clear 32 998 47 10000 2.6 130 00:41 12.06.2019
6487 Clear 32 998 37 10000 2.1 110 23:53 11.06.2019
6488 Clear 32 998 37 10000 2.1 110 23:35 11.06.2019
6489 Clear 34 998 37 10000 2.6 110 22:45 11.06.2019
6490 Clear 34 998 37 10000 2.6 110 22:45 11.06.2019
6491 Clear 34 999 46 10000 0.5 230 22:24 11.06.2019
6492 Clear 34 999 46 10000 0.5 230 21:59 11.06.2019
6493 Clear 34 999 47 10000 2.6 340 21:40 11.06.2019
6494 Clear 35 999 49 10000 2.1 320 21:22 11.06.2019
6495 Clear 35 999 44 10000 4.1 330 20:50 11.06.2019
6496 Clear 35 999 44 10000 4.1 330 20:28 11.06.2019
6497 Clear 35 998 50 10000 3.1 350 19:58 11.06.2019
6498 Clear 35 998 50 10000 3.1 350 19:40 11.06.2019
6499 Clear 35 998 50 10000 3.1 350 19:39 11.06.2019
6500 Clear 35 998 50 10000 3.1 350 19:38 11.06.2019
6501 -273 0 0 0 0 0 18:59 11.06.2019
6502 Clear 37 997 44 10000 3.6 340 18:57 11.06.2019
6503 Clear 38 998 39 10000 2.1 300 18:23 11.06.2019
6504 Clear 38 997 39 10000 4.1 350 17:42 11.06.2019
6505 Clear 39 997 29 6000 4.6 310 17:24 11.06.2019
6506 Clear 39 997 29 6000 4.6 310 16:59 11.06.2019
6507 Clear 39 997 40 10000 5.1 330 16:40 11.06.2019
6508 Dust 40 997 30 6000 4.6 320 16:22 11.06.2019
6509 Dust 41 997 40 10000 4.6 330 15:42 11.06.2019
6510 Dust 41 997 40 10000 4.6 330 15:42 11.06.2019
6511 Dust 41 997 40 10000 4.6 330 15:24 11.06.2019
6512 Dust 41 997 36 10000 4.6 340 14:52 11.06.2019
6513 Dust 42 997 23 6000 5.1 0 14:23 11.06.2019
6514 Dust 42 997 38 10000 5.1 350 13:55 11.06.2019
6515 Dust 42 997 38 10000 5.1 350 13:36 11.06.2019
6516 Clear 41 998 24 6000 5.7 320 13:18 11.06.2019
6517 Clear 41 998 36 10000 4.6 350 12:40 11.06.2019
6518 Clear 40 999 27 6000 4.6 320 12:20 11.06.2019
6519 Clear 40 998 42 8000 6.7 340 11:40 11.06.2019
6520 Clear 40 998 42 8000 6.7 340 11:40 11.06.2019
6521 Clear 39 999 34 6000 4.6 320 11:19 11.06.2019
6522 Clear 39 999 50 8000 5.1 350 10:46 11.06.2019
6523 Clear 39 999 50 8000 5.1 350 10:46 11.06.2019
6524 Clear 39 999 50 8000 5.1 350 10:26 11.06.2019
6525 Clear 38 999 60 7000 7.2 310 09:49 11.06.2019
6526 Clear 39 1000 20 6000 3.1 320 09:24 11.06.2019
6527 Clear 39 999 50 7000 5.1 330 08:46 11.06.2019
6528 Clear 39 999 50 7000 5.1 330 08:28 11.06.2019
6529 Clear 38 999 42 7000 7.2 320 07:46 11.06.2019
6530 Clear 38 999 42 7000 7.2 320 07:27 11.06.2019
6531 Clear 35 999 41 7000 1.5 0 06:50 11.06.2019
6532 Dust 31 998 59 5000 2.1 220 04:56 11.06.2019
6533 Haze 31 998 46 9000 2.1 180 03:43 11.06.2019
6534 Haze 30 998 56 7000 2.6 50 01:41 11.06.2019
6535 Haze 31 998 56 7000 2.1 130 00:48 11.06.2019
6536 Clear 31 999 59 7000 2.6 70 23:50 10.06.2019
6537 Clear 31 999 59 7000 2.6 70 23:32 10.06.2019
6538 Haze 31 1000 74 3600 3.1 60 22:56 10.06.2019
6539 Haze 31 999 56 7000 2.6 100 22:38 10.06.2019
6540 Clear 32 1000 66 5000 0.5 180 22:19 10.06.2019
6541 Clear 32 999 39 10000 2.1 30 21:41 10.06.2019
6542 Clear 32 999 39 10000 2.1 30 21:22 10.06.2019
6543 Clear 33 999 47 9000 1.5 320 20:46 10.06.2019
6544 Clear 33 999 47 9000 1.5 320 20:25 10.06.2019
6545 Clear 33 1000 66 7000 1 300 19:56 10.06.2019
6546 Clear 33 999 59 8000 1.5 40 19:36 10.06.2019
6547 Clear 34 1000 66 7000 0.5 320 19:18 10.06.2019
6548 Clear 34 999 63 7000 3.1 340 18:55 10.06.2019
6549 Clear 34 999 63 7000 3.1 340 18:36 10.06.2019
6550 Clear 35 999 63 6000 2.1 300 18:18 10.06.2019
6551 Clear 35 998 63 6000 4.6 310 17:39 10.06.2019
6552 Clear 36 999 53 6000 4.1 300 17:20 10.06.2019
6553 Clear 36 998 53 6000 4.1 320 16:44 10.06.2019
6554 Clear 36 998 53 6000 4.1 320 16:25 10.06.2019
6555 Clear 37 998 47 6000 6.7 330 15:42 10.06.2019
6556 Clear 37 998 47 6000 6.7 330 15:24 10.06.2019
6557 Clear 38 998 37 6000 6.2 300 14:58 10.06.2019
6558 Clouds 38 998 47 7000 6.7 310 14:38 10.06.2019
6559 Clear 39 999 31 6000 6.2 290 14:20 10.06.2019
6560 Clouds 39 998 42 7000 6.2 320 13:43 10.06.2019
6561 Clear 39 999 30 6000 5.7 310 13:21 10.06.2019
6562 Clear 39 999 42 6000 6.7 320 12:44 10.06.2019
6563 Haze 40 999 28 6000 4.6 290 12:25 10.06.2019
6564 Haze 40 999 37 7000 4.6 320 11:44 10.06.2019
6565 Haze 40 1000 23 6000 3.6 300 11:26 10.06.2019
6566 Haze 40 1000 31 7000 4.1 330 10:43 10.06.2019
6567 Haze 39 1001 28 6000 3.6 300 10:21 10.06.2019
6568 Haze 39 1001 28 6000 3.6 300 09:57 10.06.2019
6569 Haze 39 1000 37 6000 5.1 320 09:38 10.06.2019
6570 Haze 39 1001 21 6000 2.1 290 09:19 10.06.2019
6571 Haze 38 1001 29 7000 1.5 0 08:45 10.06.2019
6572 Haze 35 1001 32 3500 1.5 240 08:25 10.06.2019
6573 Dust 32 1001 49 3500 2.6 220 07:20 10.06.2019
6574 Haze 28 1000 70 3500 2.1 220 04:30 10.06.2019
6575 Haze 30 1000 69 4400 1.5 0 01:59 10.06.2019
6576 Haze 30 1000 69 4400 1.5 0 01:59 10.06.2019
6577 Haze 29 999 66 6000 2.1 130 01:26 10.06.2019
6578 Clear 30 1000 74 5000 0.5 90 00:58 10.06.2019
6579 Clear 30 1000 69 5000 0.5 120 00:20 10.06.2019
6580 Clear 30 1000 59 8000 3.6 100 23:43 09.06.2019
6581 Clear 31 1001 66 7000 1 90 23:20 09.06.2019
6582 Clear 31 1000 52 10000 1.5 30 22:45 09.06.2019
6583 Clear 31 1000 52 10000 1.5 30 22:25 09.06.2019
6584 Clear 31 1001 49 10000 2.6 320 21:45 09.06.2019
6585 Clear 31 1001 49 10000 2.6 320 21:23 09.06.2019
6586 Clear 32 1001 56 10000 3.1 360 20:43 09.06.2019
6587 Clear 33 1002 62 9000 1.5 260 20:23 09.06.2019
6588 Clear 33 1001 56 8000 1.5 0 19:48 09.06.2019
6589 Clear 33 1001 59 10000 1.5 310 19:19 09.06.2019
6590 Clear 33 1001 59 10000 1.5 310 19:19 09.06.2019
6591 Clear 33 1001 59 10000 1.5 310 18:59 09.06.2019
6592 Clear 33 1000 56 8000 3.1 330 18:41 09.06.2019
6593 Dust 34 1001 55 6000 3.1 310 18:23 09.06.2019
6594 Dust 34 1000 59 5000 4.1 320 17:46 09.06.2019
6595 Dust 34 1000 59 5000 4.1 320 17:27 09.06.2019
6596 Dust 35 1000 53 5000 5.7 320 16:54 09.06.2019
6597 Dust 35 1000 53 5000 5.7 320 16:36 09.06.2019
6598 Dust 36 1001 47 6000 6.2 300 16:18 09.06.2019
6599 Dust 36 1000 56 4500 6.2 310 15:44 09.06.2019
6600 Dust 37 1000 56 4500 6.2 310 15:24 09.06.2019
6601 Clear 38 1000 42 6000 5.7 320 14:45 09.06.2019
6602 Clear 38 1000 42 6000 5.7 320 14:22 09.06.2019
6603 Clear 39 1001 39 6000 7.2 320 13:52 09.06.2019
6604 Clear 39 1001 39 6000 7.2 320 13:26 09.06.2019
6605 Clear 40 1001 37 6000 6.2 310 12:42 09.06.2019
6606 Clouds 40 1001 37 6000 6.2 310 12:23 09.06.2019
6607 Clouds 40 1002 33 6000 5.1 310 11:40 09.06.2019
6608 Clear 41 1003 11 10000 2.6 240 11:21 09.06.2019
6609 Clear 41 1003 28 6000 4.1 290 10:46 09.06.2019
6610 Clear 40 1004 13 10000 3.6 270 10:23 09.06.2019
6611 Clear 40 1003 20 7000 2.1 0 09:41 09.06.2019
6612 Clear 40 1003 20 7000 2.1 0 09:23 09.06.2019
6613 Clear 39 1003 24 6000 2.6 0 08:55 09.06.2019
6614 Clear 39 1003 24 6000 2.6 0 08:36 09.06.2019
6615 Clear 36 1003 30 6000 2.1 0 07:28 09.06.2019
6616 Clear 33 1003 32 6000 1 0 06:30 09.06.2019
6617 Clear 33 1003 32 6000 1 0 06:30 09.06.2019
6618 Clear 29 1003 29 7000 1 0 05:28 09.06.2019
6619 Clear 29 1003 29 7000 1 0 05:28 09.06.2019
6620 Clear 30 1002 34 8000 2.1 170 01:46 09.06.2019
6621 Clear 30 1003 32 8000 0.5 90 01:22 09.06.2019
6622 Clear 30 1003 32 8000 0.5 90 01:21 09.06.2019
6623 Clear 30 1002 46 8000 2.6 210 00:59 09.06.2019
6624 Clear 31 1003 30 9000 0.5 180 23:56 08.06.2019
6625 Clear 31 1002 41 8000 1.5 240 23:38 08.06.2019
6626 Clear 32 1003 32 9000 0.5 90 23:19 08.06.2019
6627 Clear 32 1003 39 8000 1.5 210 22:42 08.06.2019
6628 Clear 32 1003 39 8000 1.5 210 22:23 08.06.2019
6629 Clear 32 1003 39 10000 1.5 230 21:52 08.06.2019
6630 Clear 32 1003 39 10000 1.5 230 21:29 08.06.2019
6631 Clear 33 1004 38 10000 0.5 230 20:58 08.06.2019
6632 Clear 33 1004 37 10000 1.5 230 20:40 08.06.2019
6633 Clear 34 1004 33 10000 1 250 20:19 08.06.2019
6634 Clear 34 1004 34 8000 1.5 180 19:40 08.06.2019
6635 Clear 35 1004 30 10000 1 310 19:20 08.06.2019
6636 Clear 35 1003 41 8000 2.1 40 18:56 08.06.2019
6637 Clear 35 1003 41 8000 2.1 40 18:35 08.06.2019
6638 Clear 36 1004 26 9000 2.6 310 17:57 08.06.2019
6639 Clear 36 1003 39 6000 3.6 330 17:38 08.06.2019
6640 Clear 37 1004 22 10000 4.6 320 17:18 08.06.2019
6641 Clear 37 1003 30 7000 5.1 340 16:38 08.06.2019
6642 Clear 38 1004 17 10000 5.1 320 16:18 08.06.2019
6643 Clear 38 1003 32 7000 5.7 330 15:38 08.06.2019
6644 Clear 40 1003 21 8000 7.2 320 14:53 08.06.2019
6645 Clear 40 1003 21 8000 7.2 320 14:31 08.06.2019
6646 Clear 40 1004 15 10000 7.2 310 13:56 08.06.2019
6647 Clear 40 1004 29 10000 7.2 330 13:24 08.06.2019
6648 Clear 42 1004 15 10000 6.7 320 12:45 08.06.2019
6649 Clear 43 1004 11 10000 5.7 290 12:19 08.06.2019
6650 Clear 43 1004 13 10000 5.1 280 11:40 08.06.2019
6651 Clear 42 1005 11 10000 4.1 280 11:21 08.06.2019
6652 Clear 42 1005 13 10000 3.1 280 10:44 08.06.2019
6653 Clear 41 1005 11 10000 3.6 270 10:22 08.06.2019
6654 Clear 41 1005 28 10000 3.6 320 09:43 08.06.2019
6655 Clear 41 1006 11 10000 3.1 280 08:59 08.06.2019
6656 Clear 41 1006 14 10000 2.6 0 08:28 08.06.2019
6657 Clear 38 1006 22 10000 1.5 200 07:47 08.06.2019
6658 Clear 38 1006 22 10000 1.5 200 07:47 08.06.2019
6659 Clear 35 1005 28 10000 1.5 130 06:48 08.06.2019
6660 Clear 29 1005 44 10000 1 130 04:19 08.06.2019
6661 Clear 29 1005 47 10000 1 0 02:57 08.06.2019
6662 Clear 30 1004 38 10000 1.5 60 00:58 08.06.2019
6663 Clear 30 1005 37 10000 0.5 140 00:25 08.06.2019
6664 Clear 30 1004 36 10000 2.6 100 23:41 07.06.2019
6665 Clear 32 1005 33 10000 1 110 23:19 07.06.2019
6666 Clear 31 1005 34 10000 2.6 70 22:36 07.06.2019
6667 Clear 32 1005 31 10000 0.5 70 21:58 07.06.2019
6668 Clear 32 1005 32 10000 1.5 170 21:40 07.06.2019
6669 Clear 33 1006 29 10000 1 160 21:21 07.06.2019
6670 Clear 33 1005 30 10000 1.5 150 20:53 07.06.2019
6671 Clear 33 1005 30 10000 1.5 150 20:35 07.06.2019
6672 Clear 34 1005 25 10000 2.1 140 19:46 07.06.2019
6673 Clear 35 1006 26 10000 0.5 360 19:20 07.06.2019
6674 Clear 35 1004 30 10000 1.5 0 18:47 07.06.2019
6675 Clear 35 1004 30 10000 1.5 0 18:28 07.06.2019
6676 Clear 36 1004 37 10000 4.6 340 17:47 07.06.2019
6677 Clear 37 1005 25 10000 3.6 320 17:24 07.06.2019
6678 Clear 37 1004 30 10000 6.7 340 16:48 07.06.2019
6679 Clear 37 1004 30 10000 6.7 340 16:29 07.06.2019
6680 Dust 38 1004 27 10000 7.2 320 15:50 07.06.2019
6681 Dust 38 1004 27 10000 7.2 320 15:21 07.06.2019
6682 Dust 39 1004 35 10000 6.7 320 14:46 07.06.2019
6683 Dust 39 1004 35 10000 6.7 320 14:23 07.06.2019
6684 Dust 40 1004 26 10000 7.2 360 13:39 07.06.2019
6685 Dust 39 1004 13 8000 7.2 310 13:20 07.06.2019
6686 Dust 40 1004 26 10000 7.7 340 12:41 07.06.2019
6687 Clear 41 1005 19 8000 6.7 310 12:19 07.06.2019
6688 Clear 41 1005 23 10000 7.7 330 11:41 07.06.2019
6689 Clear 42 1005 16 10000 5.1 310 11:22 07.06.2019
6690 Clear 42 1005 31 10000 6.2 320 10:48 07.06.2019
6691 Clear 42 1005 31 10000 6.2 320 10:22 07.06.2019
6692 Clear 43 1005 23 10000 4.1 330 09:50 07.06.2019
6693 Clear 42 1005 23 10000 4.1 330 09:28 07.06.2019
6694 Clear 41 1005 21 10000 3.6 300 08:55 07.06.2019
6695 Clear 41 1005 21 10000 3.6 300 08:28 07.06.2019
6696 Clear 38 1005 25 10000 3.1 210 07:55 07.06.2019
6697 Clear 35 1005 21 10000 5.1 160 07:23 07.06.2019
6698 Clear 35 1005 23 10000 2.6 190 06:49 07.06.2019
6699 Clear 35 1005 23 10000 2.6 190 06:27 07.06.2019
6700 Clear 31 1005 35 10000 2.6 180 05:45 07.06.2019
6701 Clear 29 1005 37 10000 1 110 02:58 07.06.2019
6702 Clear 29 1004 41 10000 2.1 140 01:39 07.06.2019
6703 Clear 30 1003 46 10000 1 0 00:48 07.06.2019
6704 Clear 30 1003 46 10000 1 0 00:48 07.06.2019
6705 Clear 31 1004 48 10000 1 200 00:20 07.06.2019
6706 Clear 31 1004 44 10000 1 0 23:41 06.06.2019
6707 Clear 31 1005 45 10000 1.5 80 23:19 06.06.2019
6708 Clear 31 1004 46 10000 2.6 110 22:38 06.06.2019
6709 Clear 31 1005 42 10000 1.5 40 22:19 06.06.2019
6710 Clear 31 1005 42 10000 1.5 40 21:55 06.06.2019
6711 Clear 32 1005 41 10000 2.6 150 21:37 06.06.2019
6712 Clear 32 1006 38 10000 1 60 21:18 06.06.2019
6713 Clear 33 1005 36 10000 1.5 20 20:40 06.06.2019
6714 Clear 33 1005 36 10000 1 330 20:21 06.06.2019
6715 Clear 33 1004 41 10000 2.6 330 19:38 06.06.2019
6716 Clear 34 1005 32 10000 1.5 320 19:19 06.06.2019
6717 Clear 34 1004 41 10000 3.1 360 18:44 06.06.2019
6718 Clear 35 1004 41 10000 3.1 360 18:25 06.06.2019
6719 Clear 36 1004 47 10000 3.1 360 17:56 06.06.2019
6720 Clear 36 1004 47 10000 3.1 360 17:38 06.06.2019
6721 Dust 37 1004 29 10000 4.1 330 17:20 06.06.2019
6722 Dust 37 1003 44 10000 7.7 340 16:41 06.06.2019
6723 Dust 38 1003 44 10000 7.7 340 16:21 06.06.2019
6724 Dust 38 1003 39 10000 8.7 330 15:46 06.06.2019
6725 Dust 40 1003 23 7000 7.7 310 15:25 06.06.2019
6726 Dust 40 1003 42 10000 8.7 340 14:46 06.06.2019
6727 Dust 41 1003 20 7000 7.2 300 14:20 06.06.2019
6728 Dust 41 1003 26 10000 7.7 320 13:53 06.06.2019
6729 Dust 41 1003 26 10000 7.7 320 13:30 06.06.2019
6730 Dust 42 1003 28 10000 7.7 320 12:55 06.06.2019
6731 Dust 42 1003 28 10000 7.7 320 12:37 06.06.2019
6732 Clear 43 1004 9 10000 3.1 360 12:18 06.06.2019
6733 Clear 43 1004 28 10000 7.7 330 11:41 06.06.2019
6734 Clear 44 1005 11 10000 1.5 0 11:22 06.06.2019
6735 Clear 44 1004 16 10000 2.6 200 10:47 06.06.2019
6736 Clear 44 1004 16 10000 2.6 200 10:27 06.06.2019
6737 Clear